﻿<?xml version="1.0" encoding="UTF-8" standalone="no" ?>
<gpx xmlns="http://www.topografix.com/GPX/1/1" creator="CompeGPS" version="1.1" xmlns:xsi="http://www.w3.org/2001/XMLSchema-instance" xsi:schemaLocation="http://www.topografix.com/GPX/1/1 http://www.topografix.com/GPX/1/1/gpx.xsd http://www.garmin.com/xmlschemas/GpxExtensions/v3 http://www.garmin.com/xmlschemas/GpxExtensionsv3.xsd http://www.garmin.com/xmlschemas/TrackPointExtension/v1 http://www.garmin.com/xmlschemas/TrackPointExtensionv1.xsd" xmlns:gpxtpx="http://www.garmin.com/xmlschemas/TrackPointExtension/v1">
  <metadata>
    <link href="http://www.compegps.com">
      <text>CompeGPS TEAM, SL</text>
    </link>
    <time>2014-06-30T01:57:56Z</time>
    <bounds maxlat="37.956919" maxlon="-118.966287" minlat="37.647192" minlon="-119.119436"/>
  </metadata>
  <trk>
    <name>Jour_26</name>
    <trkseg>
      <trkpt lat="37.647192" lon="-118.966287">
        <ele>2396.6</ele>
        <time>2014-06-29T16:06:11Z</time>
        <sat>10</sat>
      </trkpt>
      <trkpt lat="37.647192" lon="-118.966287">
        <ele>2396.7</ele>
        <time>2014-06-29T16:06:12Z</time>
        <sat>10</sat>
      </trkpt>
      <trkpt lat="37.647212" lon="-118.966433">
        <ele>2396.4</ele>
        <time>2014-06-29T16:06:45Z</time>
        <sat>11</sat>
      </trkpt>
      <trkpt lat="37.647223" lon="-118.966548">
        <ele>2396.9</ele>
        <time>2014-06-29T16:06:48Z</time>
        <sat>11</sat>
      </trkpt>
      <trkpt lat="37.647240" lon="-118.966700">
        <ele>2396.9</ele>
        <time>2014-06-29T16:06:52Z</time>
        <sat>11</sat>
      </trkpt>
      <trkpt lat="37.647268" lon="-118.966815">
        <ele>2397.3</ele>
        <time>2014-06-29T16:06:55Z</time>
        <sat>10</sat>
      </trkpt>
      <trkpt lat="37.647297" lon="-118.966923">
        <ele>2397.8</ele>
        <time>2014-06-29T16:06:58Z</time>
        <sat>10</sat>
      </trkpt>
      <trkpt lat="37.647355" lon="-118.967053">
        <ele>2398.1</ele>
        <time>2014-06-29T16:07:02Z</time>
        <sat>10</sat>
      </trkpt>
      <trkpt lat="37.647397" lon="-118.967177">
        <ele>2398.1</ele>
        <time>2014-06-29T16:07:06Z</time>
        <sat>10</sat>
      </trkpt>
      <trkpt lat="37.647392" lon="-118.967300">
        <ele>2398.4</ele>
        <time>2014-06-29T16:07:20Z</time>
        <sat>11</sat>
      </trkpt>
      <trkpt lat="37.647425" lon="-118.967445">
        <ele>2398.4</ele>
        <time>2014-06-29T16:07:24Z</time>
        <sat>10</sat>
      </trkpt>
      <trkpt lat="37.647437" lon="-118.967568">
        <ele>2398.6</ele>
        <time>2014-06-29T16:07:27Z</time>
        <sat>10</sat>
      </trkpt>
      <trkpt lat="37.647453" lon="-118.967683">
        <ele>2398.7</ele>
        <time>2014-06-29T16:07:30Z</time>
        <sat>11</sat>
      </trkpt>
      <trkpt lat="37.647462" lon="-118.967805">
        <ele>2399.1</ele>
        <time>2014-06-29T16:07:33Z</time>
        <sat>11</sat>
      </trkpt>
      <trkpt lat="37.647485" lon="-118.967927">
        <ele>2399.1</ele>
        <time>2014-06-29T16:07:36Z</time>
        <sat>9</sat>
      </trkpt>
      <trkpt lat="37.647495" lon="-118.968052">
        <ele>2399.6</ele>
        <time>2014-06-29T16:07:39Z</time>
        <sat>11</sat>
      </trkpt>
      <trkpt lat="37.647512" lon="-118.968200">
        <ele>2400.1</ele>
        <time>2014-06-29T16:07:43Z</time>
        <sat>11</sat>
      </trkpt>
      <trkpt lat="37.647557" lon="-118.968338">
        <ele>2400.6</ele>
        <time>2014-06-29T16:07:47Z</time>
        <sat>11</sat>
      </trkpt>
      <trkpt lat="37.647603" lon="-118.968438">
        <ele>2400.9</ele>
        <time>2014-06-29T16:07:50Z</time>
        <sat>11</sat>
      </trkpt>
      <trkpt lat="37.647642" lon="-118.968542">
        <ele>2400.7</ele>
        <time>2014-06-29T16:07:53Z</time>
        <sat>11</sat>
      </trkpt>
      <trkpt lat="37.647673" lon="-118.968652">
        <ele>2400.7</ele>
        <time>2014-06-29T16:07:56Z</time>
        <sat>11</sat>
      </trkpt>
      <trkpt lat="37.647708" lon="-118.968793">
        <ele>2400.8</ele>
        <time>2014-06-29T16:08:00Z</time>
        <sat>10</sat>
      </trkpt>
      <trkpt lat="37.647743" lon="-118.968928">
        <ele>2401.0</ele>
        <time>2014-06-29T16:08:04Z</time>
        <sat>11</sat>
      </trkpt>
      <trkpt lat="37.647777" lon="-118.969067">
        <ele>2401.4</ele>
        <time>2014-06-29T16:08:08Z</time>
        <sat>10</sat>
      </trkpt>
      <trkpt lat="37.647807" lon="-118.969197">
        <ele>2401.9</ele>
        <time>2014-06-29T16:08:12Z</time>
        <sat>10</sat>
      </trkpt>
      <trkpt lat="37.647840" lon="-118.969310">
        <ele>2401.9</ele>
        <time>2014-06-29T16:08:16Z</time>
        <sat>11</sat>
      </trkpt>
      <trkpt lat="37.647868" lon="-118.969433">
        <ele>2402.0</ele>
        <time>2014-06-29T16:08:20Z</time>
        <sat>11</sat>
      </trkpt>
      <trkpt lat="37.647895" lon="-118.969562">
        <ele>2402.8</ele>
        <time>2014-06-29T16:08:24Z</time>
        <sat>11</sat>
      </trkpt>
      <trkpt lat="37.647938" lon="-118.969698">
        <ele>2403.2</ele>
        <time>2014-06-29T16:08:28Z</time>
        <sat>10</sat>
      </trkpt>
      <trkpt lat="37.647962" lon="-118.969818">
        <ele>2403.5</ele>
        <time>2014-06-29T16:08:32Z</time>
        <sat>11</sat>
      </trkpt>
      <trkpt lat="37.647980" lon="-118.969942">
        <ele>2403.9</ele>
        <time>2014-06-29T16:08:36Z</time>
        <sat>10</sat>
      </trkpt>
      <trkpt lat="37.648002" lon="-118.970070">
        <ele>2404.1</ele>
        <time>2014-06-29T16:08:40Z</time>
        <sat>10</sat>
      </trkpt>
      <trkpt lat="37.648028" lon="-118.970202">
        <ele>2404.3</ele>
        <time>2014-06-29T16:08:44Z</time>
        <sat>10</sat>
      </trkpt>
      <trkpt lat="37.648065" lon="-118.970330">
        <ele>2405.3</ele>
        <time>2014-06-29T16:08:48Z</time>
        <sat>10</sat>
      </trkpt>
      <trkpt lat="37.648127" lon="-118.970612">
        <ele>2406.1</ele>
        <time>2014-06-29T16:08:56Z</time>
        <sat>11</sat>
      </trkpt>
      <trkpt lat="37.648158" lon="-118.970738">
        <ele>2406.0</ele>
        <time>2014-06-29T16:09:00Z</time>
        <sat>10</sat>
      </trkpt>
      <trkpt lat="37.648182" lon="-118.970868">
        <ele>2406.3</ele>
        <time>2014-06-29T16:09:04Z</time>
        <sat>11</sat>
      </trkpt>
      <trkpt lat="37.648205" lon="-118.970998">
        <ele>2406.4</ele>
        <time>2014-06-29T16:09:08Z</time>
        <sat>11</sat>
      </trkpt>
      <trkpt lat="37.648212" lon="-118.971130">
        <ele>2406.9</ele>
        <time>2014-06-29T16:09:12Z</time>
        <sat>11</sat>
      </trkpt>
      <trkpt lat="37.648188" lon="-118.971273">
        <ele>2407.3</ele>
        <time>2014-06-29T16:09:16Z</time>
        <sat>11</sat>
      </trkpt>
      <trkpt lat="37.648155" lon="-118.971380">
        <ele>2407.4</ele>
        <time>2014-06-29T16:09:19Z</time>
        <sat>11</sat>
      </trkpt>
      <trkpt lat="37.648173" lon="-118.971505">
        <ele>2407.5</ele>
        <time>2014-06-29T16:09:23Z</time>
        <sat>11</sat>
      </trkpt>
      <trkpt lat="37.648270" lon="-118.971593">
        <ele>2407.5</ele>
        <time>2014-06-29T16:09:27Z</time>
        <sat>11</sat>
      </trkpt>
      <trkpt lat="37.648323" lon="-118.971717">
        <ele>2407.7</ele>
        <time>2014-06-29T16:09:31Z</time>
        <sat>11</sat>
      </trkpt>
      <trkpt lat="37.648342" lon="-118.971842">
        <ele>2408.4</ele>
        <time>2014-06-29T16:09:35Z</time>
        <sat>11</sat>
      </trkpt>
      <trkpt lat="37.648362" lon="-118.971967">
        <ele>2409.1</ele>
        <time>2014-06-29T16:09:39Z</time>
        <sat>11</sat>
      </trkpt>
      <trkpt lat="37.648405" lon="-118.972073">
        <ele>2409.4</ele>
        <time>2014-06-29T16:09:43Z</time>
        <sat>11</sat>
      </trkpt>
      <trkpt lat="37.648428" lon="-118.972200">
        <ele>2410.2</ele>
        <time>2014-06-29T16:09:48Z</time>
        <sat>11</sat>
      </trkpt>
      <trkpt lat="37.648478" lon="-118.972323">
        <ele>2410.6</ele>
        <time>2014-06-29T16:09:53Z</time>
        <sat>11</sat>
      </trkpt>
      <trkpt lat="37.648520" lon="-118.972573">
        <ele>2411.3</ele>
        <time>2014-06-29T16:10:00Z</time>
        <sat>11</sat>
      </trkpt>
      <trkpt lat="37.648535" lon="-118.972695">
        <ele>2411.6</ele>
        <time>2014-06-29T16:10:04Z</time>
        <sat>11</sat>
      </trkpt>
      <trkpt lat="37.648560" lon="-118.972813">
        <ele>2411.8</ele>
        <time>2014-06-29T16:10:08Z</time>
        <sat>11</sat>
      </trkpt>
      <trkpt lat="37.648570" lon="-118.972945">
        <ele>2412.2</ele>
        <time>2014-06-29T16:10:12Z</time>
        <sat>11</sat>
      </trkpt>
      <trkpt lat="37.648588" lon="-118.973063">
        <ele>2412.8</ele>
        <time>2014-06-29T16:10:16Z</time>
        <sat>11</sat>
      </trkpt>
      <trkpt lat="37.648560" lon="-118.973210">
        <ele>2413.1</ele>
        <time>2014-06-29T16:10:20Z</time>
        <sat>11</sat>
      </trkpt>
      <trkpt lat="37.648548" lon="-118.973333">
        <ele>2413.1</ele>
        <time>2014-06-29T16:10:23Z</time>
        <sat>10</sat>
      </trkpt>
      <trkpt lat="37.648563" lon="-118.973465">
        <ele>2413.0</ele>
        <time>2014-06-29T16:10:26Z</time>
        <sat>11</sat>
      </trkpt>
      <trkpt lat="37.648610" lon="-118.973595">
        <ele>2413.6</ele>
        <time>2014-06-29T16:10:30Z</time>
        <sat>11</sat>
      </trkpt>
      <trkpt lat="37.648650" lon="-118.973712">
        <ele>2414.1</ele>
        <time>2014-06-29T16:10:34Z</time>
        <sat>11</sat>
      </trkpt>
      <trkpt lat="37.648652" lon="-118.973835">
        <ele>2414.9</ele>
        <time>2014-06-29T16:10:38Z</time>
        <sat>10</sat>
      </trkpt>
      <trkpt lat="37.648675" lon="-118.973950">
        <ele>2415.6</ele>
        <time>2014-06-29T16:10:42Z</time>
        <sat>11</sat>
      </trkpt>
      <trkpt lat="37.648695" lon="-118.974070">
        <ele>2415.8</ele>
        <time>2014-06-29T16:10:46Z</time>
        <sat>11</sat>
      </trkpt>
      <trkpt lat="37.648717" lon="-118.974183">
        <ele>2416.4</ele>
        <time>2014-06-29T16:10:50Z</time>
        <sat>9</sat>
      </trkpt>
      <trkpt lat="37.648730" lon="-118.974298">
        <ele>2417.2</ele>
        <time>2014-06-29T16:10:54Z</time>
        <sat>11</sat>
      </trkpt>
      <trkpt lat="37.648723" lon="-118.974558">
        <ele>2417.7</ele>
        <time>2014-06-29T16:11:01Z</time>
        <sat>11</sat>
      </trkpt>
      <trkpt lat="37.648740" lon="-118.974703">
        <ele>2417.8</ele>
        <time>2014-06-29T16:11:05Z</time>
        <sat>11</sat>
      </trkpt>
      <trkpt lat="37.648750" lon="-118.974833">
        <ele>2418.6</ele>
        <time>2014-06-29T16:11:09Z</time>
        <sat>11</sat>
      </trkpt>
      <trkpt lat="37.648762" lon="-118.974950">
        <ele>2419.5</ele>
        <time>2014-06-29T16:11:13Z</time>
        <sat>11</sat>
      </trkpt>
      <trkpt lat="37.648773" lon="-118.975087">
        <ele>2419.5</ele>
        <time>2014-06-29T16:11:18Z</time>
        <sat>11</sat>
      </trkpt>
      <trkpt lat="37.648788" lon="-118.975212">
        <ele>2419.7</ele>
        <time>2014-06-29T16:11:22Z</time>
        <sat>11</sat>
      </trkpt>
      <trkpt lat="37.648800" lon="-118.975332">
        <ele>2420.1</ele>
        <time>2014-06-29T16:11:26Z</time>
        <sat>11</sat>
      </trkpt>
      <trkpt lat="37.648817" lon="-118.975458">
        <ele>2420.7</ele>
        <time>2014-06-29T16:11:30Z</time>
        <sat>11</sat>
      </trkpt>
      <trkpt lat="37.648818" lon="-118.975592">
        <ele>2421.0</ele>
        <time>2014-06-29T16:11:34Z</time>
        <sat>11</sat>
      </trkpt>
      <trkpt lat="37.648828" lon="-118.975713">
        <ele>2421.4</ele>
        <time>2014-06-29T16:11:38Z</time>
        <sat>11</sat>
      </trkpt>
      <trkpt lat="37.648835" lon="-118.975837">
        <ele>2422.1</ele>
        <time>2014-06-29T16:11:42Z</time>
        <sat>11</sat>
      </trkpt>
      <trkpt lat="37.648838" lon="-118.975962">
        <ele>2422.8</ele>
        <time>2014-06-29T16:11:46Z</time>
        <sat>11</sat>
      </trkpt>
      <trkpt lat="37.648840" lon="-118.976078">
        <ele>2423.4</ele>
        <time>2014-06-29T16:11:50Z</time>
        <sat>11</sat>
      </trkpt>
      <trkpt lat="37.648857" lon="-118.976198">
        <ele>2423.8</ele>
        <time>2014-06-29T16:11:54Z</time>
        <sat>11</sat>
      </trkpt>
      <trkpt lat="37.648860" lon="-118.976317">
        <ele>2424.4</ele>
        <time>2014-06-29T16:11:58Z</time>
        <sat>11</sat>
      </trkpt>
      <trkpt lat="37.648855" lon="-118.976567">
        <ele>2425.4</ele>
        <time>2014-06-29T16:12:06Z</time>
        <sat>11</sat>
      </trkpt>
      <trkpt lat="37.648867" lon="-118.976692">
        <ele>2426.0</ele>
        <time>2014-06-29T16:12:10Z</time>
        <sat>11</sat>
      </trkpt>
      <trkpt lat="37.648872" lon="-118.976820">
        <ele>2426.4</ele>
        <time>2014-06-29T16:12:14Z</time>
        <sat>11</sat>
      </trkpt>
      <trkpt lat="37.648878" lon="-118.976940">
        <ele>2426.9</ele>
        <time>2014-06-29T16:12:18Z</time>
        <sat>11</sat>
      </trkpt>
      <trkpt lat="37.648880" lon="-118.977070">
        <ele>2427.5</ele>
        <time>2014-06-29T16:12:22Z</time>
        <sat>11</sat>
      </trkpt>
      <trkpt lat="37.648878" lon="-118.977200">
        <ele>2428.1</ele>
        <time>2014-06-29T16:12:26Z</time>
        <sat>11</sat>
      </trkpt>
      <trkpt lat="37.648868" lon="-118.977325">
        <ele>2428.8</ele>
        <time>2014-06-29T16:12:30Z</time>
        <sat>11</sat>
      </trkpt>
      <trkpt lat="37.648875" lon="-118.977445">
        <ele>2428.9</ele>
        <time>2014-06-29T16:12:34Z</time>
        <sat>11</sat>
      </trkpt>
      <trkpt lat="37.648853" lon="-118.977570">
        <ele>2429.4</ele>
        <time>2014-06-29T16:12:38Z</time>
        <sat>11</sat>
      </trkpt>
      <trkpt lat="37.648843" lon="-118.977692">
        <ele>2430.5</ele>
        <time>2014-06-29T16:12:42Z</time>
        <sat>11</sat>
      </trkpt>
      <trkpt lat="37.648845" lon="-118.977807">
        <ele>2430.7</ele>
        <time>2014-06-29T16:12:46Z</time>
        <sat>11</sat>
      </trkpt>
      <trkpt lat="37.648838" lon="-118.977933">
        <ele>2431.2</ele>
        <time>2014-06-29T16:12:50Z</time>
        <sat>11</sat>
      </trkpt>
      <trkpt lat="37.648840" lon="-118.978063">
        <ele>2431.8</ele>
        <time>2014-06-29T16:12:54Z</time>
        <sat>10</sat>
      </trkpt>
      <trkpt lat="37.648845" lon="-118.978192">
        <ele>2432.2</ele>
        <time>2014-06-29T16:12:58Z</time>
        <sat>11</sat>
      </trkpt>
      <trkpt lat="37.648842" lon="-118.978318">
        <ele>2432.5</ele>
        <time>2014-06-29T16:13:02Z</time>
        <sat>11</sat>
      </trkpt>
      <trkpt lat="37.648822" lon="-118.978582">
        <ele>2433.4</ele>
        <time>2014-06-29T16:13:10Z</time>
        <sat>11</sat>
      </trkpt>
      <trkpt lat="37.648810" lon="-118.978710">
        <ele>2434.3</ele>
        <time>2014-06-29T16:13:14Z</time>
        <sat>10</sat>
      </trkpt>
      <trkpt lat="37.648808" lon="-118.978838">
        <ele>2435.0</ele>
        <time>2014-06-29T16:13:18Z</time>
        <sat>10</sat>
      </trkpt>
      <trkpt lat="37.648812" lon="-118.978963">
        <ele>2435.4</ele>
        <time>2014-06-29T16:13:22Z</time>
        <sat>10</sat>
      </trkpt>
      <trkpt lat="37.648805" lon="-118.979093">
        <ele>2435.9</ele>
        <time>2014-06-29T16:13:26Z</time>
        <sat>11</sat>
      </trkpt>
      <trkpt lat="37.648797" lon="-118.979228">
        <ele>2436.2</ele>
        <time>2014-06-29T16:13:30Z</time>
        <sat>11</sat>
      </trkpt>
      <trkpt lat="37.648787" lon="-118.979360">
        <ele>2437.0</ele>
        <time>2014-06-29T16:13:34Z</time>
        <sat>11</sat>
      </trkpt>
      <trkpt lat="37.648770" lon="-118.979492">
        <ele>2437.3</ele>
        <time>2014-06-29T16:13:38Z</time>
        <sat>11</sat>
      </trkpt>
      <trkpt lat="37.648758" lon="-118.979613">
        <ele>2437.5</ele>
        <time>2014-06-29T16:13:42Z</time>
        <sat>11</sat>
      </trkpt>
      <trkpt lat="37.648748" lon="-118.979733">
        <ele>2438.2</ele>
        <time>2014-06-29T16:13:46Z</time>
        <sat>11</sat>
      </trkpt>
      <trkpt lat="37.648733" lon="-118.979852">
        <ele>2438.9</ele>
        <time>2014-06-29T16:13:50Z</time>
        <sat>11</sat>
      </trkpt>
      <trkpt lat="37.648723" lon="-118.979973">
        <ele>2439.6</ele>
        <time>2014-06-29T16:13:54Z</time>
        <sat>11</sat>
      </trkpt>
      <trkpt lat="37.648720" lon="-118.980092">
        <ele>2439.7</ele>
        <time>2014-06-29T16:13:58Z</time>
        <sat>11</sat>
      </trkpt>
      <trkpt lat="37.648712" lon="-118.980218">
        <ele>2440.5</ele>
        <time>2014-06-29T16:14:02Z</time>
        <sat>11</sat>
      </trkpt>
      <trkpt lat="37.648715" lon="-118.980337">
        <ele>2441.1</ele>
        <time>2014-06-29T16:14:06Z</time>
        <sat>11</sat>
      </trkpt>
      <trkpt lat="37.648695" lon="-118.980577">
        <ele>2441.8</ele>
        <time>2014-06-29T16:14:14Z</time>
        <sat>10</sat>
      </trkpt>
      <trkpt lat="37.648692" lon="-118.980698">
        <ele>2442.2</ele>
        <time>2014-06-29T16:14:18Z</time>
        <sat>11</sat>
      </trkpt>
      <trkpt lat="37.648687" lon="-118.980828">
        <ele>2442.8</ele>
        <time>2014-06-29T16:14:22Z</time>
        <sat>11</sat>
      </trkpt>
      <trkpt lat="37.648678" lon="-118.980967">
        <ele>2443.5</ele>
        <time>2014-06-29T16:14:26Z</time>
        <sat>11</sat>
      </trkpt>
      <trkpt lat="37.648665" lon="-118.981098">
        <ele>2443.9</ele>
        <time>2014-06-29T16:14:30Z</time>
        <sat>11</sat>
      </trkpt>
      <trkpt lat="37.648668" lon="-118.981220">
        <ele>2444.3</ele>
        <time>2014-06-29T16:14:34Z</time>
        <sat>11</sat>
      </trkpt>
      <trkpt lat="37.648665" lon="-118.981345">
        <ele>2444.6</ele>
        <time>2014-06-29T16:14:38Z</time>
        <sat>11</sat>
      </trkpt>
      <trkpt lat="37.648665" lon="-118.981468">
        <ele>2445.1</ele>
        <time>2014-06-29T16:14:42Z</time>
        <sat>11</sat>
      </trkpt>
      <trkpt lat="37.648667" lon="-118.981590">
        <ele>2445.6</ele>
        <time>2014-06-29T16:14:46Z</time>
        <sat>11</sat>
      </trkpt>
      <trkpt lat="37.648665" lon="-118.981708">
        <ele>2446.9</ele>
        <time>2014-06-29T16:14:50Z</time>
        <sat>11</sat>
      </trkpt>
      <trkpt lat="37.648653" lon="-118.981832">
        <ele>2447.8</ele>
        <time>2014-06-29T16:14:54Z</time>
        <sat>11</sat>
      </trkpt>
      <trkpt lat="37.648630" lon="-118.981965">
        <ele>2448.0</ele>
        <time>2014-06-29T16:14:58Z</time>
        <sat>11</sat>
      </trkpt>
      <trkpt lat="37.648625" lon="-118.982087">
        <ele>2448.6</ele>
        <time>2014-06-29T16:15:02Z</time>
        <sat>11</sat>
      </trkpt>
      <trkpt lat="37.648595" lon="-118.982215">
        <ele>2449.2</ele>
        <time>2014-06-29T16:15:06Z</time>
        <sat>11</sat>
      </trkpt>
      <trkpt lat="37.648597" lon="-118.982355">
        <ele>2449.7</ele>
        <time>2014-06-29T16:15:11Z</time>
        <sat>11</sat>
      </trkpt>
      <trkpt lat="37.648572" lon="-118.982595">
        <ele>2451.0</ele>
        <time>2014-06-29T16:15:19Z</time>
        <sat>11</sat>
      </trkpt>
      <trkpt lat="37.648548" lon="-118.982720">
        <ele>2451.5</ele>
        <time>2014-06-29T16:15:23Z</time>
        <sat>11</sat>
      </trkpt>
      <trkpt lat="37.648528" lon="-118.982833">
        <ele>2451.9</ele>
        <time>2014-06-29T16:15:27Z</time>
        <sat>11</sat>
      </trkpt>
      <trkpt lat="37.648552" lon="-118.982967">
        <ele>2452.6</ele>
        <time>2014-06-29T16:15:32Z</time>
        <sat>11</sat>
      </trkpt>
      <trkpt lat="37.648645" lon="-118.983027">
        <ele>2453.4</ele>
        <time>2014-06-29T16:15:58Z</time>
        <sat>11</sat>
      </trkpt>
      <trkpt lat="37.648747" lon="-118.983060">
        <ele>2454.1</ele>
        <time>2014-06-29T16:16:04Z</time>
        <sat>11</sat>
      </trkpt>
      <trkpt lat="37.648838" lon="-118.983090">
        <ele>2454.5</ele>
        <time>2014-06-29T16:16:08Z</time>
        <sat>11</sat>
      </trkpt>
      <trkpt lat="37.648932" lon="-118.983092">
        <ele>2455.1</ele>
        <time>2014-06-29T16:16:12Z</time>
        <sat>11</sat>
      </trkpt>
      <trkpt lat="37.649128" lon="-118.983120">
        <ele>2456.1</ele>
        <time>2014-06-29T16:16:20Z</time>
        <sat>11</sat>
      </trkpt>
      <trkpt lat="37.649220" lon="-118.983150">
        <ele>2456.4</ele>
        <time>2014-06-29T16:16:24Z</time>
        <sat>11</sat>
      </trkpt>
      <trkpt lat="37.649308" lon="-118.983192">
        <ele>2456.8</ele>
        <time>2014-06-29T16:16:28Z</time>
        <sat>11</sat>
      </trkpt>
      <trkpt lat="37.649397" lon="-118.983252">
        <ele>2457.1</ele>
        <time>2014-06-29T16:16:32Z</time>
        <sat>11</sat>
      </trkpt>
      <trkpt lat="37.649500" lon="-118.983330">
        <ele>2457.5</ele>
        <time>2014-06-29T16:16:36Z</time>
        <sat>11</sat>
      </trkpt>
      <trkpt lat="37.649578" lon="-118.983415">
        <ele>2457.8</ele>
        <time>2014-06-29T16:16:39Z</time>
        <sat>11</sat>
      </trkpt>
      <trkpt lat="37.649662" lon="-118.983510">
        <ele>2457.7</ele>
        <time>2014-06-29T16:16:42Z</time>
        <sat>11</sat>
      </trkpt>
      <trkpt lat="37.649737" lon="-118.983607">
        <ele>2458.1</ele>
        <time>2014-06-29T16:16:45Z</time>
        <sat>11</sat>
      </trkpt>
      <trkpt lat="37.649793" lon="-118.983700">
        <ele>2458.1</ele>
        <time>2014-06-29T16:16:48Z</time>
        <sat>11</sat>
      </trkpt>
      <trkpt lat="37.649860" lon="-118.983802">
        <ele>2458.4</ele>
        <time>2014-06-29T16:16:51Z</time>
        <sat>11</sat>
      </trkpt>
      <trkpt lat="37.649922" lon="-118.983915">
        <ele>2458.5</ele>
        <time>2014-06-29T16:16:54Z</time>
        <sat>11</sat>
      </trkpt>
      <trkpt lat="37.649987" lon="-118.984032">
        <ele>2458.3</ele>
        <time>2014-06-29T16:16:57Z</time>
        <sat>11</sat>
      </trkpt>
      <trkpt lat="37.650050" lon="-118.984147">
        <ele>2458.1</ele>
        <time>2014-06-29T16:17:00Z</time>
        <sat>11</sat>
      </trkpt>
      <trkpt lat="37.650113" lon="-118.984257">
        <ele>2458.5</ele>
        <time>2014-06-29T16:17:03Z</time>
        <sat>11</sat>
      </trkpt>
      <trkpt lat="37.650200" lon="-118.984352">
        <ele>2458.6</ele>
        <time>2014-06-29T16:17:06Z</time>
        <sat>11</sat>
      </trkpt>
      <trkpt lat="37.650293" lon="-118.984445">
        <ele>2458.9</ele>
        <time>2014-06-29T16:17:09Z</time>
        <sat>11</sat>
      </trkpt>
      <trkpt lat="37.650407" lon="-118.984520">
        <ele>2459.1</ele>
        <time>2014-06-29T16:17:12Z</time>
        <sat>11</sat>
      </trkpt>
      <trkpt lat="37.650492" lon="-118.984558">
        <ele>2459.1</ele>
        <time>2014-06-29T16:17:14Z</time>
        <sat>11</sat>
      </trkpt>
      <trkpt lat="37.650715" lon="-118.984655">
        <ele>2459.2</ele>
        <time>2014-06-29T16:17:20Z</time>
        <sat>11</sat>
      </trkpt>
      <trkpt lat="37.650827" lon="-118.984705">
        <ele>2459.4</ele>
        <time>2014-06-29T16:17:23Z</time>
        <sat>11</sat>
      </trkpt>
      <trkpt lat="37.650943" lon="-118.984755">
        <ele>2459.8</ele>
        <time>2014-06-29T16:17:26Z</time>
        <sat>11</sat>
      </trkpt>
      <trkpt lat="37.651060" lon="-118.984800">
        <ele>2459.9</ele>
        <time>2014-06-29T16:17:29Z</time>
        <sat>11</sat>
      </trkpt>
      <trkpt lat="37.651148" lon="-118.984825">
        <ele>2459.9</ele>
        <time>2014-06-29T16:17:31Z</time>
        <sat>11</sat>
      </trkpt>
      <trkpt lat="37.651257" lon="-118.984868">
        <ele>2460.4</ele>
        <time>2014-06-29T16:17:34Z</time>
        <sat>10</sat>
      </trkpt>
      <trkpt lat="37.651378" lon="-118.984912">
        <ele>2460.6</ele>
        <time>2014-06-29T16:17:37Z</time>
        <sat>11</sat>
      </trkpt>
      <trkpt lat="37.651493" lon="-118.984940">
        <ele>2460.7</ele>
        <time>2014-06-29T16:17:40Z</time>
        <sat>11</sat>
      </trkpt>
      <trkpt lat="37.651607" lon="-118.984953">
        <ele>2460.6</ele>
        <time>2014-06-29T16:17:43Z</time>
        <sat>11</sat>
      </trkpt>
      <trkpt lat="37.651738" lon="-118.984945">
        <ele>2460.9</ele>
        <time>2014-06-29T16:17:46Z</time>
        <sat>10</sat>
      </trkpt>
      <trkpt lat="37.651868" lon="-118.984950">
        <ele>2461.0</ele>
        <time>2014-06-29T16:17:49Z</time>
        <sat>10</sat>
      </trkpt>
      <trkpt lat="37.651995" lon="-118.984955">
        <ele>2461.3</ele>
        <time>2014-06-29T16:17:52Z</time>
        <sat>10</sat>
      </trkpt>
      <trkpt lat="37.652122" lon="-118.984945">
        <ele>2461.4</ele>
        <time>2014-06-29T16:17:55Z</time>
        <sat>10</sat>
      </trkpt>
      <trkpt lat="37.652213" lon="-118.984943">
        <ele>2461.5</ele>
        <time>2014-06-29T16:17:58Z</time>
        <sat>10</sat>
      </trkpt>
      <trkpt lat="37.652337" lon="-118.984930">
        <ele>2461.7</ele>
        <time>2014-06-29T16:18:02Z</time>
        <sat>10</sat>
      </trkpt>
      <trkpt lat="37.652447" lon="-118.984950">
        <ele>2462.1</ele>
        <time>2014-06-29T16:18:06Z</time>
        <sat>10</sat>
      </trkpt>
      <trkpt lat="37.652527" lon="-118.985015">
        <ele>2462.3</ele>
        <time>2014-06-29T16:18:09Z</time>
        <sat>10</sat>
      </trkpt>
      <trkpt lat="37.652622" lon="-118.985082">
        <ele>2462.9</ele>
        <time>2014-06-29T16:18:13Z</time>
        <sat>10</sat>
      </trkpt>
      <trkpt lat="37.652707" lon="-118.985157">
        <ele>2463.1</ele>
        <time>2014-06-29T16:18:32Z</time>
        <sat>11</sat>
      </trkpt>
      <trkpt lat="37.652875" lon="-118.985333">
        <ele>2463.7</ele>
        <time>2014-06-29T16:18:41Z</time>
        <sat>11</sat>
      </trkpt>
      <trkpt lat="37.652963" lon="-118.985412">
        <ele>2464.2</ele>
        <time>2014-06-29T16:18:45Z</time>
        <sat>11</sat>
      </trkpt>
      <trkpt lat="37.653068" lon="-118.985437">
        <ele>2464.4</ele>
        <time>2014-06-29T16:18:49Z</time>
        <sat>11</sat>
      </trkpt>
      <trkpt lat="37.653163" lon="-118.985478">
        <ele>2464.9</ele>
        <time>2014-06-29T16:18:52Z</time>
        <sat>11</sat>
      </trkpt>
      <trkpt lat="37.653255" lon="-118.985518">
        <ele>2465.8</ele>
        <time>2014-06-29T16:18:56Z</time>
        <sat>11</sat>
      </trkpt>
      <trkpt lat="37.653338" lon="-118.985608">
        <ele>2466.7</ele>
        <time>2014-06-29T16:19:01Z</time>
        <sat>11</sat>
      </trkpt>
      <trkpt lat="37.653393" lon="-118.985713">
        <ele>2467.1</ele>
        <time>2014-06-29T16:19:05Z</time>
        <sat>11</sat>
      </trkpt>
      <trkpt lat="37.653403" lon="-118.985840">
        <ele>2467.4</ele>
        <time>2014-06-29T16:19:09Z</time>
        <sat>11</sat>
      </trkpt>
      <trkpt lat="37.653460" lon="-118.985955">
        <ele>2468.2</ele>
        <time>2014-06-29T16:19:15Z</time>
        <sat>11</sat>
      </trkpt>
      <trkpt lat="37.653515" lon="-118.986070">
        <ele>2468.7</ele>
        <time>2014-06-29T16:19:20Z</time>
        <sat>11</sat>
      </trkpt>
      <trkpt lat="37.653572" lon="-118.986160">
        <ele>2469.6</ele>
        <time>2014-06-29T16:19:24Z</time>
        <sat>11</sat>
      </trkpt>
      <trkpt lat="37.653602" lon="-118.986273">
        <ele>2470.3</ele>
        <time>2014-06-29T16:19:29Z</time>
        <sat>11</sat>
      </trkpt>
      <trkpt lat="37.653633" lon="-118.986405">
        <ele>2470.6</ele>
        <time>2014-06-29T16:19:34Z</time>
        <sat>11</sat>
      </trkpt>
      <trkpt lat="37.653648" lon="-118.986655">
        <ele>2471.3</ele>
        <time>2014-06-29T16:19:42Z</time>
        <sat>11</sat>
      </trkpt>
      <trkpt lat="37.653710" lon="-118.986747">
        <ele>2471.5</ele>
        <time>2014-06-29T16:19:45Z</time>
        <sat>10</sat>
      </trkpt>
      <trkpt lat="37.653743" lon="-118.986865">
        <ele>2472.0</ele>
        <time>2014-06-29T16:19:49Z</time>
        <sat>11</sat>
      </trkpt>
      <trkpt lat="37.653763" lon="-118.987002">
        <ele>2472.7</ele>
        <time>2014-06-29T16:19:54Z</time>
        <sat>11</sat>
      </trkpt>
      <trkpt lat="37.653753" lon="-118.987140">
        <ele>2473.4</ele>
        <time>2014-06-29T16:19:59Z</time>
        <sat>10</sat>
      </trkpt>
      <trkpt lat="37.653757" lon="-118.987267">
        <ele>2474.1</ele>
        <time>2014-06-29T16:20:04Z</time>
        <sat>11</sat>
      </trkpt>
      <trkpt lat="37.653723" lon="-118.987388">
        <ele>2474.9</ele>
        <time>2014-06-29T16:20:09Z</time>
        <sat>11</sat>
      </trkpt>
      <trkpt lat="37.653655" lon="-118.987472">
        <ele>2475.5</ele>
        <time>2014-06-29T16:20:12Z</time>
        <sat>11</sat>
      </trkpt>
      <trkpt lat="37.653610" lon="-118.987575">
        <ele>2476.1</ele>
        <time>2014-06-29T16:20:16Z</time>
        <sat>11</sat>
      </trkpt>
      <trkpt lat="37.653585" lon="-118.987697">
        <ele>2477.5</ele>
        <time>2014-06-29T16:20:23Z</time>
        <sat>11</sat>
      </trkpt>
      <trkpt lat="37.653618" lon="-118.987815">
        <ele>2478.9</ele>
        <time>2014-06-29T16:20:29Z</time>
        <sat>11</sat>
      </trkpt>
      <trkpt lat="37.653607" lon="-118.987932">
        <ele>2479.1</ele>
        <time>2014-06-29T16:20:34Z</time>
        <sat>11</sat>
      </trkpt>
      <trkpt lat="37.653577" lon="-118.988048">
        <ele>2480.1</ele>
        <time>2014-06-29T16:20:39Z</time>
        <sat>11</sat>
      </trkpt>
      <trkpt lat="37.653495" lon="-118.988280">
        <ele>2481.3</ele>
        <time>2014-06-29T16:20:48Z</time>
        <sat>11</sat>
      </trkpt>
      <trkpt lat="37.653548" lon="-118.988385">
        <ele>2482.3</ele>
        <time>2014-06-29T16:20:53Z</time>
        <sat>11</sat>
      </trkpt>
      <trkpt lat="37.653550" lon="-118.988515">
        <ele>2482.9</ele>
        <time>2014-06-29T16:20:59Z</time>
        <sat>11</sat>
      </trkpt>
      <trkpt lat="37.653555" lon="-118.988635">
        <ele>2483.7</ele>
        <time>2014-06-29T16:21:04Z</time>
        <sat>11</sat>
      </trkpt>
      <trkpt lat="37.653578" lon="-118.988763">
        <ele>2484.6</ele>
        <time>2014-06-29T16:21:09Z</time>
        <sat>11</sat>
      </trkpt>
      <trkpt lat="37.653593" lon="-118.988887">
        <ele>2485.3</ele>
        <time>2014-06-29T16:21:14Z</time>
        <sat>11</sat>
      </trkpt>
      <trkpt lat="37.653580" lon="-118.989028">
        <ele>2485.8</ele>
        <time>2014-06-29T16:21:19Z</time>
        <sat>11</sat>
      </trkpt>
      <trkpt lat="37.653602" lon="-118.989140">
        <ele>2486.1</ele>
        <time>2014-06-29T16:21:23Z</time>
        <sat>11</sat>
      </trkpt>
      <trkpt lat="37.653622" lon="-118.989278">
        <ele>2486.7</ele>
        <time>2014-06-29T16:21:28Z</time>
        <sat>11</sat>
      </trkpt>
      <trkpt lat="37.653635" lon="-118.989405">
        <ele>2487.4</ele>
        <time>2014-06-29T16:21:33Z</time>
        <sat>11</sat>
      </trkpt>
      <trkpt lat="37.653673" lon="-118.989530">
        <ele>2488.0</ele>
        <time>2014-06-29T16:21:38Z</time>
        <sat>11</sat>
      </trkpt>
      <trkpt lat="37.653677" lon="-118.989663">
        <ele>2488.5</ele>
        <time>2014-06-29T16:21:43Z</time>
        <sat>11</sat>
      </trkpt>
      <trkpt lat="37.653648" lon="-118.989917">
        <ele>2489.5</ele>
        <time>2014-06-29T16:21:52Z</time>
        <sat>11</sat>
      </trkpt>
      <trkpt lat="37.653635" lon="-118.990037">
        <ele>2490.2</ele>
        <time>2014-06-29T16:21:57Z</time>
        <sat>11</sat>
      </trkpt>
      <trkpt lat="37.653640" lon="-118.990157">
        <ele>2490.9</ele>
        <time>2014-06-29T16:22:02Z</time>
        <sat>11</sat>
      </trkpt>
      <trkpt lat="37.653602" lon="-118.990293">
        <ele>2491.3</ele>
        <time>2014-06-29T16:22:07Z</time>
        <sat>11</sat>
      </trkpt>
      <trkpt lat="37.653588" lon="-118.990432">
        <ele>2491.4</ele>
        <time>2014-06-29T16:22:12Z</time>
        <sat>11</sat>
      </trkpt>
      <trkpt lat="37.653600" lon="-118.990570">
        <ele>2491.9</ele>
        <time>2014-06-29T16:22:17Z</time>
        <sat>11</sat>
      </trkpt>
      <trkpt lat="37.653628" lon="-118.990682">
        <ele>2492.1</ele>
        <time>2014-06-29T16:22:21Z</time>
        <sat>11</sat>
      </trkpt>
      <trkpt lat="37.653668" lon="-118.990798">
        <ele>2492.5</ele>
        <time>2014-06-29T16:22:25Z</time>
        <sat>11</sat>
      </trkpt>
      <trkpt lat="37.653665" lon="-118.990920">
        <ele>2493.0</ele>
        <time>2014-06-29T16:22:29Z</time>
        <sat>11</sat>
      </trkpt>
      <trkpt lat="37.653695" lon="-118.991043">
        <ele>2492.8</ele>
        <time>2014-06-29T16:22:49Z</time>
        <sat>11</sat>
      </trkpt>
      <trkpt lat="37.653697" lon="-118.991292">
        <ele>2494.0</ele>
        <time>2014-06-29T16:22:57Z</time>
        <sat>11</sat>
      </trkpt>
      <trkpt lat="37.653688" lon="-118.991408">
        <ele>2495.0</ele>
        <time>2014-06-29T16:23:01Z</time>
        <sat>11</sat>
      </trkpt>
      <trkpt lat="37.653685" lon="-118.991530">
        <ele>2496.1</ele>
        <time>2014-06-29T16:23:06Z</time>
        <sat>11</sat>
      </trkpt>
      <trkpt lat="37.653693" lon="-118.991652">
        <ele>2497.0</ele>
        <time>2014-06-29T16:23:11Z</time>
        <sat>11</sat>
      </trkpt>
      <trkpt lat="37.653748" lon="-118.991760">
        <ele>2497.8</ele>
        <time>2014-06-29T16:23:15Z</time>
        <sat>11</sat>
      </trkpt>
      <trkpt lat="37.653827" lon="-118.991820">
        <ele>2498.1</ele>
        <time>2014-06-29T16:23:18Z</time>
        <sat>11</sat>
      </trkpt>
      <trkpt lat="37.653910" lon="-118.991870">
        <ele>2498.0</ele>
        <time>2014-06-29T16:23:21Z</time>
        <sat>11</sat>
      </trkpt>
      <trkpt lat="37.654012" lon="-118.991863">
        <ele>2497.8</ele>
        <time>2014-06-29T16:23:25Z</time>
        <sat>11</sat>
      </trkpt>
      <trkpt lat="37.654102" lon="-118.991813">
        <ele>2497.6</ele>
        <time>2014-06-29T16:23:28Z</time>
        <sat>11</sat>
      </trkpt>
      <trkpt lat="37.654195" lon="-118.991750">
        <ele>2497.3</ele>
        <time>2014-06-29T16:23:31Z</time>
        <sat>11</sat>
      </trkpt>
      <trkpt lat="37.654303" lon="-118.991695">
        <ele>2497.1</ele>
        <time>2014-06-29T16:23:35Z</time>
        <sat>11</sat>
      </trkpt>
      <trkpt lat="37.654398" lon="-118.991668">
        <ele>2497.2</ele>
        <time>2014-06-29T16:23:38Z</time>
        <sat>11</sat>
      </trkpt>
      <trkpt lat="37.654503" lon="-118.991695">
        <ele>2497.6</ele>
        <time>2014-06-29T16:23:42Z</time>
        <sat>11</sat>
      </trkpt>
      <trkpt lat="37.654590" lon="-118.991777">
        <ele>2498.5</ele>
        <time>2014-06-29T16:23:47Z</time>
        <sat>11</sat>
      </trkpt>
      <trkpt lat="37.654632" lon="-118.991882">
        <ele>2498.7</ele>
        <time>2014-06-29T16:23:51Z</time>
        <sat>11</sat>
      </trkpt>
      <trkpt lat="37.654623" lon="-118.992112">
        <ele>2499.5</ele>
        <time>2014-06-29T16:24:01Z</time>
        <sat>11</sat>
      </trkpt>
      <trkpt lat="37.654618" lon="-118.992257">
        <ele>2499.8</ele>
        <time>2014-06-29T16:24:06Z</time>
        <sat>11</sat>
      </trkpt>
      <trkpt lat="37.654563" lon="-118.992377">
        <ele>2500.0</ele>
        <time>2014-06-29T16:24:09Z</time>
        <sat>11</sat>
      </trkpt>
      <trkpt lat="37.654585" lon="-118.992508">
        <ele>2500.6</ele>
        <time>2014-06-29T16:24:13Z</time>
        <sat>11</sat>
      </trkpt>
      <trkpt lat="37.654618" lon="-118.992637">
        <ele>2500.9</ele>
        <time>2014-06-29T16:24:17Z</time>
        <sat>11</sat>
      </trkpt>
      <trkpt lat="37.654692" lon="-118.992555">
        <ele>2502.0</ele>
        <time>2014-06-29T16:24:27Z</time>
        <sat>11</sat>
      </trkpt>
      <trkpt lat="37.654757" lon="-118.992452">
        <ele>2502.8</ele>
        <time>2014-06-29T16:24:31Z</time>
        <sat>11</sat>
      </trkpt>
      <trkpt lat="37.654827" lon="-118.992375">
        <ele>2502.7</ele>
        <time>2014-06-29T16:24:34Z</time>
        <sat>11</sat>
      </trkpt>
      <trkpt lat="37.654893" lon="-118.992297">
        <ele>2503.0</ele>
        <time>2014-06-29T16:24:39Z</time>
        <sat>11</sat>
      </trkpt>
      <trkpt lat="37.654995" lon="-118.992257">
        <ele>2504.0</ele>
        <time>2014-06-29T16:24:44Z</time>
        <sat>11</sat>
      </trkpt>
      <trkpt lat="37.655085" lon="-118.992253">
        <ele>2504.4</ele>
        <time>2014-06-29T16:24:47Z</time>
        <sat>11</sat>
      </trkpt>
      <trkpt lat="37.655183" lon="-118.992257">
        <ele>2504.9</ele>
        <time>2014-06-29T16:24:50Z</time>
        <sat>11</sat>
      </trkpt>
      <trkpt lat="37.655290" lon="-118.992298">
        <ele>2505.5</ele>
        <time>2014-06-29T16:24:54Z</time>
        <sat>11</sat>
      </trkpt>
      <trkpt lat="37.655475" lon="-118.992428">
        <ele>2506.1</ele>
        <time>2014-06-29T16:25:02Z</time>
        <sat>11</sat>
      </trkpt>
      <trkpt lat="37.655552" lon="-118.992493">
        <ele>2506.4</ele>
        <time>2014-06-29T16:25:05Z</time>
        <sat>11</sat>
      </trkpt>
      <trkpt lat="37.655637" lon="-118.992560">
        <ele>2506.6</ele>
        <time>2014-06-29T16:25:08Z</time>
        <sat>11</sat>
      </trkpt>
      <trkpt lat="37.655717" lon="-118.992648">
        <ele>2507.4</ele>
        <time>2014-06-29T16:25:12Z</time>
        <sat>11</sat>
      </trkpt>
      <trkpt lat="37.655720" lon="-118.992767">
        <ele>2508.4</ele>
        <time>2014-06-29T16:25:17Z</time>
        <sat>11</sat>
      </trkpt>
      <trkpt lat="37.655670" lon="-118.992888">
        <ele>2509.3</ele>
        <time>2014-06-29T16:25:23Z</time>
        <sat>11</sat>
      </trkpt>
      <trkpt lat="37.655657" lon="-118.993020">
        <ele>2509.9</ele>
        <time>2014-06-29T16:25:29Z</time>
        <sat>11</sat>
      </trkpt>
      <trkpt lat="37.655585" lon="-118.993123">
        <ele>2510.1</ele>
        <time>2014-06-29T16:25:32Z</time>
        <sat>11</sat>
      </trkpt>
      <trkpt lat="37.655545" lon="-118.993243">
        <ele>2510.5</ele>
        <time>2014-06-29T16:25:37Z</time>
        <sat>10</sat>
      </trkpt>
      <trkpt lat="37.655457" lon="-118.993323">
        <ele>2511.4</ele>
        <time>2014-06-29T16:25:44Z</time>
        <sat>11</sat>
      </trkpt>
      <trkpt lat="37.655345" lon="-118.993328">
        <ele>2511.2</ele>
        <time>2014-06-29T16:25:47Z</time>
        <sat>11</sat>
      </trkpt>
      <trkpt lat="37.655248" lon="-118.993332">
        <ele>2511.6</ele>
        <time>2014-06-29T16:25:50Z</time>
        <sat>11</sat>
      </trkpt>
      <trkpt lat="37.655170" lon="-118.993275">
        <ele>2512.3</ele>
        <time>2014-06-29T16:25:54Z</time>
        <sat>11</sat>
      </trkpt>
      <trkpt lat="37.655128" lon="-118.993380">
        <ele>2512.6</ele>
        <time>2014-06-29T16:27:50Z</time>
        <sat>11</sat>
      </trkpt>
      <trkpt lat="37.655237" lon="-118.993583">
        <ele>2514.6</ele>
        <time>2014-06-29T16:28:00Z</time>
        <sat>11</sat>
      </trkpt>
      <trkpt lat="37.655300" lon="-118.993677">
        <ele>2515.6</ele>
        <time>2014-06-29T16:28:06Z</time>
        <sat>11</sat>
      </trkpt>
      <trkpt lat="37.655367" lon="-118.993768">
        <ele>2516.4</ele>
        <time>2014-06-29T16:28:11Z</time>
        <sat>11</sat>
      </trkpt>
      <trkpt lat="37.655437" lon="-118.993870">
        <ele>2516.8</ele>
        <time>2014-06-29T16:28:16Z</time>
        <sat>11</sat>
      </trkpt>
      <trkpt lat="37.655502" lon="-118.993957">
        <ele>2516.8</ele>
        <time>2014-06-29T16:28:19Z</time>
        <sat>11</sat>
      </trkpt>
      <trkpt lat="37.655602" lon="-118.993965">
        <ele>2517.4</ele>
        <time>2014-06-29T16:28:23Z</time>
        <sat>11</sat>
      </trkpt>
      <trkpt lat="37.655692" lon="-118.993992">
        <ele>2517.7</ele>
        <time>2014-06-29T16:28:29Z</time>
        <sat>11</sat>
      </trkpt>
      <trkpt lat="37.655617" lon="-118.994057">
        <ele>2518.4</ele>
        <time>2014-06-29T16:28:39Z</time>
        <sat>11</sat>
      </trkpt>
      <trkpt lat="37.655525" lon="-118.994093">
        <ele>2519.5</ele>
        <time>2014-06-29T16:28:44Z</time>
        <sat>11</sat>
      </trkpt>
      <trkpt lat="37.655472" lon="-118.994193">
        <ele>2520.1</ele>
        <time>2014-06-29T16:28:50Z</time>
        <sat>11</sat>
      </trkpt>
      <trkpt lat="37.655445" lon="-118.994333">
        <ele>2520.8</ele>
        <time>2014-06-29T16:28:56Z</time>
        <sat>11</sat>
      </trkpt>
      <trkpt lat="37.655432" lon="-118.994582">
        <ele>2522.6</ele>
        <time>2014-06-29T16:29:07Z</time>
        <sat>11</sat>
      </trkpt>
      <trkpt lat="37.655408" lon="-118.994698">
        <ele>2523.4</ele>
        <time>2014-06-29T16:29:12Z</time>
        <sat>11</sat>
      </trkpt>
      <trkpt lat="37.655420" lon="-118.994820">
        <ele>2524.3</ele>
        <time>2014-06-29T16:29:17Z</time>
        <sat>11</sat>
      </trkpt>
      <trkpt lat="37.655453" lon="-118.994927">
        <ele>2524.3</ele>
        <time>2014-06-29T16:29:21Z</time>
        <sat>11</sat>
      </trkpt>
      <trkpt lat="37.655543" lon="-118.994958">
        <ele>2524.5</ele>
        <time>2014-06-29T16:29:24Z</time>
        <sat>10</sat>
      </trkpt>
      <trkpt lat="37.655630" lon="-118.994907">
        <ele>2524.5</ele>
        <time>2014-06-29T16:29:28Z</time>
        <sat>11</sat>
      </trkpt>
      <trkpt lat="37.655722" lon="-118.994817">
        <ele>2523.8</ele>
        <time>2014-06-29T16:29:32Z</time>
        <sat>10</sat>
      </trkpt>
      <trkpt lat="37.655785" lon="-118.994707">
        <ele>2523.8</ele>
        <time>2014-06-29T16:29:35Z</time>
        <sat>11</sat>
      </trkpt>
      <trkpt lat="37.655880" lon="-118.994601">
        <ele>2523.3</ele>
        <time>2014-06-29T16:29:38Z</time>
        <sat>11</sat>
      </trkpt>
      <trkpt lat="37.655943" lon="-118.994507">
        <ele>2523.3</ele>
        <time>2014-06-29T16:29:40Z</time>
        <sat>11</sat>
      </trkpt>
      <trkpt lat="37.656037" lon="-118.994428">
        <ele>2522.9</ele>
        <time>2014-06-29T16:29:42Z</time>
        <sat>11</sat>
      </trkpt>
      <trkpt lat="37.656148" lon="-118.994387">
        <ele>2523.1</ele>
        <time>2014-06-29T16:29:44Z</time>
        <sat>11</sat>
      </trkpt>
      <trkpt lat="37.656258" lon="-118.994370">
        <ele>2523.1</ele>
        <time>2014-06-29T16:29:46Z</time>
        <sat>11</sat>
      </trkpt>
      <trkpt lat="37.656360" lon="-118.994375">
        <ele>2522.8</ele>
        <time>2014-06-29T16:29:48Z</time>
        <sat>11</sat>
      </trkpt>
      <trkpt lat="37.656457" lon="-118.994382">
        <ele>2522.8</ele>
        <time>2014-06-29T16:29:50Z</time>
        <sat>11</sat>
      </trkpt>
      <trkpt lat="37.656588" lon="-118.994373">
        <ele>2522.6</ele>
        <time>2014-06-29T16:29:53Z</time>
        <sat>11</sat>
      </trkpt>
      <trkpt lat="37.656705" lon="-118.994348">
        <ele>2522.9</ele>
        <time>2014-06-29T16:29:56Z</time>
        <sat>11</sat>
      </trkpt>
      <trkpt lat="37.656803" lon="-118.994318">
        <ele>2523.3</ele>
        <time>2014-06-29T16:29:59Z</time>
        <sat>11</sat>
      </trkpt>
      <trkpt lat="37.656993" lon="-118.994225">
        <ele>2524.6</ele>
        <time>2014-06-29T16:30:06Z</time>
        <sat>11</sat>
      </trkpt>
      <trkpt lat="37.657085" lon="-118.994153">
        <ele>2525.3</ele>
        <time>2014-06-29T16:30:10Z</time>
        <sat>11</sat>
      </trkpt>
      <trkpt lat="37.657162" lon="-118.994082">
        <ele>2526.2</ele>
        <time>2014-06-29T16:30:14Z</time>
        <sat>11</sat>
      </trkpt>
      <trkpt lat="37.657240" lon="-118.994002">
        <ele>2526.7</ele>
        <time>2014-06-29T16:30:18Z</time>
        <sat>11</sat>
      </trkpt>
      <trkpt lat="37.657310" lon="-118.993923">
        <ele>2527.5</ele>
        <time>2014-06-29T16:30:22Z</time>
        <sat>11</sat>
      </trkpt>
      <trkpt lat="37.657378" lon="-118.993843">
        <ele>2528.6</ele>
        <time>2014-06-29T16:30:26Z</time>
        <sat>11</sat>
      </trkpt>
      <trkpt lat="37.657443" lon="-118.993737">
        <ele>2529.5</ele>
        <time>2014-06-29T16:30:31Z</time>
        <sat>11</sat>
      </trkpt>
      <trkpt lat="37.657492" lon="-118.993615">
        <ele>2530.6</ele>
        <time>2014-06-29T16:30:36Z</time>
        <sat>11</sat>
      </trkpt>
      <trkpt lat="37.657538" lon="-118.993490">
        <ele>2531.3</ele>
        <time>2014-06-29T16:30:41Z</time>
        <sat>11</sat>
      </trkpt>
      <trkpt lat="37.657570" lon="-118.993357">
        <ele>2531.7</ele>
        <time>2014-06-29T16:30:46Z</time>
        <sat>10</sat>
      </trkpt>
      <trkpt lat="37.657587" lon="-118.993225">
        <ele>2532.6</ele>
        <time>2014-06-29T16:30:51Z</time>
        <sat>11</sat>
      </trkpt>
      <trkpt lat="37.657608" lon="-118.993083">
        <ele>2533.7</ele>
        <time>2014-06-29T16:30:56Z</time>
        <sat>11</sat>
      </trkpt>
      <trkpt lat="37.657620" lon="-118.992940">
        <ele>2534.1</ele>
        <time>2014-06-29T16:31:01Z</time>
        <sat>11</sat>
      </trkpt>
      <trkpt lat="37.657648" lon="-118.992690">
        <ele>2535.0</ele>
        <time>2014-06-29T16:31:09Z</time>
        <sat>11</sat>
      </trkpt>
      <trkpt lat="37.657663" lon="-118.992567">
        <ele>2535.1</ele>
        <time>2014-06-29T16:31:13Z</time>
        <sat>11</sat>
      </trkpt>
      <trkpt lat="37.657683" lon="-118.992438">
        <ele>2535.3</ele>
        <time>2014-06-29T16:31:17Z</time>
        <sat>11</sat>
      </trkpt>
      <trkpt lat="37.657712" lon="-118.992293">
        <ele>2535.9</ele>
        <time>2014-06-29T16:31:21Z</time>
        <sat>11</sat>
      </trkpt>
      <trkpt lat="37.657743" lon="-118.992187">
        <ele>2536.0</ele>
        <time>2014-06-29T16:31:24Z</time>
        <sat>11</sat>
      </trkpt>
      <trkpt lat="37.657775" lon="-118.992073">
        <ele>2536.6</ele>
        <time>2014-06-29T16:31:27Z</time>
        <sat>11</sat>
      </trkpt>
      <trkpt lat="37.657803" lon="-118.991960">
        <ele>2536.7</ele>
        <time>2014-06-29T16:31:30Z</time>
        <sat>11</sat>
      </trkpt>
      <trkpt lat="37.657840" lon="-118.991835">
        <ele>2536.6</ele>
        <time>2014-06-29T16:31:34Z</time>
        <sat>11</sat>
      </trkpt>
      <trkpt lat="37.657882" lon="-118.991733">
        <ele>2536.9</ele>
        <time>2014-06-29T16:31:37Z</time>
        <sat>11</sat>
      </trkpt>
      <trkpt lat="37.657897" lon="-118.991620">
        <ele>2537.1</ele>
        <time>2014-06-29T16:31:40Z</time>
        <sat>11</sat>
      </trkpt>
      <trkpt lat="37.657868" lon="-118.991470">
        <ele>2536.6</ele>
        <time>2014-06-29T16:31:43Z</time>
        <sat>11</sat>
      </trkpt>
      <trkpt lat="37.657838" lon="-118.991358">
        <ele>2536.2</ele>
        <time>2014-06-29T16:31:46Z</time>
        <sat>11</sat>
      </trkpt>
      <trkpt lat="37.657868" lon="-118.991222">
        <ele>2535.6</ele>
        <time>2014-06-29T16:31:50Z</time>
        <sat>11</sat>
      </trkpt>
      <trkpt lat="37.657967" lon="-118.991150">
        <ele>2535.5</ele>
        <time>2014-06-29T16:31:54Z</time>
        <sat>11</sat>
      </trkpt>
      <trkpt lat="37.658062" lon="-118.991088">
        <ele>2535.5</ele>
        <time>2014-06-29T16:31:58Z</time>
        <sat>11</sat>
      </trkpt>
      <trkpt lat="37.658092" lon="-118.990960">
        <ele>2535.5</ele>
        <time>2014-06-29T16:32:03Z</time>
        <sat>11</sat>
      </trkpt>
      <trkpt lat="37.658088" lon="-118.990728">
        <ele>2534.8</ele>
        <time>2014-06-29T16:32:11Z</time>
        <sat>11</sat>
      </trkpt>
      <trkpt lat="37.658112" lon="-118.990598">
        <ele>2534.7</ele>
        <time>2014-06-29T16:32:16Z</time>
        <sat>11</sat>
      </trkpt>
      <trkpt lat="37.658152" lon="-118.990492">
        <ele>2533.9</ele>
        <time>2014-06-29T16:32:31Z</time>
        <sat>11</sat>
      </trkpt>
      <trkpt lat="37.658232" lon="-118.990425">
        <ele>2533.7</ele>
        <time>2014-06-29T16:32:35Z</time>
        <sat>11</sat>
      </trkpt>
      <trkpt lat="37.658287" lon="-118.990335">
        <ele>2533.4</ele>
        <time>2014-06-29T16:32:40Z</time>
        <sat>11</sat>
      </trkpt>
      <trkpt lat="37.658355" lon="-118.990255">
        <ele>2532.9</ele>
        <time>2014-06-29T16:32:43Z</time>
        <sat>11</sat>
      </trkpt>
      <trkpt lat="37.658425" lon="-118.990155">
        <ele>2531.9</ele>
        <time>2014-06-29T16:32:46Z</time>
        <sat>11</sat>
      </trkpt>
      <trkpt lat="37.658507" lon="-118.990058">
        <ele>2531.3</ele>
        <time>2014-06-29T16:32:50Z</time>
        <sat>11</sat>
      </trkpt>
      <trkpt lat="37.658550" lon="-118.989953">
        <ele>2531.3</ele>
        <time>2014-06-29T16:32:55Z</time>
        <sat>11</sat>
      </trkpt>
      <trkpt lat="37.658498" lon="-118.989855">
        <ele>2531.1</ele>
        <time>2014-06-29T16:33:01Z</time>
        <sat>11</sat>
      </trkpt>
      <trkpt lat="37.658593" lon="-118.989802">
        <ele>2531.5</ele>
        <time>2014-06-29T16:33:14Z</time>
        <sat>11</sat>
      </trkpt>
      <trkpt lat="37.658765" lon="-118.989890">
        <ele>2532.4</ele>
        <time>2014-06-29T16:33:24Z</time>
        <sat>11</sat>
      </trkpt>
      <trkpt lat="37.658863" lon="-118.989905">
        <ele>2532.8</ele>
        <time>2014-06-29T16:33:30Z</time>
        <sat>11</sat>
      </trkpt>
      <trkpt lat="37.658952" lon="-118.989810">
        <ele>2533.1</ele>
        <time>2014-06-29T16:33:35Z</time>
        <sat>11</sat>
      </trkpt>
      <trkpt lat="37.659035" lon="-118.989702">
        <ele>2533.2</ele>
        <time>2014-06-29T16:33:39Z</time>
        <sat>11</sat>
      </trkpt>
      <trkpt lat="37.659107" lon="-118.989610">
        <ele>2533.3</ele>
        <time>2014-06-29T16:33:42Z</time>
        <sat>11</sat>
      </trkpt>
      <trkpt lat="37.659188" lon="-118.989512">
        <ele>2533.0</ele>
        <time>2014-06-29T16:33:45Z</time>
        <sat>11</sat>
      </trkpt>
      <trkpt lat="37.659285" lon="-118.989418">
        <ele>2532.2</ele>
        <time>2014-06-29T16:33:48Z</time>
        <sat>11</sat>
      </trkpt>
      <trkpt lat="37.659360" lon="-118.989352">
        <ele>2531.9</ele>
        <time>2014-06-29T16:33:50Z</time>
        <sat>11</sat>
      </trkpt>
      <trkpt lat="37.659440" lon="-118.989277">
        <ele>2531.4</ele>
        <time>2014-06-29T16:33:52Z</time>
        <sat>11</sat>
      </trkpt>
      <trkpt lat="37.659525" lon="-118.989203">
        <ele>2531.2</ele>
        <time>2014-06-29T16:33:54Z</time>
        <sat>11</sat>
      </trkpt>
      <trkpt lat="37.659625" lon="-118.989127">
        <ele>2530.8</ele>
        <time>2014-06-29T16:33:56Z</time>
        <sat>11</sat>
      </trkpt>
      <trkpt lat="37.659733" lon="-118.989055">
        <ele>2530.4</ele>
        <time>2014-06-29T16:33:58Z</time>
        <sat>11</sat>
      </trkpt>
      <trkpt lat="37.659847" lon="-118.988987">
        <ele>2530.1</ele>
        <time>2014-06-29T16:34:00Z</time>
        <sat>11</sat>
      </trkpt>
      <trkpt lat="37.659970" lon="-118.988922">
        <ele>2529.8</ele>
        <time>2014-06-29T16:34:02Z</time>
        <sat>11</sat>
      </trkpt>
      <trkpt lat="37.660102" lon="-118.988850">
        <ele>2529.1</ele>
        <time>2014-06-29T16:34:04Z</time>
        <sat>11</sat>
      </trkpt>
      <trkpt lat="37.660227" lon="-118.988772">
        <ele>2528.9</ele>
        <time>2014-06-29T16:34:06Z</time>
        <sat>11</sat>
      </trkpt>
      <trkpt lat="37.660375" lon="-118.988692">
        <ele>2528.6</ele>
        <time>2014-06-29T16:34:08Z</time>
        <sat>11</sat>
      </trkpt>
      <trkpt lat="37.660528" lon="-118.988613">
        <ele>2527.8</ele>
        <time>2014-06-29T16:34:10Z</time>
        <sat>11</sat>
      </trkpt>
      <trkpt lat="37.660680" lon="-118.988538">
        <ele>2526.9</ele>
        <time>2014-06-29T16:34:12Z</time>
        <sat>11</sat>
      </trkpt>
      <trkpt lat="37.660833" lon="-118.988453">
        <ele>2526.4</ele>
        <time>2014-06-29T16:34:14Z</time>
        <sat>11</sat>
      </trkpt>
      <trkpt lat="37.660920" lon="-118.988407">
        <ele>2525.8</ele>
        <time>2014-06-29T16:34:15Z</time>
        <sat>11</sat>
      </trkpt>
      <trkpt lat="37.661088" lon="-118.988312">
        <ele>2524.8</ele>
        <time>2014-06-29T16:34:17Z</time>
        <sat>11</sat>
      </trkpt>
      <trkpt lat="37.661175" lon="-118.988265">
        <ele>2524.4</ele>
        <time>2014-06-29T16:34:18Z</time>
        <sat>11</sat>
      </trkpt>
      <trkpt lat="37.661338" lon="-118.988183">
        <ele>2523.1</ele>
        <time>2014-06-29T16:34:20Z</time>
        <sat>11</sat>
      </trkpt>
      <trkpt lat="37.661493" lon="-118.988097">
        <ele>2522.1</ele>
        <time>2014-06-29T16:34:22Z</time>
        <sat>11</sat>
      </trkpt>
      <trkpt lat="37.661633" lon="-118.988022">
        <ele>2521.0</ele>
        <time>2014-06-29T16:34:24Z</time>
        <sat>11</sat>
      </trkpt>
      <trkpt lat="37.661758" lon="-118.987953">
        <ele>2520.2</ele>
        <time>2014-06-29T16:34:26Z</time>
        <sat>11</sat>
      </trkpt>
      <trkpt lat="37.661877" lon="-118.987892">
        <ele>2519.6</ele>
        <time>2014-06-29T16:34:28Z</time>
        <sat>11</sat>
      </trkpt>
      <trkpt lat="37.661985" lon="-118.987837">
        <ele>2519.0</ele>
        <time>2014-06-29T16:34:30Z</time>
        <sat>11</sat>
      </trkpt>
      <trkpt lat="37.662073" lon="-118.987792">
        <ele>2518.0</ele>
        <time>2014-06-29T16:34:33Z</time>
        <sat>11</sat>
      </trkpt>
      <trkpt lat="37.662173" lon="-118.987747">
        <ele>2517.1</ele>
        <time>2014-06-29T16:34:37Z</time>
        <sat>12</sat>
      </trkpt>
      <trkpt lat="37.662263" lon="-118.987707">
        <ele>2517.0</ele>
        <time>2014-06-29T16:34:40Z</time>
        <sat>12</sat>
      </trkpt>
      <trkpt lat="37.662378" lon="-118.987660">
        <ele>2516.3</ele>
        <time>2014-06-29T16:34:43Z</time>
        <sat>11</sat>
      </trkpt>
      <trkpt lat="37.662472" lon="-118.987625">
        <ele>2516.3</ele>
        <time>2014-06-29T16:34:45Z</time>
        <sat>12</sat>
      </trkpt>
      <trkpt lat="37.662565" lon="-118.987592">
        <ele>2516.0</ele>
        <time>2014-06-29T16:34:47Z</time>
        <sat>12</sat>
      </trkpt>
      <trkpt lat="37.662658" lon="-118.987570">
        <ele>2515.6</ele>
        <time>2014-06-29T16:34:49Z</time>
        <sat>12</sat>
      </trkpt>
      <trkpt lat="37.662793" lon="-118.987542">
        <ele>2514.9</ele>
        <time>2014-06-29T16:34:52Z</time>
        <sat>12</sat>
      </trkpt>
      <trkpt lat="37.662900" lon="-118.987523">
        <ele>2514.4</ele>
        <time>2014-06-29T16:34:54Z</time>
        <sat>12</sat>
      </trkpt>
      <trkpt lat="37.663005" lon="-118.987515">
        <ele>2514.1</ele>
        <time>2014-06-29T16:34:56Z</time>
        <sat>11</sat>
      </trkpt>
      <trkpt lat="37.663113" lon="-118.987512">
        <ele>2513.7</ele>
        <time>2014-06-29T16:34:58Z</time>
        <sat>11</sat>
      </trkpt>
      <trkpt lat="37.663215" lon="-118.987513">
        <ele>2513.5</ele>
        <time>2014-06-29T16:35:00Z</time>
        <sat>11</sat>
      </trkpt>
      <trkpt lat="37.663308" lon="-118.987512">
        <ele>2513.2</ele>
        <time>2014-06-29T16:35:03Z</time>
        <sat>12</sat>
      </trkpt>
      <trkpt lat="37.663325" lon="-118.987395">
        <ele>2511.4</ele>
        <time>2014-06-29T16:35:07Z</time>
        <sat>12</sat>
      </trkpt>
      <trkpt lat="37.663342" lon="-118.987278">
        <ele>2510.9</ele>
        <time>2014-06-29T16:35:10Z</time>
        <sat>12</sat>
      </trkpt>
      <trkpt lat="37.663353" lon="-118.987162">
        <ele>2510.4</ele>
        <time>2014-06-29T16:35:17Z</time>
        <sat>12</sat>
      </trkpt>
      <trkpt lat="37.663540" lon="-118.987098">
        <ele>2510.7</ele>
        <time>2014-06-29T16:35:43Z</time>
        <sat>12</sat>
      </trkpt>
      <trkpt lat="37.663633" lon="-118.987122">
        <ele>2510.9</ele>
        <time>2014-06-29T16:35:47Z</time>
        <sat>12</sat>
      </trkpt>
      <trkpt lat="37.663737" lon="-118.987140">
        <ele>2511.0</ele>
        <time>2014-06-29T16:35:51Z</time>
        <sat>12</sat>
      </trkpt>
      <trkpt lat="37.663833" lon="-118.987162">
        <ele>2511.0</ele>
        <time>2014-06-29T16:35:56Z</time>
        <sat>12</sat>
      </trkpt>
      <trkpt lat="37.663923" lon="-118.987177">
        <ele>2511.4</ele>
        <time>2014-06-29T16:36:01Z</time>
        <sat>12</sat>
      </trkpt>
      <trkpt lat="37.664015" lon="-118.987173">
        <ele>2511.7</ele>
        <time>2014-06-29T16:36:06Z</time>
        <sat>12</sat>
      </trkpt>
      <trkpt lat="37.664112" lon="-118.987187">
        <ele>2512.0</ele>
        <time>2014-06-29T16:36:10Z</time>
        <sat>12</sat>
      </trkpt>
      <trkpt lat="37.664203" lon="-118.987218">
        <ele>2511.8</ele>
        <time>2014-06-29T16:36:13Z</time>
        <sat>12</sat>
      </trkpt>
      <trkpt lat="37.664310" lon="-118.987247">
        <ele>2512.0</ele>
        <time>2014-06-29T16:36:17Z</time>
        <sat>12</sat>
      </trkpt>
      <trkpt lat="37.664402" lon="-118.987298">
        <ele>2511.9</ele>
        <time>2014-06-29T16:36:21Z</time>
        <sat>12</sat>
      </trkpt>
      <trkpt lat="37.664582" lon="-118.987397">
        <ele>2512.3</ele>
        <time>2014-06-29T16:36:31Z</time>
        <sat>12</sat>
      </trkpt>
      <trkpt lat="37.664667" lon="-118.987437">
        <ele>2512.5</ele>
        <time>2014-06-29T16:36:36Z</time>
        <sat>12</sat>
      </trkpt>
      <trkpt lat="37.664767" lon="-118.987457">
        <ele>2513.2</ele>
        <time>2014-06-29T16:36:41Z</time>
        <sat>12</sat>
      </trkpt>
      <trkpt lat="37.664862" lon="-118.987488">
        <ele>2513.8</ele>
        <time>2014-06-29T16:36:48Z</time>
        <sat>12</sat>
      </trkpt>
      <trkpt lat="37.664938" lon="-118.987555">
        <ele>2514.5</ele>
        <time>2014-06-29T16:36:54Z</time>
        <sat>12</sat>
      </trkpt>
      <trkpt lat="37.665022" lon="-118.987620">
        <ele>2515.1</ele>
        <time>2014-06-29T16:37:01Z</time>
        <sat>12</sat>
      </trkpt>
      <trkpt lat="37.665080" lon="-118.987710">
        <ele>2516.0</ele>
        <time>2014-06-29T16:37:08Z</time>
        <sat>12</sat>
      </trkpt>
      <trkpt lat="37.665150" lon="-118.987782">
        <ele>2517.1</ele>
        <time>2014-06-29T16:37:15Z</time>
        <sat>12</sat>
      </trkpt>
      <trkpt lat="37.665243" lon="-118.987802">
        <ele>2518.7</ele>
        <time>2014-06-29T16:37:23Z</time>
        <sat>12</sat>
      </trkpt>
      <trkpt lat="37.665433" lon="-118.987783">
        <ele>2521.9</ele>
        <time>2014-06-29T16:37:39Z</time>
        <sat>12</sat>
      </trkpt>
      <trkpt lat="37.665527" lon="-118.987828">
        <ele>2522.9</ele>
        <time>2014-06-29T16:37:46Z</time>
        <sat>12</sat>
      </trkpt>
      <trkpt lat="37.665620" lon="-118.987805">
        <ele>2524.2</ele>
        <time>2014-06-29T16:38:08Z</time>
        <sat>12</sat>
      </trkpt>
      <trkpt lat="37.665713" lon="-118.987772">
        <ele>2525.3</ele>
        <time>2014-06-29T16:38:16Z</time>
        <sat>12</sat>
      </trkpt>
      <trkpt lat="37.665813" lon="-118.987755">
        <ele>2526.0</ele>
        <time>2014-06-29T16:38:25Z</time>
        <sat>12</sat>
      </trkpt>
      <trkpt lat="37.666007" lon="-118.987838">
        <ele>2527.1</ele>
        <time>2014-06-29T16:38:48Z</time>
        <sat>12</sat>
      </trkpt>
      <trkpt lat="37.666075" lon="-118.987927">
        <ele>2526.8</ele>
        <time>2014-06-29T16:38:54Z</time>
        <sat>12</sat>
      </trkpt>
      <trkpt lat="37.666138" lon="-118.988012">
        <ele>2526.6</ele>
        <time>2014-06-29T16:38:58Z</time>
        <sat>12</sat>
      </trkpt>
      <trkpt lat="37.666187" lon="-118.988120">
        <ele>2526.0</ele>
        <time>2014-06-29T16:39:02Z</time>
        <sat>12</sat>
      </trkpt>
      <trkpt lat="37.666247" lon="-118.988242">
        <ele>2525.7</ele>
        <time>2014-06-29T16:39:06Z</time>
        <sat>12</sat>
      </trkpt>
      <trkpt lat="37.666340" lon="-118.988325">
        <ele>2526.0</ele>
        <time>2014-06-29T16:39:10Z</time>
        <sat>12</sat>
      </trkpt>
      <trkpt lat="37.666433" lon="-118.988348">
        <ele>2526.3</ele>
        <time>2014-06-29T16:39:13Z</time>
        <sat>12</sat>
      </trkpt>
      <trkpt lat="37.666525" lon="-118.988377">
        <ele>2526.2</ele>
        <time>2014-06-29T16:39:16Z</time>
        <sat>12</sat>
      </trkpt>
      <trkpt lat="37.666635" lon="-118.988395">
        <ele>2526.2</ele>
        <time>2014-06-29T16:39:19Z</time>
        <sat>12</sat>
      </trkpt>
      <trkpt lat="37.666747" lon="-118.988413">
        <ele>2526.3</ele>
        <time>2014-06-29T16:39:22Z</time>
        <sat>12</sat>
      </trkpt>
      <trkpt lat="37.666853" lon="-118.988442">
        <ele>2526.5</ele>
        <time>2014-06-29T16:39:25Z</time>
        <sat>12</sat>
      </trkpt>
      <trkpt lat="37.666955" lon="-118.988468">
        <ele>2526.6</ele>
        <time>2014-06-29T16:39:28Z</time>
        <sat>12</sat>
      </trkpt>
      <trkpt lat="37.667153" lon="-118.988532">
        <ele>2526.9</ele>
        <time>2014-06-29T16:39:34Z</time>
        <sat>12</sat>
      </trkpt>
      <trkpt lat="37.667262" lon="-118.988568">
        <ele>2527.0</ele>
        <time>2014-06-29T16:39:37Z</time>
        <sat>12</sat>
      </trkpt>
      <trkpt lat="37.667363" lon="-118.988615">
        <ele>2527.2</ele>
        <time>2014-06-29T16:39:40Z</time>
        <sat>12</sat>
      </trkpt>
      <trkpt lat="37.667465" lon="-118.988665">
        <ele>2527.1</ele>
        <time>2014-06-29T16:39:43Z</time>
        <sat>12</sat>
      </trkpt>
      <trkpt lat="37.667560" lon="-118.988723">
        <ele>2527.3</ele>
        <time>2014-06-29T16:39:46Z</time>
        <sat>12</sat>
      </trkpt>
      <trkpt lat="37.667662" lon="-118.988787">
        <ele>2527.5</ele>
        <time>2014-06-29T16:39:49Z</time>
        <sat>12</sat>
      </trkpt>
      <trkpt lat="37.667745" lon="-118.988840">
        <ele>2527.7</ele>
        <time>2014-06-29T16:39:51Z</time>
        <sat>12</sat>
      </trkpt>
      <trkpt lat="37.667850" lon="-118.988920">
        <ele>2527.6</ele>
        <time>2014-06-29T16:39:54Z</time>
        <sat>12</sat>
      </trkpt>
      <trkpt lat="37.667955" lon="-118.988998">
        <ele>2528.0</ele>
        <time>2014-06-29T16:39:57Z</time>
        <sat>12</sat>
      </trkpt>
      <trkpt lat="37.668055" lon="-118.989080">
        <ele>2528.3</ele>
        <time>2014-06-29T16:40:00Z</time>
        <sat>12</sat>
      </trkpt>
      <trkpt lat="37.668147" lon="-118.989172">
        <ele>2528.8</ele>
        <time>2014-06-29T16:40:03Z</time>
        <sat>12</sat>
      </trkpt>
      <trkpt lat="37.668240" lon="-118.989260">
        <ele>2528.3</ele>
        <time>2014-06-29T16:40:06Z</time>
        <sat>12</sat>
      </trkpt>
      <trkpt lat="37.668335" lon="-118.989343">
        <ele>2528.5</ele>
        <time>2014-06-29T16:40:09Z</time>
        <sat>11</sat>
      </trkpt>
      <trkpt lat="37.668432" lon="-118.989428">
        <ele>2529.0</ele>
        <time>2014-06-29T16:40:12Z</time>
        <sat>11</sat>
      </trkpt>
      <trkpt lat="37.668530" lon="-118.989510">
        <ele>2529.3</ele>
        <time>2014-06-29T16:40:15Z</time>
        <sat>11</sat>
      </trkpt>
      <trkpt lat="37.668623" lon="-118.989590">
        <ele>2529.8</ele>
        <time>2014-06-29T16:40:18Z</time>
        <sat>11</sat>
      </trkpt>
      <trkpt lat="37.668698" lon="-118.989667">
        <ele>2530.1</ele>
        <time>2014-06-29T16:40:21Z</time>
        <sat>11</sat>
      </trkpt>
      <trkpt lat="37.668768" lon="-118.989750">
        <ele>2530.2</ele>
        <time>2014-06-29T16:40:24Z</time>
        <sat>11</sat>
      </trkpt>
      <trkpt lat="37.668855" lon="-118.989827">
        <ele>2530.6</ele>
        <time>2014-06-29T16:40:27Z</time>
        <sat>11</sat>
      </trkpt>
      <trkpt lat="37.668937" lon="-118.989903">
        <ele>2531.0</ele>
        <time>2014-06-29T16:40:30Z</time>
        <sat>11</sat>
      </trkpt>
      <trkpt lat="37.669108" lon="-118.990062">
        <ele>2531.8</ele>
        <time>2014-06-29T16:40:36Z</time>
        <sat>11</sat>
      </trkpt>
      <trkpt lat="37.669185" lon="-118.990147">
        <ele>2532.1</ele>
        <time>2014-06-29T16:40:39Z</time>
        <sat>11</sat>
      </trkpt>
      <trkpt lat="37.669263" lon="-118.990233">
        <ele>2532.5</ele>
        <time>2014-06-29T16:40:42Z</time>
        <sat>11</sat>
      </trkpt>
      <trkpt lat="37.669347" lon="-118.990323">
        <ele>2532.4</ele>
        <time>2014-06-29T16:40:45Z</time>
        <sat>11</sat>
      </trkpt>
      <trkpt lat="37.669428" lon="-118.990425">
        <ele>2532.4</ele>
        <time>2014-06-29T16:40:48Z</time>
        <sat>11</sat>
      </trkpt>
      <trkpt lat="37.669518" lon="-118.990527">
        <ele>2532.5</ele>
        <time>2014-06-29T16:40:51Z</time>
        <sat>11</sat>
      </trkpt>
      <trkpt lat="37.669620" lon="-118.990623">
        <ele>2532.6</ele>
        <time>2014-06-29T16:40:54Z</time>
        <sat>11</sat>
      </trkpt>
      <trkpt lat="37.669697" lon="-118.990690">
        <ele>2532.7</ele>
        <time>2014-06-29T16:40:56Z</time>
        <sat>11</sat>
      </trkpt>
      <trkpt lat="37.669775" lon="-118.990755">
        <ele>2532.8</ele>
        <time>2014-06-29T16:40:58Z</time>
        <sat>11</sat>
      </trkpt>
      <trkpt lat="37.669852" lon="-118.990818">
        <ele>2532.6</ele>
        <time>2014-06-29T16:41:00Z</time>
        <sat>11</sat>
      </trkpt>
      <trkpt lat="37.669960" lon="-118.990908">
        <ele>2532.5</ele>
        <time>2014-06-29T16:41:03Z</time>
        <sat>11</sat>
      </trkpt>
      <trkpt lat="37.670072" lon="-118.990992">
        <ele>2532.4</ele>
        <time>2014-06-29T16:41:06Z</time>
        <sat>11</sat>
      </trkpt>
      <trkpt lat="37.670190" lon="-118.991070">
        <ele>2532.4</ele>
        <time>2014-06-29T16:41:09Z</time>
        <sat>11</sat>
      </trkpt>
      <trkpt lat="37.670315" lon="-118.991137">
        <ele>2532.4</ele>
        <time>2014-06-29T16:41:12Z</time>
        <sat>11</sat>
      </trkpt>
      <trkpt lat="37.670402" lon="-118.991175">
        <ele>2532.5</ele>
        <time>2014-06-29T16:41:14Z</time>
        <sat>11</sat>
      </trkpt>
      <trkpt lat="37.670498" lon="-118.991207">
        <ele>2532.5</ele>
        <time>2014-06-29T16:41:16Z</time>
        <sat>11</sat>
      </trkpt>
      <trkpt lat="37.670597" lon="-118.991235">
        <ele>2532.7</ele>
        <time>2014-06-29T16:41:18Z</time>
        <sat>11</sat>
      </trkpt>
      <trkpt lat="37.670693" lon="-118.991260">
        <ele>2532.6</ele>
        <time>2014-06-29T16:41:20Z</time>
        <sat>11</sat>
      </trkpt>
      <trkpt lat="37.670783" lon="-118.991283">
        <ele>2532.7</ele>
        <time>2014-06-29T16:41:22Z</time>
        <sat>11</sat>
      </trkpt>
      <trkpt lat="37.670902" lon="-118.991297">
        <ele>2532.7</ele>
        <time>2014-06-29T16:41:25Z</time>
        <sat>11</sat>
      </trkpt>
      <trkpt lat="37.671035" lon="-118.991298">
        <ele>2532.8</ele>
        <time>2014-06-29T16:41:28Z</time>
        <sat>11</sat>
      </trkpt>
      <trkpt lat="37.671167" lon="-118.991305">
        <ele>2532.7</ele>
        <time>2014-06-29T16:41:31Z</time>
        <sat>11</sat>
      </trkpt>
      <trkpt lat="37.671385" lon="-118.991283">
        <ele>2532.5</ele>
        <time>2014-06-29T16:41:37Z</time>
        <sat>11</sat>
      </trkpt>
      <trkpt lat="37.671487" lon="-118.991267">
        <ele>2532.8</ele>
        <time>2014-06-29T16:41:40Z</time>
        <sat>11</sat>
      </trkpt>
      <trkpt lat="37.671580" lon="-118.991295">
        <ele>2533.2</ele>
        <time>2014-06-29T16:41:43Z</time>
        <sat>11</sat>
      </trkpt>
      <trkpt lat="37.671667" lon="-118.991385">
        <ele>2532.3</ele>
        <time>2014-06-29T16:41:48Z</time>
        <sat>12</sat>
      </trkpt>
      <trkpt lat="37.671765" lon="-118.991423">
        <ele>2532.1</ele>
        <time>2014-06-29T16:41:52Z</time>
        <sat>11</sat>
      </trkpt>
      <trkpt lat="37.671855" lon="-118.991425">
        <ele>2532.9</ele>
        <time>2014-06-29T16:41:57Z</time>
        <sat>11</sat>
      </trkpt>
      <trkpt lat="37.671945" lon="-118.991418">
        <ele>2533.7</ele>
        <time>2014-06-29T16:42:02Z</time>
        <sat>11</sat>
      </trkpt>
      <trkpt lat="37.672052" lon="-118.991413">
        <ele>2534.1</ele>
        <time>2014-06-29T16:42:07Z</time>
        <sat>12</sat>
      </trkpt>
      <trkpt lat="37.672163" lon="-118.991433">
        <ele>2534.7</ele>
        <time>2014-06-29T16:42:12Z</time>
        <sat>11</sat>
      </trkpt>
      <trkpt lat="37.672263" lon="-118.991423">
        <ele>2534.6</ele>
        <time>2014-06-29T16:42:17Z</time>
        <sat>12</sat>
      </trkpt>
      <trkpt lat="37.672357" lon="-118.991407">
        <ele>2535.0</ele>
        <time>2014-06-29T16:42:21Z</time>
        <sat>12</sat>
      </trkpt>
      <trkpt lat="37.672457" lon="-118.991345">
        <ele>2535.5</ele>
        <time>2014-06-29T16:42:26Z</time>
        <sat>12</sat>
      </trkpt>
      <trkpt lat="37.672548" lon="-118.991268">
        <ele>2536.2</ele>
        <time>2014-06-29T16:42:31Z</time>
        <sat>12</sat>
      </trkpt>
      <trkpt lat="37.672635" lon="-118.991192">
        <ele>2536.6</ele>
        <time>2014-06-29T16:42:36Z</time>
        <sat>11</sat>
      </trkpt>
      <trkpt lat="37.672825" lon="-118.991105">
        <ele>2536.9</ele>
        <time>2014-06-29T16:42:44Z</time>
        <sat>11</sat>
      </trkpt>
      <trkpt lat="37.672915" lon="-118.991082">
        <ele>2537.2</ele>
        <time>2014-06-29T16:42:47Z</time>
        <sat>12</sat>
      </trkpt>
      <trkpt lat="37.673003" lon="-118.991052">
        <ele>2537.4</ele>
        <time>2014-06-29T16:42:50Z</time>
        <sat>11</sat>
      </trkpt>
      <trkpt lat="37.673102" lon="-118.990992">
        <ele>2537.7</ele>
        <time>2014-06-29T16:42:54Z</time>
        <sat>11</sat>
      </trkpt>
      <trkpt lat="37.673210" lon="-118.990935">
        <ele>2538.0</ele>
        <time>2014-06-29T16:42:58Z</time>
        <sat>11</sat>
      </trkpt>
      <trkpt lat="37.673322" lon="-118.990890">
        <ele>2538.4</ele>
        <time>2014-06-29T16:43:02Z</time>
        <sat>12</sat>
      </trkpt>
      <trkpt lat="37.673433" lon="-118.990852">
        <ele>2538.7</ele>
        <time>2014-06-29T16:43:06Z</time>
        <sat>12</sat>
      </trkpt>
      <trkpt lat="37.673535" lon="-118.990807">
        <ele>2538.4</ele>
        <time>2014-06-29T16:43:10Z</time>
        <sat>12</sat>
      </trkpt>
      <trkpt lat="37.673638" lon="-118.990752">
        <ele>2538.7</ele>
        <time>2014-06-29T16:43:14Z</time>
        <sat>12</sat>
      </trkpt>
      <trkpt lat="37.673747" lon="-118.990703">
        <ele>2539.2</ele>
        <time>2014-06-29T16:43:18Z</time>
        <sat>12</sat>
      </trkpt>
      <trkpt lat="37.673843" lon="-118.990658">
        <ele>2539.4</ele>
        <time>2014-06-29T16:43:22Z</time>
        <sat>11</sat>
      </trkpt>
      <trkpt lat="37.673935" lon="-118.990625">
        <ele>2539.5</ele>
        <time>2014-06-29T16:43:25Z</time>
        <sat>12</sat>
      </trkpt>
      <trkpt lat="37.674023" lon="-118.990593">
        <ele>2539.9</ele>
        <time>2014-06-29T16:43:28Z</time>
        <sat>11</sat>
      </trkpt>
      <trkpt lat="37.674118" lon="-118.990542">
        <ele>2540.0</ele>
        <time>2014-06-29T16:43:31Z</time>
        <sat>12</sat>
      </trkpt>
      <trkpt lat="37.674185" lon="-118.990463">
        <ele>2540.8</ele>
        <time>2014-06-29T16:43:34Z</time>
        <sat>11</sat>
      </trkpt>
      <trkpt lat="37.674270" lon="-118.990393">
        <ele>2542.2</ele>
        <time>2014-06-29T16:43:39Z</time>
        <sat>11</sat>
      </trkpt>
      <trkpt lat="37.674460" lon="-118.990438">
        <ele>2543.1</ele>
        <time>2014-06-29T16:43:49Z</time>
        <sat>11</sat>
      </trkpt>
      <trkpt lat="37.674548" lon="-118.990512">
        <ele>2543.2</ele>
        <time>2014-06-29T16:43:54Z</time>
        <sat>12</sat>
      </trkpt>
      <trkpt lat="37.674642" lon="-118.990607">
        <ele>2543.1</ele>
        <time>2014-06-29T16:43:58Z</time>
        <sat>11</sat>
      </trkpt>
      <trkpt lat="37.674727" lon="-118.990680">
        <ele>2543.4</ele>
        <time>2014-06-29T16:44:01Z</time>
        <sat>11</sat>
      </trkpt>
      <trkpt lat="37.674805" lon="-118.990752">
        <ele>2543.7</ele>
        <time>2014-06-29T16:44:04Z</time>
        <sat>12</sat>
      </trkpt>
      <trkpt lat="37.674882" lon="-118.990832">
        <ele>2543.9</ele>
        <time>2014-06-29T16:44:07Z</time>
        <sat>12</sat>
      </trkpt>
      <trkpt lat="37.674953" lon="-118.990917">
        <ele>2544.2</ele>
        <time>2014-06-29T16:44:10Z</time>
        <sat>12</sat>
      </trkpt>
      <trkpt lat="37.675022" lon="-118.991010">
        <ele>2544.6</ele>
        <time>2014-06-29T16:44:13Z</time>
        <sat>12</sat>
      </trkpt>
      <trkpt lat="37.675087" lon="-118.991103">
        <ele>2545.2</ele>
        <time>2014-06-29T16:44:16Z</time>
        <sat>12</sat>
      </trkpt>
      <trkpt lat="37.675142" lon="-118.991200">
        <ele>2545.8</ele>
        <time>2014-06-29T16:44:19Z</time>
        <sat>11</sat>
      </trkpt>
      <trkpt lat="37.675197" lon="-118.991302">
        <ele>2546.0</ele>
        <time>2014-06-29T16:44:22Z</time>
        <sat>11</sat>
      </trkpt>
      <trkpt lat="37.675247" lon="-118.991402">
        <ele>2546.2</ele>
        <time>2014-06-29T16:44:25Z</time>
        <sat>10</sat>
      </trkpt>
      <trkpt lat="37.675282" lon="-118.991515">
        <ele>2546.3</ele>
        <time>2014-06-29T16:44:28Z</time>
        <sat>11</sat>
      </trkpt>
      <trkpt lat="37.675298" lon="-118.991633">
        <ele>2546.6</ele>
        <time>2014-06-29T16:44:31Z</time>
        <sat>11</sat>
      </trkpt>
      <trkpt lat="37.675320" lon="-118.991745">
        <ele>2546.5</ele>
        <time>2014-06-29T16:44:34Z</time>
        <sat>12</sat>
      </trkpt>
      <trkpt lat="37.675350" lon="-118.991860">
        <ele>2546.9</ele>
        <time>2014-06-29T16:44:37Z</time>
        <sat>12</sat>
      </trkpt>
      <trkpt lat="37.675377" lon="-118.991972">
        <ele>2547.1</ele>
        <time>2014-06-29T16:44:40Z</time>
        <sat>12</sat>
      </trkpt>
      <trkpt lat="37.675403" lon="-118.992222">
        <ele>2547.3</ele>
        <time>2014-06-29T16:44:46Z</time>
        <sat>12</sat>
      </trkpt>
      <trkpt lat="37.675400" lon="-118.992348">
        <ele>2547.9</ele>
        <time>2014-06-29T16:44:49Z</time>
        <sat>12</sat>
      </trkpt>
      <trkpt lat="37.675398" lon="-118.992490">
        <ele>2548.2</ele>
        <time>2014-06-29T16:44:52Z</time>
        <sat>12</sat>
      </trkpt>
      <trkpt lat="37.675397" lon="-118.992643">
        <ele>2548.4</ele>
        <time>2014-06-29T16:44:55Z</time>
        <sat>12</sat>
      </trkpt>
      <trkpt lat="37.675400" lon="-118.992807">
        <ele>2548.1</ele>
        <time>2014-06-29T16:44:58Z</time>
        <sat>12</sat>
      </trkpt>
      <trkpt lat="37.675403" lon="-118.992963">
        <ele>2548.2</ele>
        <time>2014-06-29T16:45:01Z</time>
        <sat>12</sat>
      </trkpt>
      <trkpt lat="37.675392" lon="-118.993080">
        <ele>2548.5</ele>
        <time>2014-06-29T16:45:03Z</time>
        <sat>12</sat>
      </trkpt>
      <trkpt lat="37.675378" lon="-118.993232">
        <ele>2548.7</ele>
        <time>2014-06-29T16:45:06Z</time>
        <sat>11</sat>
      </trkpt>
      <trkpt lat="37.675353" lon="-118.993385">
        <ele>2548.5</ele>
        <time>2014-06-29T16:45:09Z</time>
        <sat>12</sat>
      </trkpt>
      <trkpt lat="37.675333" lon="-118.993537">
        <ele>2548.5</ele>
        <time>2014-06-29T16:45:12Z</time>
        <sat>10</sat>
      </trkpt>
      <trkpt lat="37.675320" lon="-118.993700">
        <ele>2548.1</ele>
        <time>2014-06-29T16:45:15Z</time>
        <sat>12</sat>
      </trkpt>
      <trkpt lat="37.675308" lon="-118.993813">
        <ele>2548.0</ele>
        <time>2014-06-29T16:45:17Z</time>
        <sat>12</sat>
      </trkpt>
      <trkpt lat="37.675287" lon="-118.993937">
        <ele>2547.7</ele>
        <time>2014-06-29T16:45:19Z</time>
        <sat>12</sat>
      </trkpt>
      <trkpt lat="37.675260" lon="-118.994063">
        <ele>2547.6</ele>
        <time>2014-06-29T16:45:21Z</time>
        <sat>12</sat>
      </trkpt>
      <trkpt lat="37.675225" lon="-118.994190">
        <ele>2546.9</ele>
        <time>2014-06-29T16:45:23Z</time>
        <sat>10</sat>
      </trkpt>
      <trkpt lat="37.675182" lon="-118.994322">
        <ele>2546.5</ele>
        <time>2014-06-29T16:45:25Z</time>
        <sat>12</sat>
      </trkpt>
      <trkpt lat="37.675128" lon="-118.994457">
        <ele>2545.6</ele>
        <time>2014-06-29T16:45:27Z</time>
        <sat>12</sat>
      </trkpt>
      <trkpt lat="37.675062" lon="-118.994598">
        <ele>2545.1</ele>
        <time>2014-06-29T16:45:29Z</time>
        <sat>12</sat>
      </trkpt>
      <trkpt lat="37.674987" lon="-118.994752">
        <ele>2544.6</ele>
        <time>2014-06-29T16:45:31Z</time>
        <sat>12</sat>
      </trkpt>
      <trkpt lat="37.674902" lon="-118.994913">
        <ele>2543.9</ele>
        <time>2014-06-29T16:45:33Z</time>
        <sat>12</sat>
      </trkpt>
      <trkpt lat="37.674810" lon="-118.995080">
        <ele>2542.9</ele>
        <time>2014-06-29T16:45:35Z</time>
        <sat>12</sat>
      </trkpt>
      <trkpt lat="37.674718" lon="-118.995257">
        <ele>2541.9</ele>
        <time>2014-06-29T16:45:37Z</time>
        <sat>12</sat>
      </trkpt>
      <trkpt lat="37.674618" lon="-118.995435">
        <ele>2540.7</ele>
        <time>2014-06-29T16:45:39Z</time>
        <sat>11</sat>
      </trkpt>
      <trkpt lat="37.674565" lon="-118.995528">
        <ele>2540.3</ele>
        <time>2014-06-29T16:45:40Z</time>
        <sat>11</sat>
      </trkpt>
      <trkpt lat="37.674470" lon="-118.995717">
        <ele>2539.6</ele>
        <time>2014-06-29T16:45:42Z</time>
        <sat>12</sat>
      </trkpt>
      <trkpt lat="37.674280" lon="-118.996082">
        <ele>2536.9</ele>
        <time>2014-06-29T16:45:46Z</time>
        <sat>11</sat>
      </trkpt>
      <trkpt lat="37.674228" lon="-118.996178">
        <ele>2536.1</ele>
        <time>2014-06-29T16:45:47Z</time>
        <sat>11</sat>
      </trkpt>
      <trkpt lat="37.674133" lon="-118.996367">
        <ele>2535.3</ele>
        <time>2014-06-29T16:45:49Z</time>
        <sat>12</sat>
      </trkpt>
      <trkpt lat="37.674033" lon="-118.996553">
        <ele>2534.6</ele>
        <time>2014-06-29T16:45:51Z</time>
        <sat>12</sat>
      </trkpt>
      <trkpt lat="37.673942" lon="-118.996733">
        <ele>2533.8</ele>
        <time>2014-06-29T16:45:53Z</time>
        <sat>11</sat>
      </trkpt>
      <trkpt lat="37.673843" lon="-118.996910">
        <ele>2532.6</ele>
        <time>2014-06-29T16:45:55Z</time>
        <sat>11</sat>
      </trkpt>
      <trkpt lat="37.673752" lon="-118.997088">
        <ele>2531.9</ele>
        <time>2014-06-29T16:45:57Z</time>
        <sat>12</sat>
      </trkpt>
      <trkpt lat="37.673663" lon="-118.997273">
        <ele>2530.8</ele>
        <time>2014-06-29T16:45:59Z</time>
        <sat>11</sat>
      </trkpt>
      <trkpt lat="37.673598" lon="-118.997463">
        <ele>2529.9</ele>
        <time>2014-06-29T16:46:01Z</time>
        <sat>11</sat>
      </trkpt>
      <trkpt lat="37.673547" lon="-118.997658">
        <ele>2529.1</ele>
        <time>2014-06-29T16:46:03Z</time>
        <sat>12</sat>
      </trkpt>
      <trkpt lat="37.673515" lon="-118.997862">
        <ele>2528.3</ele>
        <time>2014-06-29T16:46:05Z</time>
        <sat>12</sat>
      </trkpt>
      <trkpt lat="37.673493" lon="-118.998073">
        <ele>2527.7</ele>
        <time>2014-06-29T16:46:07Z</time>
        <sat>12</sat>
      </trkpt>
      <trkpt lat="37.673490" lon="-118.998295">
        <ele>2526.7</ele>
        <time>2014-06-29T16:46:09Z</time>
        <sat>12</sat>
      </trkpt>
      <trkpt lat="37.673508" lon="-118.998522">
        <ele>2525.4</ele>
        <time>2014-06-29T16:46:11Z</time>
        <sat>12</sat>
      </trkpt>
      <trkpt lat="37.673527" lon="-118.998633">
        <ele>2524.7</ele>
        <time>2014-06-29T16:46:12Z</time>
        <sat>12</sat>
      </trkpt>
      <trkpt lat="37.673573" lon="-118.998840">
        <ele>2523.3</ele>
        <time>2014-06-29T16:46:14Z</time>
        <sat>12</sat>
      </trkpt>
      <trkpt lat="37.673630" lon="-118.999008">
        <ele>2522.0</ele>
        <time>2014-06-29T16:46:16Z</time>
        <sat>12</sat>
      </trkpt>
      <trkpt lat="37.673702" lon="-118.999148">
        <ele>2520.7</ele>
        <time>2014-06-29T16:46:18Z</time>
        <sat>12</sat>
      </trkpt>
      <trkpt lat="37.673785" lon="-118.999282">
        <ele>2519.8</ele>
        <time>2014-06-29T16:46:20Z</time>
        <sat>12</sat>
      </trkpt>
      <trkpt lat="37.673873" lon="-118.999402">
        <ele>2518.7</ele>
        <time>2014-06-29T16:46:22Z</time>
        <sat>12</sat>
      </trkpt>
      <trkpt lat="37.673958" lon="-118.999493">
        <ele>2517.7</ele>
        <time>2014-06-29T16:46:24Z</time>
        <sat>11</sat>
      </trkpt>
      <trkpt lat="37.674028" lon="-118.999565">
        <ele>2516.7</ele>
        <time>2014-06-29T16:46:26Z</time>
        <sat>12</sat>
      </trkpt>
      <trkpt lat="37.674137" lon="-118.999663">
        <ele>2515.9</ele>
        <time>2014-06-29T16:46:29Z</time>
        <sat>12</sat>
      </trkpt>
      <trkpt lat="37.674222" lon="-118.999717">
        <ele>2515.2</ele>
        <time>2014-06-29T16:46:31Z</time>
        <sat>12</sat>
      </trkpt>
      <trkpt lat="37.674290" lon="-118.999793">
        <ele>2514.5</ele>
        <time>2014-06-29T16:46:37Z</time>
        <sat>12</sat>
      </trkpt>
      <trkpt lat="37.674228" lon="-118.999885">
        <ele>2513.7</ele>
        <time>2014-06-29T16:46:42Z</time>
        <sat>11</sat>
      </trkpt>
      <trkpt lat="37.674133" lon="-118.999950">
        <ele>2513.4</ele>
        <time>2014-06-29T16:46:45Z</time>
        <sat>12</sat>
      </trkpt>
      <trkpt lat="37.673973" lon="-119.000163">
        <ele>2513.2</ele>
        <time>2014-06-29T16:46:51Z</time>
        <sat>12</sat>
      </trkpt>
      <trkpt lat="37.673867" lon="-119.000215">
        <ele>2513.4</ele>
        <time>2014-06-29T16:46:55Z</time>
        <sat>12</sat>
      </trkpt>
      <trkpt lat="37.673763" lon="-119.000243">
        <ele>2513.8</ele>
        <time>2014-06-29T16:46:58Z</time>
        <sat>12</sat>
      </trkpt>
      <trkpt lat="37.673687" lon="-119.000315">
        <ele>2513.9</ele>
        <time>2014-06-29T16:47:01Z</time>
        <sat>12</sat>
      </trkpt>
      <trkpt lat="37.673635" lon="-119.000428">
        <ele>2513.9</ele>
        <time>2014-06-29T16:47:05Z</time>
        <sat>12</sat>
      </trkpt>
      <trkpt lat="37.673675" lon="-119.000547">
        <ele>2513.7</ele>
        <time>2014-06-29T16:47:11Z</time>
        <sat>12</sat>
      </trkpt>
      <trkpt lat="37.673757" lon="-119.000630">
        <ele>2513.5</ele>
        <time>2014-06-29T16:47:17Z</time>
        <sat>12</sat>
      </trkpt>
      <trkpt lat="37.673853" lon="-119.000670">
        <ele>2513.1</ele>
        <time>2014-06-29T16:47:21Z</time>
        <sat>12</sat>
      </trkpt>
      <trkpt lat="37.673950" lon="-119.000730">
        <ele>2514.5</ele>
        <time>2014-06-29T16:47:25Z</time>
        <sat>12</sat>
      </trkpt>
      <trkpt lat="37.674022" lon="-119.000800">
        <ele>2515.8</ele>
        <time>2014-06-29T16:47:30Z</time>
        <sat>12</sat>
      </trkpt>
      <trkpt lat="37.674058" lon="-119.000912">
        <ele>2517.3</ele>
        <time>2014-06-29T16:48:15Z</time>
        <sat>12</sat>
      </trkpt>
      <trkpt lat="37.674167" lon="-119.001128">
        <ele>2516.1</ele>
        <time>2014-06-29T16:48:23Z</time>
        <sat>12</sat>
      </trkpt>
      <trkpt lat="37.674272" lon="-119.001197">
        <ele>2513.4</ele>
        <time>2014-06-29T16:48:26Z</time>
        <sat>12</sat>
      </trkpt>
      <trkpt lat="37.674365" lon="-119.001217">
        <ele>2512.1</ele>
        <time>2014-06-29T16:48:28Z</time>
        <sat>12</sat>
      </trkpt>
      <trkpt lat="37.674455" lon="-119.001192">
        <ele>2510.7</ele>
        <time>2014-06-29T16:48:30Z</time>
        <sat>12</sat>
      </trkpt>
      <trkpt lat="37.674525" lon="-119.001322">
        <ele>2509.3</ele>
        <time>2014-06-29T16:48:33Z</time>
        <sat>12</sat>
      </trkpt>
      <trkpt lat="37.674533" lon="-119.001447">
        <ele>2508.4</ele>
        <time>2014-06-29T16:48:35Z</time>
        <sat>12</sat>
      </trkpt>
      <trkpt lat="37.674505" lon="-119.001563">
        <ele>2507.6</ele>
        <time>2014-06-29T16:48:39Z</time>
        <sat>12</sat>
      </trkpt>
      <trkpt lat="37.674510" lon="-119.001678">
        <ele>2506.7</ele>
        <time>2014-06-29T16:48:43Z</time>
        <sat>12</sat>
      </trkpt>
      <trkpt lat="37.674530" lon="-119.001833">
        <ele>2505.4</ele>
        <time>2014-06-29T16:48:47Z</time>
        <sat>12</sat>
      </trkpt>
      <trkpt lat="37.674508" lon="-119.001963">
        <ele>2504.1</ele>
        <time>2014-06-29T16:48:49Z</time>
        <sat>12</sat>
      </trkpt>
      <trkpt lat="37.674485" lon="-119.002113">
        <ele>2502.8</ele>
        <time>2014-06-29T16:48:51Z</time>
        <sat>12</sat>
      </trkpt>
      <trkpt lat="37.674495" lon="-119.002258">
        <ele>2501.3</ele>
        <time>2014-06-29T16:48:54Z</time>
        <sat>12</sat>
      </trkpt>
      <trkpt lat="37.674495" lon="-119.002388">
        <ele>2500.4</ele>
        <time>2014-06-29T16:48:57Z</time>
        <sat>12</sat>
      </trkpt>
      <trkpt lat="37.674485" lon="-119.002548">
        <ele>2499.4</ele>
        <time>2014-06-29T16:49:00Z</time>
        <sat>12</sat>
      </trkpt>
      <trkpt lat="37.674500" lon="-119.002680">
        <ele>2497.9</ele>
        <time>2014-06-29T16:49:03Z</time>
        <sat>11</sat>
      </trkpt>
      <trkpt lat="37.674565" lon="-119.002790">
        <ele>2496.4</ele>
        <time>2014-06-29T16:49:06Z</time>
        <sat>12</sat>
      </trkpt>
      <trkpt lat="37.674648" lon="-119.002887">
        <ele>2495.1</ele>
        <time>2014-06-29T16:49:08Z</time>
        <sat>12</sat>
      </trkpt>
      <trkpt lat="37.674745" lon="-119.003002">
        <ele>2494.4</ele>
        <time>2014-06-29T16:49:10Z</time>
        <sat>12</sat>
      </trkpt>
      <trkpt lat="37.674820" lon="-119.003105">
        <ele>2493.7</ele>
        <time>2014-06-29T16:49:12Z</time>
        <sat>12</sat>
      </trkpt>
      <trkpt lat="37.674933" lon="-119.003157">
        <ele>2492.9</ele>
        <time>2014-06-29T16:49:14Z</time>
        <sat>12</sat>
      </trkpt>
      <trkpt lat="37.675045" lon="-119.003203">
        <ele>2492.0</ele>
        <time>2014-06-29T16:49:16Z</time>
        <sat>12</sat>
      </trkpt>
      <trkpt lat="37.675248" lon="-119.003128">
        <ele>2490.3</ele>
        <time>2014-06-29T16:49:20Z</time>
        <sat>12</sat>
      </trkpt>
      <trkpt lat="37.675345" lon="-119.003015">
        <ele>2489.3</ele>
        <time>2014-06-29T16:49:22Z</time>
        <sat>11</sat>
      </trkpt>
      <trkpt lat="37.675373" lon="-119.002857">
        <ele>2488.3</ele>
        <time>2014-06-29T16:49:24Z</time>
        <sat>12</sat>
      </trkpt>
      <trkpt lat="37.675425" lon="-119.002713">
        <ele>2487.7</ele>
        <time>2014-06-29T16:49:26Z</time>
        <sat>12</sat>
      </trkpt>
      <trkpt lat="37.675525" lon="-119.002593">
        <ele>2486.7</ele>
        <time>2014-06-29T16:49:28Z</time>
        <sat>12</sat>
      </trkpt>
      <trkpt lat="37.675673" lon="-119.002543">
        <ele>2486.0</ele>
        <time>2014-06-29T16:49:30Z</time>
        <sat>12</sat>
      </trkpt>
      <trkpt lat="37.675795" lon="-119.002625">
        <ele>2485.4</ele>
        <time>2014-06-29T16:49:32Z</time>
        <sat>12</sat>
      </trkpt>
      <trkpt lat="37.675908" lon="-119.002718">
        <ele>2484.7</ele>
        <time>2014-06-29T16:49:34Z</time>
        <sat>11</sat>
      </trkpt>
      <trkpt lat="37.676012" lon="-119.002768">
        <ele>2484.1</ele>
        <time>2014-06-29T16:49:36Z</time>
        <sat>12</sat>
      </trkpt>
      <trkpt lat="37.676137" lon="-119.002737">
        <ele>2483.4</ele>
        <time>2014-06-29T16:49:38Z</time>
        <sat>12</sat>
      </trkpt>
      <trkpt lat="37.676270" lon="-119.002700">
        <ele>2482.6</ele>
        <time>2014-06-29T16:49:40Z</time>
        <sat>12</sat>
      </trkpt>
      <trkpt lat="37.676372" lon="-119.002667">
        <ele>2482.2</ele>
        <time>2014-06-29T16:49:42Z</time>
        <sat>12</sat>
      </trkpt>
      <trkpt lat="37.676458" lon="-119.002598">
        <ele>2482.0</ele>
        <time>2014-06-29T16:49:45Z</time>
        <sat>12</sat>
      </trkpt>
      <trkpt lat="37.676462" lon="-119.002457">
        <ele>2481.7</ele>
        <time>2014-06-29T16:56:55Z</time>
        <sat>12</sat>
      </trkpt>
      <trkpt lat="37.676465" lon="-119.002167">
        <ele>2481.5</ele>
        <time>2014-06-29T16:57:01Z</time>
        <sat>12</sat>
      </trkpt>
      <trkpt lat="37.676495" lon="-119.002043">
        <ele>2481.1</ele>
        <time>2014-06-29T16:57:04Z</time>
        <sat>12</sat>
      </trkpt>
      <trkpt lat="37.676558" lon="-119.001920">
        <ele>2480.9</ele>
        <time>2014-06-29T16:57:07Z</time>
        <sat>12</sat>
      </trkpt>
      <trkpt lat="37.676625" lon="-119.001790">
        <ele>2480.4</ele>
        <time>2014-06-29T16:57:10Z</time>
        <sat>12</sat>
      </trkpt>
      <trkpt lat="37.676695" lon="-119.001660">
        <ele>2480.4</ele>
        <time>2014-06-29T16:57:13Z</time>
        <sat>11</sat>
      </trkpt>
      <trkpt lat="37.676752" lon="-119.001548">
        <ele>2480.3</ele>
        <time>2014-06-29T16:57:16Z</time>
        <sat>12</sat>
      </trkpt>
      <trkpt lat="37.676835" lon="-119.001440">
        <ele>2480.0</ele>
        <time>2014-06-29T16:57:19Z</time>
        <sat>11</sat>
      </trkpt>
      <trkpt lat="37.676900" lon="-119.001347">
        <ele>2479.9</ele>
        <time>2014-06-29T16:57:21Z</time>
        <sat>12</sat>
      </trkpt>
      <trkpt lat="37.676960" lon="-119.001252">
        <ele>2479.6</ele>
        <time>2014-06-29T16:57:23Z</time>
        <sat>11</sat>
      </trkpt>
      <trkpt lat="37.677010" lon="-119.001157">
        <ele>2479.5</ele>
        <time>2014-06-29T16:57:25Z</time>
        <sat>12</sat>
      </trkpt>
      <trkpt lat="37.677075" lon="-119.001012">
        <ele>2479.7</ele>
        <time>2014-06-29T16:57:28Z</time>
        <sat>12</sat>
      </trkpt>
      <trkpt lat="37.677163" lon="-119.000883">
        <ele>2479.9</ele>
        <time>2014-06-29T16:57:31Z</time>
        <sat>11</sat>
      </trkpt>
      <trkpt lat="37.677250" lon="-119.000762">
        <ele>2479.7</ele>
        <time>2014-06-29T16:57:34Z</time>
        <sat>12</sat>
      </trkpt>
      <trkpt lat="37.677332" lon="-119.000645">
        <ele>2479.7</ele>
        <time>2014-06-29T16:57:37Z</time>
        <sat>12</sat>
      </trkpt>
      <trkpt lat="37.677405" lon="-119.000547">
        <ele>2479.6</ele>
        <time>2014-06-29T16:57:40Z</time>
        <sat>12</sat>
      </trkpt>
      <trkpt lat="37.677488" lon="-119.000448">
        <ele>2479.1</ele>
        <time>2014-06-29T16:57:43Z</time>
        <sat>12</sat>
      </trkpt>
      <trkpt lat="37.677580" lon="-119.000375">
        <ele>2478.7</ele>
        <time>2014-06-29T16:57:46Z</time>
        <sat>12</sat>
      </trkpt>
      <trkpt lat="37.677712" lon="-119.000308">
        <ele>2478.5</ele>
        <time>2014-06-29T16:57:49Z</time>
        <sat>12</sat>
      </trkpt>
      <trkpt lat="37.677810" lon="-119.000277">
        <ele>2478.7</ele>
        <time>2014-06-29T16:57:51Z</time>
        <sat>12</sat>
      </trkpt>
      <trkpt lat="37.677915" lon="-119.000243">
        <ele>2478.3</ele>
        <time>2014-06-29T16:57:53Z</time>
        <sat>12</sat>
      </trkpt>
      <trkpt lat="37.678007" lon="-119.000207">
        <ele>2477.9</ele>
        <time>2014-06-29T16:57:55Z</time>
        <sat>12</sat>
      </trkpt>
      <trkpt lat="37.678107" lon="-119.000153">
        <ele>2477.5</ele>
        <time>2014-06-29T16:57:57Z</time>
        <sat>11</sat>
      </trkpt>
      <trkpt lat="37.678342" lon="-119.000032">
        <ele>2477.0</ele>
        <time>2014-06-29T16:58:01Z</time>
        <sat>12</sat>
      </trkpt>
      <trkpt lat="37.678465" lon="-119.000037">
        <ele>2476.5</ele>
        <time>2014-06-29T16:58:03Z</time>
        <sat>12</sat>
      </trkpt>
      <trkpt lat="37.678607" lon="-119.000033">
        <ele>2476.0</ele>
        <time>2014-06-29T16:58:05Z</time>
        <sat>12</sat>
      </trkpt>
      <trkpt lat="37.678730" lon="-119.000028">
        <ele>2474.8</ele>
        <time>2014-06-29T16:58:07Z</time>
        <sat>12</sat>
      </trkpt>
      <trkpt lat="37.678827" lon="-119.000027">
        <ele>2472.9</ele>
        <time>2014-06-29T16:59:13Z</time>
        <sat>12</sat>
      </trkpt>
      <trkpt lat="37.679077" lon="-119.000007">
        <ele>2472.3</ele>
        <time>2014-06-29T16:59:19Z</time>
        <sat>12</sat>
      </trkpt>
      <trkpt lat="37.679210" lon="-119.000007">
        <ele>2471.7</ele>
        <time>2014-06-29T16:59:22Z</time>
        <sat>12</sat>
      </trkpt>
      <trkpt lat="37.679315" lon="-119.000053">
        <ele>2471.5</ele>
        <time>2014-06-29T16:59:25Z</time>
        <sat>12</sat>
      </trkpt>
      <trkpt lat="37.679397" lon="-119.000123">
        <ele>2471.1</ele>
        <time>2014-06-29T16:59:28Z</time>
        <sat>12</sat>
      </trkpt>
      <trkpt lat="37.679470" lon="-119.000222">
        <ele>2470.4</ele>
        <time>2014-06-29T16:59:32Z</time>
        <sat>12</sat>
      </trkpt>
      <trkpt lat="37.679547" lon="-119.000305">
        <ele>2470.2</ele>
        <time>2014-06-29T16:59:45Z</time>
        <sat>12</sat>
      </trkpt>
      <trkpt lat="37.679630" lon="-119.000210">
        <ele>2470.6</ele>
        <time>2014-06-29T16:59:50Z</time>
        <sat>12</sat>
      </trkpt>
      <trkpt lat="37.679707" lon="-119.000133">
        <ele>2470.5</ele>
        <time>2014-06-29T17:00:06Z</time>
        <sat>12</sat>
      </trkpt>
      <trkpt lat="37.679817" lon="-119.000095">
        <ele>2470.9</ele>
        <time>2014-06-29T17:00:11Z</time>
        <sat>12</sat>
      </trkpt>
      <trkpt lat="37.679925" lon="-119.000037">
        <ele>2471.5</ele>
        <time>2014-06-29T17:00:15Z</time>
        <sat>11</sat>
      </trkpt>
      <trkpt lat="37.680092" lon="-118.999897">
        <ele>2471.7</ele>
        <time>2014-06-29T17:00:23Z</time>
        <sat>12</sat>
      </trkpt>
      <trkpt lat="37.680165" lon="-118.999828">
        <ele>2471.5</ele>
        <time>2014-06-29T17:05:56Z</time>
        <sat>11</sat>
      </trkpt>
      <trkpt lat="37.680353" lon="-118.999668">
        <ele>2471.6</ele>
        <time>2014-06-29T17:06:04Z</time>
        <sat>11</sat>
      </trkpt>
      <trkpt lat="37.680432" lon="-118.999592">
        <ele>2472.4</ele>
        <time>2014-06-29T17:06:08Z</time>
        <sat>11</sat>
      </trkpt>
      <trkpt lat="37.680517" lon="-118.999498">
        <ele>2472.8</ele>
        <time>2014-06-29T17:06:13Z</time>
        <sat>11</sat>
      </trkpt>
      <trkpt lat="37.680598" lon="-118.999433">
        <ele>2473.0</ele>
        <time>2014-06-29T17:06:17Z</time>
        <sat>11</sat>
      </trkpt>
      <trkpt lat="37.680690" lon="-118.999407">
        <ele>2472.5</ele>
        <time>2014-06-29T17:06:20Z</time>
        <sat>11</sat>
      </trkpt>
      <trkpt lat="37.680775" lon="-118.999368">
        <ele>2472.3</ele>
        <time>2014-06-29T17:06:22Z</time>
        <sat>11</sat>
      </trkpt>
      <trkpt lat="37.680863" lon="-118.999347">
        <ele>2472.2</ele>
        <time>2014-06-29T17:06:24Z</time>
        <sat>11</sat>
      </trkpt>
      <trkpt lat="37.680967" lon="-118.999322">
        <ele>2471.9</ele>
        <time>2014-06-29T17:06:26Z</time>
        <sat>11</sat>
      </trkpt>
      <trkpt lat="37.681092" lon="-118.999310">
        <ele>2471.6</ele>
        <time>2014-06-29T17:06:28Z</time>
        <sat>11</sat>
      </trkpt>
      <trkpt lat="37.681192" lon="-118.999315">
        <ele>2471.1</ele>
        <time>2014-06-29T17:06:30Z</time>
        <sat>11</sat>
      </trkpt>
      <trkpt lat="37.681292" lon="-118.999318">
        <ele>2470.7</ele>
        <time>2014-06-29T17:06:32Z</time>
        <sat>11</sat>
      </trkpt>
      <trkpt lat="37.681382" lon="-118.999295">
        <ele>2470.5</ele>
        <time>2014-06-29T17:06:34Z</time>
        <sat>11</sat>
      </trkpt>
      <trkpt lat="37.681502" lon="-118.999222">
        <ele>2470.6</ele>
        <time>2014-06-29T17:06:37Z</time>
        <sat>11</sat>
      </trkpt>
      <trkpt lat="37.681592" lon="-118.999173">
        <ele>2470.6</ele>
        <time>2014-06-29T17:06:39Z</time>
        <sat>11</sat>
      </trkpt>
      <trkpt lat="37.681702" lon="-118.999137">
        <ele>2470.6</ele>
        <time>2014-06-29T17:06:41Z</time>
        <sat>11</sat>
      </trkpt>
      <trkpt lat="37.681808" lon="-118.999097">
        <ele>2470.6</ele>
        <time>2014-06-29T17:06:43Z</time>
        <sat>11</sat>
      </trkpt>
      <trkpt lat="37.681903" lon="-118.999030">
        <ele>2470.3</ele>
        <time>2014-06-29T17:06:45Z</time>
        <sat>11</sat>
      </trkpt>
      <trkpt lat="37.681987" lon="-118.998972">
        <ele>2470.5</ele>
        <time>2014-06-29T17:06:47Z</time>
        <sat>11</sat>
      </trkpt>
      <trkpt lat="37.682080" lon="-118.998932">
        <ele>2470.3</ele>
        <time>2014-06-29T17:06:49Z</time>
        <sat>11</sat>
      </trkpt>
      <trkpt lat="37.682172" lon="-118.998912">
        <ele>2470.4</ele>
        <time>2014-06-29T17:06:51Z</time>
        <sat>11</sat>
      </trkpt>
      <trkpt lat="37.682265" lon="-118.998883">
        <ele>2470.4</ele>
        <time>2014-06-29T17:06:53Z</time>
        <sat>11</sat>
      </trkpt>
      <trkpt lat="37.682353" lon="-118.998832">
        <ele>2470.2</ele>
        <time>2014-06-29T17:06:55Z</time>
        <sat>11</sat>
      </trkpt>
      <trkpt lat="37.682455" lon="-118.998778">
        <ele>2470.2</ele>
        <time>2014-06-29T17:06:58Z</time>
        <sat>11</sat>
      </trkpt>
      <trkpt lat="37.682630" lon="-118.998645">
        <ele>2470.2</ele>
        <time>2014-06-29T17:07:04Z</time>
        <sat>11</sat>
      </trkpt>
      <trkpt lat="37.682703" lon="-118.998562">
        <ele>2470.0</ele>
        <time>2014-06-29T17:07:07Z</time>
        <sat>11</sat>
      </trkpt>
      <trkpt lat="37.682807" lon="-118.998503">
        <ele>2470.2</ele>
        <time>2014-06-29T17:07:10Z</time>
        <sat>11</sat>
      </trkpt>
      <trkpt lat="37.682923" lon="-118.998450">
        <ele>2470.6</ele>
        <time>2014-06-29T17:07:13Z</time>
        <sat>11</sat>
      </trkpt>
      <trkpt lat="37.683027" lon="-118.998405">
        <ele>2470.5</ele>
        <time>2014-06-29T17:07:16Z</time>
        <sat>11</sat>
      </trkpt>
      <trkpt lat="37.683123" lon="-118.998387">
        <ele>2470.6</ele>
        <time>2014-06-29T17:07:19Z</time>
        <sat>11</sat>
      </trkpt>
      <trkpt lat="37.683237" lon="-118.998408">
        <ele>2471.2</ele>
        <time>2014-06-29T17:07:23Z</time>
        <sat>11</sat>
      </trkpt>
      <trkpt lat="37.683300" lon="-118.998518">
        <ele>2471.9</ele>
        <time>2014-06-29T17:07:27Z</time>
        <sat>11</sat>
      </trkpt>
      <trkpt lat="37.683345" lon="-118.998623">
        <ele>2472.2</ele>
        <time>2014-06-29T17:07:30Z</time>
        <sat>11</sat>
      </trkpt>
      <trkpt lat="37.683435" lon="-118.998705">
        <ele>2472.8</ele>
        <time>2014-06-29T17:07:34Z</time>
        <sat>11</sat>
      </trkpt>
      <trkpt lat="37.683520" lon="-118.998780">
        <ele>2473.5</ele>
        <time>2014-06-29T17:07:38Z</time>
        <sat>11</sat>
      </trkpt>
      <trkpt lat="37.683603" lon="-118.998853">
        <ele>2473.8</ele>
        <time>2014-06-29T17:07:42Z</time>
        <sat>11</sat>
      </trkpt>
      <trkpt lat="37.683675" lon="-118.998937">
        <ele>2474.3</ele>
        <time>2014-06-29T17:07:46Z</time>
        <sat>11</sat>
      </trkpt>
      <trkpt lat="37.683765" lon="-118.999012">
        <ele>2474.7</ele>
        <time>2014-06-29T17:07:51Z</time>
        <sat>11</sat>
      </trkpt>
      <trkpt lat="37.683860" lon="-118.999083">
        <ele>2475.5</ele>
        <time>2014-06-29T17:07:56Z</time>
        <sat>11</sat>
      </trkpt>
      <trkpt lat="37.683933" lon="-118.999158">
        <ele>2475.4</ele>
        <time>2014-06-29T17:08:00Z</time>
        <sat>11</sat>
      </trkpt>
      <trkpt lat="37.684113" lon="-118.999325">
        <ele>2475.3</ele>
        <time>2014-06-29T17:08:07Z</time>
        <sat>11</sat>
      </trkpt>
      <trkpt lat="37.684202" lon="-118.999378">
        <ele>2475.1</ele>
        <time>2014-06-29T17:08:10Z</time>
        <sat>11</sat>
      </trkpt>
      <trkpt lat="37.684260" lon="-118.999508">
        <ele>2474.8</ele>
        <time>2014-06-29T17:08:14Z</time>
        <sat>11</sat>
      </trkpt>
      <trkpt lat="37.684330" lon="-118.999642">
        <ele>2474.3</ele>
        <time>2014-06-29T17:08:17Z</time>
        <sat>11</sat>
      </trkpt>
      <trkpt lat="37.684390" lon="-118.999758">
        <ele>2473.4</ele>
        <time>2014-06-29T17:08:19Z</time>
        <sat>11</sat>
      </trkpt>
      <trkpt lat="37.684463" lon="-118.999887">
        <ele>2472.7</ele>
        <time>2014-06-29T17:08:21Z</time>
        <sat>10</sat>
      </trkpt>
      <trkpt lat="37.684550" lon="-119.000040">
        <ele>2471.7</ele>
        <time>2014-06-29T17:08:23Z</time>
        <sat>11</sat>
      </trkpt>
      <trkpt lat="37.684630" lon="-119.000195">
        <ele>2471.5</ele>
        <time>2014-06-29T17:08:25Z</time>
        <sat>11</sat>
      </trkpt>
      <trkpt lat="37.684717" lon="-119.000322">
        <ele>2470.9</ele>
        <time>2014-06-29T17:08:27Z</time>
        <sat>11</sat>
      </trkpt>
      <trkpt lat="37.684777" lon="-119.000452">
        <ele>2470.2</ele>
        <time>2014-06-29T17:08:29Z</time>
        <sat>11</sat>
      </trkpt>
      <trkpt lat="37.684865" lon="-119.000570">
        <ele>2469.6</ele>
        <time>2014-06-29T17:08:31Z</time>
        <sat>11</sat>
      </trkpt>
      <trkpt lat="37.684957" lon="-119.000702">
        <ele>2469.6</ele>
        <time>2014-06-29T17:08:33Z</time>
        <sat>11</sat>
      </trkpt>
      <trkpt lat="37.685022" lon="-119.000817">
        <ele>2469.4</ele>
        <time>2014-06-29T17:08:35Z</time>
        <sat>11</sat>
      </trkpt>
      <trkpt lat="37.685118" lon="-119.000918">
        <ele>2469.0</ele>
        <time>2014-06-29T17:08:38Z</time>
        <sat>11</sat>
      </trkpt>
      <trkpt lat="37.685185" lon="-119.001003">
        <ele>2468.7</ele>
        <time>2014-06-29T17:08:40Z</time>
        <sat>11</sat>
      </trkpt>
      <trkpt lat="37.685252" lon="-119.001145">
        <ele>2468.6</ele>
        <time>2014-06-29T17:08:43Z</time>
        <sat>11</sat>
      </trkpt>
      <trkpt lat="37.685333" lon="-119.001258">
        <ele>2468.6</ele>
        <time>2014-06-29T17:08:46Z</time>
        <sat>11</sat>
      </trkpt>
      <trkpt lat="37.685435" lon="-119.001352">
        <ele>2468.3</ele>
        <time>2014-06-29T17:08:49Z</time>
        <sat>11</sat>
      </trkpt>
      <trkpt lat="37.685527" lon="-119.001433">
        <ele>2468.4</ele>
        <time>2014-06-29T17:08:52Z</time>
        <sat>11</sat>
      </trkpt>
      <trkpt lat="37.685603" lon="-119.001545">
        <ele>2468.5</ele>
        <time>2014-06-29T17:08:55Z</time>
        <sat>11</sat>
      </trkpt>
      <trkpt lat="37.685633" lon="-119.001702">
        <ele>2468.0</ele>
        <time>2014-06-29T17:08:58Z</time>
        <sat>11</sat>
      </trkpt>
      <trkpt lat="37.685627" lon="-119.001840">
        <ele>2467.6</ele>
        <time>2014-06-29T17:09:00Z</time>
        <sat>11</sat>
      </trkpt>
      <trkpt lat="37.685615" lon="-119.001998">
        <ele>2467.0</ele>
        <time>2014-06-29T17:09:02Z</time>
        <sat>11</sat>
      </trkpt>
      <trkpt lat="37.685700" lon="-119.002305">
        <ele>2465.8</ele>
        <time>2014-06-29T17:09:06Z</time>
        <sat>11</sat>
      </trkpt>
      <trkpt lat="37.685755" lon="-119.002420">
        <ele>2465.3</ele>
        <time>2014-06-29T17:09:08Z</time>
        <sat>11</sat>
      </trkpt>
      <trkpt lat="37.685785" lon="-119.002532">
        <ele>2465.1</ele>
        <time>2014-06-29T17:09:10Z</time>
        <sat>11</sat>
      </trkpt>
      <trkpt lat="37.685837" lon="-119.002652">
        <ele>2464.5</ele>
        <time>2014-06-29T17:09:12Z</time>
        <sat>11</sat>
      </trkpt>
      <trkpt lat="37.685892" lon="-119.002773">
        <ele>2464.2</ele>
        <time>2014-06-29T17:09:14Z</time>
        <sat>11</sat>
      </trkpt>
      <trkpt lat="37.685928" lon="-119.002903">
        <ele>2464.0</ele>
        <time>2014-06-29T17:09:16Z</time>
        <sat>11</sat>
      </trkpt>
      <trkpt lat="37.685967" lon="-119.003032">
        <ele>2463.5</ele>
        <time>2014-06-29T17:09:18Z</time>
        <sat>11</sat>
      </trkpt>
      <trkpt lat="37.686033" lon="-119.003153">
        <ele>2463.1</ele>
        <time>2014-06-29T17:09:20Z</time>
        <sat>11</sat>
      </trkpt>
      <trkpt lat="37.686102" lon="-119.003275">
        <ele>2462.7</ele>
        <time>2014-06-29T17:09:22Z</time>
        <sat>11</sat>
      </trkpt>
      <trkpt lat="37.686180" lon="-119.003385">
        <ele>2462.3</ele>
        <time>2014-06-29T17:09:24Z</time>
        <sat>11</sat>
      </trkpt>
      <trkpt lat="37.686252" lon="-119.003493">
        <ele>2462.0</ele>
        <time>2014-06-29T17:09:26Z</time>
        <sat>10</sat>
      </trkpt>
      <trkpt lat="37.686343" lon="-119.003587">
        <ele>2461.8</ele>
        <time>2014-06-29T17:09:28Z</time>
        <sat>11</sat>
      </trkpt>
      <trkpt lat="37.686427" lon="-119.003688">
        <ele>2460.9</ele>
        <time>2014-06-29T17:09:30Z</time>
        <sat>11</sat>
      </trkpt>
      <trkpt lat="37.686457" lon="-119.003805">
        <ele>2460.2</ele>
        <time>2014-06-29T17:09:32Z</time>
        <sat>11</sat>
      </trkpt>
      <trkpt lat="37.686453" lon="-119.003920">
        <ele>2459.9</ele>
        <time>2014-06-29T17:09:34Z</time>
        <sat>11</sat>
      </trkpt>
      <trkpt lat="37.686462" lon="-119.004040">
        <ele>2459.5</ele>
        <time>2014-06-29T17:09:36Z</time>
        <sat>11</sat>
      </trkpt>
      <trkpt lat="37.686478" lon="-119.004190">
        <ele>2458.7</ele>
        <time>2014-06-29T17:09:39Z</time>
        <sat>11</sat>
      </trkpt>
      <trkpt lat="37.686560" lon="-119.004280">
        <ele>2458.5</ele>
        <time>2014-06-29T17:09:41Z</time>
        <sat>11</sat>
      </trkpt>
      <trkpt lat="37.686652" lon="-119.004403">
        <ele>2458.2</ele>
        <time>2014-06-29T17:09:43Z</time>
        <sat>11</sat>
      </trkpt>
      <trkpt lat="37.686727" lon="-119.004547">
        <ele>2458.0</ele>
        <time>2014-06-29T17:09:45Z</time>
        <sat>11</sat>
      </trkpt>
      <trkpt lat="37.686773" lon="-119.004655">
        <ele>2458.0</ele>
        <time>2014-06-29T17:09:47Z</time>
        <sat>11</sat>
      </trkpt>
      <trkpt lat="37.686828" lon="-119.004780">
        <ele>2458.4</ele>
        <time>2014-06-29T17:09:51Z</time>
        <sat>11</sat>
      </trkpt>
      <trkpt lat="37.686865" lon="-119.004890">
        <ele>2459.2</ele>
        <time>2014-06-29T17:09:57Z</time>
        <sat>11</sat>
      </trkpt>
      <trkpt lat="37.686903" lon="-119.005030">
        <ele>2459.1</ele>
        <time>2014-06-29T17:10:01Z</time>
        <sat>11</sat>
      </trkpt>
      <trkpt lat="37.686958" lon="-119.005185">
        <ele>2458.6</ele>
        <time>2014-06-29T17:10:04Z</time>
        <sat>11</sat>
      </trkpt>
      <trkpt lat="37.687057" lon="-119.005443">
        <ele>2460.3</ele>
        <time>2014-06-29T17:12:13Z</time>
        <sat>11</sat>
      </trkpt>
      <trkpt lat="37.687208" lon="-119.005578">
        <ele>2463.0</ele>
        <time>2014-06-29T17:12:38Z</time>
        <sat>11</sat>
      </trkpt>
      <trkpt lat="37.687285" lon="-119.005642">
        <ele>2466.0</ele>
        <time>2014-06-29T17:12:51Z</time>
        <sat>11</sat>
      </trkpt>
      <trkpt lat="37.687388" lon="-119.005665">
        <ele>2467.9</ele>
        <time>2014-06-29T17:13:08Z</time>
        <sat>11</sat>
      </trkpt>
      <trkpt lat="37.687475" lon="-119.005613">
        <ele>2468.4</ele>
        <time>2014-06-29T17:13:14Z</time>
        <sat>11</sat>
      </trkpt>
      <trkpt lat="37.687650" lon="-119.005493">
        <ele>2469.6</ele>
        <time>2014-06-29T17:13:25Z</time>
        <sat>11</sat>
      </trkpt>
      <trkpt lat="37.687750" lon="-119.005463">
        <ele>2471.4</ele>
        <time>2014-06-29T17:13:32Z</time>
        <sat>11</sat>
      </trkpt>
      <trkpt lat="37.687832" lon="-119.005407">
        <ele>2472.3</ele>
        <time>2014-06-29T17:13:38Z</time>
        <sat>11</sat>
      </trkpt>
      <trkpt lat="37.687922" lon="-119.005352">
        <ele>2472.9</ele>
        <time>2014-06-29T17:13:44Z</time>
        <sat>11</sat>
      </trkpt>
      <trkpt lat="37.688012" lon="-119.005333">
        <ele>2474.3</ele>
        <time>2014-06-29T17:13:50Z</time>
        <sat>11</sat>
      </trkpt>
      <trkpt lat="37.688102" lon="-119.005325">
        <ele>2475.7</ele>
        <time>2014-06-29T17:13:56Z</time>
        <sat>11</sat>
      </trkpt>
      <trkpt lat="37.688192" lon="-119.005297">
        <ele>2476.4</ele>
        <time>2014-06-29T17:14:03Z</time>
        <sat>11</sat>
      </trkpt>
      <trkpt lat="37.688295" lon="-119.005322">
        <ele>2476.9</ele>
        <time>2014-06-29T17:14:10Z</time>
        <sat>11</sat>
      </trkpt>
      <trkpt lat="37.688402" lon="-119.005317">
        <ele>2476.8</ele>
        <time>2014-06-29T17:14:13Z</time>
        <sat>11</sat>
      </trkpt>
      <trkpt lat="37.688515" lon="-119.005312">
        <ele>2476.7</ele>
        <time>2014-06-29T17:14:16Z</time>
        <sat>11</sat>
      </trkpt>
      <trkpt lat="37.688712" lon="-119.005377">
        <ele>2476.4</ele>
        <time>2014-06-29T17:14:23Z</time>
        <sat>11</sat>
      </trkpt>
      <trkpt lat="37.688813" lon="-119.005453">
        <ele>2475.5</ele>
        <time>2014-06-29T17:14:26Z</time>
        <sat>11</sat>
      </trkpt>
      <trkpt lat="37.688887" lon="-119.005553">
        <ele>2474.9</ele>
        <time>2014-06-29T17:14:30Z</time>
        <sat>11</sat>
      </trkpt>
      <trkpt lat="37.688977" lon="-119.005605">
        <ele>2474.4</ele>
        <time>2014-06-29T17:14:36Z</time>
        <sat>11</sat>
      </trkpt>
      <trkpt lat="37.689040" lon="-119.005690">
        <ele>2474.3</ele>
        <time>2014-06-29T17:14:45Z</time>
        <sat>10</sat>
      </trkpt>
      <trkpt lat="37.689147" lon="-119.005637">
        <ele>2474.5</ele>
        <time>2014-06-29T17:14:49Z</time>
        <sat>11</sat>
      </trkpt>
      <trkpt lat="37.689228" lon="-119.005687">
        <ele>2474.6</ele>
        <time>2014-06-29T17:14:57Z</time>
        <sat>10</sat>
      </trkpt>
      <trkpt lat="37.689270" lon="-119.005797">
        <ele>2475.4</ele>
        <time>2014-06-29T17:15:41Z</time>
        <sat>11</sat>
      </trkpt>
      <trkpt lat="37.689312" lon="-119.006028">
        <ele>2477.2</ele>
        <time>2014-06-29T17:16:30Z</time>
        <sat>11</sat>
      </trkpt>
      <trkpt lat="37.689352" lon="-119.006130">
        <ele>2477.8</ele>
        <time>2014-06-29T17:16:34Z</time>
        <sat>11</sat>
      </trkpt>
      <trkpt lat="37.689413" lon="-119.006235">
        <ele>2479.2</ele>
        <time>2014-06-29T17:16:41Z</time>
        <sat>11</sat>
      </trkpt>
      <trkpt lat="37.689472" lon="-119.006322">
        <ele>2480.3</ele>
        <time>2014-06-29T17:16:47Z</time>
        <sat>11</sat>
      </trkpt>
      <trkpt lat="37.689577" lon="-119.006542">
        <ele>2482.1</ele>
        <time>2014-06-29T17:16:59Z</time>
        <sat>11</sat>
      </trkpt>
      <trkpt lat="37.689658" lon="-119.006595">
        <ele>2482.7</ele>
        <time>2014-06-29T17:17:04Z</time>
        <sat>11</sat>
      </trkpt>
      <trkpt lat="37.689738" lon="-119.006660">
        <ele>2483.4</ele>
        <time>2014-06-29T17:17:11Z</time>
        <sat>11</sat>
      </trkpt>
      <trkpt lat="37.689832" lon="-119.006718">
        <ele>2484.9</ele>
        <time>2014-06-29T17:17:17Z</time>
        <sat>11</sat>
      </trkpt>
      <trkpt lat="37.689913" lon="-119.006783">
        <ele>2485.6</ele>
        <time>2014-06-29T17:17:24Z</time>
        <sat>11</sat>
      </trkpt>
      <trkpt lat="37.690007" lon="-119.006837">
        <ele>2486.4</ele>
        <time>2014-06-29T17:17:30Z</time>
        <sat>11</sat>
      </trkpt>
      <trkpt lat="37.690097" lon="-119.006880">
        <ele>2487.3</ele>
        <time>2014-06-29T17:17:35Z</time>
        <sat>11</sat>
      </trkpt>
      <trkpt lat="37.690187" lon="-119.006927">
        <ele>2487.9</ele>
        <time>2014-06-29T17:17:41Z</time>
        <sat>11</sat>
      </trkpt>
      <trkpt lat="37.690285" lon="-119.006987">
        <ele>2488.5</ele>
        <time>2014-06-29T17:18:00Z</time>
        <sat>11</sat>
      </trkpt>
      <trkpt lat="37.690463" lon="-119.007142">
        <ele>2489.9</ele>
        <time>2014-06-29T17:18:12Z</time>
        <sat>11</sat>
      </trkpt>
      <trkpt lat="37.690538" lon="-119.007238">
        <ele>2490.8</ele>
        <time>2014-06-29T17:18:18Z</time>
        <sat>11</sat>
      </trkpt>
      <trkpt lat="37.690618" lon="-119.007315">
        <ele>2492.3</ele>
        <time>2014-06-29T17:18:24Z</time>
        <sat>11</sat>
      </trkpt>
      <trkpt lat="37.690697" lon="-119.007372">
        <ele>2493.0</ele>
        <time>2014-06-29T17:18:29Z</time>
        <sat>11</sat>
      </trkpt>
      <trkpt lat="37.690788" lon="-119.007438">
        <ele>2493.8</ele>
        <time>2014-06-29T17:18:34Z</time>
        <sat>11</sat>
      </trkpt>
      <trkpt lat="37.690882" lon="-119.007507">
        <ele>2494.1</ele>
        <time>2014-06-29T17:18:39Z</time>
        <sat>11</sat>
      </trkpt>
      <trkpt lat="37.690985" lon="-119.007545">
        <ele>2495.4</ele>
        <time>2014-06-29T17:18:57Z</time>
        <sat>11</sat>
      </trkpt>
      <trkpt lat="37.691085" lon="-119.007588">
        <ele>2496.2</ele>
        <time>2014-06-29T17:19:03Z</time>
        <sat>11</sat>
      </trkpt>
      <trkpt lat="37.691272" lon="-119.007573">
        <ele>2500.3</ele>
        <time>2014-06-29T17:19:17Z</time>
        <sat>11</sat>
      </trkpt>
      <trkpt lat="37.691345" lon="-119.007492">
        <ele>2502.5</ele>
        <time>2014-06-29T17:19:25Z</time>
        <sat>11</sat>
      </trkpt>
      <trkpt lat="37.691427" lon="-119.007412">
        <ele>2503.1</ele>
        <time>2014-06-29T17:19:32Z</time>
        <sat>11</sat>
      </trkpt>
      <trkpt lat="37.691502" lon="-119.007330">
        <ele>2505.0</ele>
        <time>2014-06-29T17:19:41Z</time>
        <sat>11</sat>
      </trkpt>
      <trkpt lat="37.691597" lon="-119.007323">
        <ele>2507.5</ele>
        <time>2014-06-29T17:19:53Z</time>
        <sat>11</sat>
      </trkpt>
      <trkpt lat="37.691708" lon="-119.007323">
        <ele>2508.1</ele>
        <time>2014-06-29T17:20:11Z</time>
        <sat>11</sat>
      </trkpt>
      <trkpt lat="37.691762" lon="-119.007542">
        <ele>2510.7</ele>
        <time>2014-06-29T17:20:25Z</time>
        <sat>11</sat>
      </trkpt>
      <trkpt lat="37.691787" lon="-119.007655">
        <ele>2511.3</ele>
        <time>2014-06-29T17:20:29Z</time>
        <sat>11</sat>
      </trkpt>
      <trkpt lat="37.691838" lon="-119.007755">
        <ele>2511.6</ele>
        <time>2014-06-29T17:20:34Z</time>
        <sat>11</sat>
      </trkpt>
      <trkpt lat="37.691918" lon="-119.007828">
        <ele>2512.1</ele>
        <time>2014-06-29T17:20:38Z</time>
        <sat>11</sat>
      </trkpt>
      <trkpt lat="37.692003" lon="-119.007908">
        <ele>2512.8</ele>
        <time>2014-06-29T17:20:43Z</time>
        <sat>11</sat>
      </trkpt>
      <trkpt lat="37.692115" lon="-119.007948">
        <ele>2513.3</ele>
        <time>2014-06-29T17:20:47Z</time>
        <sat>11</sat>
      </trkpt>
      <trkpt lat="37.692207" lon="-119.007995">
        <ele>2514.3</ele>
        <time>2014-06-29T17:20:53Z</time>
        <sat>11</sat>
      </trkpt>
      <trkpt lat="37.692297" lon="-119.008060">
        <ele>2515.6</ele>
        <time>2014-06-29T17:21:00Z</time>
        <sat>11</sat>
      </trkpt>
      <trkpt lat="37.692393" lon="-119.008103">
        <ele>2516.2</ele>
        <time>2014-06-29T17:21:06Z</time>
        <sat>11</sat>
      </trkpt>
      <trkpt lat="37.692490" lon="-119.008137">
        <ele>2516.6</ele>
        <time>2014-06-29T17:21:11Z</time>
        <sat>11</sat>
      </trkpt>
      <trkpt lat="37.692605" lon="-119.008160">
        <ele>2517.0</ele>
        <time>2014-06-29T17:21:16Z</time>
        <sat>11</sat>
      </trkpt>
      <trkpt lat="37.692768" lon="-119.008255">
        <ele>2518.2</ele>
        <time>2014-06-29T17:21:25Z</time>
        <sat>11</sat>
      </trkpt>
      <trkpt lat="37.692835" lon="-119.008358">
        <ele>2518.9</ele>
        <time>2014-06-29T17:21:31Z</time>
        <sat>10</sat>
      </trkpt>
      <trkpt lat="37.692905" lon="-119.008447">
        <ele>2519.0</ele>
        <time>2014-06-29T17:21:35Z</time>
        <sat>11</sat>
      </trkpt>
      <trkpt lat="37.692975" lon="-119.008537">
        <ele>2518.7</ele>
        <time>2014-06-29T17:21:38Z</time>
        <sat>10</sat>
      </trkpt>
      <trkpt lat="37.693075" lon="-119.008597">
        <ele>2518.8</ele>
        <time>2014-06-29T17:21:42Z</time>
        <sat>11</sat>
      </trkpt>
      <trkpt lat="37.693177" lon="-119.008640">
        <ele>2518.2</ele>
        <time>2014-06-29T17:21:46Z</time>
        <sat>11</sat>
      </trkpt>
      <trkpt lat="37.693277" lon="-119.008715">
        <ele>2517.6</ele>
        <time>2014-06-29T17:21:49Z</time>
        <sat>11</sat>
      </trkpt>
      <trkpt lat="37.693343" lon="-119.008817">
        <ele>2517.1</ele>
        <time>2014-06-29T17:21:51Z</time>
        <sat>11</sat>
      </trkpt>
      <trkpt lat="37.693418" lon="-119.008927">
        <ele>2516.8</ele>
        <time>2014-06-29T17:21:53Z</time>
        <sat>11</sat>
      </trkpt>
      <trkpt lat="37.693445" lon="-119.009055">
        <ele>2517.4</ele>
        <time>2014-06-29T17:21:56Z</time>
        <sat>11</sat>
      </trkpt>
      <trkpt lat="37.693475" lon="-119.009172">
        <ele>2518.2</ele>
        <time>2014-06-29T17:22:01Z</time>
        <sat>11</sat>
      </trkpt>
      <trkpt lat="37.693517" lon="-119.009273">
        <ele>2519.2</ele>
        <time>2014-06-29T17:22:32Z</time>
        <sat>11</sat>
      </trkpt>
      <trkpt lat="37.693580" lon="-119.009503">
        <ele>2522.2</ele>
        <time>2014-06-29T17:22:43Z</time>
        <sat>11</sat>
      </trkpt>
      <trkpt lat="37.693622" lon="-119.009607">
        <ele>2523.7</ele>
        <time>2014-06-29T17:22:49Z</time>
        <sat>11</sat>
      </trkpt>
      <trkpt lat="37.693632" lon="-119.009730">
        <ele>2525.2</ele>
        <time>2014-06-29T17:22:57Z</time>
        <sat>11</sat>
      </trkpt>
      <trkpt lat="37.693643" lon="-119.009860">
        <ele>2527.1</ele>
        <time>2014-06-29T17:23:04Z</time>
        <sat>11</sat>
      </trkpt>
      <trkpt lat="37.693620" lon="-119.009973">
        <ele>2528.4</ele>
        <time>2014-06-29T17:23:11Z</time>
        <sat>11</sat>
      </trkpt>
      <trkpt lat="37.693718" lon="-119.009988">
        <ele>2528.9</ele>
        <time>2014-06-29T17:23:42Z</time>
        <sat>11</sat>
      </trkpt>
      <trkpt lat="37.693895" lon="-119.010057">
        <ele>2529.7</ele>
        <time>2014-06-29T17:23:50Z</time>
        <sat>11</sat>
      </trkpt>
      <trkpt lat="37.693808" lon="-119.010018">
        <ele>2529.3</ele>
        <time>2014-06-29T17:24:35Z</time>
        <sat>11</sat>
      </trkpt>
      <trkpt lat="37.693707" lon="-119.009993">
        <ele>2529.4</ele>
        <time>2014-06-29T17:25:42Z</time>
        <sat>11</sat>
      </trkpt>
      <trkpt lat="37.693513" lon="-119.010007">
        <ele>2528.1</ele>
        <time>2014-06-29T17:26:09Z</time>
        <sat>11</sat>
      </trkpt>
      <trkpt lat="37.693403" lon="-119.010013">
        <ele>2527.2</ele>
        <time>2014-06-29T17:26:13Z</time>
        <sat>10</sat>
      </trkpt>
      <trkpt lat="37.693297" lon="-119.010005">
        <ele>2526.6</ele>
        <time>2014-06-29T17:26:16Z</time>
        <sat>11</sat>
      </trkpt>
      <trkpt lat="37.693177" lon="-119.010065">
        <ele>2526.3</ele>
        <time>2014-06-29T17:26:19Z</time>
        <sat>10</sat>
      </trkpt>
      <trkpt lat="37.693060" lon="-119.010140">
        <ele>2526.0</ele>
        <time>2014-06-29T17:26:22Z</time>
        <sat>11</sat>
      </trkpt>
      <trkpt lat="37.692955" lon="-119.010235">
        <ele>2525.7</ele>
        <time>2014-06-29T17:26:25Z</time>
        <sat>11</sat>
      </trkpt>
      <trkpt lat="37.692865" lon="-119.010355">
        <ele>2525.6</ele>
        <time>2014-06-29T17:26:28Z</time>
        <sat>10</sat>
      </trkpt>
      <trkpt lat="37.692820" lon="-119.010488">
        <ele>2525.5</ele>
        <time>2014-06-29T17:26:31Z</time>
        <sat>11</sat>
      </trkpt>
      <trkpt lat="37.692795" lon="-119.010650">
        <ele>2525.1</ele>
        <time>2014-06-29T17:26:34Z</time>
        <sat>11</sat>
      </trkpt>
      <trkpt lat="37.692768" lon="-119.010770">
        <ele>2524.6</ele>
        <time>2014-06-29T17:26:36Z</time>
        <sat>11</sat>
      </trkpt>
      <trkpt lat="37.692733" lon="-119.010900">
        <ele>2524.2</ele>
        <time>2014-06-29T17:26:38Z</time>
        <sat>10</sat>
      </trkpt>
      <trkpt lat="37.692693" lon="-119.011018">
        <ele>2523.6</ele>
        <time>2014-06-29T17:26:40Z</time>
        <sat>11</sat>
      </trkpt>
      <trkpt lat="37.692628" lon="-119.011102">
        <ele>2523.2</ele>
        <time>2014-06-29T17:26:42Z</time>
        <sat>11</sat>
      </trkpt>
      <trkpt lat="37.692535" lon="-119.011210">
        <ele>2522.7</ele>
        <time>2014-06-29T17:26:45Z</time>
        <sat>11</sat>
      </trkpt>
      <trkpt lat="37.692393" lon="-119.011192">
        <ele>2522.4</ele>
        <time>2014-06-29T17:32:43Z</time>
        <sat>11</sat>
      </trkpt>
      <trkpt lat="37.692335" lon="-119.010915">
        <ele>2520.6</ele>
        <time>2014-06-29T17:32:49Z</time>
        <sat>11</sat>
      </trkpt>
      <trkpt lat="37.692293" lon="-119.010768">
        <ele>2519.8</ele>
        <time>2014-06-29T17:32:51Z</time>
        <sat>11</sat>
      </trkpt>
      <trkpt lat="37.692225" lon="-119.010657">
        <ele>2518.9</ele>
        <time>2014-06-29T17:32:53Z</time>
        <sat>11</sat>
      </trkpt>
      <trkpt lat="37.692153" lon="-119.010578">
        <ele>2517.7</ele>
        <time>2014-06-29T17:32:55Z</time>
        <sat>11</sat>
      </trkpt>
      <trkpt lat="37.692037" lon="-119.010510">
        <ele>2516.2</ele>
        <time>2014-06-29T17:32:58Z</time>
        <sat>11</sat>
      </trkpt>
      <trkpt lat="37.691937" lon="-119.010468">
        <ele>2515.0</ele>
        <time>2014-06-29T17:33:01Z</time>
        <sat>11</sat>
      </trkpt>
      <trkpt lat="37.691813" lon="-119.010445">
        <ele>2514.2</ele>
        <time>2014-06-29T17:33:04Z</time>
        <sat>11</sat>
      </trkpt>
      <trkpt lat="37.691713" lon="-119.010468">
        <ele>2514.0</ele>
        <time>2014-06-29T17:33:06Z</time>
        <sat>11</sat>
      </trkpt>
      <trkpt lat="37.691622" lon="-119.010537">
        <ele>2514.3</ele>
        <time>2014-06-29T17:33:09Z</time>
        <sat>11</sat>
      </trkpt>
      <trkpt lat="37.691527" lon="-119.010562">
        <ele>2514.5</ele>
        <time>2014-06-29T17:33:33Z</time>
        <sat>11</sat>
      </trkpt>
      <trkpt lat="37.691463" lon="-119.010467">
        <ele>2513.5</ele>
        <time>2014-06-29T17:34:21Z</time>
        <sat>11</sat>
      </trkpt>
      <trkpt lat="37.691302" lon="-119.010195">
        <ele>2511.2</ele>
        <time>2014-06-29T17:34:25Z</time>
        <sat>11</sat>
      </trkpt>
      <trkpt lat="37.691197" lon="-119.010035">
        <ele>2509.8</ele>
        <time>2014-06-29T17:34:27Z</time>
        <sat>11</sat>
      </trkpt>
      <trkpt lat="37.691122" lon="-119.009873">
        <ele>2508.5</ele>
        <time>2014-06-29T17:34:29Z</time>
        <sat>11</sat>
      </trkpt>
      <trkpt lat="37.691118" lon="-119.009750">
        <ele>2508.3</ele>
        <time>2014-06-29T17:34:31Z</time>
        <sat>11</sat>
      </trkpt>
      <trkpt lat="37.691103" lon="-119.009577">
        <ele>2507.0</ele>
        <time>2014-06-29T17:34:34Z</time>
        <sat>11</sat>
      </trkpt>
      <trkpt lat="37.691042" lon="-119.009457">
        <ele>2505.8</ele>
        <time>2014-06-29T17:34:36Z</time>
        <sat>11</sat>
      </trkpt>
      <trkpt lat="37.690972" lon="-119.009350">
        <ele>2504.6</ele>
        <time>2014-06-29T17:34:38Z</time>
        <sat>11</sat>
      </trkpt>
      <trkpt lat="37.690897" lon="-119.009253">
        <ele>2503.1</ele>
        <time>2014-06-29T17:34:40Z</time>
        <sat>11</sat>
      </trkpt>
      <trkpt lat="37.690813" lon="-119.009157">
        <ele>2501.5</ele>
        <time>2014-06-29T17:34:42Z</time>
        <sat>11</sat>
      </trkpt>
      <trkpt lat="37.690723" lon="-119.009060">
        <ele>2500.0</ele>
        <time>2014-06-29T17:34:44Z</time>
        <sat>11</sat>
      </trkpt>
      <trkpt lat="37.690627" lon="-119.008965">
        <ele>2498.6</ele>
        <time>2014-06-29T17:34:46Z</time>
        <sat>11</sat>
      </trkpt>
      <trkpt lat="37.690538" lon="-119.008845">
        <ele>2497.2</ele>
        <time>2014-06-29T17:34:48Z</time>
        <sat>11</sat>
      </trkpt>
      <trkpt lat="37.690477" lon="-119.008747">
        <ele>2496.6</ele>
        <time>2014-06-29T17:34:49Z</time>
        <sat>11</sat>
      </trkpt>
      <trkpt lat="37.690420" lon="-119.008658">
        <ele>2495.7</ele>
        <time>2014-06-29T17:34:50Z</time>
        <sat>10</sat>
      </trkpt>
      <trkpt lat="37.690303" lon="-119.008522">
        <ele>2494.2</ele>
        <time>2014-06-29T17:34:52Z</time>
        <sat>10</sat>
      </trkpt>
      <trkpt lat="37.690177" lon="-119.008407">
        <ele>2493.0</ele>
        <time>2014-06-29T17:34:54Z</time>
        <sat>10</sat>
      </trkpt>
      <trkpt lat="37.690053" lon="-119.008285">
        <ele>2492.3</ele>
        <time>2014-06-29T17:34:56Z</time>
        <sat>10</sat>
      </trkpt>
      <trkpt lat="37.689928" lon="-119.008202">
        <ele>2491.7</ele>
        <time>2014-06-29T17:34:58Z</time>
        <sat>10</sat>
      </trkpt>
      <trkpt lat="37.689802" lon="-119.008147">
        <ele>2491.3</ele>
        <time>2014-06-29T17:35:00Z</time>
        <sat>10</sat>
      </trkpt>
      <trkpt lat="37.689663" lon="-119.008085">
        <ele>2491.2</ele>
        <time>2014-06-29T17:35:02Z</time>
        <sat>10</sat>
      </trkpt>
      <trkpt lat="37.689552" lon="-119.008003">
        <ele>2491.1</ele>
        <time>2014-06-29T17:35:04Z</time>
        <sat>10</sat>
      </trkpt>
      <trkpt lat="37.689452" lon="-119.007942">
        <ele>2490.6</ele>
        <time>2014-06-29T17:35:06Z</time>
        <sat>10</sat>
      </trkpt>
      <trkpt lat="37.689352" lon="-119.007853">
        <ele>2490.0</ele>
        <time>2014-06-29T17:35:08Z</time>
        <sat>10</sat>
      </trkpt>
      <trkpt lat="37.689230" lon="-119.007750">
        <ele>2489.1</ele>
        <time>2014-06-29T17:35:10Z</time>
        <sat>10</sat>
      </trkpt>
      <trkpt lat="37.689083" lon="-119.007675">
        <ele>2488.2</ele>
        <time>2014-06-29T17:35:12Z</time>
        <sat>9</sat>
      </trkpt>
      <trkpt lat="37.688958" lon="-119.007563">
        <ele>2487.2</ele>
        <time>2014-06-29T17:35:14Z</time>
        <sat>10</sat>
      </trkpt>
      <trkpt lat="37.688868" lon="-119.007425">
        <ele>2485.6</ele>
        <time>2014-06-29T17:35:16Z</time>
        <sat>10</sat>
      </trkpt>
      <trkpt lat="37.688802" lon="-119.007267">
        <ele>2483.5</ele>
        <time>2014-06-29T17:35:18Z</time>
        <sat>10</sat>
      </trkpt>
      <trkpt lat="37.688687" lon="-119.007188">
        <ele>2481.5</ele>
        <time>2014-06-29T17:35:20Z</time>
        <sat>10</sat>
      </trkpt>
      <trkpt lat="37.688550" lon="-119.007160">
        <ele>2480.4</ele>
        <time>2014-06-29T17:35:22Z</time>
        <sat>10</sat>
      </trkpt>
      <trkpt lat="37.688273" lon="-119.007052">
        <ele>2478.6</ele>
        <time>2014-06-29T17:35:26Z</time>
        <sat>11</sat>
      </trkpt>
      <trkpt lat="37.688143" lon="-119.006962">
        <ele>2478.2</ele>
        <time>2014-06-29T17:35:28Z</time>
        <sat>11</sat>
      </trkpt>
      <trkpt lat="37.688045" lon="-119.006853">
        <ele>2477.9</ele>
        <time>2014-06-29T17:35:30Z</time>
        <sat>11</sat>
      </trkpt>
      <trkpt lat="37.687987" lon="-119.006728">
        <ele>2477.6</ele>
        <time>2014-06-29T17:35:32Z</time>
        <sat>10</sat>
      </trkpt>
      <trkpt lat="37.687980" lon="-119.006590">
        <ele>2477.2</ele>
        <time>2014-06-29T17:35:34Z</time>
        <sat>10</sat>
      </trkpt>
      <trkpt lat="37.688015" lon="-119.006450">
        <ele>2476.4</ele>
        <time>2014-06-29T17:35:36Z</time>
        <sat>10</sat>
      </trkpt>
      <trkpt lat="37.688090" lon="-119.006347">
        <ele>2475.9</ele>
        <time>2014-06-29T17:35:38Z</time>
        <sat>10</sat>
      </trkpt>
      <trkpt lat="37.688158" lon="-119.006235">
        <ele>2473.6</ele>
        <time>2014-06-29T17:36:50Z</time>
        <sat>11</sat>
      </trkpt>
      <trkpt lat="37.688322" lon="-119.006097">
        <ele>2473.7</ele>
        <time>2014-06-29T17:36:56Z</time>
        <sat>11</sat>
      </trkpt>
      <trkpt lat="37.688403" lon="-119.006002">
        <ele>2473.6</ele>
        <time>2014-06-29T17:36:59Z</time>
        <sat>11</sat>
      </trkpt>
      <trkpt lat="37.688502" lon="-119.005927">
        <ele>2473.6</ele>
        <time>2014-06-29T17:37:02Z</time>
        <sat>11</sat>
      </trkpt>
      <trkpt lat="37.688603" lon="-119.005857">
        <ele>2473.3</ele>
        <time>2014-06-29T17:37:05Z</time>
        <sat>11</sat>
      </trkpt>
      <trkpt lat="37.688697" lon="-119.005805">
        <ele>2473.3</ele>
        <time>2014-06-29T17:37:08Z</time>
        <sat>11</sat>
      </trkpt>
      <trkpt lat="37.688798" lon="-119.005755">
        <ele>2473.3</ele>
        <time>2014-06-29T17:37:11Z</time>
        <sat>11</sat>
      </trkpt>
      <trkpt lat="37.688910" lon="-119.005702">
        <ele>2473.3</ele>
        <time>2014-06-29T17:37:14Z</time>
        <sat>11</sat>
      </trkpt>
      <trkpt lat="37.689002" lon="-119.005673">
        <ele>2473.2</ele>
        <time>2014-06-29T17:37:16Z</time>
        <sat>11</sat>
      </trkpt>
      <trkpt lat="37.689098" lon="-119.005650">
        <ele>2473.1</ele>
        <time>2014-06-29T17:37:18Z</time>
        <sat>11</sat>
      </trkpt>
      <trkpt lat="37.689205" lon="-119.005603">
        <ele>2473.0</ele>
        <time>2014-06-29T17:37:20Z</time>
        <sat>11</sat>
      </trkpt>
      <trkpt lat="37.689303" lon="-119.005562">
        <ele>2473.3</ele>
        <time>2014-06-29T17:37:22Z</time>
        <sat>11</sat>
      </trkpt>
      <trkpt lat="37.689422" lon="-119.005563">
        <ele>2473.6</ele>
        <time>2014-06-29T17:37:25Z</time>
        <sat>11</sat>
      </trkpt>
      <trkpt lat="37.689525" lon="-119.005578">
        <ele>2474.1</ele>
        <time>2014-06-29T17:37:29Z</time>
        <sat>11</sat>
      </trkpt>
      <trkpt lat="37.689640" lon="-119.005615">
        <ele>2474.7</ele>
        <time>2014-06-29T17:37:33Z</time>
        <sat>11</sat>
      </trkpt>
      <trkpt lat="37.689738" lon="-119.005650">
        <ele>2474.9</ele>
        <time>2014-06-29T17:37:36Z</time>
        <sat>11</sat>
      </trkpt>
      <trkpt lat="37.689832" lon="-119.005673">
        <ele>2475.4</ele>
        <time>2014-06-29T17:37:40Z</time>
        <sat>11</sat>
      </trkpt>
      <trkpt lat="37.689925" lon="-119.005680">
        <ele>2476.3</ele>
        <time>2014-06-29T17:37:44Z</time>
        <sat>11</sat>
      </trkpt>
      <trkpt lat="37.690018" lon="-119.005655">
        <ele>2476.9</ele>
        <time>2014-06-29T17:37:48Z</time>
        <sat>11</sat>
      </trkpt>
      <trkpt lat="37.690127" lon="-119.005623">
        <ele>2477.2</ele>
        <time>2014-06-29T17:37:53Z</time>
        <sat>11</sat>
      </trkpt>
      <trkpt lat="37.690285" lon="-119.005442">
        <ele>2476.8</ele>
        <time>2014-06-29T17:38:00Z</time>
        <sat>11</sat>
      </trkpt>
      <trkpt lat="37.690378" lon="-119.005343">
        <ele>2476.4</ele>
        <time>2014-06-29T17:38:03Z</time>
        <sat>11</sat>
      </trkpt>
      <trkpt lat="37.690477" lon="-119.005220">
        <ele>2475.9</ele>
        <time>2014-06-29T17:38:06Z</time>
        <sat>11</sat>
      </trkpt>
      <trkpt lat="37.690540" lon="-119.005092">
        <ele>2475.3</ele>
        <time>2014-06-29T17:38:08Z</time>
        <sat>11</sat>
      </trkpt>
      <trkpt lat="37.690587" lon="-119.004943">
        <ele>2474.8</ele>
        <time>2014-06-29T17:38:10Z</time>
        <sat>11</sat>
      </trkpt>
      <trkpt lat="37.690623" lon="-119.004775">
        <ele>2473.5</ele>
        <time>2014-06-29T17:38:12Z</time>
        <sat>11</sat>
      </trkpt>
      <trkpt lat="37.690618" lon="-119.004580">
        <ele>2471.9</ele>
        <time>2014-06-29T17:38:14Z</time>
        <sat>11</sat>
      </trkpt>
      <trkpt lat="37.690560" lon="-119.004400">
        <ele>2470.3</ele>
        <time>2014-06-29T17:38:16Z</time>
        <sat>10</sat>
      </trkpt>
      <trkpt lat="37.690482" lon="-119.004247">
        <ele>2468.8</ele>
        <time>2014-06-29T17:38:18Z</time>
        <sat>10</sat>
      </trkpt>
      <trkpt lat="37.690408" lon="-119.004078">
        <ele>2466.6</ele>
        <time>2014-06-29T17:38:20Z</time>
        <sat>10</sat>
      </trkpt>
      <trkpt lat="37.690278" lon="-119.003898">
        <ele>2464.1</ele>
        <time>2014-06-29T17:38:22Z</time>
        <sat>10</sat>
      </trkpt>
      <trkpt lat="37.690192" lon="-119.003813">
        <ele>2463.1</ele>
        <time>2014-06-29T17:38:23Z</time>
        <sat>10</sat>
      </trkpt>
      <trkpt lat="37.690092" lon="-119.003750">
        <ele>2462.4</ele>
        <time>2014-06-29T17:38:24Z</time>
        <sat>9</sat>
      </trkpt>
      <trkpt lat="37.690007" lon="-119.003703">
        <ele>2461.4</ele>
        <time>2014-06-29T17:38:25Z</time>
        <sat>10</sat>
      </trkpt>
      <trkpt lat="37.689873" lon="-119.003638">
        <ele>2460.5</ele>
        <time>2014-06-29T17:38:27Z</time>
        <sat>11</sat>
      </trkpt>
      <trkpt lat="37.689763" lon="-119.003592">
        <ele>2459.8</ele>
        <time>2014-06-29T17:38:29Z</time>
        <sat>11</sat>
      </trkpt>
      <trkpt lat="37.689657" lon="-119.003553">
        <ele>2458.9</ele>
        <time>2014-06-29T17:38:31Z</time>
        <sat>11</sat>
      </trkpt>
      <trkpt lat="37.689560" lon="-119.003522">
        <ele>2458.1</ele>
        <time>2014-06-29T17:38:33Z</time>
        <sat>11</sat>
      </trkpt>
      <trkpt lat="37.689448" lon="-119.003485">
        <ele>2457.7</ele>
        <time>2014-06-29T17:38:35Z</time>
        <sat>11</sat>
      </trkpt>
      <trkpt lat="37.689297" lon="-119.003458">
        <ele>2457.4</ele>
        <time>2014-06-29T17:38:37Z</time>
        <sat>11</sat>
      </trkpt>
      <trkpt lat="37.689150" lon="-119.003438">
        <ele>2457.3</ele>
        <time>2014-06-29T17:38:39Z</time>
        <sat>11</sat>
      </trkpt>
      <trkpt lat="37.689042" lon="-119.003388">
        <ele>2456.6</ele>
        <time>2014-06-29T17:38:41Z</time>
        <sat>10</sat>
      </trkpt>
      <trkpt lat="37.688980" lon="-119.003278">
        <ele>2456.0</ele>
        <time>2014-06-29T17:38:43Z</time>
        <sat>10</sat>
      </trkpt>
      <trkpt lat="37.689000" lon="-119.003138">
        <ele>2455.6</ele>
        <time>2014-06-29T17:38:45Z</time>
        <sat>11</sat>
      </trkpt>
      <trkpt lat="37.689075" lon="-119.003032">
        <ele>2455.2</ele>
        <time>2014-06-29T17:38:47Z</time>
        <sat>11</sat>
      </trkpt>
      <trkpt lat="37.689135" lon="-119.002942">
        <ele>2454.8</ele>
        <time>2014-06-29T17:38:49Z</time>
        <sat>11</sat>
      </trkpt>
      <trkpt lat="37.689202" lon="-119.002805">
        <ele>2455.1</ele>
        <time>2014-06-29T17:38:52Z</time>
        <sat>11</sat>
      </trkpt>
      <trkpt lat="37.689258" lon="-119.002647">
        <ele>2454.8</ele>
        <time>2014-06-29T17:38:55Z</time>
        <sat>11</sat>
      </trkpt>
      <trkpt lat="37.689333" lon="-119.002367">
        <ele>2453.9</ele>
        <time>2014-06-29T17:38:59Z</time>
        <sat>11</sat>
      </trkpt>
      <trkpt lat="37.689417" lon="-119.002232">
        <ele>2453.4</ele>
        <time>2014-06-29T17:39:01Z</time>
        <sat>11</sat>
      </trkpt>
      <trkpt lat="37.689515" lon="-119.002108">
        <ele>2452.8</ele>
        <time>2014-06-29T17:39:03Z</time>
        <sat>11</sat>
      </trkpt>
      <trkpt lat="37.689608" lon="-119.001990">
        <ele>2452.5</ele>
        <time>2014-06-29T17:39:05Z</time>
        <sat>11</sat>
      </trkpt>
      <trkpt lat="37.689700" lon="-119.001885">
        <ele>2452.5</ele>
        <time>2014-06-29T17:39:07Z</time>
        <sat>11</sat>
      </trkpt>
      <trkpt lat="37.689788" lon="-119.001797">
        <ele>2452.7</ele>
        <time>2014-06-29T17:39:09Z</time>
        <sat>11</sat>
      </trkpt>
      <trkpt lat="37.689862" lon="-119.001725">
        <ele>2452.8</ele>
        <time>2014-06-29T17:39:11Z</time>
        <sat>11</sat>
      </trkpt>
      <trkpt lat="37.689958" lon="-119.001632">
        <ele>2453.0</ele>
        <time>2014-06-29T17:39:14Z</time>
        <sat>11</sat>
      </trkpt>
      <trkpt lat="37.690052" lon="-119.001553">
        <ele>2453.1</ele>
        <time>2014-06-29T17:39:17Z</time>
        <sat>11</sat>
      </trkpt>
      <trkpt lat="37.690160" lon="-119.001478">
        <ele>2453.2</ele>
        <time>2014-06-29T17:39:20Z</time>
        <sat>11</sat>
      </trkpt>
      <trkpt lat="37.690268" lon="-119.001420">
        <ele>2452.9</ele>
        <time>2014-06-29T17:39:22Z</time>
        <sat>11</sat>
      </trkpt>
      <trkpt lat="37.690412" lon="-119.001360">
        <ele>2451.9</ele>
        <time>2014-06-29T17:39:24Z</time>
        <sat>11</sat>
      </trkpt>
      <trkpt lat="37.690570" lon="-119.001308">
        <ele>2451.1</ele>
        <time>2014-06-29T17:39:26Z</time>
        <sat>10</sat>
      </trkpt>
      <trkpt lat="37.690752" lon="-119.001267">
        <ele>2450.0</ele>
        <time>2014-06-29T17:39:28Z</time>
        <sat>10</sat>
      </trkpt>
      <trkpt lat="37.690845" lon="-119.001255">
        <ele>2449.5</ele>
        <time>2014-06-29T17:39:29Z</time>
        <sat>11</sat>
      </trkpt>
      <trkpt lat="37.690935" lon="-119.001243">
        <ele>2448.9</ele>
        <time>2014-06-29T17:39:30Z</time>
        <sat>11</sat>
      </trkpt>
      <trkpt lat="37.691025" lon="-119.001230">
        <ele>2448.2</ele>
        <time>2014-06-29T17:39:31Z</time>
        <sat>11</sat>
      </trkpt>
      <trkpt lat="37.691115" lon="-119.001218">
        <ele>2447.8</ele>
        <time>2014-06-29T17:39:32Z</time>
        <sat>11</sat>
      </trkpt>
      <trkpt lat="37.691205" lon="-119.001205">
        <ele>2447.4</ele>
        <time>2014-06-29T17:39:33Z</time>
        <sat>11</sat>
      </trkpt>
      <trkpt lat="37.691380" lon="-119.001173">
        <ele>2446.8</ele>
        <time>2014-06-29T17:39:35Z</time>
        <sat>11</sat>
      </trkpt>
      <trkpt lat="37.691547" lon="-119.001150">
        <ele>2446.2</ele>
        <time>2014-06-29T17:39:37Z</time>
        <sat>11</sat>
      </trkpt>
      <trkpt lat="37.691703" lon="-119.001155">
        <ele>2445.5</ele>
        <time>2014-06-29T17:39:39Z</time>
        <sat>11</sat>
      </trkpt>
      <trkpt lat="37.691837" lon="-119.001187">
        <ele>2445.3</ele>
        <time>2014-06-29T17:39:41Z</time>
        <sat>11</sat>
      </trkpt>
      <trkpt lat="37.691940" lon="-119.001255">
        <ele>2445.4</ele>
        <time>2014-06-29T17:39:43Z</time>
        <sat>11</sat>
      </trkpt>
      <trkpt lat="37.692027" lon="-119.001342">
        <ele>2445.5</ele>
        <time>2014-06-29T17:39:45Z</time>
        <sat>11</sat>
      </trkpt>
      <trkpt lat="37.692112" lon="-119.001410">
        <ele>2445.4</ele>
        <time>2014-06-29T17:39:47Z</time>
        <sat>11</sat>
      </trkpt>
      <trkpt lat="37.692195" lon="-119.001460">
        <ele>2445.3</ele>
        <time>2014-06-29T17:39:49Z</time>
        <sat>11</sat>
      </trkpt>
      <trkpt lat="37.692278" lon="-119.001505">
        <ele>2445.7</ele>
        <time>2014-06-29T17:39:51Z</time>
        <sat>11</sat>
      </trkpt>
      <trkpt lat="37.692363" lon="-119.001552">
        <ele>2446.0</ele>
        <time>2014-06-29T17:39:53Z</time>
        <sat>11</sat>
      </trkpt>
      <trkpt lat="37.692443" lon="-119.001607">
        <ele>2446.2</ele>
        <time>2014-06-29T17:39:55Z</time>
        <sat>11</sat>
      </trkpt>
      <trkpt lat="37.692543" lon="-119.001675">
        <ele>2446.2</ele>
        <time>2014-06-29T17:39:58Z</time>
        <sat>11</sat>
      </trkpt>
      <trkpt lat="37.692747" lon="-119.001753">
        <ele>2446.2</ele>
        <time>2014-06-29T17:40:04Z</time>
        <sat>11</sat>
      </trkpt>
      <trkpt lat="37.692862" lon="-119.001752">
        <ele>2445.4</ele>
        <time>2014-06-29T17:40:06Z</time>
        <sat>11</sat>
      </trkpt>
      <trkpt lat="37.692963" lon="-119.001723">
        <ele>2445.0</ele>
        <time>2014-06-29T17:40:08Z</time>
        <sat>11</sat>
      </trkpt>
      <trkpt lat="37.693053" lon="-119.001638">
        <ele>2444.2</ele>
        <time>2014-06-29T17:40:11Z</time>
        <sat>11</sat>
      </trkpt>
      <trkpt lat="37.693050" lon="-119.001513">
        <ele>2443.3</ele>
        <time>2014-06-29T17:40:14Z</time>
        <sat>11</sat>
      </trkpt>
      <trkpt lat="37.693105" lon="-119.001380">
        <ele>2442.8</ele>
        <time>2014-06-29T17:40:17Z</time>
        <sat>11</sat>
      </trkpt>
      <trkpt lat="37.693170" lon="-119.001235">
        <ele>2442.5</ele>
        <time>2014-06-29T17:40:20Z</time>
        <sat>11</sat>
      </trkpt>
      <trkpt lat="37.693215" lon="-119.001130">
        <ele>2442.1</ele>
        <time>2014-06-29T17:40:22Z</time>
        <sat>11</sat>
      </trkpt>
      <trkpt lat="37.693262" lon="-119.001017">
        <ele>2441.6</ele>
        <time>2014-06-29T17:40:24Z</time>
        <sat>11</sat>
      </trkpt>
      <trkpt lat="37.693328" lon="-119.000892">
        <ele>2440.8</ele>
        <time>2014-06-29T17:40:26Z</time>
        <sat>11</sat>
      </trkpt>
      <trkpt lat="37.693397" lon="-119.000757">
        <ele>2440.3</ele>
        <time>2014-06-29T17:40:28Z</time>
        <sat>11</sat>
      </trkpt>
      <trkpt lat="37.693493" lon="-119.000628">
        <ele>2439.7</ele>
        <time>2014-06-29T17:40:30Z</time>
        <sat>11</sat>
      </trkpt>
      <trkpt lat="37.693610" lon="-119.000513">
        <ele>2438.9</ele>
        <time>2014-06-29T17:40:32Z</time>
        <sat>11</sat>
      </trkpt>
      <trkpt lat="37.693727" lon="-119.000417">
        <ele>2437.9</ele>
        <time>2014-06-29T17:40:34Z</time>
        <sat>11</sat>
      </trkpt>
      <trkpt lat="37.693858" lon="-119.000313">
        <ele>2437.4</ele>
        <time>2014-06-29T17:40:36Z</time>
        <sat>11</sat>
      </trkpt>
      <trkpt lat="37.693995" lon="-119.000198">
        <ele>2436.5</ele>
        <time>2014-06-29T17:40:38Z</time>
        <sat>11</sat>
      </trkpt>
      <trkpt lat="37.694138" lon="-119.000100">
        <ele>2435.6</ele>
        <time>2014-06-29T17:40:40Z</time>
        <sat>10</sat>
      </trkpt>
      <trkpt lat="37.694287" lon="-119.000017">
        <ele>2434.3</ele>
        <time>2014-06-29T17:40:42Z</time>
        <sat>10</sat>
      </trkpt>
      <trkpt lat="37.694427" lon="-118.999895">
        <ele>2433.1</ele>
        <time>2014-06-29T17:40:44Z</time>
        <sat>9</sat>
      </trkpt>
      <trkpt lat="37.694577" lon="-118.999780">
        <ele>2431.9</ele>
        <time>2014-06-29T17:40:46Z</time>
        <sat>11</sat>
      </trkpt>
      <trkpt lat="37.694738" lon="-118.999680">
        <ele>2431.0</ele>
        <time>2014-06-29T17:40:48Z</time>
        <sat>11</sat>
      </trkpt>
      <trkpt lat="37.694895" lon="-118.999582">
        <ele>2430.2</ele>
        <time>2014-06-29T17:40:50Z</time>
        <sat>11</sat>
      </trkpt>
      <trkpt lat="37.695045" lon="-118.999472">
        <ele>2428.7</ele>
        <time>2014-06-29T17:40:52Z</time>
        <sat>11</sat>
      </trkpt>
      <trkpt lat="37.695182" lon="-118.999355">
        <ele>2427.4</ele>
        <time>2014-06-29T17:40:54Z</time>
        <sat>11</sat>
      </trkpt>
      <trkpt lat="37.695320" lon="-118.999243">
        <ele>2426.3</ele>
        <time>2014-06-29T17:40:56Z</time>
        <sat>11</sat>
      </trkpt>
      <trkpt lat="37.695467" lon="-118.999130">
        <ele>2425.4</ele>
        <time>2014-06-29T17:40:58Z</time>
        <sat>11</sat>
      </trkpt>
      <trkpt lat="37.695605" lon="-118.999042">
        <ele>2424.3</ele>
        <time>2014-06-29T17:41:00Z</time>
        <sat>11</sat>
      </trkpt>
      <trkpt lat="37.695872" lon="-118.998862">
        <ele>2422.3</ele>
        <time>2014-06-29T17:41:04Z</time>
        <sat>11</sat>
      </trkpt>
      <trkpt lat="37.695995" lon="-118.998740">
        <ele>2421.4</ele>
        <time>2014-06-29T17:41:06Z</time>
        <sat>11</sat>
      </trkpt>
      <trkpt lat="37.696098" lon="-118.998608">
        <ele>2421.1</ele>
        <time>2014-06-29T17:41:08Z</time>
        <sat>11</sat>
      </trkpt>
      <trkpt lat="37.696198" lon="-118.998465">
        <ele>2420.6</ele>
        <time>2014-06-29T17:41:10Z</time>
        <sat>11</sat>
      </trkpt>
      <trkpt lat="37.696308" lon="-118.998313">
        <ele>2419.9</ele>
        <time>2014-06-29T17:41:12Z</time>
        <sat>11</sat>
      </trkpt>
      <trkpt lat="37.696425" lon="-118.998173">
        <ele>2419.3</ele>
        <time>2014-06-29T17:41:14Z</time>
        <sat>11</sat>
      </trkpt>
      <trkpt lat="37.696535" lon="-118.998013">
        <ele>2418.6</ele>
        <time>2014-06-29T17:41:16Z</time>
        <sat>11</sat>
      </trkpt>
      <trkpt lat="37.696622" lon="-118.997838">
        <ele>2418.0</ele>
        <time>2014-06-29T17:41:18Z</time>
        <sat>11</sat>
      </trkpt>
      <trkpt lat="37.696685" lon="-118.997647">
        <ele>2417.2</ele>
        <time>2014-06-29T17:41:20Z</time>
        <sat>11</sat>
      </trkpt>
      <trkpt lat="37.696712" lon="-118.997453">
        <ele>2416.7</ele>
        <time>2014-06-29T17:41:22Z</time>
        <sat>11</sat>
      </trkpt>
      <trkpt lat="37.696733" lon="-118.997260">
        <ele>2416.0</ele>
        <time>2014-06-29T17:41:24Z</time>
        <sat>11</sat>
      </trkpt>
      <trkpt lat="37.696772" lon="-118.997080">
        <ele>2415.3</ele>
        <time>2014-06-29T17:41:26Z</time>
        <sat>11</sat>
      </trkpt>
      <trkpt lat="37.696813" lon="-118.996902">
        <ele>2414.8</ele>
        <time>2014-06-29T17:41:28Z</time>
        <sat>11</sat>
      </trkpt>
      <trkpt lat="37.696863" lon="-118.996728">
        <ele>2414.3</ele>
        <time>2014-06-29T17:41:30Z</time>
        <sat>11</sat>
      </trkpt>
      <trkpt lat="37.696917" lon="-118.996565">
        <ele>2413.9</ele>
        <time>2014-06-29T17:41:32Z</time>
        <sat>11</sat>
      </trkpt>
      <trkpt lat="37.696983" lon="-118.996425">
        <ele>2413.5</ele>
        <time>2014-06-29T17:41:34Z</time>
        <sat>11</sat>
      </trkpt>
      <trkpt lat="37.697070" lon="-118.996303">
        <ele>2413.2</ele>
        <time>2014-06-29T17:41:36Z</time>
        <sat>11</sat>
      </trkpt>
      <trkpt lat="37.697177" lon="-118.996227">
        <ele>2412.9</ele>
        <time>2014-06-29T17:41:38Z</time>
        <sat>11</sat>
      </trkpt>
      <trkpt lat="37.697298" lon="-118.996162">
        <ele>2412.5</ele>
        <time>2014-06-29T17:41:40Z</time>
        <sat>11</sat>
      </trkpt>
      <trkpt lat="37.697415" lon="-118.996093">
        <ele>2412.1</ele>
        <time>2014-06-29T17:41:42Z</time>
        <sat>11</sat>
      </trkpt>
      <trkpt lat="37.697550" lon="-118.996025">
        <ele>2411.9</ele>
        <time>2014-06-29T17:41:44Z</time>
        <sat>11</sat>
      </trkpt>
      <trkpt lat="37.697695" lon="-118.995970">
        <ele>2411.4</ele>
        <time>2014-06-29T17:41:46Z</time>
        <sat>11</sat>
      </trkpt>
      <trkpt lat="37.697823" lon="-118.995910">
        <ele>2411.0</ele>
        <time>2014-06-29T17:41:48Z</time>
        <sat>11</sat>
      </trkpt>
      <trkpt lat="37.697948" lon="-118.995842">
        <ele>2410.8</ele>
        <time>2014-06-29T17:41:50Z</time>
        <sat>11</sat>
      </trkpt>
      <trkpt lat="37.698067" lon="-118.995760">
        <ele>2410.6</ele>
        <time>2014-06-29T17:41:52Z</time>
        <sat>11</sat>
      </trkpt>
      <trkpt lat="37.698173" lon="-118.995657">
        <ele>2410.0</ele>
        <time>2014-06-29T17:41:54Z</time>
        <sat>11</sat>
      </trkpt>
      <trkpt lat="37.698277" lon="-118.995550">
        <ele>2409.6</ele>
        <time>2014-06-29T17:41:56Z</time>
        <sat>11</sat>
      </trkpt>
      <trkpt lat="37.698388" lon="-118.995438">
        <ele>2409.1</ele>
        <time>2014-06-29T17:41:58Z</time>
        <sat>11</sat>
      </trkpt>
      <trkpt lat="37.698505" lon="-118.995312">
        <ele>2408.7</ele>
        <time>2014-06-29T17:42:00Z</time>
        <sat>11</sat>
      </trkpt>
      <trkpt lat="37.698582" lon="-118.995187">
        <ele>2408.1</ele>
        <time>2014-06-29T17:42:02Z</time>
        <sat>11</sat>
      </trkpt>
      <trkpt lat="37.698677" lon="-118.994957">
        <ele>2406.4</ele>
        <time>2014-06-29T17:42:50Z</time>
        <sat>11</sat>
      </trkpt>
      <trkpt lat="37.698732" lon="-118.994837">
        <ele>2406.2</ele>
        <time>2014-06-29T17:42:53Z</time>
        <sat>11</sat>
      </trkpt>
      <trkpt lat="37.698802" lon="-118.994712">
        <ele>2406.2</ele>
        <time>2014-06-29T17:42:56Z</time>
        <sat>11</sat>
      </trkpt>
      <trkpt lat="37.698895" lon="-118.994592">
        <ele>2405.7</ele>
        <time>2014-06-29T17:42:59Z</time>
        <sat>11</sat>
      </trkpt>
      <trkpt lat="37.698962" lon="-118.994515">
        <ele>2405.4</ele>
        <time>2014-06-29T17:43:01Z</time>
        <sat>11</sat>
      </trkpt>
      <trkpt lat="37.699033" lon="-118.994443">
        <ele>2405.2</ele>
        <time>2014-06-29T17:43:03Z</time>
        <sat>11</sat>
      </trkpt>
      <trkpt lat="37.699213" lon="-118.994373">
        <ele>2404.4</ele>
        <time>2014-06-29T17:43:07Z</time>
        <sat>11</sat>
      </trkpt>
      <trkpt lat="37.699315" lon="-118.994377">
        <ele>2404.2</ele>
        <time>2014-06-29T17:43:09Z</time>
        <sat>11</sat>
      </trkpt>
      <trkpt lat="37.699417" lon="-118.994382">
        <ele>2403.9</ele>
        <time>2014-06-29T17:43:11Z</time>
        <sat>11</sat>
      </trkpt>
      <trkpt lat="37.699520" lon="-118.994371">
        <ele>2403.9</ele>
        <time>2014-06-29T17:43:13Z</time>
        <sat>11</sat>
      </trkpt>
      <trkpt lat="37.699618" lon="-118.994350">
        <ele>2403.8</ele>
        <time>2014-06-29T17:43:15Z</time>
        <sat>11</sat>
      </trkpt>
      <trkpt lat="37.699703" lon="-118.994312">
        <ele>2403.7</ele>
        <time>2014-06-29T17:43:17Z</time>
        <sat>11</sat>
      </trkpt>
      <trkpt lat="37.699813" lon="-118.994228">
        <ele>2403.3</ele>
        <time>2014-06-29T17:43:20Z</time>
        <sat>11</sat>
      </trkpt>
      <trkpt lat="37.699917" lon="-118.994122">
        <ele>2403.3</ele>
        <time>2014-06-29T17:43:23Z</time>
        <sat>11</sat>
      </trkpt>
      <trkpt lat="37.700010" lon="-118.994003">
        <ele>2403.4</ele>
        <time>2014-06-29T17:43:26Z</time>
        <sat>11</sat>
      </trkpt>
      <trkpt lat="37.700082" lon="-118.993927">
        <ele>2403.6</ele>
        <time>2014-06-29T17:43:28Z</time>
        <sat>11</sat>
      </trkpt>
      <trkpt lat="37.700152" lon="-118.993847">
        <ele>2403.4</ele>
        <time>2014-06-29T17:43:30Z</time>
        <sat>11</sat>
      </trkpt>
      <trkpt lat="37.700222" lon="-118.993763">
        <ele>2403.1</ele>
        <time>2014-06-29T17:43:32Z</time>
        <sat>11</sat>
      </trkpt>
      <trkpt lat="37.700295" lon="-118.993685">
        <ele>2403.0</ele>
        <time>2014-06-29T17:43:34Z</time>
        <sat>11</sat>
      </trkpt>
      <trkpt lat="37.700370" lon="-118.993607">
        <ele>2403.1</ele>
        <time>2014-06-29T17:43:36Z</time>
        <sat>11</sat>
      </trkpt>
      <trkpt lat="37.700447" lon="-118.993530">
        <ele>2403.3</ele>
        <time>2014-06-29T17:43:38Z</time>
        <sat>11</sat>
      </trkpt>
      <trkpt lat="37.700520" lon="-118.993455">
        <ele>2403.2</ele>
        <time>2014-06-29T17:43:40Z</time>
        <sat>11</sat>
      </trkpt>
      <trkpt lat="37.700593" lon="-118.993378">
        <ele>2403.3</ele>
        <time>2014-06-29T17:43:42Z</time>
        <sat>11</sat>
      </trkpt>
      <trkpt lat="37.700672" lon="-118.993303">
        <ele>2403.4</ele>
        <time>2014-06-29T17:43:44Z</time>
        <sat>11</sat>
      </trkpt>
      <trkpt lat="37.700745" lon="-118.993225">
        <ele>2403.5</ele>
        <time>2014-06-29T17:43:46Z</time>
        <sat>11</sat>
      </trkpt>
      <trkpt lat="37.700820" lon="-118.993147">
        <ele>2403.3</ele>
        <time>2014-06-29T17:43:48Z</time>
        <sat>11</sat>
      </trkpt>
      <trkpt lat="37.700893" lon="-118.993067">
        <ele>2403.3</ele>
        <time>2014-06-29T17:43:50Z</time>
        <sat>11</sat>
      </trkpt>
      <trkpt lat="37.700990" lon="-118.992970">
        <ele>2403.4</ele>
        <time>2014-06-29T17:43:53Z</time>
        <sat>11</sat>
      </trkpt>
      <trkpt lat="37.701077" lon="-118.992903">
        <ele>2403.6</ele>
        <time>2014-06-29T17:43:56Z</time>
        <sat>11</sat>
      </trkpt>
      <trkpt lat="37.701168" lon="-118.992853">
        <ele>2403.7</ele>
        <time>2014-06-29T17:43:59Z</time>
        <sat>11</sat>
      </trkpt>
      <trkpt lat="37.701272" lon="-118.992797">
        <ele>2403.7</ele>
        <time>2014-06-29T17:44:02Z</time>
        <sat>11</sat>
      </trkpt>
      <trkpt lat="37.701388" lon="-118.992708">
        <ele>2403.5</ele>
        <time>2014-06-29T17:44:05Z</time>
        <sat>11</sat>
      </trkpt>
      <trkpt lat="37.701545" lon="-118.992518">
        <ele>2403.8</ele>
        <time>2014-06-29T17:44:10Z</time>
        <sat>11</sat>
      </trkpt>
      <trkpt lat="37.701605" lon="-118.992420">
        <ele>2405.4</ele>
        <time>2014-06-29T17:44:14Z</time>
        <sat>11</sat>
      </trkpt>
      <trkpt lat="37.701660" lon="-118.992330">
        <ele>2405.6</ele>
        <time>2014-06-29T17:44:17Z</time>
        <sat>11</sat>
      </trkpt>
      <trkpt lat="37.701725" lon="-118.992230">
        <ele>2405.7</ele>
        <time>2014-06-29T17:44:20Z</time>
        <sat>11</sat>
      </trkpt>
      <trkpt lat="37.701793" lon="-118.992128">
        <ele>2405.8</ele>
        <time>2014-06-29T17:44:23Z</time>
        <sat>11</sat>
      </trkpt>
      <trkpt lat="37.701875" lon="-118.992013">
        <ele>2405.7</ele>
        <time>2014-06-29T17:44:26Z</time>
        <sat>11</sat>
      </trkpt>
      <trkpt lat="37.701965" lon="-118.991888">
        <ele>2405.5</ele>
        <time>2014-06-29T17:44:29Z</time>
        <sat>11</sat>
      </trkpt>
      <trkpt lat="37.702047" lon="-118.991762">
        <ele>2405.1</ele>
        <time>2014-06-29T17:44:32Z</time>
        <sat>11</sat>
      </trkpt>
      <trkpt lat="37.702132" lon="-118.991645">
        <ele>2404.8</ele>
        <time>2014-06-29T17:44:35Z</time>
        <sat>11</sat>
      </trkpt>
      <trkpt lat="37.702217" lon="-118.991525">
        <ele>2404.6</ele>
        <time>2014-06-29T17:44:38Z</time>
        <sat>11</sat>
      </trkpt>
      <trkpt lat="37.702303" lon="-118.991395">
        <ele>2404.7</ele>
        <time>2014-06-29T17:44:41Z</time>
        <sat>11</sat>
      </trkpt>
      <trkpt lat="37.702370" lon="-118.991298">
        <ele>2404.2</ele>
        <time>2014-06-29T17:44:43Z</time>
        <sat>11</sat>
      </trkpt>
      <trkpt lat="37.702443" lon="-118.991203">
        <ele>2403.7</ele>
        <time>2014-06-29T17:44:45Z</time>
        <sat>11</sat>
      </trkpt>
      <trkpt lat="37.702525" lon="-118.991110">
        <ele>2402.9</ele>
        <time>2014-06-29T17:44:47Z</time>
        <sat>10</sat>
      </trkpt>
      <trkpt lat="37.702607" lon="-118.991023">
        <ele>2402.6</ele>
        <time>2014-06-29T17:44:49Z</time>
        <sat>11</sat>
      </trkpt>
      <trkpt lat="37.702680" lon="-118.990942">
        <ele>2402.4</ele>
        <time>2014-06-29T17:44:51Z</time>
        <sat>11</sat>
      </trkpt>
      <trkpt lat="37.702762" lon="-118.990815">
        <ele>2402.6</ele>
        <time>2014-06-29T17:44:54Z</time>
        <sat>11</sat>
      </trkpt>
      <trkpt lat="37.702827" lon="-118.990697">
        <ele>2402.5</ele>
        <time>2014-06-29T17:44:57Z</time>
        <sat>11</sat>
      </trkpt>
      <trkpt lat="37.702902" lon="-118.990603">
        <ele>2402.1</ele>
        <time>2014-06-29T17:44:59Z</time>
        <sat>11</sat>
      </trkpt>
      <trkpt lat="37.703000" lon="-118.990478">
        <ele>2401.2</ele>
        <time>2014-06-29T17:45:01Z</time>
        <sat>11</sat>
      </trkpt>
      <trkpt lat="37.703110" lon="-118.990335">
        <ele>2400.2</ele>
        <time>2014-06-29T17:45:03Z</time>
        <sat>10</sat>
      </trkpt>
      <trkpt lat="37.703198" lon="-118.990173">
        <ele>2399.2</ele>
        <time>2014-06-29T17:45:05Z</time>
        <sat>11</sat>
      </trkpt>
      <trkpt lat="37.703277" lon="-118.990000">
        <ele>2398.2</ele>
        <time>2014-06-29T17:45:07Z</time>
        <sat>11</sat>
      </trkpt>
      <trkpt lat="37.703475" lon="-118.989682">
        <ele>2396.6</ele>
        <time>2014-06-29T17:45:11Z</time>
        <sat>11</sat>
      </trkpt>
      <trkpt lat="37.703605" lon="-118.989560">
        <ele>2395.7</ele>
        <time>2014-06-29T17:45:13Z</time>
        <sat>10</sat>
      </trkpt>
      <trkpt lat="37.703720" lon="-118.989427">
        <ele>2395.1</ele>
        <time>2014-06-29T17:45:15Z</time>
        <sat>11</sat>
      </trkpt>
      <trkpt lat="37.703847" lon="-118.989298">
        <ele>2394.1</ele>
        <time>2014-06-29T17:45:17Z</time>
        <sat>11</sat>
      </trkpt>
      <trkpt lat="37.703997" lon="-118.989188">
        <ele>2393.0</ele>
        <time>2014-06-29T17:45:19Z</time>
        <sat>10</sat>
      </trkpt>
      <trkpt lat="37.704150" lon="-118.989145">
        <ele>2392.2</ele>
        <time>2014-06-29T17:45:21Z</time>
        <sat>10</sat>
      </trkpt>
      <trkpt lat="37.704297" lon="-118.989103">
        <ele>2391.4</ele>
        <time>2014-06-29T17:45:23Z</time>
        <sat>10</sat>
      </trkpt>
      <trkpt lat="37.704460" lon="-118.989027">
        <ele>2390.7</ele>
        <time>2014-06-29T17:45:25Z</time>
        <sat>11</sat>
      </trkpt>
      <trkpt lat="37.704612" lon="-118.988992">
        <ele>2389.9</ele>
        <time>2014-06-29T17:45:27Z</time>
        <sat>10</sat>
      </trkpt>
      <trkpt lat="37.704777" lon="-118.988938">
        <ele>2389.1</ele>
        <time>2014-06-29T17:45:29Z</time>
        <sat>11</sat>
      </trkpt>
      <trkpt lat="37.704913" lon="-118.988857">
        <ele>2388.6</ele>
        <time>2014-06-29T17:45:31Z</time>
        <sat>11</sat>
      </trkpt>
      <trkpt lat="37.705043" lon="-118.988765">
        <ele>2388.1</ele>
        <time>2014-06-29T17:45:33Z</time>
        <sat>11</sat>
      </trkpt>
      <trkpt lat="37.705165" lon="-118.988658">
        <ele>2387.7</ele>
        <time>2014-06-29T17:45:35Z</time>
        <sat>11</sat>
      </trkpt>
      <trkpt lat="37.705280" lon="-118.988585">
        <ele>2387.0</ele>
        <time>2014-06-29T17:45:37Z</time>
        <sat>11</sat>
      </trkpt>
      <trkpt lat="37.705382" lon="-118.988578">
        <ele>2386.5</ele>
        <time>2014-06-29T17:45:39Z</time>
        <sat>11</sat>
      </trkpt>
      <trkpt lat="37.705493" lon="-118.988647">
        <ele>2386.4</ele>
        <time>2014-06-29T17:45:41Z</time>
        <sat>11</sat>
      </trkpt>
      <trkpt lat="37.705603" lon="-118.988717">
        <ele>2386.5</ele>
        <time>2014-06-29T17:45:43Z</time>
        <sat>11</sat>
      </trkpt>
      <trkpt lat="37.705688" lon="-118.988775">
        <ele>2386.5</ele>
        <time>2014-06-29T17:45:45Z</time>
        <sat>11</sat>
      </trkpt>
      <trkpt lat="37.705770" lon="-118.988833">
        <ele>2386.5</ele>
        <time>2014-06-29T17:45:47Z</time>
        <sat>11</sat>
      </trkpt>
      <trkpt lat="37.705855" lon="-118.988893">
        <ele>2386.5</ele>
        <time>2014-06-29T17:45:49Z</time>
        <sat>11</sat>
      </trkpt>
      <trkpt lat="37.705965" lon="-118.988975">
        <ele>2386.9</ele>
        <time>2014-06-29T17:45:52Z</time>
        <sat>11</sat>
      </trkpt>
      <trkpt lat="37.706065" lon="-118.989040">
        <ele>2387.9</ele>
        <time>2014-06-29T17:45:55Z</time>
        <sat>10</sat>
      </trkpt>
      <trkpt lat="37.706165" lon="-118.989082">
        <ele>2389.1</ele>
        <time>2014-06-29T17:45:59Z</time>
        <sat>11</sat>
      </trkpt>
      <trkpt lat="37.706270" lon="-118.989097">
        <ele>2389.6</ele>
        <time>2014-06-29T17:46:03Z</time>
        <sat>11</sat>
      </trkpt>
      <trkpt lat="37.706363" lon="-118.989108">
        <ele>2389.9</ele>
        <time>2014-06-29T17:46:06Z</time>
        <sat>10</sat>
      </trkpt>
      <trkpt lat="37.706468" lon="-118.989082">
        <ele>2389.7</ele>
        <time>2014-06-29T17:46:09Z</time>
        <sat>11</sat>
      </trkpt>
      <trkpt lat="37.706670" lon="-118.989063">
        <ele>2389.1</ele>
        <time>2014-06-29T17:46:15Z</time>
        <sat>11</sat>
      </trkpt>
      <trkpt lat="37.706765" lon="-118.989058">
        <ele>2388.6</ele>
        <time>2014-06-29T17:46:17Z</time>
        <sat>11</sat>
      </trkpt>
      <trkpt lat="37.706890" lon="-118.989037">
        <ele>2387.9</ele>
        <time>2014-06-29T17:46:19Z</time>
        <sat>11</sat>
      </trkpt>
      <trkpt lat="37.707018" lon="-118.989002">
        <ele>2387.1</ele>
        <time>2014-06-29T17:46:21Z</time>
        <sat>11</sat>
      </trkpt>
      <trkpt lat="37.707167" lon="-118.988978">
        <ele>2386.5</ele>
        <time>2014-06-29T17:46:23Z</time>
        <sat>11</sat>
      </trkpt>
      <trkpt lat="37.707302" lon="-118.988972">
        <ele>2386.3</ele>
        <time>2014-06-29T17:46:25Z</time>
        <sat>11</sat>
      </trkpt>
      <trkpt lat="37.707417" lon="-118.988968">
        <ele>2386.1</ele>
        <time>2014-06-29T17:46:27Z</time>
        <sat>11</sat>
      </trkpt>
      <trkpt lat="37.707513" lon="-118.988962">
        <ele>2386.3</ele>
        <time>2014-06-29T17:46:29Z</time>
        <sat>11</sat>
      </trkpt>
      <trkpt lat="37.707603" lon="-118.988960">
        <ele>2386.4</ele>
        <time>2014-06-29T17:46:31Z</time>
        <sat>11</sat>
      </trkpt>
      <trkpt lat="37.707733" lon="-118.988925">
        <ele>2386.4</ele>
        <time>2014-06-29T17:46:34Z</time>
        <sat>11</sat>
      </trkpt>
      <trkpt lat="37.707813" lon="-118.988872">
        <ele>2386.1</ele>
        <time>2014-06-29T17:46:36Z</time>
        <sat>11</sat>
      </trkpt>
      <trkpt lat="37.707903" lon="-118.988820">
        <ele>2385.7</ele>
        <time>2014-06-29T17:46:38Z</time>
        <sat>11</sat>
      </trkpt>
      <trkpt lat="37.707990" lon="-118.988752">
        <ele>2385.5</ele>
        <time>2014-06-29T17:46:40Z</time>
        <sat>11</sat>
      </trkpt>
      <trkpt lat="37.708078" lon="-118.988657">
        <ele>2385.5</ele>
        <time>2014-06-29T17:46:42Z</time>
        <sat>11</sat>
      </trkpt>
      <trkpt lat="37.708157" lon="-118.988552">
        <ele>2385.2</ele>
        <time>2014-06-29T17:46:44Z</time>
        <sat>11</sat>
      </trkpt>
      <trkpt lat="37.708232" lon="-118.988445">
        <ele>2385.0</ele>
        <time>2014-06-29T17:46:46Z</time>
        <sat>11</sat>
      </trkpt>
      <trkpt lat="37.708303" lon="-118.988340">
        <ele>2384.8</ele>
        <time>2014-06-29T17:46:48Z</time>
        <sat>11</sat>
      </trkpt>
      <trkpt lat="37.708373" lon="-118.988235">
        <ele>2384.7</ele>
        <time>2014-06-29T17:46:50Z</time>
        <sat>11</sat>
      </trkpt>
      <trkpt lat="37.708435" lon="-118.988135">
        <ele>2384.9</ele>
        <time>2014-06-29T17:46:52Z</time>
        <sat>11</sat>
      </trkpt>
      <trkpt lat="37.708522" lon="-118.988013">
        <ele>2385.4</ele>
        <time>2014-06-29T17:46:55Z</time>
        <sat>11</sat>
      </trkpt>
      <trkpt lat="37.708600" lon="-118.987892">
        <ele>2385.6</ele>
        <time>2014-06-29T17:46:58Z</time>
        <sat>11</sat>
      </trkpt>
      <trkpt lat="37.708675" lon="-118.987788">
        <ele>2385.8</ele>
        <time>2014-06-29T17:47:01Z</time>
        <sat>11</sat>
      </trkpt>
      <trkpt lat="37.708740" lon="-118.987698">
        <ele>2386.6</ele>
        <time>2014-06-29T17:47:04Z</time>
        <sat>11</sat>
      </trkpt>
      <trkpt lat="37.708803" lon="-118.987572">
        <ele>2387.3</ele>
        <time>2014-06-29T17:47:08Z</time>
        <sat>11</sat>
      </trkpt>
      <trkpt lat="37.708843" lon="-118.987462">
        <ele>2387.3</ele>
        <time>2014-06-29T17:47:11Z</time>
        <sat>10</sat>
      </trkpt>
      <trkpt lat="37.708942" lon="-118.987225">
        <ele>2387.8</ele>
        <time>2014-06-29T17:47:17Z</time>
        <sat>11</sat>
      </trkpt>
      <trkpt lat="37.709012" lon="-118.987118">
        <ele>2387.9</ele>
        <time>2014-06-29T17:47:20Z</time>
        <sat>11</sat>
      </trkpt>
      <trkpt lat="37.709100" lon="-118.987032">
        <ele>2387.8</ele>
        <time>2014-06-29T17:47:23Z</time>
        <sat>11</sat>
      </trkpt>
      <trkpt lat="37.709183" lon="-118.986962">
        <ele>2387.4</ele>
        <time>2014-06-29T17:47:58Z</time>
        <sat>11</sat>
      </trkpt>
      <trkpt lat="37.709292" lon="-118.986900">
        <ele>2387.1</ele>
        <time>2014-06-29T17:48:01Z</time>
        <sat>11</sat>
      </trkpt>
      <trkpt lat="37.709380" lon="-118.986863">
        <ele>2387.1</ele>
        <time>2014-06-29T17:48:03Z</time>
        <sat>11</sat>
      </trkpt>
      <trkpt lat="37.709478" lon="-118.986845">
        <ele>2387.1</ele>
        <time>2014-06-29T17:48:05Z</time>
        <sat>11</sat>
      </trkpt>
      <trkpt lat="37.709580" lon="-118.986848">
        <ele>2387.1</ele>
        <time>2014-06-29T17:48:07Z</time>
        <sat>11</sat>
      </trkpt>
      <trkpt lat="37.709673" lon="-118.986858">
        <ele>2387.2</ele>
        <time>2014-06-29T17:48:09Z</time>
        <sat>11</sat>
      </trkpt>
      <trkpt lat="37.709807" lon="-118.986870">
        <ele>2387.0</ele>
        <time>2014-06-29T17:48:12Z</time>
        <sat>11</sat>
      </trkpt>
      <trkpt lat="37.709992" lon="-118.986750">
        <ele>2386.6</ele>
        <time>2014-06-29T17:48:16Z</time>
        <sat>9</sat>
      </trkpt>
      <trkpt lat="37.710062" lon="-118.986627">
        <ele>2386.2</ele>
        <time>2014-06-29T17:48:18Z</time>
        <sat>10</sat>
      </trkpt>
      <trkpt lat="37.710113" lon="-118.986488">
        <ele>2385.8</ele>
        <time>2014-06-29T17:48:20Z</time>
        <sat>10</sat>
      </trkpt>
      <trkpt lat="37.710142" lon="-118.986328">
        <ele>2385.5</ele>
        <time>2014-06-29T17:48:22Z</time>
        <sat>11</sat>
      </trkpt>
      <trkpt lat="37.710133" lon="-118.986172">
        <ele>2385.3</ele>
        <time>2014-06-29T17:48:24Z</time>
        <sat>11</sat>
      </trkpt>
      <trkpt lat="37.710107" lon="-118.986013">
        <ele>2385.0</ele>
        <time>2014-06-29T17:48:26Z</time>
        <sat>11</sat>
      </trkpt>
      <trkpt lat="37.710098" lon="-118.985858">
        <ele>2385.0</ele>
        <time>2014-06-29T17:48:28Z</time>
        <sat>11</sat>
      </trkpt>
      <trkpt lat="37.710115" lon="-118.985713">
        <ele>2384.8</ele>
        <time>2014-06-29T17:48:30Z</time>
        <sat>11</sat>
      </trkpt>
      <trkpt lat="37.710170" lon="-118.985593">
        <ele>2384.3</ele>
        <time>2014-06-29T17:48:32Z</time>
        <sat>11</sat>
      </trkpt>
      <trkpt lat="37.710242" lon="-118.985493">
        <ele>2384.2</ele>
        <time>2014-06-29T17:48:34Z</time>
        <sat>11</sat>
      </trkpt>
      <trkpt lat="37.710313" lon="-118.985383">
        <ele>2383.8</ele>
        <time>2014-06-29T17:48:36Z</time>
        <sat>11</sat>
      </trkpt>
      <trkpt lat="37.710398" lon="-118.985272">
        <ele>2383.5</ele>
        <time>2014-06-29T17:48:38Z</time>
        <sat>11</sat>
      </trkpt>
      <trkpt lat="37.710487" lon="-118.985160">
        <ele>2383.3</ele>
        <time>2014-06-29T17:48:40Z</time>
        <sat>11</sat>
      </trkpt>
      <trkpt lat="37.710578" lon="-118.985048">
        <ele>2383.1</ele>
        <time>2014-06-29T17:48:42Z</time>
        <sat>11</sat>
      </trkpt>
      <trkpt lat="37.710665" lon="-118.984937">
        <ele>2382.7</ele>
        <time>2014-06-29T17:48:44Z</time>
        <sat>11</sat>
      </trkpt>
      <trkpt lat="37.710748" lon="-118.984832">
        <ele>2382.3</ele>
        <time>2014-06-29T17:48:46Z</time>
        <sat>11</sat>
      </trkpt>
      <trkpt lat="37.710820" lon="-118.984718">
        <ele>2381.8</ele>
        <time>2014-06-29T17:48:48Z</time>
        <sat>11</sat>
      </trkpt>
      <trkpt lat="37.710883" lon="-118.984597">
        <ele>2381.6</ele>
        <time>2014-06-29T17:48:50Z</time>
        <sat>11</sat>
      </trkpt>
      <trkpt lat="37.710937" lon="-118.984468">
        <ele>2381.1</ele>
        <time>2014-06-29T17:48:52Z</time>
        <sat>11</sat>
      </trkpt>
      <trkpt lat="37.710978" lon="-118.984328">
        <ele>2381.2</ele>
        <time>2014-06-29T17:48:54Z</time>
        <sat>11</sat>
      </trkpt>
      <trkpt lat="37.711012" lon="-118.984187">
        <ele>2381.2</ele>
        <time>2014-06-29T17:48:56Z</time>
        <sat>11</sat>
      </trkpt>
      <trkpt lat="37.711032" lon="-118.984047">
        <ele>2380.8</ele>
        <time>2014-06-29T17:48:58Z</time>
        <sat>11</sat>
      </trkpt>
      <trkpt lat="37.711053" lon="-118.983912">
        <ele>2380.6</ele>
        <time>2014-06-29T17:49:00Z</time>
        <sat>11</sat>
      </trkpt>
      <trkpt lat="37.711077" lon="-118.983790">
        <ele>2380.4</ele>
        <time>2014-06-29T17:49:02Z</time>
        <sat>11</sat>
      </trkpt>
      <trkpt lat="37.711110" lon="-118.983670">
        <ele>2380.3</ele>
        <time>2014-06-29T17:49:04Z</time>
        <sat>11</sat>
      </trkpt>
      <trkpt lat="37.711105" lon="-118.983543">
        <ele>2380.2</ele>
        <time>2014-06-29T17:49:06Z</time>
        <sat>10</sat>
      </trkpt>
      <trkpt lat="37.711072" lon="-118.983408">
        <ele>2380.1</ele>
        <time>2014-06-29T17:49:08Z</time>
        <sat>10</sat>
      </trkpt>
      <trkpt lat="37.711022" lon="-118.983290">
        <ele>2379.7</ele>
        <time>2014-06-29T17:49:10Z</time>
        <sat>11</sat>
      </trkpt>
      <trkpt lat="37.710968" lon="-118.983177">
        <ele>2379.6</ele>
        <time>2014-06-29T17:49:12Z</time>
        <sat>11</sat>
      </trkpt>
      <trkpt lat="37.710910" lon="-118.983062">
        <ele>2379.3</ele>
        <time>2014-06-29T17:49:14Z</time>
        <sat>11</sat>
      </trkpt>
      <trkpt lat="37.710788" lon="-118.982827">
        <ele>2379.1</ele>
        <time>2014-06-29T17:49:18Z</time>
        <sat>11</sat>
      </trkpt>
      <trkpt lat="37.710733" lon="-118.982708">
        <ele>2378.8</ele>
        <time>2014-06-29T17:49:20Z</time>
        <sat>11</sat>
      </trkpt>
      <trkpt lat="37.710678" lon="-118.982597">
        <ele>2378.7</ele>
        <time>2014-06-29T17:49:22Z</time>
        <sat>11</sat>
      </trkpt>
      <trkpt lat="37.710628" lon="-118.982483">
        <ele>2378.4</ele>
        <time>2014-06-29T17:49:24Z</time>
        <sat>11</sat>
      </trkpt>
      <trkpt lat="37.710588" lon="-118.982358">
        <ele>2378.4</ele>
        <time>2014-06-29T17:49:26Z</time>
        <sat>11</sat>
      </trkpt>
      <trkpt lat="37.710553" lon="-118.982232">
        <ele>2378.5</ele>
        <time>2014-06-29T17:49:28Z</time>
        <sat>11</sat>
      </trkpt>
      <trkpt lat="37.710522" lon="-118.982097">
        <ele>2378.3</ele>
        <time>2014-06-29T17:49:30Z</time>
        <sat>11</sat>
      </trkpt>
      <trkpt lat="37.710483" lon="-118.981970">
        <ele>2378.1</ele>
        <time>2014-06-29T17:49:32Z</time>
        <sat>11</sat>
      </trkpt>
      <trkpt lat="37.710442" lon="-118.981852">
        <ele>2377.9</ele>
        <time>2014-06-29T17:49:34Z</time>
        <sat>11</sat>
      </trkpt>
      <trkpt lat="37.710390" lon="-118.981745">
        <ele>2377.4</ele>
        <time>2014-06-29T17:49:36Z</time>
        <sat>11</sat>
      </trkpt>
      <trkpt lat="37.710335" lon="-118.981638">
        <ele>2377.0</ele>
        <time>2014-06-29T17:49:38Z</time>
        <sat>11</sat>
      </trkpt>
      <trkpt lat="37.710288" lon="-118.981530">
        <ele>2376.7</ele>
        <time>2014-06-29T17:49:40Z</time>
        <sat>11</sat>
      </trkpt>
      <trkpt lat="37.710258" lon="-118.981355">
        <ele>2376.3</ele>
        <time>2014-06-29T17:49:43Z</time>
        <sat>11</sat>
      </trkpt>
      <trkpt lat="37.710260" lon="-118.981227">
        <ele>2376.0</ele>
        <time>2014-06-29T17:49:45Z</time>
        <sat>11</sat>
      </trkpt>
      <trkpt lat="37.710282" lon="-118.981100">
        <ele>2376.1</ele>
        <time>2014-06-29T17:49:47Z</time>
        <sat>11</sat>
      </trkpt>
      <trkpt lat="37.710310" lon="-118.980980">
        <ele>2376.2</ele>
        <time>2014-06-29T17:49:49Z</time>
        <sat>11</sat>
      </trkpt>
      <trkpt lat="37.710332" lon="-118.980863">
        <ele>2376.5</ele>
        <time>2014-06-29T17:49:51Z</time>
        <sat>11</sat>
      </trkpt>
      <trkpt lat="37.710348" lon="-118.980742">
        <ele>2376.4</ele>
        <time>2014-06-29T17:49:53Z</time>
        <sat>11</sat>
      </trkpt>
      <trkpt lat="37.710372" lon="-118.980628">
        <ele>2376.4</ele>
        <time>2014-06-29T17:49:55Z</time>
        <sat>11</sat>
      </trkpt>
      <trkpt lat="37.710403" lon="-118.980467">
        <ele>2376.6</ele>
        <time>2014-06-29T17:49:58Z</time>
        <sat>11</sat>
      </trkpt>
      <trkpt lat="37.710435" lon="-118.980315">
        <ele>2376.2</ele>
        <time>2014-06-29T17:50:01Z</time>
        <sat>11</sat>
      </trkpt>
      <trkpt lat="37.710470" lon="-118.980183">
        <ele>2376.2</ele>
        <time>2014-06-29T17:50:04Z</time>
        <sat>11</sat>
      </trkpt>
      <trkpt lat="37.710533" lon="-118.980072">
        <ele>2376.5</ele>
        <time>2014-06-29T17:50:07Z</time>
        <sat>11</sat>
      </trkpt>
      <trkpt lat="37.710602" lon="-118.979973">
        <ele>2376.8</ele>
        <time>2014-06-29T17:50:10Z</time>
        <sat>11</sat>
      </trkpt>
      <trkpt lat="37.710673" lon="-118.979875">
        <ele>2377.1</ele>
        <time>2014-06-29T17:50:13Z</time>
        <sat>11</sat>
      </trkpt>
      <trkpt lat="37.710735" lon="-118.979760">
        <ele>2377.4</ele>
        <time>2014-06-29T17:50:17Z</time>
        <sat>11</sat>
      </trkpt>
      <trkpt lat="37.710897" lon="-118.979773">
        <ele>2377.7</ele>
        <time>2014-06-29T17:51:21Z</time>
        <sat>12</sat>
      </trkpt>
      <trkpt lat="37.711045" lon="-118.979940">
        <ele>2377.6</ele>
        <time>2014-06-29T17:51:27Z</time>
        <sat>12</sat>
      </trkpt>
      <trkpt lat="37.711138" lon="-118.979985">
        <ele>2377.3</ele>
        <time>2014-06-29T17:51:30Z</time>
        <sat>12</sat>
      </trkpt>
      <trkpt lat="37.711247" lon="-118.980020">
        <ele>2377.0</ele>
        <time>2014-06-29T17:51:33Z</time>
        <sat>12</sat>
      </trkpt>
      <trkpt lat="37.711337" lon="-118.980053">
        <ele>2376.8</ele>
        <time>2014-06-29T17:51:35Z</time>
        <sat>12</sat>
      </trkpt>
      <trkpt lat="37.711422" lon="-118.980110">
        <ele>2376.7</ele>
        <time>2014-06-29T17:51:37Z</time>
        <sat>12</sat>
      </trkpt>
      <trkpt lat="37.711500" lon="-118.980240">
        <ele>2376.7</ele>
        <time>2014-06-29T17:51:40Z</time>
        <sat>12</sat>
      </trkpt>
      <trkpt lat="37.711533" lon="-118.980377">
        <ele>2377.0</ele>
        <time>2014-06-29T17:51:43Z</time>
        <sat>12</sat>
      </trkpt>
      <trkpt lat="37.711562" lon="-118.980528">
        <ele>2376.8</ele>
        <time>2014-06-29T17:51:46Z</time>
        <sat>12</sat>
      </trkpt>
      <trkpt lat="37.711610" lon="-118.980632">
        <ele>2376.5</ele>
        <time>2014-06-29T17:51:48Z</time>
        <sat>13</sat>
      </trkpt>
      <trkpt lat="37.711678" lon="-118.980738">
        <ele>2376.2</ele>
        <time>2014-06-29T17:51:50Z</time>
        <sat>13</sat>
      </trkpt>
      <trkpt lat="37.711757" lon="-118.980830">
        <ele>2376.2</ele>
        <time>2014-06-29T17:51:52Z</time>
        <sat>13</sat>
      </trkpt>
      <trkpt lat="37.711838" lon="-118.980918">
        <ele>2376.1</ele>
        <time>2014-06-29T17:51:54Z</time>
        <sat>13</sat>
      </trkpt>
      <trkpt lat="37.711913" lon="-118.981007">
        <ele>2375.9</ele>
        <time>2014-06-29T17:51:56Z</time>
        <sat>13</sat>
      </trkpt>
      <trkpt lat="37.711990" lon="-118.981093">
        <ele>2375.6</ele>
        <time>2014-06-29T17:51:58Z</time>
        <sat>13</sat>
      </trkpt>
      <trkpt lat="37.712068" lon="-118.981190">
        <ele>2375.4</ele>
        <time>2014-06-29T17:52:00Z</time>
        <sat>13</sat>
      </trkpt>
      <trkpt lat="37.712132" lon="-118.981285">
        <ele>2375.4</ele>
        <time>2014-06-29T17:52:02Z</time>
        <sat>13</sat>
      </trkpt>
      <trkpt lat="37.712202" lon="-118.981388">
        <ele>2375.3</ele>
        <time>2014-06-29T17:52:04Z</time>
        <sat>13</sat>
      </trkpt>
      <trkpt lat="37.712257" lon="-118.981503">
        <ele>2374.9</ele>
        <time>2014-06-29T17:52:06Z</time>
        <sat>12</sat>
      </trkpt>
      <trkpt lat="37.712305" lon="-118.981630">
        <ele>2374.9</ele>
        <time>2014-06-29T17:52:08Z</time>
        <sat>12</sat>
      </trkpt>
      <trkpt lat="37.712347" lon="-118.981757">
        <ele>2375.0</ele>
        <time>2014-06-29T17:52:10Z</time>
        <sat>12</sat>
      </trkpt>
      <trkpt lat="37.712388" lon="-118.981883">
        <ele>2375.0</ele>
        <time>2014-06-29T17:52:12Z</time>
        <sat>12</sat>
      </trkpt>
      <trkpt lat="37.712430" lon="-118.982007">
        <ele>2374.9</ele>
        <time>2014-06-29T17:52:14Z</time>
        <sat>13</sat>
      </trkpt>
      <trkpt lat="37.712462" lon="-118.982127">
        <ele>2375.3</ele>
        <time>2014-06-29T17:52:16Z</time>
        <sat>13</sat>
      </trkpt>
      <trkpt lat="37.712487" lon="-118.982240">
        <ele>2375.6</ele>
        <time>2014-06-29T17:52:18Z</time>
        <sat>13</sat>
      </trkpt>
      <trkpt lat="37.712518" lon="-118.982405">
        <ele>2375.9</ele>
        <time>2014-06-29T17:52:21Z</time>
        <sat>13</sat>
      </trkpt>
      <trkpt lat="37.712543" lon="-118.982522">
        <ele>2375.8</ele>
        <time>2014-06-29T17:52:23Z</time>
        <sat>13</sat>
      </trkpt>
      <trkpt lat="37.712580" lon="-118.982762">
        <ele>2375.8</ele>
        <time>2014-06-29T17:52:27Z</time>
        <sat>13</sat>
      </trkpt>
      <trkpt lat="37.712583" lon="-118.982888">
        <ele>2375.9</ele>
        <time>2014-06-29T17:52:29Z</time>
        <sat>13</sat>
      </trkpt>
      <trkpt lat="37.712582" lon="-118.983012">
        <ele>2376.0</ele>
        <time>2014-06-29T17:52:31Z</time>
        <sat>13</sat>
      </trkpt>
      <trkpt lat="37.712585" lon="-118.983127">
        <ele>2376.0</ele>
        <time>2014-06-29T17:52:33Z</time>
        <sat>13</sat>
      </trkpt>
      <trkpt lat="37.712592" lon="-118.983278">
        <ele>2376.0</ele>
        <time>2014-06-29T17:52:36Z</time>
        <sat>13</sat>
      </trkpt>
      <trkpt lat="37.712610" lon="-118.983417">
        <ele>2376.0</ele>
        <time>2014-06-29T17:52:39Z</time>
        <sat>13</sat>
      </trkpt>
      <trkpt lat="37.712617" lon="-118.983558">
        <ele>2375.9</ele>
        <time>2014-06-29T17:52:42Z</time>
        <sat>13</sat>
      </trkpt>
      <trkpt lat="37.712600" lon="-118.983697">
        <ele>2376.0</ele>
        <time>2014-06-29T17:52:45Z</time>
        <sat>13</sat>
      </trkpt>
      <trkpt lat="37.712602" lon="-118.983832">
        <ele>2376.3</ele>
        <time>2014-06-29T17:52:48Z</time>
        <sat>13</sat>
      </trkpt>
      <trkpt lat="37.712630" lon="-118.983965">
        <ele>2376.5</ele>
        <time>2014-06-29T17:52:51Z</time>
        <sat>13</sat>
      </trkpt>
      <trkpt lat="37.712647" lon="-118.984117">
        <ele>2377.4</ele>
        <time>2014-06-29T17:52:54Z</time>
        <sat>13</sat>
      </trkpt>
      <trkpt lat="37.712690" lon="-118.984240">
        <ele>2377.7</ele>
        <time>2014-06-29T17:52:57Z</time>
        <sat>13</sat>
      </trkpt>
      <trkpt lat="37.712740" lon="-118.984353">
        <ele>2377.9</ele>
        <time>2014-06-29T17:53:00Z</time>
        <sat>13</sat>
      </trkpt>
      <trkpt lat="37.712767" lon="-118.984478">
        <ele>2378.3</ele>
        <time>2014-06-29T17:53:03Z</time>
        <sat>13</sat>
      </trkpt>
      <trkpt lat="37.712783" lon="-118.984615">
        <ele>2378.4</ele>
        <time>2014-06-29T17:53:06Z</time>
        <sat>13</sat>
      </trkpt>
      <trkpt lat="37.712812" lon="-118.984755">
        <ele>2378.7</ele>
        <time>2014-06-29T17:53:09Z</time>
        <sat>13</sat>
      </trkpt>
      <trkpt lat="37.712838" lon="-118.984885">
        <ele>2378.7</ele>
        <time>2014-06-29T17:53:12Z</time>
        <sat>13</sat>
      </trkpt>
      <trkpt lat="37.712872" lon="-118.985003">
        <ele>2378.9</ele>
        <time>2014-06-29T17:53:15Z</time>
        <sat>13</sat>
      </trkpt>
      <trkpt lat="37.712907" lon="-118.985127">
        <ele>2379.3</ele>
        <time>2014-06-29T17:53:18Z</time>
        <sat>13</sat>
      </trkpt>
      <trkpt lat="37.712935" lon="-118.985260">
        <ele>2379.3</ele>
        <time>2014-06-29T17:53:21Z</time>
        <sat>13</sat>
      </trkpt>
      <trkpt lat="37.712983" lon="-118.985393">
        <ele>2379.4</ele>
        <time>2014-06-29T17:53:24Z</time>
        <sat>13</sat>
      </trkpt>
      <trkpt lat="37.713042" lon="-118.985523">
        <ele>2379.3</ele>
        <time>2014-06-29T17:53:27Z</time>
        <sat>13</sat>
      </trkpt>
      <trkpt lat="37.713130" lon="-118.985762">
        <ele>2379.6</ele>
        <time>2014-06-29T17:53:33Z</time>
        <sat>13</sat>
      </trkpt>
      <trkpt lat="37.713195" lon="-118.985865">
        <ele>2379.8</ele>
        <time>2014-06-29T17:53:36Z</time>
        <sat>12</sat>
      </trkpt>
      <trkpt lat="37.713295" lon="-118.985942">
        <ele>2379.5</ele>
        <time>2014-06-29T17:53:39Z</time>
        <sat>13</sat>
      </trkpt>
      <trkpt lat="37.713417" lon="-118.985973">
        <ele>2379.5</ele>
        <time>2014-06-29T17:53:42Z</time>
        <sat>13</sat>
      </trkpt>
      <trkpt lat="37.713528" lon="-118.985975">
        <ele>2379.7</ele>
        <time>2014-06-29T17:53:44Z</time>
        <sat>13</sat>
      </trkpt>
      <trkpt lat="37.713618" lon="-118.985955">
        <ele>2379.5</ele>
        <time>2014-06-29T17:53:46Z</time>
        <sat>13</sat>
      </trkpt>
      <trkpt lat="37.713758" lon="-118.985925">
        <ele>2378.5</ele>
        <time>2014-06-29T17:53:49Z</time>
        <sat>13</sat>
      </trkpt>
      <trkpt lat="37.713870" lon="-118.985907">
        <ele>2377.7</ele>
        <time>2014-06-29T17:53:51Z</time>
        <sat>13</sat>
      </trkpt>
      <trkpt lat="37.713987" lon="-118.985870">
        <ele>2376.7</ele>
        <time>2014-06-29T17:53:53Z</time>
        <sat>13</sat>
      </trkpt>
      <trkpt lat="37.714077" lon="-118.985850">
        <ele>2376.2</ele>
        <time>2014-06-29T17:53:54Z</time>
        <sat>13</sat>
      </trkpt>
      <trkpt lat="37.714218" lon="-118.985830">
        <ele>2375.2</ele>
        <time>2014-06-29T17:53:56Z</time>
        <sat>13</sat>
      </trkpt>
      <trkpt lat="37.714350" lon="-118.985835">
        <ele>2374.9</ele>
        <time>2014-06-29T17:53:58Z</time>
        <sat>13</sat>
      </trkpt>
      <trkpt lat="37.714493" lon="-118.985863">
        <ele>2374.7</ele>
        <time>2014-06-29T17:54:00Z</time>
        <sat>13</sat>
      </trkpt>
      <trkpt lat="37.714643" lon="-118.985907">
        <ele>2374.2</ele>
        <time>2014-06-29T17:54:02Z</time>
        <sat>13</sat>
      </trkpt>
      <trkpt lat="37.714782" lon="-118.985953">
        <ele>2373.5</ele>
        <time>2014-06-29T17:54:04Z</time>
        <sat>13</sat>
      </trkpt>
      <trkpt lat="37.714915" lon="-118.986013">
        <ele>2372.8</ele>
        <time>2014-06-29T17:54:06Z</time>
        <sat>12</sat>
      </trkpt>
      <trkpt lat="37.715020" lon="-118.986103">
        <ele>2372.2</ele>
        <time>2014-06-29T17:54:08Z</time>
        <sat>13</sat>
      </trkpt>
      <trkpt lat="37.715098" lon="-118.986233">
        <ele>2371.7</ele>
        <time>2014-06-29T17:54:10Z</time>
        <sat>13</sat>
      </trkpt>
      <trkpt lat="37.715192" lon="-118.986373">
        <ele>2371.2</ele>
        <time>2014-06-29T17:54:12Z</time>
        <sat>13</sat>
      </trkpt>
      <trkpt lat="37.715292" lon="-118.986517">
        <ele>2370.8</ele>
        <time>2014-06-29T17:54:14Z</time>
        <sat>12</sat>
      </trkpt>
      <trkpt lat="37.715390" lon="-118.986665">
        <ele>2370.2</ele>
        <time>2014-06-29T17:54:16Z</time>
        <sat>13</sat>
      </trkpt>
      <trkpt lat="37.715480" lon="-118.986802">
        <ele>2369.3</ele>
        <time>2014-06-29T17:54:18Z</time>
        <sat>12</sat>
      </trkpt>
      <trkpt lat="37.715543" lon="-118.986903">
        <ele>2368.2</ele>
        <time>2014-06-29T17:54:20Z</time>
        <sat>13</sat>
      </trkpt>
      <trkpt lat="37.715607" lon="-118.986987">
        <ele>2366.7</ele>
        <time>2014-06-29T17:54:25Z</time>
        <sat>13</sat>
      </trkpt>
      <trkpt lat="37.715677" lon="-118.987078">
        <ele>2366.8</ele>
        <time>2014-06-29T17:55:37Z</time>
        <sat>13</sat>
      </trkpt>
      <trkpt lat="37.715795" lon="-118.987338">
        <ele>2367.0</ele>
        <time>2014-06-29T17:55:43Z</time>
        <sat>13</sat>
      </trkpt>
      <trkpt lat="37.715817" lon="-118.987473">
        <ele>2367.0</ele>
        <time>2014-06-29T17:55:46Z</time>
        <sat>13</sat>
      </trkpt>
      <trkpt lat="37.715848" lon="-118.987630">
        <ele>2366.9</ele>
        <time>2014-06-29T17:55:49Z</time>
        <sat>13</sat>
      </trkpt>
      <trkpt lat="37.715835" lon="-118.987793">
        <ele>2366.5</ele>
        <time>2014-06-29T17:55:52Z</time>
        <sat>13</sat>
      </trkpt>
      <trkpt lat="37.715775" lon="-118.987917">
        <ele>2366.7</ele>
        <time>2014-06-29T17:55:55Z</time>
        <sat>13</sat>
      </trkpt>
      <trkpt lat="37.715703" lon="-118.988000">
        <ele>2367.0</ele>
        <time>2014-06-29T17:55:58Z</time>
        <sat>13</sat>
      </trkpt>
      <trkpt lat="37.715625" lon="-118.988103">
        <ele>2367.2</ele>
        <time>2014-06-29T17:56:02Z</time>
        <sat>13</sat>
      </trkpt>
      <trkpt lat="37.715590" lon="-118.988232">
        <ele>2367.4</ele>
        <time>2014-06-29T17:56:06Z</time>
        <sat>13</sat>
      </trkpt>
      <trkpt lat="37.715568" lon="-118.988373">
        <ele>2367.9</ele>
        <time>2014-06-29T17:56:10Z</time>
        <sat>13</sat>
      </trkpt>
      <trkpt lat="37.715530" lon="-118.988503">
        <ele>2368.7</ele>
        <time>2014-06-29T17:56:15Z</time>
        <sat>13</sat>
      </trkpt>
      <trkpt lat="37.715487" lon="-118.988618">
        <ele>2369.3</ele>
        <time>2014-06-29T17:56:20Z</time>
        <sat>13</sat>
      </trkpt>
      <trkpt lat="37.715447" lon="-118.988738">
        <ele>2370.6</ele>
        <time>2014-06-29T17:56:26Z</time>
        <sat>13</sat>
      </trkpt>
      <trkpt lat="37.715438" lon="-118.988857">
        <ele>2371.8</ele>
        <time>2014-06-29T17:56:33Z</time>
        <sat>13</sat>
      </trkpt>
      <trkpt lat="37.715417" lon="-118.988992">
        <ele>2372.4</ele>
        <time>2014-06-29T17:56:39Z</time>
        <sat>13</sat>
      </trkpt>
      <trkpt lat="37.715410" lon="-118.989228">
        <ele>2372.3</ele>
        <time>2014-06-29T17:56:46Z</time>
        <sat>13</sat>
      </trkpt>
      <trkpt lat="37.715402" lon="-118.989367">
        <ele>2372.2</ele>
        <time>2014-06-29T17:56:49Z</time>
        <sat>13</sat>
      </trkpt>
      <trkpt lat="37.715387" lon="-118.989495">
        <ele>2372.4</ele>
        <time>2014-06-29T17:56:52Z</time>
        <sat>13</sat>
      </trkpt>
      <trkpt lat="37.715368" lon="-118.989633">
        <ele>2372.4</ele>
        <time>2014-06-29T17:56:55Z</time>
        <sat>13</sat>
      </trkpt>
      <trkpt lat="37.715368" lon="-118.989770">
        <ele>2372.8</ele>
        <time>2014-06-29T17:56:58Z</time>
        <sat>13</sat>
      </trkpt>
      <trkpt lat="37.715373" lon="-118.989897">
        <ele>2372.8</ele>
        <time>2014-06-29T17:57:01Z</time>
        <sat>13</sat>
      </trkpt>
      <trkpt lat="37.715397" lon="-118.990038">
        <ele>2373.3</ele>
        <time>2014-06-29T17:57:05Z</time>
        <sat>13</sat>
      </trkpt>
      <trkpt lat="37.715428" lon="-118.990145">
        <ele>2373.9</ele>
        <time>2014-06-29T17:57:09Z</time>
        <sat>13</sat>
      </trkpt>
      <trkpt lat="37.715455" lon="-118.990272">
        <ele>2374.4</ele>
        <time>2014-06-29T17:57:13Z</time>
        <sat>13</sat>
      </trkpt>
      <trkpt lat="37.715478" lon="-118.990412">
        <ele>2374.6</ele>
        <time>2014-06-29T17:57:17Z</time>
        <sat>13</sat>
      </trkpt>
      <trkpt lat="37.715495" lon="-118.990532">
        <ele>2375.1</ele>
        <time>2014-06-29T17:57:20Z</time>
        <sat>13</sat>
      </trkpt>
      <trkpt lat="37.715513" lon="-118.990663">
        <ele>2375.1</ele>
        <time>2014-06-29T17:57:23Z</time>
        <sat>13</sat>
      </trkpt>
      <trkpt lat="37.715523" lon="-118.990797">
        <ele>2375.0</ele>
        <time>2014-06-29T17:57:26Z</time>
        <sat>13</sat>
      </trkpt>
      <trkpt lat="37.715548" lon="-118.990935">
        <ele>2375.4</ele>
        <time>2014-06-29T17:57:29Z</time>
        <sat>13</sat>
      </trkpt>
      <trkpt lat="37.715602" lon="-118.991057">
        <ele>2375.3</ele>
        <time>2014-06-29T17:57:32Z</time>
        <sat>13</sat>
      </trkpt>
      <trkpt lat="37.715688" lon="-118.991148">
        <ele>2375.4</ele>
        <time>2014-06-29T17:57:35Z</time>
        <sat>13</sat>
      </trkpt>
      <trkpt lat="37.715785" lon="-118.991222">
        <ele>2375.6</ele>
        <time>2014-06-29T17:57:38Z</time>
        <sat>13</sat>
      </trkpt>
      <trkpt lat="37.715897" lon="-118.991263">
        <ele>2375.5</ele>
        <time>2014-06-29T17:57:41Z</time>
        <sat>12</sat>
      </trkpt>
      <trkpt lat="37.716122" lon="-118.991325">
        <ele>2375.6</ele>
        <time>2014-06-29T17:57:46Z</time>
        <sat>13</sat>
      </trkpt>
      <trkpt lat="37.716210" lon="-118.991365">
        <ele>2375.7</ele>
        <time>2014-06-29T17:57:48Z</time>
        <sat>13</sat>
      </trkpt>
      <trkpt lat="37.716303" lon="-118.991455">
        <ele>2375.9</ele>
        <time>2014-06-29T17:57:51Z</time>
        <sat>13</sat>
      </trkpt>
      <trkpt lat="37.716343" lon="-118.991575">
        <ele>2376.0</ele>
        <time>2014-06-29T17:57:54Z</time>
        <sat>13</sat>
      </trkpt>
      <trkpt lat="37.716362" lon="-118.991695">
        <ele>2376.2</ele>
        <time>2014-06-29T17:57:57Z</time>
        <sat>13</sat>
      </trkpt>
      <trkpt lat="37.716358" lon="-118.991840">
        <ele>2376.9</ele>
        <time>2014-06-29T17:58:01Z</time>
        <sat>13</sat>
      </trkpt>
      <trkpt lat="37.716383" lon="-118.991960">
        <ele>2377.1</ele>
        <time>2014-06-29T17:58:04Z</time>
        <sat>13</sat>
      </trkpt>
      <trkpt lat="37.716438" lon="-118.992062">
        <ele>2377.2</ele>
        <time>2014-06-29T17:58:07Z</time>
        <sat>13</sat>
      </trkpt>
      <trkpt lat="37.716500" lon="-118.992162">
        <ele>2377.1</ele>
        <time>2014-06-29T17:58:10Z</time>
        <sat>13</sat>
      </trkpt>
      <trkpt lat="37.716540" lon="-118.992273">
        <ele>2377.0</ele>
        <time>2014-06-29T17:58:13Z</time>
        <sat>13</sat>
      </trkpt>
      <trkpt lat="37.716580" lon="-118.992393">
        <ele>2376.9</ele>
        <time>2014-06-29T17:58:16Z</time>
        <sat>13</sat>
      </trkpt>
      <trkpt lat="37.716633" lon="-118.992507">
        <ele>2377.1</ele>
        <time>2014-06-29T17:58:19Z</time>
        <sat>13</sat>
      </trkpt>
      <trkpt lat="37.716712" lon="-118.992582">
        <ele>2377.3</ele>
        <time>2014-06-29T17:58:22Z</time>
        <sat>13</sat>
      </trkpt>
      <trkpt lat="37.716808" lon="-118.992637">
        <ele>2377.3</ele>
        <time>2014-06-29T17:58:25Z</time>
        <sat>13</sat>
      </trkpt>
      <trkpt lat="37.716910" lon="-118.992682">
        <ele>2377.1</ele>
        <time>2014-06-29T17:58:28Z</time>
        <sat>13</sat>
      </trkpt>
      <trkpt lat="37.717020" lon="-118.992712">
        <ele>2377.1</ele>
        <time>2014-06-29T17:58:31Z</time>
        <sat>13</sat>
      </trkpt>
      <trkpt lat="37.717133" lon="-118.992743">
        <ele>2377.1</ele>
        <time>2014-06-29T17:58:34Z</time>
        <sat>13</sat>
      </trkpt>
      <trkpt lat="37.717245" lon="-118.992785">
        <ele>2376.8</ele>
        <time>2014-06-29T17:58:37Z</time>
        <sat>13</sat>
      </trkpt>
      <trkpt lat="37.717362" lon="-118.992855">
        <ele>2376.9</ele>
        <time>2014-06-29T17:58:40Z</time>
        <sat>13</sat>
      </trkpt>
      <trkpt lat="37.717432" lon="-118.992928">
        <ele>2377.1</ele>
        <time>2014-06-29T17:58:42Z</time>
        <sat>13</sat>
      </trkpt>
      <trkpt lat="37.717620" lon="-118.993145">
        <ele>2377.4</ele>
        <time>2014-06-29T17:58:48Z</time>
        <sat>12</sat>
      </trkpt>
      <trkpt lat="37.717683" lon="-118.993258">
        <ele>2377.7</ele>
        <time>2014-06-29T17:58:51Z</time>
        <sat>12</sat>
      </trkpt>
      <trkpt lat="37.717737" lon="-118.993400">
        <ele>2377.9</ele>
        <time>2014-06-29T17:58:54Z</time>
        <sat>12</sat>
      </trkpt>
      <trkpt lat="37.717773" lon="-118.993558">
        <ele>2378.1</ele>
        <time>2014-06-29T17:58:57Z</time>
        <sat>12</sat>
      </trkpt>
      <trkpt lat="37.717810" lon="-118.993718">
        <ele>2378.1</ele>
        <time>2014-06-29T17:59:00Z</time>
        <sat>12</sat>
      </trkpt>
      <trkpt lat="37.717855" lon="-118.993863">
        <ele>2378.1</ele>
        <time>2014-06-29T17:59:03Z</time>
        <sat>12</sat>
      </trkpt>
      <trkpt lat="37.717902" lon="-118.993998">
        <ele>2378.9</ele>
        <time>2014-06-29T17:59:06Z</time>
        <sat>12</sat>
      </trkpt>
      <trkpt lat="37.717953" lon="-118.994125">
        <ele>2379.0</ele>
        <time>2014-06-29T17:59:09Z</time>
        <sat>12</sat>
      </trkpt>
      <trkpt lat="37.718005" lon="-118.994255">
        <ele>2379.1</ele>
        <time>2014-06-29T17:59:12Z</time>
        <sat>12</sat>
      </trkpt>
      <trkpt lat="37.718067" lon="-118.994402">
        <ele>2379.2</ele>
        <time>2014-06-29T17:59:15Z</time>
        <sat>12</sat>
      </trkpt>
      <trkpt lat="37.718117" lon="-118.994498">
        <ele>2379.0</ele>
        <time>2014-06-29T17:59:17Z</time>
        <sat>12</sat>
      </trkpt>
      <trkpt lat="37.718183" lon="-118.994643">
        <ele>2379.3</ele>
        <time>2014-06-29T17:59:20Z</time>
        <sat>12</sat>
      </trkpt>
      <trkpt lat="37.718263" lon="-118.994775">
        <ele>2379.0</ele>
        <time>2014-06-29T17:59:23Z</time>
        <sat>12</sat>
      </trkpt>
      <trkpt lat="37.718353" lon="-118.994887">
        <ele>2379.3</ele>
        <time>2014-06-29T17:59:26Z</time>
        <sat>12</sat>
      </trkpt>
      <trkpt lat="37.718450" lon="-118.994983">
        <ele>2379.4</ele>
        <time>2014-06-29T17:59:29Z</time>
        <sat>12</sat>
      </trkpt>
      <trkpt lat="37.718548" lon="-118.995057">
        <ele>2379.3</ele>
        <time>2014-06-29T17:59:32Z</time>
        <sat>12</sat>
      </trkpt>
      <trkpt lat="37.718653" lon="-118.995135">
        <ele>2379.4</ele>
        <time>2014-06-29T17:59:35Z</time>
        <sat>12</sat>
      </trkpt>
      <trkpt lat="37.718775" lon="-118.995227">
        <ele>2379.4</ele>
        <time>2014-06-29T17:59:38Z</time>
        <sat>12</sat>
      </trkpt>
      <trkpt lat="37.718853" lon="-118.995295">
        <ele>2379.4</ele>
        <time>2014-06-29T17:59:40Z</time>
        <sat>12</sat>
      </trkpt>
      <trkpt lat="37.718930" lon="-118.995363">
        <ele>2379.4</ele>
        <time>2014-06-29T17:59:42Z</time>
        <sat>12</sat>
      </trkpt>
      <trkpt lat="37.719015" lon="-118.995422">
        <ele>2379.4</ele>
        <time>2014-06-29T17:59:44Z</time>
        <sat>12</sat>
      </trkpt>
      <trkpt lat="37.719195" lon="-118.995548">
        <ele>2379.5</ele>
        <time>2014-06-29T17:59:48Z</time>
        <sat>12</sat>
      </trkpt>
      <trkpt lat="37.719282" lon="-118.995632">
        <ele>2379.3</ele>
        <time>2014-06-29T17:59:50Z</time>
        <sat>12</sat>
      </trkpt>
      <trkpt lat="37.719380" lon="-118.995732">
        <ele>2379.5</ele>
        <time>2014-06-29T17:59:53Z</time>
        <sat>12</sat>
      </trkpt>
      <trkpt lat="37.719493" lon="-118.995807">
        <ele>2379.3</ele>
        <time>2014-06-29T17:59:56Z</time>
        <sat>12</sat>
      </trkpt>
      <trkpt lat="37.719592" lon="-118.995912">
        <ele>2379.3</ele>
        <time>2014-06-29T17:59:59Z</time>
        <sat>12</sat>
      </trkpt>
      <trkpt lat="37.719655" lon="-118.995998">
        <ele>2379.3</ele>
        <time>2014-06-29T18:00:01Z</time>
        <sat>12</sat>
      </trkpt>
      <trkpt lat="37.719720" lon="-118.996110">
        <ele>2379.3</ele>
        <time>2014-06-29T18:00:03Z</time>
        <sat>12</sat>
      </trkpt>
      <trkpt lat="37.719768" lon="-118.996225">
        <ele>2379.1</ele>
        <time>2014-06-29T18:00:05Z</time>
        <sat>12</sat>
      </trkpt>
      <trkpt lat="37.719808" lon="-118.996347">
        <ele>2379.1</ele>
        <time>2014-06-29T18:00:07Z</time>
        <sat>12</sat>
      </trkpt>
      <trkpt lat="37.719835" lon="-118.996462">
        <ele>2379.2</ele>
        <time>2014-06-29T18:00:09Z</time>
        <sat>12</sat>
      </trkpt>
      <trkpt lat="37.719882" lon="-118.996625">
        <ele>2379.1</ele>
        <time>2014-06-29T18:00:12Z</time>
        <sat>12</sat>
      </trkpt>
      <trkpt lat="37.719915" lon="-118.996757">
        <ele>2378.6</ele>
        <time>2014-06-29T18:00:14Z</time>
        <sat>11</sat>
      </trkpt>
      <trkpt lat="37.719947" lon="-118.996890">
        <ele>2378.3</ele>
        <time>2014-06-29T18:00:16Z</time>
        <sat>12</sat>
      </trkpt>
      <trkpt lat="37.719993" lon="-118.997052">
        <ele>2378.2</ele>
        <time>2014-06-29T18:00:18Z</time>
        <sat>12</sat>
      </trkpt>
      <trkpt lat="37.720047" lon="-118.997203">
        <ele>2377.9</ele>
        <time>2014-06-29T18:00:20Z</time>
        <sat>12</sat>
      </trkpt>
      <trkpt lat="37.720117" lon="-118.997320">
        <ele>2377.6</ele>
        <time>2014-06-29T18:00:22Z</time>
        <sat>12</sat>
      </trkpt>
      <trkpt lat="37.720200" lon="-118.997437">
        <ele>2377.6</ele>
        <time>2014-06-29T18:00:24Z</time>
        <sat>11</sat>
      </trkpt>
      <trkpt lat="37.720268" lon="-118.997548">
        <ele>2377.7</ele>
        <time>2014-06-29T18:00:26Z</time>
        <sat>12</sat>
      </trkpt>
      <trkpt lat="37.720320" lon="-118.997652">
        <ele>2378.2</ele>
        <time>2014-06-29T18:00:28Z</time>
        <sat>12</sat>
      </trkpt>
      <trkpt lat="37.720358" lon="-118.997802">
        <ele>2378.6</ele>
        <time>2014-06-29T18:00:31Z</time>
        <sat>11</sat>
      </trkpt>
      <trkpt lat="37.720402" lon="-118.997955">
        <ele>2378.9</ele>
        <time>2014-06-29T18:00:34Z</time>
        <sat>11</sat>
      </trkpt>
      <trkpt lat="37.720433" lon="-118.998063">
        <ele>2379.1</ele>
        <time>2014-06-29T18:00:36Z</time>
        <sat>11</sat>
      </trkpt>
      <trkpt lat="37.720508" lon="-118.998198">
        <ele>2379.6</ele>
        <time>2014-06-29T18:00:39Z</time>
        <sat>12</sat>
      </trkpt>
      <trkpt lat="37.720608" lon="-118.998298">
        <ele>2379.7</ele>
        <time>2014-06-29T18:00:42Z</time>
        <sat>12</sat>
      </trkpt>
      <trkpt lat="37.720680" lon="-118.998370">
        <ele>2379.4</ele>
        <time>2014-06-29T18:00:44Z</time>
        <sat>12</sat>
      </trkpt>
      <trkpt lat="37.720750" lon="-118.998447">
        <ele>2379.2</ele>
        <time>2014-06-29T18:00:46Z</time>
        <sat>12</sat>
      </trkpt>
      <trkpt lat="37.720852" lon="-118.998687">
        <ele>2379.3</ele>
        <time>2014-06-29T18:00:50Z</time>
        <sat>11</sat>
      </trkpt>
      <trkpt lat="37.720892" lon="-118.998817">
        <ele>2379.3</ele>
        <time>2014-06-29T18:00:52Z</time>
        <sat>12</sat>
      </trkpt>
      <trkpt lat="37.720922" lon="-118.998930">
        <ele>2379.3</ele>
        <time>2014-06-29T18:00:54Z</time>
        <sat>12</sat>
      </trkpt>
      <trkpt lat="37.720995" lon="-118.999067">
        <ele>2379.6</ele>
        <time>2014-06-29T18:00:57Z</time>
        <sat>12</sat>
      </trkpt>
      <trkpt lat="37.721072" lon="-118.999143">
        <ele>2379.6</ele>
        <time>2014-06-29T18:00:59Z</time>
        <sat>12</sat>
      </trkpt>
      <trkpt lat="37.721152" lon="-118.999222">
        <ele>2379.7</ele>
        <time>2014-06-29T18:01:01Z</time>
        <sat>12</sat>
      </trkpt>
      <trkpt lat="37.721232" lon="-118.999360">
        <ele>2379.3</ele>
        <time>2014-06-29T18:01:04Z</time>
        <sat>12</sat>
      </trkpt>
      <trkpt lat="37.721287" lon="-118.999455">
        <ele>2378.7</ele>
        <time>2014-06-29T18:01:06Z</time>
        <sat>12</sat>
      </trkpt>
      <trkpt lat="37.721363" lon="-118.999567">
        <ele>2378.2</ele>
        <time>2014-06-29T18:01:08Z</time>
        <sat>12</sat>
      </trkpt>
      <trkpt lat="37.721442" lon="-118.999698">
        <ele>2377.8</ele>
        <time>2014-06-29T18:01:10Z</time>
        <sat>12</sat>
      </trkpt>
      <trkpt lat="37.721495" lon="-118.999840">
        <ele>2377.6</ele>
        <time>2014-06-29T18:01:12Z</time>
        <sat>12</sat>
      </trkpt>
      <trkpt lat="37.721507" lon="-118.999973">
        <ele>2377.8</ele>
        <time>2014-06-29T18:01:14Z</time>
        <sat>11</sat>
      </trkpt>
      <trkpt lat="37.721502" lon="-119.000098">
        <ele>2378.1</ele>
        <time>2014-06-29T18:01:16Z</time>
        <sat>12</sat>
      </trkpt>
      <trkpt lat="37.721503" lon="-119.000227">
        <ele>2378.4</ele>
        <time>2014-06-29T18:01:18Z</time>
        <sat>12</sat>
      </trkpt>
      <trkpt lat="37.721502" lon="-119.000343">
        <ele>2378.8</ele>
        <time>2014-06-29T18:01:20Z</time>
        <sat>12</sat>
      </trkpt>
      <trkpt lat="37.721547" lon="-119.000467">
        <ele>2378.8</ele>
        <time>2014-06-29T18:01:23Z</time>
        <sat>12</sat>
      </trkpt>
      <trkpt lat="37.721623" lon="-119.000567">
        <ele>2379.4</ele>
        <time>2014-06-29T18:01:26Z</time>
        <sat>12</sat>
      </trkpt>
      <trkpt lat="37.721695" lon="-119.000642">
        <ele>2380.0</ele>
        <time>2014-06-29T18:01:29Z</time>
        <sat>12</sat>
      </trkpt>
      <trkpt lat="37.721782" lon="-119.000685">
        <ele>2380.3</ele>
        <time>2014-06-29T18:01:32Z</time>
        <sat>12</sat>
      </trkpt>
      <trkpt lat="37.721895" lon="-119.000710">
        <ele>2379.8</ele>
        <time>2014-06-29T18:01:35Z</time>
        <sat>12</sat>
      </trkpt>
      <trkpt lat="37.722018" lon="-119.000713">
        <ele>2379.5</ele>
        <time>2014-06-29T18:01:38Z</time>
        <sat>12</sat>
      </trkpt>
      <trkpt lat="37.722145" lon="-119.000700">
        <ele>2379.2</ele>
        <time>2014-06-29T18:01:41Z</time>
        <sat>12</sat>
      </trkpt>
      <trkpt lat="37.722238" lon="-119.000723">
        <ele>2379.4</ele>
        <time>2014-06-29T18:02:39Z</time>
        <sat>12</sat>
      </trkpt>
      <trkpt lat="37.722252" lon="-119.000965">
        <ele>2379.4</ele>
        <time>2014-06-29T18:02:48Z</time>
        <sat>12</sat>
      </trkpt>
      <trkpt lat="37.722247" lon="-119.001095">
        <ele>2379.8</ele>
        <time>2014-06-29T18:02:52Z</time>
        <sat>12</sat>
      </trkpt>
      <trkpt lat="37.722240" lon="-119.001227">
        <ele>2380.2</ele>
        <time>2014-06-29T18:02:56Z</time>
        <sat>12</sat>
      </trkpt>
      <trkpt lat="37.722228" lon="-119.001362">
        <ele>2380.2</ele>
        <time>2014-06-29T18:03:00Z</time>
        <sat>12</sat>
      </trkpt>
      <trkpt lat="37.722225" lon="-119.001507">
        <ele>2380.5</ele>
        <time>2014-06-29T18:03:04Z</time>
        <sat>11</sat>
      </trkpt>
      <trkpt lat="37.722217" lon="-119.001652">
        <ele>2380.6</ele>
        <time>2014-06-29T18:03:08Z</time>
        <sat>12</sat>
      </trkpt>
      <trkpt lat="37.722215" lon="-119.001770">
        <ele>2380.6</ele>
        <time>2014-06-29T18:03:11Z</time>
        <sat>12</sat>
      </trkpt>
      <trkpt lat="37.722217" lon="-119.001913">
        <ele>2381.1</ele>
        <time>2014-06-29T18:03:15Z</time>
        <sat>12</sat>
      </trkpt>
      <trkpt lat="37.722218" lon="-119.002045">
        <ele>2381.3</ele>
        <time>2014-06-29T18:03:19Z</time>
        <sat>11</sat>
      </trkpt>
      <trkpt lat="37.722213" lon="-119.002185">
        <ele>2381.8</ele>
        <time>2014-06-29T18:03:23Z</time>
        <sat>11</sat>
      </trkpt>
      <trkpt lat="37.722208" lon="-119.002318">
        <ele>2382.1</ele>
        <time>2014-06-29T18:03:27Z</time>
        <sat>12</sat>
      </trkpt>
      <trkpt lat="37.722268" lon="-119.002225">
        <ele>2382.2</ele>
        <time>2014-06-29T18:03:33Z</time>
        <sat>11</sat>
      </trkpt>
      <trkpt lat="37.722265" lon="-119.002093">
        <ele>2382.2</ele>
        <time>2014-06-29T18:03:36Z</time>
        <sat>12</sat>
      </trkpt>
      <trkpt lat="37.722278" lon="-119.001978">
        <ele>2382.2</ele>
        <time>2014-06-29T18:03:38Z</time>
        <sat>11</sat>
      </trkpt>
      <trkpt lat="37.722287" lon="-119.001813">
        <ele>2382.1</ele>
        <time>2014-06-29T18:03:41Z</time>
        <sat>12</sat>
      </trkpt>
      <trkpt lat="37.722313" lon="-119.001535">
        <ele>2381.2</ele>
        <time>2014-06-29T18:03:46Z</time>
        <sat>11</sat>
      </trkpt>
      <trkpt lat="37.722318" lon="-119.001363">
        <ele>2380.8</ele>
        <time>2014-06-29T18:03:49Z</time>
        <sat>12</sat>
      </trkpt>
      <trkpt lat="37.722310" lon="-119.001243">
        <ele>2380.6</ele>
        <time>2014-06-29T18:03:51Z</time>
        <sat>12</sat>
      </trkpt>
      <trkpt lat="37.722308" lon="-119.001127">
        <ele>2380.2</ele>
        <time>2014-06-29T18:03:53Z</time>
        <sat>12</sat>
      </trkpt>
      <trkpt lat="37.722310" lon="-119.001007">
        <ele>2380.1</ele>
        <time>2014-06-29T18:03:55Z</time>
        <sat>12</sat>
      </trkpt>
      <trkpt lat="37.722313" lon="-119.000887">
        <ele>2379.9</ele>
        <time>2014-06-29T18:03:57Z</time>
        <sat>12</sat>
      </trkpt>
      <trkpt lat="37.722302" lon="-119.000772">
        <ele>2379.8</ele>
        <time>2014-06-29T18:03:59Z</time>
        <sat>12</sat>
      </trkpt>
      <trkpt lat="37.722253" lon="-119.000660">
        <ele>2379.7</ele>
        <time>2014-06-29T18:04:03Z</time>
        <sat>12</sat>
      </trkpt>
      <trkpt lat="37.722317" lon="-119.000547">
        <ele>2378.6</ele>
        <time>2014-06-29T18:05:41Z</time>
        <sat>11</sat>
      </trkpt>
      <trkpt lat="37.722380" lon="-119.000295">
        <ele>2378.5</ele>
        <time>2014-06-29T18:05:49Z</time>
        <sat>11</sat>
      </trkpt>
      <trkpt lat="37.722375" lon="-119.000142">
        <ele>2378.4</ele>
        <time>2014-06-29T18:05:53Z</time>
        <sat>12</sat>
      </trkpt>
      <trkpt lat="37.722373" lon="-119.000002">
        <ele>2378.4</ele>
        <time>2014-06-29T18:05:56Z</time>
        <sat>11</sat>
      </trkpt>
      <trkpt lat="37.722377" lon="-118.999850">
        <ele>2378.3</ele>
        <time>2014-06-29T18:05:59Z</time>
        <sat>12</sat>
      </trkpt>
      <trkpt lat="37.722383" lon="-118.999685">
        <ele>2378.5</ele>
        <time>2014-06-29T18:06:02Z</time>
        <sat>11</sat>
      </trkpt>
      <trkpt lat="37.722388" lon="-118.999567">
        <ele>2378.4</ele>
        <time>2014-06-29T18:06:04Z</time>
        <sat>12</sat>
      </trkpt>
      <trkpt lat="37.722392" lon="-118.999450">
        <ele>2377.9</ele>
        <time>2014-06-29T18:06:06Z</time>
        <sat>12</sat>
      </trkpt>
      <trkpt lat="37.722398" lon="-118.999335">
        <ele>2377.5</ele>
        <time>2014-06-29T18:06:08Z</time>
        <sat>12</sat>
      </trkpt>
      <trkpt lat="37.722402" lon="-118.999220">
        <ele>2377.1</ele>
        <time>2014-06-29T18:06:10Z</time>
        <sat>12</sat>
      </trkpt>
      <trkpt lat="37.722410" lon="-118.999053">
        <ele>2376.5</ele>
        <time>2014-06-29T18:06:13Z</time>
        <sat>12</sat>
      </trkpt>
      <trkpt lat="37.722415" lon="-118.998938">
        <ele>2376.2</ele>
        <time>2014-06-29T18:06:15Z</time>
        <sat>12</sat>
      </trkpt>
      <trkpt lat="37.722418" lon="-118.998767">
        <ele>2375.9</ele>
        <time>2014-06-29T18:06:18Z</time>
        <sat>12</sat>
      </trkpt>
      <trkpt lat="37.722435" lon="-118.998652">
        <ele>2375.7</ele>
        <time>2014-06-29T18:06:20Z</time>
        <sat>12</sat>
      </trkpt>
      <trkpt lat="37.722460" lon="-118.998527">
        <ele>2375.4</ele>
        <time>2014-06-29T18:06:22Z</time>
        <sat>12</sat>
      </trkpt>
      <trkpt lat="37.722490" lon="-118.998400">
        <ele>2375.0</ele>
        <time>2014-06-29T18:06:24Z</time>
        <sat>12</sat>
      </trkpt>
      <trkpt lat="37.722518" lon="-118.998288">
        <ele>2374.7</ele>
        <time>2014-06-29T18:06:26Z</time>
        <sat>12</sat>
      </trkpt>
      <trkpt lat="37.722547" lon="-118.998175">
        <ele>2374.1</ele>
        <time>2014-06-29T18:06:50Z</time>
        <sat>12</sat>
      </trkpt>
      <trkpt lat="37.722657" lon="-118.997942">
        <ele>2374.0</ele>
        <time>2014-06-29T18:06:55Z</time>
        <sat>12</sat>
      </trkpt>
      <trkpt lat="37.722717" lon="-118.997838">
        <ele>2373.8</ele>
        <time>2014-06-29T18:06:57Z</time>
        <sat>11</sat>
      </trkpt>
      <trkpt lat="37.722780" lon="-118.997742">
        <ele>2373.7</ele>
        <time>2014-06-29T18:06:59Z</time>
        <sat>12</sat>
      </trkpt>
      <trkpt lat="37.722843" lon="-118.997648">
        <ele>2373.8</ele>
        <time>2014-06-29T18:07:01Z</time>
        <sat>12</sat>
      </trkpt>
      <trkpt lat="37.722920" lon="-118.997550">
        <ele>2373.6</ele>
        <time>2014-06-29T18:07:03Z</time>
        <sat>12</sat>
      </trkpt>
      <trkpt lat="37.723005" lon="-118.997447">
        <ele>2373.0</ele>
        <time>2014-06-29T18:07:05Z</time>
        <sat>12</sat>
      </trkpt>
      <trkpt lat="37.723095" lon="-118.997343">
        <ele>2372.6</ele>
        <time>2014-06-29T18:07:07Z</time>
        <sat>12</sat>
      </trkpt>
      <trkpt lat="37.723187" lon="-118.997228">
        <ele>2371.8</ele>
        <time>2014-06-29T18:07:09Z</time>
        <sat>12</sat>
      </trkpt>
      <trkpt lat="37.723290" lon="-118.997110">
        <ele>2371.1</ele>
        <time>2014-06-29T18:07:11Z</time>
        <sat>12</sat>
      </trkpt>
      <trkpt lat="37.723397" lon="-118.996990">
        <ele>2370.8</ele>
        <time>2014-06-29T18:07:13Z</time>
        <sat>12</sat>
      </trkpt>
      <trkpt lat="37.723505" lon="-118.996862">
        <ele>2370.2</ele>
        <time>2014-06-29T18:07:15Z</time>
        <sat>12</sat>
      </trkpt>
      <trkpt lat="37.723638" lon="-118.996730">
        <ele>2369.3</ele>
        <time>2014-06-29T18:07:17Z</time>
        <sat>12</sat>
      </trkpt>
      <trkpt lat="37.723768" lon="-118.996593">
        <ele>2368.4</ele>
        <time>2014-06-29T18:07:19Z</time>
        <sat>12</sat>
      </trkpt>
      <trkpt lat="37.723903" lon="-118.996450">
        <ele>2367.1</ele>
        <time>2014-06-29T18:07:21Z</time>
        <sat>12</sat>
      </trkpt>
      <trkpt lat="37.724033" lon="-118.996312">
        <ele>2366.0</ele>
        <time>2014-06-29T18:07:23Z</time>
        <sat>12</sat>
      </trkpt>
      <trkpt lat="37.724148" lon="-118.996172">
        <ele>2365.3</ele>
        <time>2014-06-29T18:07:25Z</time>
        <sat>12</sat>
      </trkpt>
      <trkpt lat="37.724270" lon="-118.996063">
        <ele>2364.7</ele>
        <time>2014-06-29T18:07:27Z</time>
        <sat>12</sat>
      </trkpt>
      <trkpt lat="37.724393" lon="-118.995952">
        <ele>2364.2</ele>
        <time>2014-06-29T18:07:29Z</time>
        <sat>11</sat>
      </trkpt>
      <trkpt lat="37.724502" lon="-118.995845">
        <ele>2363.9</ele>
        <time>2014-06-29T18:07:31Z</time>
        <sat>12</sat>
      </trkpt>
      <trkpt lat="37.724607" lon="-118.995745">
        <ele>2363.5</ele>
        <time>2014-06-29T18:07:33Z</time>
        <sat>12</sat>
      </trkpt>
      <trkpt lat="37.724730" lon="-118.995653">
        <ele>2363.2</ele>
        <time>2014-06-29T18:07:35Z</time>
        <sat>12</sat>
      </trkpt>
      <trkpt lat="37.724843" lon="-118.995547">
        <ele>2362.9</ele>
        <time>2014-06-29T18:07:37Z</time>
        <sat>12</sat>
      </trkpt>
      <trkpt lat="37.724962" lon="-118.995437">
        <ele>2362.4</ele>
        <time>2014-06-29T18:07:39Z</time>
        <sat>12</sat>
      </trkpt>
      <trkpt lat="37.725068" lon="-118.995323">
        <ele>2362.3</ele>
        <time>2014-06-29T18:07:41Z</time>
        <sat>12</sat>
      </trkpt>
      <trkpt lat="37.725175" lon="-118.995210">
        <ele>2361.9</ele>
        <time>2014-06-29T18:07:43Z</time>
        <sat>12</sat>
      </trkpt>
      <trkpt lat="37.725285" lon="-118.995092">
        <ele>2361.4</ele>
        <time>2014-06-29T18:07:45Z</time>
        <sat>11</sat>
      </trkpt>
      <trkpt lat="37.725397" lon="-118.994977">
        <ele>2360.8</ele>
        <time>2014-06-29T18:07:47Z</time>
        <sat>11</sat>
      </trkpt>
      <trkpt lat="37.725510" lon="-118.994862">
        <ele>2360.7</ele>
        <time>2014-06-29T18:07:49Z</time>
        <sat>12</sat>
      </trkpt>
      <trkpt lat="37.725623" lon="-118.994747">
        <ele>2360.6</ele>
        <time>2014-06-29T18:07:51Z</time>
        <sat>12</sat>
      </trkpt>
      <trkpt lat="37.725732" lon="-118.994627">
        <ele>2360.3</ele>
        <time>2014-06-29T18:07:53Z</time>
        <sat>12</sat>
      </trkpt>
      <trkpt lat="37.725923" lon="-118.994405">
        <ele>2359.3</ele>
        <time>2014-06-29T18:07:57Z</time>
        <sat>12</sat>
      </trkpt>
      <trkpt lat="37.726030" lon="-118.994292">
        <ele>2358.9</ele>
        <time>2014-06-29T18:07:59Z</time>
        <sat>11</sat>
      </trkpt>
      <trkpt lat="37.726140" lon="-118.994178">
        <ele>2358.7</ele>
        <time>2014-06-29T18:08:01Z</time>
        <sat>12</sat>
      </trkpt>
      <trkpt lat="37.726250" lon="-118.994065">
        <ele>2358.5</ele>
        <time>2014-06-29T18:08:03Z</time>
        <sat>12</sat>
      </trkpt>
      <trkpt lat="37.726365" lon="-118.993948">
        <ele>2358.2</ele>
        <time>2014-06-29T18:08:05Z</time>
        <sat>12</sat>
      </trkpt>
      <trkpt lat="37.726478" lon="-118.993833">
        <ele>2357.6</ele>
        <time>2014-06-29T18:08:07Z</time>
        <sat>12</sat>
      </trkpt>
      <trkpt lat="37.726593" lon="-118.993720">
        <ele>2356.8</ele>
        <time>2014-06-29T18:08:09Z</time>
        <sat>12</sat>
      </trkpt>
      <trkpt lat="37.726712" lon="-118.993610">
        <ele>2356.3</ele>
        <time>2014-06-29T18:08:11Z</time>
        <sat>12</sat>
      </trkpt>
      <trkpt lat="37.726827" lon="-118.993497">
        <ele>2355.9</ele>
        <time>2014-06-29T18:08:13Z</time>
        <sat>12</sat>
      </trkpt>
      <trkpt lat="37.726940" lon="-118.993383">
        <ele>2355.5</ele>
        <time>2014-06-29T18:08:15Z</time>
        <sat>11</sat>
      </trkpt>
      <trkpt lat="37.727052" lon="-118.993273">
        <ele>2355.1</ele>
        <time>2014-06-29T18:08:17Z</time>
        <sat>11</sat>
      </trkpt>
      <trkpt lat="37.727165" lon="-118.993172">
        <ele>2354.9</ele>
        <time>2014-06-29T18:08:19Z</time>
        <sat>12</sat>
      </trkpt>
      <trkpt lat="37.727280" lon="-118.993087">
        <ele>2354.8</ele>
        <time>2014-06-29T18:08:21Z</time>
        <sat>12</sat>
      </trkpt>
      <trkpt lat="37.727402" lon="-118.993030">
        <ele>2354.4</ele>
        <time>2014-06-29T18:08:23Z</time>
        <sat>12</sat>
      </trkpt>
      <trkpt lat="37.727525" lon="-118.993003">
        <ele>2354.3</ele>
        <time>2014-06-29T18:08:25Z</time>
        <sat>12</sat>
      </trkpt>
      <trkpt lat="37.727650" lon="-118.993030">
        <ele>2354.0</ele>
        <time>2014-06-29T18:08:27Z</time>
        <sat>12</sat>
      </trkpt>
      <trkpt lat="37.727768" lon="-118.993087">
        <ele>2353.6</ele>
        <time>2014-06-29T18:08:29Z</time>
        <sat>12</sat>
      </trkpt>
      <trkpt lat="37.727875" lon="-118.993157">
        <ele>2353.5</ele>
        <time>2014-06-29T18:08:31Z</time>
        <sat>12</sat>
      </trkpt>
      <trkpt lat="37.727973" lon="-118.993243">
        <ele>2353.0</ele>
        <time>2014-06-29T18:08:33Z</time>
        <sat>11</sat>
      </trkpt>
      <trkpt lat="37.728073" lon="-118.993343">
        <ele>2352.8</ele>
        <time>2014-06-29T18:08:35Z</time>
        <sat>11</sat>
      </trkpt>
      <trkpt lat="37.728170" lon="-118.993452">
        <ele>2352.5</ele>
        <time>2014-06-29T18:08:37Z</time>
        <sat>12</sat>
      </trkpt>
      <trkpt lat="37.728273" lon="-118.993558">
        <ele>2352.4</ele>
        <time>2014-06-29T18:08:39Z</time>
        <sat>12</sat>
      </trkpt>
      <trkpt lat="37.728378" lon="-118.993665">
        <ele>2352.0</ele>
        <time>2014-06-29T18:08:41Z</time>
        <sat>12</sat>
      </trkpt>
      <trkpt lat="37.728490" lon="-118.993772">
        <ele>2351.5</ele>
        <time>2014-06-29T18:08:43Z</time>
        <sat>12</sat>
      </trkpt>
      <trkpt lat="37.728600" lon="-118.993880">
        <ele>2351.2</ele>
        <time>2014-06-29T18:08:45Z</time>
        <sat>12</sat>
      </trkpt>
      <trkpt lat="37.728712" lon="-118.993988">
        <ele>2350.4</ele>
        <time>2014-06-29T18:08:47Z</time>
        <sat>12</sat>
      </trkpt>
      <trkpt lat="37.728832" lon="-118.994102">
        <ele>2349.8</ele>
        <time>2014-06-29T18:08:49Z</time>
        <sat>12</sat>
      </trkpt>
      <trkpt lat="37.728945" lon="-118.994247">
        <ele>2349.6</ele>
        <time>2014-06-29T18:08:51Z</time>
        <sat>11</sat>
      </trkpt>
      <trkpt lat="37.729025" lon="-118.994425">
        <ele>2348.8</ele>
        <time>2014-06-29T18:08:53Z</time>
        <sat>11</sat>
      </trkpt>
      <trkpt lat="37.729053" lon="-118.994640">
        <ele>2348.1</ele>
        <time>2014-06-29T18:08:55Z</time>
        <sat>11</sat>
      </trkpt>
      <trkpt lat="37.729070" lon="-118.994885">
        <ele>2346.8</ele>
        <time>2014-06-29T18:08:57Z</time>
        <sat>11</sat>
      </trkpt>
      <trkpt lat="37.729085" lon="-118.995008">
        <ele>2346.1</ele>
        <time>2014-06-29T18:08:58Z</time>
        <sat>11</sat>
      </trkpt>
      <trkpt lat="37.729102" lon="-118.995130">
        <ele>2345.3</ele>
        <time>2014-06-29T18:08:59Z</time>
        <sat>11</sat>
      </trkpt>
      <trkpt lat="37.729125" lon="-118.995248">
        <ele>2344.6</ele>
        <time>2014-06-29T18:09:00Z</time>
        <sat>11</sat>
      </trkpt>
      <trkpt lat="37.729157" lon="-118.995357">
        <ele>2343.7</ele>
        <time>2014-06-29T18:09:01Z</time>
        <sat>10</sat>
      </trkpt>
      <trkpt lat="37.729207" lon="-118.995457">
        <ele>2343.0</ele>
        <time>2014-06-29T18:09:02Z</time>
        <sat>12</sat>
      </trkpt>
      <trkpt lat="37.729268" lon="-118.995542">
        <ele>2342.2</ele>
        <time>2014-06-29T18:09:03Z</time>
        <sat>12</sat>
      </trkpt>
      <trkpt lat="37.729342" lon="-118.995620">
        <ele>2341.3</ele>
        <time>2014-06-29T18:09:04Z</time>
        <sat>12</sat>
      </trkpt>
      <trkpt lat="37.729425" lon="-118.995692">
        <ele>2340.4</ele>
        <time>2014-06-29T18:09:05Z</time>
        <sat>12</sat>
      </trkpt>
      <trkpt lat="37.729512" lon="-118.995762">
        <ele>2339.5</ele>
        <time>2014-06-29T18:09:06Z</time>
        <sat>11</sat>
      </trkpt>
      <trkpt lat="37.729600" lon="-118.995837">
        <ele>2338.4</ele>
        <time>2014-06-29T18:09:07Z</time>
        <sat>12</sat>
      </trkpt>
      <trkpt lat="37.729690" lon="-118.995915">
        <ele>2337.4</ele>
        <time>2014-06-29T18:09:08Z</time>
        <sat>11</sat>
      </trkpt>
      <trkpt lat="37.729778" lon="-118.995998">
        <ele>2336.4</ele>
        <time>2014-06-29T18:09:09Z</time>
        <sat>11</sat>
      </trkpt>
      <trkpt lat="37.729873" lon="-118.996078">
        <ele>2335.4</ele>
        <time>2014-06-29T18:09:10Z</time>
        <sat>11</sat>
      </trkpt>
      <trkpt lat="37.729972" lon="-118.996145">
        <ele>2334.2</ele>
        <time>2014-06-29T18:09:11Z</time>
        <sat>10</sat>
      </trkpt>
      <trkpt lat="37.730068" lon="-118.996193">
        <ele>2333.0</ele>
        <time>2014-06-29T18:09:12Z</time>
        <sat>11</sat>
      </trkpt>
      <trkpt lat="37.730168" lon="-118.996225">
        <ele>2332.2</ele>
        <time>2014-06-29T18:09:13Z</time>
        <sat>10</sat>
      </trkpt>
      <trkpt lat="37.730258" lon="-118.996242">
        <ele>2331.4</ele>
        <time>2014-06-29T18:09:14Z</time>
        <sat>11</sat>
      </trkpt>
      <trkpt lat="37.730350" lon="-118.996252">
        <ele>2330.4</ele>
        <time>2014-06-29T18:09:15Z</time>
        <sat>12</sat>
      </trkpt>
      <trkpt lat="37.730447" lon="-118.996255">
        <ele>2329.9</ele>
        <time>2014-06-29T18:09:16Z</time>
        <sat>12</sat>
      </trkpt>
      <trkpt lat="37.730540" lon="-118.996253">
        <ele>2329.5</ele>
        <time>2014-06-29T18:09:17Z</time>
        <sat>12</sat>
      </trkpt>
      <trkpt lat="37.730637" lon="-118.996252">
        <ele>2329.1</ele>
        <time>2014-06-29T18:09:18Z</time>
        <sat>12</sat>
      </trkpt>
      <trkpt lat="37.730727" lon="-118.996250">
        <ele>2328.8</ele>
        <time>2014-06-29T18:09:19Z</time>
        <sat>11</sat>
      </trkpt>
      <trkpt lat="37.730900" lon="-118.996252">
        <ele>2328.2</ele>
        <time>2014-06-29T18:09:21Z</time>
        <sat>11</sat>
      </trkpt>
      <trkpt lat="37.731068" lon="-118.996268">
        <ele>2328.0</ele>
        <time>2014-06-29T18:09:23Z</time>
        <sat>12</sat>
      </trkpt>
      <trkpt lat="37.731228" lon="-118.996283">
        <ele>2327.7</ele>
        <time>2014-06-29T18:09:25Z</time>
        <sat>12</sat>
      </trkpt>
      <trkpt lat="37.731380" lon="-118.996307">
        <ele>2327.4</ele>
        <time>2014-06-29T18:09:27Z</time>
        <sat>12</sat>
      </trkpt>
      <trkpt lat="37.731537" lon="-118.996337">
        <ele>2327.2</ele>
        <time>2014-06-29T18:09:29Z</time>
        <sat>12</sat>
      </trkpt>
      <trkpt lat="37.731680" lon="-118.996368">
        <ele>2327.0</ele>
        <time>2014-06-29T18:09:31Z</time>
        <sat>12</sat>
      </trkpt>
      <trkpt lat="37.731825" lon="-118.996395">
        <ele>2327.0</ele>
        <time>2014-06-29T18:09:33Z</time>
        <sat>12</sat>
      </trkpt>
      <trkpt lat="37.731977" lon="-118.996430">
        <ele>2326.6</ele>
        <time>2014-06-29T18:09:35Z</time>
        <sat>12</sat>
      </trkpt>
      <trkpt lat="37.732118" lon="-118.996458">
        <ele>2326.6</ele>
        <time>2014-06-29T18:09:37Z</time>
        <sat>12</sat>
      </trkpt>
      <trkpt lat="37.732250" lon="-118.996487">
        <ele>2326.4</ele>
        <time>2014-06-29T18:09:39Z</time>
        <sat>12</sat>
      </trkpt>
      <trkpt lat="37.732378" lon="-118.996513">
        <ele>2326.3</ele>
        <time>2014-06-29T18:09:41Z</time>
        <sat>12</sat>
      </trkpt>
      <trkpt lat="37.732522" lon="-118.996548">
        <ele>2326.2</ele>
        <time>2014-06-29T18:09:43Z</time>
        <sat>12</sat>
      </trkpt>
      <trkpt lat="37.732669" lon="-118.996587">
        <ele>2325.7</ele>
        <time>2014-06-29T18:09:45Z</time>
        <sat>12</sat>
      </trkpt>
      <trkpt lat="37.732815" lon="-118.996622">
        <ele>2325.6</ele>
        <time>2014-06-29T18:09:47Z</time>
        <sat>12</sat>
      </trkpt>
      <trkpt lat="37.732958" lon="-118.996653">
        <ele>2325.1</ele>
        <time>2014-06-29T18:09:49Z</time>
        <sat>12</sat>
      </trkpt>
      <trkpt lat="37.733105" lon="-118.996690">
        <ele>2324.8</ele>
        <time>2014-06-29T18:09:51Z</time>
        <sat>12</sat>
      </trkpt>
      <trkpt lat="37.733243" lon="-118.996725">
        <ele>2324.7</ele>
        <time>2014-06-29T18:09:53Z</time>
        <sat>12</sat>
      </trkpt>
      <trkpt lat="37.733373" lon="-118.996758">
        <ele>2324.5</ele>
        <time>2014-06-29T18:09:55Z</time>
        <sat>11</sat>
      </trkpt>
      <trkpt lat="37.733512" lon="-118.996800">
        <ele>2324.3</ele>
        <time>2014-06-29T18:09:57Z</time>
        <sat>12</sat>
      </trkpt>
      <trkpt lat="37.733772" lon="-118.996860">
        <ele>2324.1</ele>
        <time>2014-06-29T18:10:01Z</time>
        <sat>12</sat>
      </trkpt>
      <trkpt lat="37.733903" lon="-118.996898">
        <ele>2324.0</ele>
        <time>2014-06-29T18:10:03Z</time>
        <sat>12</sat>
      </trkpt>
      <trkpt lat="37.734038" lon="-118.996938">
        <ele>2323.9</ele>
        <time>2014-06-29T18:10:05Z</time>
        <sat>12</sat>
      </trkpt>
      <trkpt lat="37.734167" lon="-118.996978">
        <ele>2323.7</ele>
        <time>2014-06-29T18:10:07Z</time>
        <sat>12</sat>
      </trkpt>
      <trkpt lat="37.734293" lon="-118.997012">
        <ele>2323.6</ele>
        <time>2014-06-29T18:10:09Z</time>
        <sat>12</sat>
      </trkpt>
      <trkpt lat="37.734415" lon="-118.997035">
        <ele>2322.9</ele>
        <time>2014-06-29T18:10:11Z</time>
        <sat>12</sat>
      </trkpt>
      <trkpt lat="37.734592" lon="-118.997048">
        <ele>2322.7</ele>
        <time>2014-06-29T18:10:13Z</time>
        <sat>12</sat>
      </trkpt>
      <trkpt lat="37.734757" lon="-118.997050">
        <ele>2322.6</ele>
        <time>2014-06-29T18:10:15Z</time>
        <sat>12</sat>
      </trkpt>
      <trkpt lat="37.734882" lon="-118.997017">
        <ele>2322.8</ele>
        <time>2014-06-29T18:10:17Z</time>
        <sat>12</sat>
      </trkpt>
      <trkpt lat="37.734972" lon="-118.996947">
        <ele>2322.2</ele>
        <time>2014-06-29T18:10:20Z</time>
        <sat>12</sat>
      </trkpt>
      <trkpt lat="37.735060" lon="-118.996870">
        <ele>2322.1</ele>
        <time>2014-06-29T18:10:23Z</time>
        <sat>12</sat>
      </trkpt>
      <trkpt lat="37.734995" lon="-118.996965">
        <ele>2321.8</ele>
        <time>2014-06-29T18:11:20Z</time>
        <sat>12</sat>
      </trkpt>
      <trkpt lat="37.734858" lon="-118.997170">
        <ele>2322.2</ele>
        <time>2014-06-29T18:11:27Z</time>
        <sat>12</sat>
      </trkpt>
      <trkpt lat="37.734803" lon="-118.997270">
        <ele>2322.3</ele>
        <time>2014-06-29T18:11:30Z</time>
        <sat>12</sat>
      </trkpt>
      <trkpt lat="37.734763" lon="-118.997377">
        <ele>2322.4</ele>
        <time>2014-06-29T18:11:33Z</time>
        <sat>12</sat>
      </trkpt>
      <trkpt lat="37.734757" lon="-118.997523">
        <ele>2322.2</ele>
        <time>2014-06-29T18:11:36Z</time>
        <sat>12</sat>
      </trkpt>
      <trkpt lat="37.734768" lon="-118.997665">
        <ele>2322.2</ele>
        <time>2014-06-29T18:11:39Z</time>
        <sat>12</sat>
      </trkpt>
      <trkpt lat="37.734807" lon="-118.997792">
        <ele>2322.2</ele>
        <time>2014-06-29T18:11:42Z</time>
        <sat>12</sat>
      </trkpt>
      <trkpt lat="37.734853" lon="-118.997932">
        <ele>2322.6</ele>
        <time>2014-06-29T18:11:45Z</time>
        <sat>12</sat>
      </trkpt>
      <trkpt lat="37.734903" lon="-118.998065">
        <ele>2322.7</ele>
        <time>2014-06-29T18:11:48Z</time>
        <sat>12</sat>
      </trkpt>
      <trkpt lat="37.734987" lon="-118.998167">
        <ele>2322.4</ele>
        <time>2014-06-29T18:11:51Z</time>
        <sat>12</sat>
      </trkpt>
      <trkpt lat="37.735047" lon="-118.998253">
        <ele>2322.5</ele>
        <time>2014-06-29T18:11:54Z</time>
        <sat>12</sat>
      </trkpt>
      <trkpt lat="37.735128" lon="-118.998312">
        <ele>2322.5</ele>
        <time>2014-06-29T18:11:57Z</time>
        <sat>12</sat>
      </trkpt>
      <trkpt lat="37.735212" lon="-118.998377">
        <ele>2322.8</ele>
        <time>2014-06-29T18:12:00Z</time>
        <sat>12</sat>
      </trkpt>
      <trkpt lat="37.735293" lon="-118.998455">
        <ele>2322.7</ele>
        <time>2014-06-29T18:12:03Z</time>
        <sat>12</sat>
      </trkpt>
      <trkpt lat="37.735393" lon="-118.998548">
        <ele>2322.6</ele>
        <time>2014-06-29T18:12:06Z</time>
        <sat>12</sat>
      </trkpt>
      <trkpt lat="37.735497" lon="-118.998640">
        <ele>2322.8</ele>
        <time>2014-06-29T18:12:09Z</time>
        <sat>12</sat>
      </trkpt>
      <trkpt lat="37.735600" lon="-118.998735">
        <ele>2322.5</ele>
        <time>2014-06-29T18:12:12Z</time>
        <sat>12</sat>
      </trkpt>
      <trkpt lat="37.735689" lon="-118.998827">
        <ele>2322.7</ele>
        <time>2014-06-29T18:12:15Z</time>
        <sat>12</sat>
      </trkpt>
      <trkpt lat="37.735805" lon="-118.998905">
        <ele>2322.7</ele>
        <time>2014-06-29T18:12:18Z</time>
        <sat>12</sat>
      </trkpt>
      <trkpt lat="37.735887" lon="-118.998987">
        <ele>2322.6</ele>
        <time>2014-06-29T18:12:20Z</time>
        <sat>12</sat>
      </trkpt>
      <trkpt lat="37.735962" lon="-118.999050">
        <ele>2322.8</ele>
        <time>2014-06-29T18:12:22Z</time>
        <sat>11</sat>
      </trkpt>
      <trkpt lat="37.736163" lon="-118.999182">
        <ele>2322.7</ele>
        <time>2014-06-29T18:12:27Z</time>
        <sat>12</sat>
      </trkpt>
      <trkpt lat="37.736263" lon="-118.999212">
        <ele>2322.4</ele>
        <time>2014-06-29T18:12:29Z</time>
        <sat>12</sat>
      </trkpt>
      <trkpt lat="37.736357" lon="-118.999230">
        <ele>2322.5</ele>
        <time>2014-06-29T18:12:31Z</time>
        <sat>12</sat>
      </trkpt>
      <trkpt lat="37.736465" lon="-118.999232">
        <ele>2322.3</ele>
        <time>2014-06-29T18:12:34Z</time>
        <sat>12</sat>
      </trkpt>
      <trkpt lat="37.736378" lon="-118.999268">
        <ele>2322.1</ele>
        <time>2014-06-29T18:12:53Z</time>
        <sat>12</sat>
      </trkpt>
      <trkpt lat="37.736312" lon="-118.999345">
        <ele>2322.2</ele>
        <time>2014-06-29T18:12:57Z</time>
        <sat>12</sat>
      </trkpt>
      <trkpt lat="37.736298" lon="-118.999472">
        <ele>2322.5</ele>
        <time>2014-06-29T18:13:01Z</time>
        <sat>12</sat>
      </trkpt>
      <trkpt lat="37.736338" lon="-118.999575">
        <ele>2322.0</ele>
        <time>2014-06-29T18:13:05Z</time>
        <sat>12</sat>
      </trkpt>
      <trkpt lat="37.736382" lon="-118.999685">
        <ele>2321.9</ele>
        <time>2014-06-29T18:13:09Z</time>
        <sat>12</sat>
      </trkpt>
      <trkpt lat="37.736447" lon="-118.999805">
        <ele>2322.8</ele>
        <time>2014-06-29T18:13:13Z</time>
        <sat>12</sat>
      </trkpt>
      <trkpt lat="37.736505" lon="-118.999935">
        <ele>2322.9</ele>
        <time>2014-06-29T18:13:17Z</time>
        <sat>12</sat>
      </trkpt>
      <trkpt lat="37.736558" lon="-119.000050">
        <ele>2323.2</ele>
        <time>2014-06-29T18:13:20Z</time>
        <sat>12</sat>
      </trkpt>
      <trkpt lat="37.736607" lon="-119.000175">
        <ele>2323.4</ele>
        <time>2014-06-29T18:13:23Z</time>
        <sat>12</sat>
      </trkpt>
      <trkpt lat="37.736722" lon="-119.000388">
        <ele>2323.7</ele>
        <time>2014-06-29T18:13:29Z</time>
        <sat>12</sat>
      </trkpt>
      <trkpt lat="37.736780" lon="-119.000490">
        <ele>2324.0</ele>
        <time>2014-06-29T18:13:32Z</time>
        <sat>12</sat>
      </trkpt>
      <trkpt lat="37.736832" lon="-119.000595">
        <ele>2324.0</ele>
        <time>2014-06-29T18:13:35Z</time>
        <sat>12</sat>
      </trkpt>
      <trkpt lat="37.736883" lon="-119.000688">
        <ele>2324.1</ele>
        <time>2014-06-29T18:13:38Z</time>
        <sat>12</sat>
      </trkpt>
      <trkpt lat="37.736960" lon="-119.000787">
        <ele>2324.5</ele>
        <time>2014-06-29T18:13:42Z</time>
        <sat>12</sat>
      </trkpt>
      <trkpt lat="37.737047" lon="-119.000865">
        <ele>2325.1</ele>
        <time>2014-06-29T18:13:46Z</time>
        <sat>11</sat>
      </trkpt>
      <trkpt lat="37.737150" lon="-119.000937">
        <ele>2325.7</ele>
        <time>2014-06-29T18:13:50Z</time>
        <sat>12</sat>
      </trkpt>
      <trkpt lat="37.737250" lon="-119.001012">
        <ele>2325.9</ele>
        <time>2014-06-29T18:13:53Z</time>
        <sat>12</sat>
      </trkpt>
      <trkpt lat="37.737342" lon="-119.001077">
        <ele>2326.0</ele>
        <time>2014-06-29T18:13:56Z</time>
        <sat>12</sat>
      </trkpt>
      <trkpt lat="37.737435" lon="-119.001137">
        <ele>2326.2</ele>
        <time>2014-06-29T18:13:59Z</time>
        <sat>12</sat>
      </trkpt>
      <trkpt lat="37.737527" lon="-119.001188">
        <ele>2326.2</ele>
        <time>2014-06-29T18:14:02Z</time>
        <sat>12</sat>
      </trkpt>
      <trkpt lat="37.737612" lon="-119.001237">
        <ele>2326.4</ele>
        <time>2014-06-29T18:14:05Z</time>
        <sat>12</sat>
      </trkpt>
      <trkpt lat="37.737702" lon="-119.001302">
        <ele>2326.6</ele>
        <time>2014-06-29T18:14:08Z</time>
        <sat>12</sat>
      </trkpt>
      <trkpt lat="37.737808" lon="-119.001383">
        <ele>2326.2</ele>
        <time>2014-06-29T18:14:11Z</time>
        <sat>11</sat>
      </trkpt>
      <trkpt lat="37.737908" lon="-119.001468">
        <ele>2325.4</ele>
        <time>2014-06-29T18:14:14Z</time>
        <sat>12</sat>
      </trkpt>
      <trkpt lat="37.738022" lon="-119.001547">
        <ele>2325.4</ele>
        <time>2014-06-29T18:14:17Z</time>
        <sat>12</sat>
      </trkpt>
      <trkpt lat="37.738147" lon="-119.001593">
        <ele>2325.0</ele>
        <time>2014-06-29T18:14:20Z</time>
        <sat>12</sat>
      </trkpt>
      <trkpt lat="37.738228" lon="-119.001653">
        <ele>2324.8</ele>
        <time>2014-06-29T18:14:22Z</time>
        <sat>12</sat>
      </trkpt>
      <trkpt lat="37.738312" lon="-119.001732">
        <ele>2324.4</ele>
        <time>2014-06-29T18:14:24Z</time>
        <sat>12</sat>
      </trkpt>
      <trkpt lat="37.738460" lon="-119.001902">
        <ele>2324.0</ele>
        <time>2014-06-29T18:14:28Z</time>
        <sat>12</sat>
      </trkpt>
      <trkpt lat="37.738527" lon="-119.001987">
        <ele>2323.7</ele>
        <time>2014-06-29T18:14:30Z</time>
        <sat>12</sat>
      </trkpt>
      <trkpt lat="37.738587" lon="-119.002075">
        <ele>2323.5</ele>
        <time>2014-06-29T18:14:32Z</time>
        <sat>12</sat>
      </trkpt>
      <trkpt lat="37.738652" lon="-119.002177">
        <ele>2323.0</ele>
        <time>2014-06-29T18:14:34Z</time>
        <sat>11</sat>
      </trkpt>
      <trkpt lat="37.738713" lon="-119.002282">
        <ele>2323.3</ele>
        <time>2014-06-29T18:14:36Z</time>
        <sat>11</sat>
      </trkpt>
      <trkpt lat="37.738767" lon="-119.002377">
        <ele>2323.2</ele>
        <time>2014-06-29T18:14:38Z</time>
        <sat>11</sat>
      </trkpt>
      <trkpt lat="37.738842" lon="-119.002502">
        <ele>2323.7</ele>
        <time>2014-06-29T18:14:41Z</time>
        <sat>11</sat>
      </trkpt>
      <trkpt lat="37.738927" lon="-119.002593">
        <ele>2323.6</ele>
        <time>2014-06-29T18:14:44Z</time>
        <sat>11</sat>
      </trkpt>
      <trkpt lat="37.739045" lon="-119.002678">
        <ele>2323.6</ele>
        <time>2014-06-29T18:14:47Z</time>
        <sat>11</sat>
      </trkpt>
      <trkpt lat="37.739140" lon="-119.002743">
        <ele>2323.5</ele>
        <time>2014-06-29T18:14:49Z</time>
        <sat>11</sat>
      </trkpt>
      <trkpt lat="37.739242" lon="-119.002800">
        <ele>2323.2</ele>
        <time>2014-06-29T18:14:51Z</time>
        <sat>11</sat>
      </trkpt>
      <trkpt lat="37.739348" lon="-119.002820">
        <ele>2323.1</ele>
        <time>2014-06-29T18:14:53Z</time>
        <sat>11</sat>
      </trkpt>
      <trkpt lat="37.739467" lon="-119.002828">
        <ele>2323.4</ele>
        <time>2014-06-29T18:14:55Z</time>
        <sat>10</sat>
      </trkpt>
      <trkpt lat="37.739588" lon="-119.002802">
        <ele>2323.7</ele>
        <time>2014-06-29T18:14:58Z</time>
        <sat>10</sat>
      </trkpt>
      <trkpt lat="37.739675" lon="-119.002737">
        <ele>2324.3</ele>
        <time>2014-06-29T18:15:02Z</time>
        <sat>10</sat>
      </trkpt>
      <trkpt lat="37.739752" lon="-119.002653">
        <ele>2324.0</ele>
        <time>2014-06-29T18:15:07Z</time>
        <sat>10</sat>
      </trkpt>
      <trkpt lat="37.739827" lon="-119.002575">
        <ele>2323.9</ele>
        <time>2014-06-29T18:15:12Z</time>
        <sat>10</sat>
      </trkpt>
      <trkpt lat="37.739895" lon="-119.002475">
        <ele>2323.9</ele>
        <time>2014-06-29T18:15:17Z</time>
        <sat>10</sat>
      </trkpt>
      <trkpt lat="37.739972" lon="-119.002383">
        <ele>2323.5</ele>
        <time>2014-06-29T18:15:21Z</time>
        <sat>10</sat>
      </trkpt>
      <trkpt lat="37.740050" lon="-119.002302">
        <ele>2323.2</ele>
        <time>2014-06-29T18:15:24Z</time>
        <sat>10</sat>
      </trkpt>
      <trkpt lat="37.740123" lon="-119.002232">
        <ele>2322.6</ele>
        <time>2014-06-29T18:15:26Z</time>
        <sat>10</sat>
      </trkpt>
      <trkpt lat="37.740263" lon="-119.002072">
        <ele>2322.0</ele>
        <time>2014-06-29T18:15:32Z</time>
        <sat>10</sat>
      </trkpt>
      <trkpt lat="37.740335" lon="-119.001978">
        <ele>2321.2</ele>
        <time>2014-06-29T18:15:51Z</time>
        <sat>10</sat>
      </trkpt>
      <trkpt lat="37.740415" lon="-119.001862">
        <ele>2321.3</ele>
        <time>2014-06-29T18:15:54Z</time>
        <sat>10</sat>
      </trkpt>
      <trkpt lat="37.740490" lon="-119.001748">
        <ele>2321.1</ele>
        <time>2014-06-29T18:15:56Z</time>
        <sat>10</sat>
      </trkpt>
      <trkpt lat="37.740575" lon="-119.001647">
        <ele>2320.5</ele>
        <time>2014-06-29T18:15:58Z</time>
        <sat>10</sat>
      </trkpt>
      <trkpt lat="37.740655" lon="-119.001543">
        <ele>2320.5</ele>
        <time>2014-06-29T18:16:00Z</time>
        <sat>10</sat>
      </trkpt>
      <trkpt lat="37.740727" lon="-119.001447">
        <ele>2320.5</ele>
        <time>2014-06-29T18:16:02Z</time>
        <sat>10</sat>
      </trkpt>
      <trkpt lat="37.740790" lon="-119.001362">
        <ele>2320.8</ele>
        <time>2014-06-29T18:16:04Z</time>
        <sat>10</sat>
      </trkpt>
      <trkpt lat="37.740845" lon="-119.001270">
        <ele>2320.9</ele>
        <time>2014-06-29T18:16:06Z</time>
        <sat>10</sat>
      </trkpt>
      <trkpt lat="37.740897" lon="-119.001173">
        <ele>2320.6</ele>
        <time>2014-06-29T18:16:08Z</time>
        <sat>10</sat>
      </trkpt>
      <trkpt lat="37.740948" lon="-119.001073">
        <ele>2320.5</ele>
        <time>2014-06-29T18:16:10Z</time>
        <sat>10</sat>
      </trkpt>
      <trkpt lat="37.740997" lon="-119.000977">
        <ele>2320.6</ele>
        <time>2014-06-29T18:16:12Z</time>
        <sat>10</sat>
      </trkpt>
      <trkpt lat="37.741088" lon="-119.000853">
        <ele>2320.6</ele>
        <time>2014-06-29T18:16:15Z</time>
        <sat>10</sat>
      </trkpt>
      <trkpt lat="37.741168" lon="-119.000727">
        <ele>2320.5</ele>
        <time>2014-06-29T18:16:18Z</time>
        <sat>10</sat>
      </trkpt>
      <trkpt lat="37.741223" lon="-119.000575">
        <ele>2320.0</ele>
        <time>2014-06-29T18:16:21Z</time>
        <sat>10</sat>
      </trkpt>
      <trkpt lat="37.741265" lon="-119.000470">
        <ele>2319.7</ele>
        <time>2014-06-29T18:16:23Z</time>
        <sat>10</sat>
      </trkpt>
      <trkpt lat="37.741308" lon="-119.000360">
        <ele>2319.7</ele>
        <time>2014-06-29T18:16:25Z</time>
        <sat>10</sat>
      </trkpt>
      <trkpt lat="37.741347" lon="-119.000248">
        <ele>2319.4</ele>
        <time>2014-06-29T18:16:27Z</time>
        <sat>10</sat>
      </trkpt>
      <trkpt lat="37.741440" lon="-119.000007">
        <ele>2318.7</ele>
        <time>2014-06-29T18:16:31Z</time>
        <sat>10</sat>
      </trkpt>
      <trkpt lat="37.741492" lon="-118.999880">
        <ele>2318.6</ele>
        <time>2014-06-29T18:16:33Z</time>
        <sat>9</sat>
      </trkpt>
      <trkpt lat="37.741543" lon="-118.999745">
        <ele>2318.3</ele>
        <time>2014-06-29T18:16:35Z</time>
        <sat>9</sat>
      </trkpt>
      <trkpt lat="37.741588" lon="-118.999620">
        <ele>2318.1</ele>
        <time>2014-06-29T18:16:37Z</time>
        <sat>9</sat>
      </trkpt>
      <trkpt lat="37.741627" lon="-118.999497">
        <ele>2318.1</ele>
        <time>2014-06-29T18:16:39Z</time>
        <sat>10</sat>
      </trkpt>
      <trkpt lat="37.741663" lon="-118.999373">
        <ele>2318.0</ele>
        <time>2014-06-29T18:16:41Z</time>
        <sat>10</sat>
      </trkpt>
      <trkpt lat="37.741703" lon="-118.999247">
        <ele>2318.0</ele>
        <time>2014-06-29T18:16:43Z</time>
        <sat>10</sat>
      </trkpt>
      <trkpt lat="37.741757" lon="-118.999113">
        <ele>2317.9</ele>
        <time>2014-06-29T18:16:45Z</time>
        <sat>10</sat>
      </trkpt>
      <trkpt lat="37.741808" lon="-118.998982">
        <ele>2317.6</ele>
        <time>2014-06-29T18:16:47Z</time>
        <sat>10</sat>
      </trkpt>
      <trkpt lat="37.741852" lon="-118.998847">
        <ele>2317.4</ele>
        <time>2014-06-29T18:16:49Z</time>
        <sat>10</sat>
      </trkpt>
      <trkpt lat="37.741893" lon="-118.998713">
        <ele>2317.3</ele>
        <time>2014-06-29T18:16:51Z</time>
        <sat>10</sat>
      </trkpt>
      <trkpt lat="37.741938" lon="-118.998592">
        <ele>2317.3</ele>
        <time>2014-06-29T18:16:53Z</time>
        <sat>10</sat>
      </trkpt>
      <trkpt lat="37.741972" lon="-118.998458">
        <ele>2317.1</ele>
        <time>2014-06-29T18:16:55Z</time>
        <sat>10</sat>
      </trkpt>
      <trkpt lat="37.742008" lon="-118.998332">
        <ele>2316.5</ele>
        <time>2014-06-29T18:16:57Z</time>
        <sat>10</sat>
      </trkpt>
      <trkpt lat="37.742070" lon="-118.998202">
        <ele>2316.1</ele>
        <time>2014-06-29T18:16:59Z</time>
        <sat>10</sat>
      </trkpt>
      <trkpt lat="37.742147" lon="-118.998067">
        <ele>2315.6</ele>
        <time>2014-06-29T18:17:01Z</time>
        <sat>10</sat>
      </trkpt>
      <trkpt lat="37.742233" lon="-118.997950">
        <ele>2315.2</ele>
        <time>2014-06-29T18:17:03Z</time>
        <sat>10</sat>
      </trkpt>
      <trkpt lat="37.742312" lon="-118.997843">
        <ele>2314.5</ele>
        <time>2014-06-29T18:17:05Z</time>
        <sat>10</sat>
      </trkpt>
      <trkpt lat="37.742392" lon="-118.997730">
        <ele>2314.6</ele>
        <time>2014-06-29T18:17:07Z</time>
        <sat>10</sat>
      </trkpt>
      <trkpt lat="37.742465" lon="-118.997615">
        <ele>2314.7</ele>
        <time>2014-06-29T18:17:09Z</time>
        <sat>10</sat>
      </trkpt>
      <trkpt lat="37.742523" lon="-118.997488">
        <ele>2314.8</ele>
        <time>2014-06-29T18:17:11Z</time>
        <sat>10</sat>
      </trkpt>
      <trkpt lat="37.742575" lon="-118.997365">
        <ele>2314.6</ele>
        <time>2014-06-29T18:17:13Z</time>
        <sat>10</sat>
      </trkpt>
      <trkpt lat="37.742613" lon="-118.997237">
        <ele>2314.7</ele>
        <time>2014-06-29T18:17:15Z</time>
        <sat>10</sat>
      </trkpt>
      <trkpt lat="37.742643" lon="-118.997100">
        <ele>2314.9</ele>
        <time>2014-06-29T18:17:17Z</time>
        <sat>10</sat>
      </trkpt>
      <trkpt lat="37.742663" lon="-118.996955">
        <ele>2314.8</ele>
        <time>2014-06-29T18:17:19Z</time>
        <sat>9</sat>
      </trkpt>
      <trkpt lat="37.742675" lon="-118.996818">
        <ele>2314.7</ele>
        <time>2014-06-29T18:17:21Z</time>
        <sat>9</sat>
      </trkpt>
      <trkpt lat="37.742702" lon="-118.996690">
        <ele>2314.5</ele>
        <time>2014-06-29T18:17:23Z</time>
        <sat>9</sat>
      </trkpt>
      <trkpt lat="37.742750" lon="-118.996563">
        <ele>2314.6</ele>
        <time>2014-06-29T18:17:25Z</time>
        <sat>9</sat>
      </trkpt>
      <trkpt lat="37.742797" lon="-118.996442">
        <ele>2314.6</ele>
        <time>2014-06-29T18:17:27Z</time>
        <sat>10</sat>
      </trkpt>
      <trkpt lat="37.742843" lon="-118.996322">
        <ele>2314.7</ele>
        <time>2014-06-29T18:17:29Z</time>
        <sat>10</sat>
      </trkpt>
      <trkpt lat="37.742980" lon="-118.996088">
        <ele>2314.7</ele>
        <time>2014-06-29T18:17:34Z</time>
        <sat>10</sat>
      </trkpt>
      <trkpt lat="37.743047" lon="-118.995990">
        <ele>2314.7</ele>
        <time>2014-06-29T18:17:36Z</time>
        <sat>10</sat>
      </trkpt>
      <trkpt lat="37.743120" lon="-118.995908">
        <ele>2315.0</ele>
        <time>2014-06-29T18:17:38Z</time>
        <sat>10</sat>
      </trkpt>
      <trkpt lat="37.743197" lon="-118.995840">
        <ele>2314.8</ele>
        <time>2014-06-29T18:17:40Z</time>
        <sat>11</sat>
      </trkpt>
      <trkpt lat="37.743277" lon="-118.995782">
        <ele>2314.7</ele>
        <time>2014-06-29T18:17:42Z</time>
        <sat>11</sat>
      </trkpt>
      <trkpt lat="37.743357" lon="-118.995727">
        <ele>2314.9</ele>
        <time>2014-06-29T18:17:44Z</time>
        <sat>11</sat>
      </trkpt>
      <trkpt lat="37.743483" lon="-118.995670">
        <ele>2314.7</ele>
        <time>2014-06-29T18:17:47Z</time>
        <sat>11</sat>
      </trkpt>
      <trkpt lat="37.743573" lon="-118.995640">
        <ele>2314.7</ele>
        <time>2014-06-29T18:17:49Z</time>
        <sat>11</sat>
      </trkpt>
      <trkpt lat="37.743668" lon="-118.995610">
        <ele>2314.6</ele>
        <time>2014-06-29T18:17:51Z</time>
        <sat>11</sat>
      </trkpt>
      <trkpt lat="37.743763" lon="-118.995595">
        <ele>2314.5</ele>
        <time>2014-06-29T18:17:53Z</time>
        <sat>10</sat>
      </trkpt>
      <trkpt lat="37.743855" lon="-118.995603">
        <ele>2314.6</ele>
        <time>2014-06-29T18:17:55Z</time>
        <sat>10</sat>
      </trkpt>
      <trkpt lat="37.743948" lon="-118.995623">
        <ele>2314.9</ele>
        <time>2014-06-29T18:17:57Z</time>
        <sat>11</sat>
      </trkpt>
      <trkpt lat="37.744058" lon="-118.995673">
        <ele>2315.3</ele>
        <time>2014-06-29T18:18:00Z</time>
        <sat>10</sat>
      </trkpt>
      <trkpt lat="37.744147" lon="-118.995720">
        <ele>2315.7</ele>
        <time>2014-06-29T18:18:03Z</time>
        <sat>10</sat>
      </trkpt>
      <trkpt lat="37.744243" lon="-118.995790">
        <ele>2316.3</ele>
        <time>2014-06-29T18:18:07Z</time>
        <sat>9</sat>
      </trkpt>
      <trkpt lat="37.744327" lon="-118.995847">
        <ele>2316.9</ele>
        <time>2014-06-29T18:18:10Z</time>
        <sat>9</sat>
      </trkpt>
      <trkpt lat="37.744420" lon="-118.995897">
        <ele>2317.5</ele>
        <time>2014-06-29T18:18:14Z</time>
        <sat>10</sat>
      </trkpt>
      <trkpt lat="37.744530" lon="-118.995910">
        <ele>2318.4</ele>
        <time>2014-06-29T18:18:19Z</time>
        <sat>10</sat>
      </trkpt>
      <trkpt lat="37.744632" lon="-118.995905">
        <ele>2318.9</ele>
        <time>2014-06-29T18:18:23Z</time>
        <sat>10</sat>
      </trkpt>
      <trkpt lat="37.744747" lon="-118.995900">
        <ele>2319.2</ele>
        <time>2014-06-29T18:18:27Z</time>
        <sat>9</sat>
      </trkpt>
      <trkpt lat="37.744837" lon="-118.995895">
        <ele>2319.1</ele>
        <time>2014-06-29T18:18:30Z</time>
        <sat>10</sat>
      </trkpt>
      <trkpt lat="37.744935" lon="-118.995888">
        <ele>2318.8</ele>
        <time>2014-06-29T18:18:33Z</time>
        <sat>10</sat>
      </trkpt>
      <trkpt lat="37.745087" lon="-118.995710">
        <ele>2318.2</ele>
        <time>2014-06-29T18:18:39Z</time>
        <sat>10</sat>
      </trkpt>
      <trkpt lat="37.745157" lon="-118.995567">
        <ele>2317.6</ele>
        <time>2014-06-29T18:18:42Z</time>
        <sat>11</sat>
      </trkpt>
      <trkpt lat="37.745218" lon="-118.995473">
        <ele>2317.2</ele>
        <time>2014-06-29T18:18:44Z</time>
        <sat>11</sat>
      </trkpt>
      <trkpt lat="37.745282" lon="-118.995380">
        <ele>2316.6</ele>
        <time>2014-06-29T18:18:46Z</time>
        <sat>11</sat>
      </trkpt>
      <trkpt lat="37.745340" lon="-118.995288">
        <ele>2316.3</ele>
        <time>2014-06-29T18:18:48Z</time>
        <sat>11</sat>
      </trkpt>
      <trkpt lat="37.745412" lon="-118.995212">
        <ele>2315.8</ele>
        <time>2014-06-29T18:18:50Z</time>
        <sat>10</sat>
      </trkpt>
      <trkpt lat="37.745488" lon="-118.995147">
        <ele>2315.9</ele>
        <time>2014-06-29T18:18:52Z</time>
        <sat>11</sat>
      </trkpt>
      <trkpt lat="37.745602" lon="-118.995073">
        <ele>2315.7</ele>
        <time>2014-06-29T18:18:55Z</time>
        <sat>11</sat>
      </trkpt>
      <trkpt lat="37.745702" lon="-118.994990">
        <ele>2315.9</ele>
        <time>2014-06-29T18:18:58Z</time>
        <sat>11</sat>
      </trkpt>
      <trkpt lat="37.745782" lon="-118.994882">
        <ele>2315.8</ele>
        <time>2014-06-29T18:19:01Z</time>
        <sat>11</sat>
      </trkpt>
      <trkpt lat="37.745838" lon="-118.994793">
        <ele>2315.6</ele>
        <time>2014-06-29T18:19:03Z</time>
        <sat>11</sat>
      </trkpt>
      <trkpt lat="37.745902" lon="-118.994693">
        <ele>2314.9</ele>
        <time>2014-06-29T18:19:05Z</time>
        <sat>10</sat>
      </trkpt>
      <trkpt lat="37.745948" lon="-118.994565">
        <ele>2314.0</ele>
        <time>2014-06-29T18:19:07Z</time>
        <sat>10</sat>
      </trkpt>
      <trkpt lat="37.745990" lon="-118.994413">
        <ele>2313.4</ele>
        <time>2014-06-29T18:19:09Z</time>
        <sat>9</sat>
      </trkpt>
      <trkpt lat="37.746038" lon="-118.994250">
        <ele>2312.9</ele>
        <time>2014-06-29T18:19:11Z</time>
        <sat>10</sat>
      </trkpt>
      <trkpt lat="37.746085" lon="-118.994110">
        <ele>2312.7</ele>
        <time>2014-06-29T18:19:13Z</time>
        <sat>11</sat>
      </trkpt>
      <trkpt lat="37.746125" lon="-118.993992">
        <ele>2312.4</ele>
        <time>2014-06-29T18:19:15Z</time>
        <sat>10</sat>
      </trkpt>
      <trkpt lat="37.746170" lon="-118.993858">
        <ele>2312.5</ele>
        <time>2014-06-29T18:19:18Z</time>
        <sat>10</sat>
      </trkpt>
      <trkpt lat="37.746222" lon="-118.993720">
        <ele>2312.1</ele>
        <time>2014-06-29T18:19:21Z</time>
        <sat>10</sat>
      </trkpt>
      <trkpt lat="37.746268" lon="-118.993622">
        <ele>2312.3</ele>
        <time>2014-06-29T18:19:23Z</time>
        <sat>10</sat>
      </trkpt>
      <trkpt lat="37.746340" lon="-118.993495">
        <ele>2312.2</ele>
        <time>2014-06-29T18:19:26Z</time>
        <sat>10</sat>
      </trkpt>
      <trkpt lat="37.746410" lon="-118.993383">
        <ele>2312.3</ele>
        <time>2014-06-29T18:19:29Z</time>
        <sat>11</sat>
      </trkpt>
      <trkpt lat="37.746477" lon="-118.993273">
        <ele>2312.4</ele>
        <time>2014-06-29T18:19:32Z</time>
        <sat>11</sat>
      </trkpt>
      <trkpt lat="37.746555" lon="-118.993130">
        <ele>2312.4</ele>
        <time>2014-06-29T18:19:35Z</time>
        <sat>11</sat>
      </trkpt>
      <trkpt lat="37.746700" lon="-118.992873">
        <ele>2312.1</ele>
        <time>2014-06-29T18:19:41Z</time>
        <sat>11</sat>
      </trkpt>
      <trkpt lat="37.746783" lon="-118.992760">
        <ele>2312.0</ele>
        <time>2014-06-29T18:19:44Z</time>
        <sat>10</sat>
      </trkpt>
      <trkpt lat="37.746850" lon="-118.992678">
        <ele>2312.1</ele>
        <time>2014-06-29T18:19:46Z</time>
        <sat>10</sat>
      </trkpt>
      <trkpt lat="37.746915" lon="-118.992593">
        <ele>2312.0</ele>
        <time>2014-06-29T18:19:48Z</time>
        <sat>10</sat>
      </trkpt>
      <trkpt lat="37.746978" lon="-118.992505">
        <ele>2311.8</ele>
        <time>2014-06-29T18:19:50Z</time>
        <sat>10</sat>
      </trkpt>
      <trkpt lat="37.747045" lon="-118.992417">
        <ele>2311.5</ele>
        <time>2014-06-29T18:19:52Z</time>
        <sat>10</sat>
      </trkpt>
      <trkpt lat="37.747112" lon="-118.992330">
        <ele>2311.2</ele>
        <time>2014-06-29T18:19:54Z</time>
        <sat>11</sat>
      </trkpt>
      <trkpt lat="37.747207" lon="-118.992233">
        <ele>2310.7</ele>
        <time>2014-06-29T18:19:57Z</time>
        <sat>10</sat>
      </trkpt>
      <trkpt lat="37.747322" lon="-118.992137">
        <ele>2310.6</ele>
        <time>2014-06-29T18:20:00Z</time>
        <sat>10</sat>
      </trkpt>
      <trkpt lat="37.747400" lon="-118.992038">
        <ele>2310.1</ele>
        <time>2014-06-29T18:20:02Z</time>
        <sat>10</sat>
      </trkpt>
      <trkpt lat="37.747480" lon="-118.991900">
        <ele>2309.7</ele>
        <time>2014-06-29T18:20:04Z</time>
        <sat>11</sat>
      </trkpt>
      <trkpt lat="37.747565" lon="-118.991767">
        <ele>2309.2</ele>
        <time>2014-06-29T18:20:06Z</time>
        <sat>11</sat>
      </trkpt>
      <trkpt lat="37.747652" lon="-118.991650">
        <ele>2308.6</ele>
        <time>2014-06-29T18:20:08Z</time>
        <sat>11</sat>
      </trkpt>
      <trkpt lat="37.747733" lon="-118.991573">
        <ele>2308.5</ele>
        <time>2014-06-29T18:20:10Z</time>
        <sat>11</sat>
      </trkpt>
      <trkpt lat="37.747828" lon="-118.991520">
        <ele>2308.2</ele>
        <time>2014-06-29T18:20:12Z</time>
        <sat>11</sat>
      </trkpt>
      <trkpt lat="37.747920" lon="-118.991490">
        <ele>2308.2</ele>
        <time>2014-06-29T18:20:14Z</time>
        <sat>11</sat>
      </trkpt>
      <trkpt lat="37.748050" lon="-118.991457">
        <ele>2308.3</ele>
        <time>2014-06-29T18:20:17Z</time>
        <sat>11</sat>
      </trkpt>
      <trkpt lat="37.748145" lon="-118.991443">
        <ele>2308.2</ele>
        <time>2014-06-29T18:20:19Z</time>
        <sat>11</sat>
      </trkpt>
      <trkpt lat="37.748240" lon="-118.991425">
        <ele>2308.4</ele>
        <time>2014-06-29T18:20:21Z</time>
        <sat>11</sat>
      </trkpt>
      <trkpt lat="37.748367" lon="-118.991368">
        <ele>2308.5</ele>
        <time>2014-06-29T18:20:24Z</time>
        <sat>11</sat>
      </trkpt>
      <trkpt lat="37.748482" lon="-118.991302">
        <ele>2308.7</ele>
        <time>2014-06-29T18:20:27Z</time>
        <sat>11</sat>
      </trkpt>
      <trkpt lat="37.748605" lon="-118.991255">
        <ele>2308.6</ele>
        <time>2014-06-29T18:20:30Z</time>
        <sat>11</sat>
      </trkpt>
      <trkpt lat="37.748713" lon="-118.991233">
        <ele>2308.5</ele>
        <time>2014-06-29T18:20:33Z</time>
        <sat>11</sat>
      </trkpt>
      <trkpt lat="37.748837" lon="-118.991177">
        <ele>2308.3</ele>
        <time>2014-06-29T18:20:36Z</time>
        <sat>11</sat>
      </trkpt>
      <trkpt lat="37.748930" lon="-118.991142">
        <ele>2308.0</ele>
        <time>2014-06-29T18:20:38Z</time>
        <sat>11</sat>
      </trkpt>
      <trkpt lat="37.749150" lon="-118.991082">
        <ele>2307.3</ele>
        <time>2014-06-29T18:20:42Z</time>
        <sat>11</sat>
      </trkpt>
      <trkpt lat="37.749247" lon="-118.991088">
        <ele>2307.1</ele>
        <time>2014-06-29T18:20:44Z</time>
        <sat>11</sat>
      </trkpt>
      <trkpt lat="37.749335" lon="-118.991128">
        <ele>2307.2</ele>
        <time>2014-06-29T18:20:46Z</time>
        <sat>11</sat>
      </trkpt>
      <trkpt lat="37.749460" lon="-118.991182">
        <ele>2307.0</ele>
        <time>2014-06-29T18:20:49Z</time>
        <sat>11</sat>
      </trkpt>
      <trkpt lat="37.749555" lon="-118.991182">
        <ele>2307.2</ele>
        <time>2014-06-29T18:20:51Z</time>
        <sat>10</sat>
      </trkpt>
      <trkpt lat="37.749682" lon="-118.991150">
        <ele>2307.2</ele>
        <time>2014-06-29T18:20:54Z</time>
        <sat>12</sat>
      </trkpt>
      <trkpt lat="37.749807" lon="-118.991117">
        <ele>2307.1</ele>
        <time>2014-06-29T18:20:57Z</time>
        <sat>12</sat>
      </trkpt>
      <trkpt lat="37.749932" lon="-118.991085">
        <ele>2306.8</ele>
        <time>2014-06-29T18:21:00Z</time>
        <sat>12</sat>
      </trkpt>
      <trkpt lat="37.750047" lon="-118.991055">
        <ele>2307.1</ele>
        <time>2014-06-29T18:21:03Z</time>
        <sat>12</sat>
      </trkpt>
      <trkpt lat="37.750137" lon="-118.991052">
        <ele>2307.4</ele>
        <time>2014-06-29T18:21:06Z</time>
        <sat>11</sat>
      </trkpt>
      <trkpt lat="37.750232" lon="-118.991065">
        <ele>2307.7</ele>
        <time>2014-06-29T18:21:10Z</time>
        <sat>12</sat>
      </trkpt>
      <trkpt lat="37.750323" lon="-118.991125">
        <ele>2308.1</ele>
        <time>2014-06-29T18:21:33Z</time>
        <sat>12</sat>
      </trkpt>
      <trkpt lat="37.750382" lon="-118.991035">
        <ele>2308.3</ele>
        <time>2014-06-29T18:21:37Z</time>
        <sat>12</sat>
      </trkpt>
      <trkpt lat="37.750422" lon="-118.990922">
        <ele>2308.3</ele>
        <time>2014-06-29T18:21:40Z</time>
        <sat>12</sat>
      </trkpt>
      <trkpt lat="37.750547" lon="-118.990693">
        <ele>2307.4</ele>
        <time>2014-06-29T18:21:46Z</time>
        <sat>12</sat>
      </trkpt>
      <trkpt lat="37.750630" lon="-118.990595">
        <ele>2306.8</ele>
        <time>2014-06-29T18:21:49Z</time>
        <sat>12</sat>
      </trkpt>
      <trkpt lat="37.750717" lon="-118.990467">
        <ele>2306.5</ele>
        <time>2014-06-29T18:21:52Z</time>
        <sat>12</sat>
      </trkpt>
      <trkpt lat="37.750782" lon="-118.990377">
        <ele>2306.6</ele>
        <time>2014-06-29T18:21:54Z</time>
        <sat>12</sat>
      </trkpt>
      <trkpt lat="37.750843" lon="-118.990275">
        <ele>2306.5</ele>
        <time>2014-06-29T18:21:56Z</time>
        <sat>12</sat>
      </trkpt>
      <trkpt lat="37.750907" lon="-118.990175">
        <ele>2306.4</ele>
        <time>2014-06-29T18:21:58Z</time>
        <sat>12</sat>
      </trkpt>
      <trkpt lat="37.750955" lon="-118.990067">
        <ele>2306.5</ele>
        <time>2014-06-29T18:22:00Z</time>
        <sat>12</sat>
      </trkpt>
      <trkpt lat="37.751003" lon="-118.989963">
        <ele>2306.5</ele>
        <time>2014-06-29T18:22:02Z</time>
        <sat>12</sat>
      </trkpt>
      <trkpt lat="37.751078" lon="-118.989830">
        <ele>2306.1</ele>
        <time>2014-06-29T18:22:05Z</time>
        <sat>12</sat>
      </trkpt>
      <trkpt lat="37.751130" lon="-118.989737">
        <ele>2306.4</ele>
        <time>2014-06-29T18:22:07Z</time>
        <sat>12</sat>
      </trkpt>
      <trkpt lat="37.751187" lon="-118.989638">
        <ele>2306.2</ele>
        <time>2014-06-29T18:22:09Z</time>
        <sat>12</sat>
      </trkpt>
      <trkpt lat="37.751262" lon="-118.989503">
        <ele>2306.2</ele>
        <time>2014-06-29T18:22:12Z</time>
        <sat>11</sat>
      </trkpt>
      <trkpt lat="37.751335" lon="-118.989362">
        <ele>2306.6</ele>
        <time>2014-06-29T18:22:15Z</time>
        <sat>11</sat>
      </trkpt>
      <trkpt lat="37.751387" lon="-118.989212">
        <ele>2306.7</ele>
        <time>2014-06-29T18:22:18Z</time>
        <sat>11</sat>
      </trkpt>
      <trkpt lat="37.751418" lon="-118.989055">
        <ele>2306.8</ele>
        <time>2014-06-29T18:22:21Z</time>
        <sat>12</sat>
      </trkpt>
      <trkpt lat="37.751443" lon="-118.988887">
        <ele>2307.0</ele>
        <time>2014-06-29T18:22:24Z</time>
        <sat>12</sat>
      </trkpt>
      <trkpt lat="37.751465" lon="-118.988765">
        <ele>2306.7</ele>
        <time>2014-06-29T18:22:26Z</time>
        <sat>12</sat>
      </trkpt>
      <trkpt lat="37.751488" lon="-118.988640">
        <ele>2306.5</ele>
        <time>2014-06-29T18:22:28Z</time>
        <sat>12</sat>
      </trkpt>
      <trkpt lat="37.751513" lon="-118.988512">
        <ele>2306.2</ele>
        <time>2014-06-29T18:22:30Z</time>
        <sat>12</sat>
      </trkpt>
      <trkpt lat="37.751530" lon="-118.988383">
        <ele>2305.8</ele>
        <time>2014-06-29T18:22:32Z</time>
        <sat>12</sat>
      </trkpt>
      <trkpt lat="37.751553" lon="-118.988253">
        <ele>2305.4</ele>
        <time>2014-06-29T18:22:34Z</time>
        <sat>12</sat>
      </trkpt>
      <trkpt lat="37.751577" lon="-118.988122">
        <ele>2305.3</ele>
        <time>2014-06-29T18:22:36Z</time>
        <sat>12</sat>
      </trkpt>
      <trkpt lat="37.751598" lon="-118.987988">
        <ele>2305.0</ele>
        <time>2014-06-29T18:22:38Z</time>
        <sat>12</sat>
      </trkpt>
      <trkpt lat="37.751618" lon="-118.987870">
        <ele>2304.8</ele>
        <time>2014-06-29T18:22:40Z</time>
        <sat>11</sat>
      </trkpt>
      <trkpt lat="37.751638" lon="-118.987730">
        <ele>2304.6</ele>
        <time>2014-06-29T18:22:42Z</time>
        <sat>12</sat>
      </trkpt>
      <trkpt lat="37.751667" lon="-118.987470">
        <ele>2304.6</ele>
        <time>2014-06-29T18:22:46Z</time>
        <sat>12</sat>
      </trkpt>
      <trkpt lat="37.751678" lon="-118.987330">
        <ele>2304.3</ele>
        <time>2014-06-29T18:22:48Z</time>
        <sat>11</sat>
      </trkpt>
      <trkpt lat="37.751690" lon="-118.987190">
        <ele>2304.4</ele>
        <time>2014-06-29T18:22:50Z</time>
        <sat>11</sat>
      </trkpt>
      <trkpt lat="37.751697" lon="-118.987048">
        <ele>2304.3</ele>
        <time>2014-06-29T18:22:52Z</time>
        <sat>11</sat>
      </trkpt>
      <trkpt lat="37.751692" lon="-118.986908">
        <ele>2304.4</ele>
        <time>2014-06-29T18:22:54Z</time>
        <sat>11</sat>
      </trkpt>
      <trkpt lat="37.751698" lon="-118.986767">
        <ele>2304.3</ele>
        <time>2014-06-29T18:22:56Z</time>
        <sat>10</sat>
      </trkpt>
      <trkpt lat="37.751697" lon="-118.986628">
        <ele>2304.3</ele>
        <time>2014-06-29T18:22:58Z</time>
        <sat>11</sat>
      </trkpt>
      <trkpt lat="37.751700" lon="-118.986495">
        <ele>2304.0</ele>
        <time>2014-06-29T18:23:00Z</time>
        <sat>11</sat>
      </trkpt>
      <trkpt lat="37.751708" lon="-118.986373">
        <ele>2303.9</ele>
        <time>2014-06-29T18:23:02Z</time>
        <sat>12</sat>
      </trkpt>
      <trkpt lat="37.751708" lon="-118.986255">
        <ele>2304.0</ele>
        <time>2014-06-29T18:23:04Z</time>
        <sat>12</sat>
      </trkpt>
      <trkpt lat="37.751722" lon="-118.986133">
        <ele>2303.8</ele>
        <time>2014-06-29T18:23:06Z</time>
        <sat>11</sat>
      </trkpt>
      <trkpt lat="37.751732" lon="-118.986012">
        <ele>2304.0</ele>
        <time>2014-06-29T18:23:08Z</time>
        <sat>11</sat>
      </trkpt>
      <trkpt lat="37.751732" lon="-118.985880">
        <ele>2303.8</ele>
        <time>2014-06-29T18:23:10Z</time>
        <sat>11</sat>
      </trkpt>
      <trkpt lat="37.751738" lon="-118.985740">
        <ele>2303.7</ele>
        <time>2014-06-29T18:23:12Z</time>
        <sat>12</sat>
      </trkpt>
      <trkpt lat="37.751753" lon="-118.985615">
        <ele>2303.5</ele>
        <time>2014-06-29T18:23:14Z</time>
        <sat>10</sat>
      </trkpt>
      <trkpt lat="37.751768" lon="-118.985490">
        <ele>2303.3</ele>
        <time>2014-06-29T18:23:17Z</time>
        <sat>12</sat>
      </trkpt>
      <trkpt lat="37.751875" lon="-118.985518">
        <ele>2303.5</ele>
        <time>2014-06-29T18:23:41Z</time>
        <sat>12</sat>
      </trkpt>
      <trkpt lat="37.751963" lon="-118.985582">
        <ele>2303.6</ele>
        <time>2014-06-29T18:23:45Z</time>
        <sat>11</sat>
      </trkpt>
      <trkpt lat="37.752163" lon="-118.985718">
        <ele>2303.8</ele>
        <time>2014-06-29T18:23:53Z</time>
        <sat>11</sat>
      </trkpt>
      <trkpt lat="37.752248" lon="-118.985782">
        <ele>2303.7</ele>
        <time>2014-06-29T18:23:56Z</time>
        <sat>12</sat>
      </trkpt>
      <trkpt lat="37.752330" lon="-118.985837">
        <ele>2303.8</ele>
        <time>2014-06-29T18:23:59Z</time>
        <sat>12</sat>
      </trkpt>
      <trkpt lat="37.752422" lon="-118.985895">
        <ele>2304.2</ele>
        <time>2014-06-29T18:24:02Z</time>
        <sat>11</sat>
      </trkpt>
      <trkpt lat="37.752520" lon="-118.985963">
        <ele>2304.4</ele>
        <time>2014-06-29T18:24:06Z</time>
        <sat>12</sat>
      </trkpt>
      <trkpt lat="37.752613" lon="-118.986033">
        <ele>2304.9</ele>
        <time>2014-06-29T18:24:10Z</time>
        <sat>11</sat>
      </trkpt>
      <trkpt lat="37.752715" lon="-118.986132">
        <ele>2305.1</ele>
        <time>2014-06-29T18:24:14Z</time>
        <sat>11</sat>
      </trkpt>
      <trkpt lat="37.752822" lon="-118.986178">
        <ele>2305.3</ele>
        <time>2014-06-29T18:24:17Z</time>
        <sat>12</sat>
      </trkpt>
      <trkpt lat="37.752897" lon="-118.986243">
        <ele>2305.4</ele>
        <time>2014-06-29T18:24:20Z</time>
        <sat>11</sat>
      </trkpt>
      <trkpt lat="37.752990" lon="-118.986303">
        <ele>2305.2</ele>
        <time>2014-06-29T18:24:24Z</time>
        <sat>12</sat>
      </trkpt>
      <trkpt lat="37.753068" lon="-118.986372">
        <ele>2305.2</ele>
        <time>2014-06-29T18:24:27Z</time>
        <sat>12</sat>
      </trkpt>
      <trkpt lat="37.753173" lon="-118.986427">
        <ele>2305.5</ele>
        <time>2014-06-29T18:24:30Z</time>
        <sat>12</sat>
      </trkpt>
      <trkpt lat="37.753262" lon="-118.986485">
        <ele>2305.7</ele>
        <time>2014-06-29T18:24:33Z</time>
        <sat>12</sat>
      </trkpt>
      <trkpt lat="37.753338" lon="-118.986548">
        <ele>2305.7</ele>
        <time>2014-06-29T18:24:36Z</time>
        <sat>12</sat>
      </trkpt>
      <trkpt lat="37.753425" lon="-118.986613">
        <ele>2305.9</ele>
        <time>2014-06-29T18:24:39Z</time>
        <sat>12</sat>
      </trkpt>
      <trkpt lat="37.753507" lon="-118.986675">
        <ele>2306.2</ele>
        <time>2014-06-29T18:24:42Z</time>
        <sat>12</sat>
      </trkpt>
      <trkpt lat="37.753603" lon="-118.986750">
        <ele>2306.3</ele>
        <time>2014-06-29T18:24:45Z</time>
        <sat>11</sat>
      </trkpt>
      <trkpt lat="37.753688" lon="-118.986825">
        <ele>2306.2</ele>
        <time>2014-06-29T18:24:48Z</time>
        <sat>11</sat>
      </trkpt>
      <trkpt lat="37.753888" lon="-118.986967">
        <ele>2306.2</ele>
        <time>2014-06-29T18:24:54Z</time>
        <sat>11</sat>
      </trkpt>
      <trkpt lat="37.753983" lon="-118.987035">
        <ele>2306.4</ele>
        <time>2014-06-29T18:24:57Z</time>
        <sat>12</sat>
      </trkpt>
      <trkpt lat="37.754062" lon="-118.987098">
        <ele>2306.7</ele>
        <time>2014-06-29T18:25:00Z</time>
        <sat>12</sat>
      </trkpt>
      <trkpt lat="37.754155" lon="-118.987152">
        <ele>2306.6</ele>
        <time>2014-06-29T18:25:03Z</time>
        <sat>12</sat>
      </trkpt>
      <trkpt lat="37.754258" lon="-118.987203">
        <ele>2306.7</ele>
        <time>2014-06-29T18:25:07Z</time>
        <sat>12</sat>
      </trkpt>
      <trkpt lat="37.754368" lon="-118.987272">
        <ele>2306.9</ele>
        <time>2014-06-29T18:25:11Z</time>
        <sat>11</sat>
      </trkpt>
      <trkpt lat="37.754463" lon="-118.987320">
        <ele>2307.2</ele>
        <time>2014-06-29T18:25:14Z</time>
        <sat>12</sat>
      </trkpt>
      <trkpt lat="37.754562" lon="-118.987362">
        <ele>2307.4</ele>
        <time>2014-06-29T18:25:17Z</time>
        <sat>12</sat>
      </trkpt>
      <trkpt lat="37.754658" lon="-118.987422">
        <ele>2307.4</ele>
        <time>2014-06-29T18:25:20Z</time>
        <sat>10</sat>
      </trkpt>
      <trkpt lat="37.754753" lon="-118.987483">
        <ele>2307.6</ele>
        <time>2014-06-29T18:25:23Z</time>
        <sat>12</sat>
      </trkpt>
      <trkpt lat="37.754842" lon="-118.987543">
        <ele>2307.7</ele>
        <time>2014-06-29T18:25:26Z</time>
        <sat>11</sat>
      </trkpt>
      <trkpt lat="37.754938" lon="-118.987607">
        <ele>2307.5</ele>
        <time>2014-06-29T18:25:29Z</time>
        <sat>11</sat>
      </trkpt>
      <trkpt lat="37.755058" lon="-118.987680">
        <ele>2307.4</ele>
        <time>2014-06-29T18:25:32Z</time>
        <sat>11</sat>
      </trkpt>
      <trkpt lat="37.755148" lon="-118.987730">
        <ele>2307.1</ele>
        <time>2014-06-29T18:25:34Z</time>
        <sat>11</sat>
      </trkpt>
      <trkpt lat="37.755237" lon="-118.987780">
        <ele>2307.0</ele>
        <time>2014-06-29T18:25:36Z</time>
        <sat>11</sat>
      </trkpt>
      <trkpt lat="37.755357" lon="-118.987847">
        <ele>2307.0</ele>
        <time>2014-06-29T18:25:39Z</time>
        <sat>12</sat>
      </trkpt>
      <trkpt lat="37.755445" lon="-118.987875">
        <ele>2307.0</ele>
        <time>2014-06-29T18:25:41Z</time>
        <sat>11</sat>
      </trkpt>
      <trkpt lat="37.755548" lon="-118.987928">
        <ele>2306.8</ele>
        <time>2014-06-29T18:25:44Z</time>
        <sat>12</sat>
      </trkpt>
      <trkpt lat="37.755637" lon="-118.988007">
        <ele>2306.9</ele>
        <time>2014-06-29T18:25:47Z</time>
        <sat>11</sat>
      </trkpt>
      <trkpt lat="37.755715" lon="-118.988063">
        <ele>2307.2</ele>
        <time>2014-06-29T18:25:50Z</time>
        <sat>12</sat>
      </trkpt>
      <trkpt lat="37.755875" lon="-118.988218">
        <ele>2307.4</ele>
        <time>2014-06-29T18:25:57Z</time>
        <sat>12</sat>
      </trkpt>
      <trkpt lat="37.755960" lon="-118.988283">
        <ele>2307.3</ele>
        <time>2014-06-29T18:26:00Z</time>
        <sat>12</sat>
      </trkpt>
      <trkpt lat="37.756047" lon="-118.988345">
        <ele>2307.3</ele>
        <time>2014-06-29T18:26:03Z</time>
        <sat>11</sat>
      </trkpt>
      <trkpt lat="37.756127" lon="-118.988400">
        <ele>2307.2</ele>
        <time>2014-06-29T18:26:06Z</time>
        <sat>12</sat>
      </trkpt>
      <trkpt lat="37.756208" lon="-118.988457">
        <ele>2307.1</ele>
        <time>2014-06-29T18:26:09Z</time>
        <sat>11</sat>
      </trkpt>
      <trkpt lat="37.756285" lon="-118.988517">
        <ele>2307.4</ele>
        <time>2014-06-29T18:26:12Z</time>
        <sat>12</sat>
      </trkpt>
      <trkpt lat="37.756365" lon="-118.988582">
        <ele>2307.7</ele>
        <time>2014-06-29T18:26:15Z</time>
        <sat>11</sat>
      </trkpt>
      <trkpt lat="37.756452" lon="-118.988662">
        <ele>2308.0</ele>
        <time>2014-06-29T18:26:19Z</time>
        <sat>12</sat>
      </trkpt>
      <trkpt lat="37.756543" lon="-118.988742">
        <ele>2308.3</ele>
        <time>2014-06-29T18:26:23Z</time>
        <sat>11</sat>
      </trkpt>
      <trkpt lat="37.756642" lon="-118.988823">
        <ele>2308.1</ele>
        <time>2014-06-29T18:26:27Z</time>
        <sat>11</sat>
      </trkpt>
      <trkpt lat="37.756732" lon="-118.988907">
        <ele>2308.5</ele>
        <time>2014-06-29T18:26:31Z</time>
        <sat>11</sat>
      </trkpt>
      <trkpt lat="37.756815" lon="-118.988992">
        <ele>2308.8</ele>
        <time>2014-06-29T18:26:35Z</time>
        <sat>10</sat>
      </trkpt>
      <trkpt lat="37.756907" lon="-118.989052">
        <ele>2308.9</ele>
        <time>2014-06-29T18:26:38Z</time>
        <sat>10</sat>
      </trkpt>
      <trkpt lat="37.757007" lon="-118.989130">
        <ele>2310.0</ele>
        <time>2014-06-29T18:26:42Z</time>
        <sat>9</sat>
      </trkpt>
      <trkpt lat="37.757095" lon="-118.989197">
        <ele>2310.4</ele>
        <time>2014-06-29T18:26:46Z</time>
        <sat>10</sat>
      </trkpt>
      <trkpt lat="37.757188" lon="-118.989267">
        <ele>2311.0</ele>
        <time>2014-06-29T18:26:51Z</time>
        <sat>10</sat>
      </trkpt>
      <trkpt lat="37.757265" lon="-118.989363">
        <ele>2311.1</ele>
        <time>2014-06-29T18:26:56Z</time>
        <sat>11</sat>
      </trkpt>
      <trkpt lat="37.757405" lon="-118.989540">
        <ele>2311.4</ele>
        <time>2014-06-29T18:27:04Z</time>
        <sat>11</sat>
      </trkpt>
      <trkpt lat="37.757477" lon="-118.989627">
        <ele>2311.6</ele>
        <time>2014-06-29T18:27:08Z</time>
        <sat>11</sat>
      </trkpt>
      <trkpt lat="37.757550" lon="-118.989727">
        <ele>2311.7</ele>
        <time>2014-06-29T18:27:13Z</time>
        <sat>10</sat>
      </trkpt>
      <trkpt lat="37.757625" lon="-118.989825">
        <ele>2312.2</ele>
        <time>2014-06-29T18:27:18Z</time>
        <sat>10</sat>
      </trkpt>
      <trkpt lat="37.757692" lon="-118.989920">
        <ele>2312.6</ele>
        <time>2014-06-29T18:27:23Z</time>
        <sat>9</sat>
      </trkpt>
      <trkpt lat="37.757762" lon="-118.990008">
        <ele>2313.0</ele>
        <time>2014-06-29T18:27:28Z</time>
        <sat>9</sat>
      </trkpt>
      <trkpt lat="37.757848" lon="-118.990093">
        <ele>2313.3</ele>
        <time>2014-06-29T18:27:33Z</time>
        <sat>9</sat>
      </trkpt>
      <trkpt lat="37.757937" lon="-118.990183">
        <ele>2313.4</ele>
        <time>2014-06-29T18:27:38Z</time>
        <sat>9</sat>
      </trkpt>
      <trkpt lat="37.758017" lon="-118.990268">
        <ele>2313.9</ele>
        <time>2014-06-29T18:27:43Z</time>
        <sat>10</sat>
      </trkpt>
      <trkpt lat="37.758070" lon="-118.990365">
        <ele>2314.3</ele>
        <time>2014-06-29T18:27:48Z</time>
        <sat>9</sat>
      </trkpt>
      <trkpt lat="37.758123" lon="-118.990482">
        <ele>2315.0</ele>
        <time>2014-06-29T18:27:54Z</time>
        <sat>9</sat>
      </trkpt>
      <trkpt lat="37.758180" lon="-118.990587">
        <ele>2315.9</ele>
        <time>2014-06-29T18:28:00Z</time>
        <sat>9</sat>
      </trkpt>
      <trkpt lat="37.758288" lon="-118.990815">
        <ele>2316.6</ele>
        <time>2014-06-29T18:28:12Z</time>
        <sat>9</sat>
      </trkpt>
      <trkpt lat="37.758333" lon="-118.990925">
        <ele>2317.0</ele>
        <time>2014-06-29T18:28:18Z</time>
        <sat>8</sat>
      </trkpt>
      <trkpt lat="37.758380" lon="-118.991040">
        <ele>2317.6</ele>
        <time>2014-06-29T18:28:24Z</time>
        <sat>8</sat>
      </trkpt>
      <trkpt lat="37.758432" lon="-118.991145">
        <ele>2318.0</ele>
        <time>2014-06-29T18:28:30Z</time>
        <sat>9</sat>
      </trkpt>
      <trkpt lat="37.758473" lon="-118.991255">
        <ele>2318.1</ele>
        <time>2014-06-29T18:28:36Z</time>
        <sat>9</sat>
      </trkpt>
      <trkpt lat="37.758518" lon="-118.991358">
        <ele>2318.9</ele>
        <time>2014-06-29T18:28:42Z</time>
        <sat>9</sat>
      </trkpt>
      <trkpt lat="37.758577" lon="-118.991465">
        <ele>2319.6</ele>
        <time>2014-06-29T18:28:49Z</time>
        <sat>9</sat>
      </trkpt>
      <trkpt lat="37.758647" lon="-118.991558">
        <ele>2321.1</ele>
        <time>2014-06-29T18:28:56Z</time>
        <sat>9</sat>
      </trkpt>
      <trkpt lat="37.758705" lon="-118.991650">
        <ele>2321.7</ele>
        <time>2014-06-29T18:29:02Z</time>
        <sat>8</sat>
      </trkpt>
      <trkpt lat="37.758828" lon="-118.991843">
        <ele>2323.9</ele>
        <time>2014-06-29T18:29:15Z</time>
        <sat>9</sat>
      </trkpt>
      <trkpt lat="37.758882" lon="-118.991952">
        <ele>2324.9</ele>
        <time>2014-06-29T18:29:23Z</time>
        <sat>9</sat>
      </trkpt>
      <trkpt lat="37.758950" lon="-118.992035">
        <ele>2326.4</ele>
        <time>2014-06-29T18:29:31Z</time>
        <sat>9</sat>
      </trkpt>
      <trkpt lat="37.759007" lon="-118.992135">
        <ele>2327.5</ele>
        <time>2014-06-29T18:29:39Z</time>
        <sat>9</sat>
      </trkpt>
      <trkpt lat="37.759055" lon="-118.992237">
        <ele>2328.8</ele>
        <time>2014-06-29T18:29:50Z</time>
        <sat>9</sat>
      </trkpt>
      <trkpt lat="37.759103" lon="-118.992337">
        <ele>2330.0</ele>
        <time>2014-06-29T18:30:03Z</time>
        <sat>9</sat>
      </trkpt>
      <trkpt lat="37.759230" lon="-118.992498">
        <ele>2332.4</ele>
        <time>2014-06-29T18:30:22Z</time>
        <sat>9</sat>
      </trkpt>
      <trkpt lat="37.759282" lon="-118.992600">
        <ele>2333.7</ele>
        <time>2014-06-29T18:30:31Z</time>
        <sat>9</sat>
      </trkpt>
      <trkpt lat="37.759330" lon="-118.992707">
        <ele>2335.1</ele>
        <time>2014-06-29T18:30:43Z</time>
        <sat>9</sat>
      </trkpt>
      <trkpt lat="37.759387" lon="-118.992797">
        <ele>2336.4</ele>
        <time>2014-06-29T18:30:50Z</time>
        <sat>9</sat>
      </trkpt>
      <trkpt lat="37.759457" lon="-118.992890">
        <ele>2337.5</ele>
        <time>2014-06-29T18:30:58Z</time>
        <sat>9</sat>
      </trkpt>
      <trkpt lat="37.759535" lon="-118.992947">
        <ele>2339.2</ele>
        <time>2014-06-29T18:31:08Z</time>
        <sat>10</sat>
      </trkpt>
      <trkpt lat="37.759682" lon="-118.993083">
        <ele>2341.5</ele>
        <time>2014-06-29T18:31:29Z</time>
        <sat>10</sat>
      </trkpt>
      <trkpt lat="37.759760" lon="-118.993157">
        <ele>2343.5</ele>
        <time>2014-06-29T18:31:41Z</time>
        <sat>10</sat>
      </trkpt>
      <trkpt lat="37.759835" lon="-118.993220">
        <ele>2344.7</ele>
        <time>2014-06-29T18:31:52Z</time>
        <sat>10</sat>
      </trkpt>
      <trkpt lat="37.759910" lon="-118.993290">
        <ele>2346.0</ele>
        <time>2014-06-29T18:32:03Z</time>
        <sat>10</sat>
      </trkpt>
      <trkpt lat="37.759975" lon="-118.993375">
        <ele>2347.8</ele>
        <time>2014-06-29T18:32:14Z</time>
        <sat>10</sat>
      </trkpt>
      <trkpt lat="37.760138" lon="-118.993497">
        <ele>2350.7</ele>
        <time>2014-06-29T18:32:39Z</time>
        <sat>10</sat>
      </trkpt>
      <trkpt lat="37.760222" lon="-118.993560">
        <ele>2352.3</ele>
        <time>2014-06-29T18:32:51Z</time>
        <sat>10</sat>
      </trkpt>
      <trkpt lat="37.760303" lon="-118.993622">
        <ele>2353.8</ele>
        <time>2014-06-29T18:33:03Z</time>
        <sat>10</sat>
      </trkpt>
      <trkpt lat="37.760382" lon="-118.993692">
        <ele>2354.9</ele>
        <time>2014-06-29T18:33:15Z</time>
        <sat>10</sat>
      </trkpt>
      <trkpt lat="37.760552" lon="-118.993802">
        <ele>2358.8</ele>
        <time>2014-06-29T18:33:40Z</time>
        <sat>10</sat>
      </trkpt>
      <trkpt lat="37.760632" lon="-118.993867">
        <ele>2359.8</ele>
        <time>2014-06-29T18:33:55Z</time>
        <sat>10</sat>
      </trkpt>
      <trkpt lat="37.760705" lon="-118.993942">
        <ele>2361.3</ele>
        <time>2014-06-29T18:34:29Z</time>
        <sat>10</sat>
      </trkpt>
      <trkpt lat="37.760893" lon="-118.994028">
        <ele>2362.5</ele>
        <time>2014-06-29T18:35:12Z</time>
        <sat>11</sat>
      </trkpt>
      <trkpt lat="37.760977" lon="-118.994082">
        <ele>2363.6</ele>
        <time>2014-06-29T18:35:36Z</time>
        <sat>11</sat>
      </trkpt>
      <trkpt lat="37.761150" lon="-118.994170">
        <ele>2363.7</ele>
        <time>2014-06-29T18:35:53Z</time>
        <sat>11</sat>
      </trkpt>
      <trkpt lat="37.761235" lon="-118.994230">
        <ele>2363.4</ele>
        <time>2014-06-29T18:36:41Z</time>
        <sat>11</sat>
      </trkpt>
      <trkpt lat="37.761377" lon="-118.994408">
        <ele>2364.0</ele>
        <time>2014-06-29T18:36:50Z</time>
        <sat>9</sat>
      </trkpt>
      <trkpt lat="37.761448" lon="-118.994488">
        <ele>2364.3</ele>
        <time>2014-06-29T18:36:54Z</time>
        <sat>10</sat>
      </trkpt>
      <trkpt lat="37.761523" lon="-118.994572">
        <ele>2365.1</ele>
        <time>2014-06-29T18:36:58Z</time>
        <sat>11</sat>
      </trkpt>
      <trkpt lat="37.761597" lon="-118.994652">
        <ele>2365.5</ele>
        <time>2014-06-29T18:37:02Z</time>
        <sat>11</sat>
      </trkpt>
      <trkpt lat="37.761670" lon="-118.994733">
        <ele>2365.7</ele>
        <time>2014-06-29T18:37:06Z</time>
        <sat>10</sat>
      </trkpt>
      <trkpt lat="37.761735" lon="-118.994813">
        <ele>2366.0</ele>
        <time>2014-06-29T18:37:10Z</time>
        <sat>11</sat>
      </trkpt>
      <trkpt lat="37.761808" lon="-118.994890">
        <ele>2366.8</ele>
        <time>2014-06-29T18:37:14Z</time>
        <sat>12</sat>
      </trkpt>
      <trkpt lat="37.761875" lon="-118.994973">
        <ele>2367.2</ele>
        <time>2014-06-29T18:37:18Z</time>
        <sat>11</sat>
      </trkpt>
      <trkpt lat="37.761933" lon="-118.995063">
        <ele>2367.6</ele>
        <time>2014-06-29T18:37:22Z</time>
        <sat>11</sat>
      </trkpt>
      <trkpt lat="37.762000" lon="-118.995152">
        <ele>2368.3</ele>
        <time>2014-06-29T18:37:26Z</time>
        <sat>10</sat>
      </trkpt>
      <trkpt lat="37.762068" lon="-118.995258">
        <ele>2369.4</ele>
        <time>2014-06-29T18:37:31Z</time>
        <sat>10</sat>
      </trkpt>
      <trkpt lat="37.762128" lon="-118.995367">
        <ele>2369.8</ele>
        <time>2014-06-29T18:37:36Z</time>
        <sat>10</sat>
      </trkpt>
      <trkpt lat="37.762190" lon="-118.995482">
        <ele>2370.4</ele>
        <time>2014-06-29T18:37:41Z</time>
        <sat>10</sat>
      </trkpt>
      <trkpt lat="37.762285" lon="-118.995692">
        <ele>2371.9</ele>
        <time>2014-06-29T18:37:51Z</time>
        <sat>10</sat>
      </trkpt>
      <trkpt lat="37.762330" lon="-118.995802">
        <ele>2372.4</ele>
        <time>2014-06-29T18:37:56Z</time>
        <sat>10</sat>
      </trkpt>
      <trkpt lat="37.762365" lon="-118.995915">
        <ele>2373.1</ele>
        <time>2014-06-29T18:38:01Z</time>
        <sat>11</sat>
      </trkpt>
      <trkpt lat="37.762408" lon="-118.996032">
        <ele>2373.5</ele>
        <time>2014-06-29T18:38:06Z</time>
        <sat>10</sat>
      </trkpt>
      <trkpt lat="37.762450" lon="-118.996150">
        <ele>2374.5</ele>
        <time>2014-06-29T18:38:11Z</time>
        <sat>10</sat>
      </trkpt>
      <trkpt lat="37.762493" lon="-118.996270">
        <ele>2375.2</ele>
        <time>2014-06-29T18:38:16Z</time>
        <sat>10</sat>
      </trkpt>
      <trkpt lat="37.762537" lon="-118.996393">
        <ele>2375.8</ele>
        <time>2014-06-29T18:38:21Z</time>
        <sat>10</sat>
      </trkpt>
      <trkpt lat="37.762578" lon="-118.996513">
        <ele>2376.3</ele>
        <time>2014-06-29T18:38:26Z</time>
        <sat>11</sat>
      </trkpt>
      <trkpt lat="37.762622" lon="-118.996635">
        <ele>2377.2</ele>
        <time>2014-06-29T18:38:31Z</time>
        <sat>10</sat>
      </trkpt>
      <trkpt lat="37.762665" lon="-118.996745">
        <ele>2378.0</ele>
        <time>2014-06-29T18:38:36Z</time>
        <sat>10</sat>
      </trkpt>
      <trkpt lat="37.762697" lon="-118.996860">
        <ele>2378.6</ele>
        <time>2014-06-29T18:38:41Z</time>
        <sat>10</sat>
      </trkpt>
      <trkpt lat="37.762742" lon="-118.996977">
        <ele>2379.0</ele>
        <time>2014-06-29T18:38:46Z</time>
        <sat>11</sat>
      </trkpt>
      <trkpt lat="37.762828" lon="-118.997220">
        <ele>2380.1</ele>
        <time>2014-06-29T18:38:56Z</time>
        <sat>10</sat>
      </trkpt>
      <trkpt lat="37.762868" lon="-118.997338">
        <ele>2381.1</ele>
        <time>2014-06-29T18:39:01Z</time>
        <sat>11</sat>
      </trkpt>
      <trkpt lat="37.762913" lon="-118.997460">
        <ele>2381.7</ele>
        <time>2014-06-29T18:39:06Z</time>
        <sat>11</sat>
      </trkpt>
      <trkpt lat="37.762960" lon="-118.997583">
        <ele>2382.3</ele>
        <time>2014-06-29T18:39:11Z</time>
        <sat>11</sat>
      </trkpt>
      <trkpt lat="37.763008" lon="-118.997683">
        <ele>2382.8</ele>
        <time>2014-06-29T18:39:15Z</time>
        <sat>10</sat>
      </trkpt>
      <trkpt lat="37.763060" lon="-118.997780">
        <ele>2383.2</ele>
        <time>2014-06-29T18:39:19Z</time>
        <sat>10</sat>
      </trkpt>
      <trkpt lat="37.763110" lon="-118.997907">
        <ele>2384.3</ele>
        <time>2014-06-29T18:39:24Z</time>
        <sat>11</sat>
      </trkpt>
      <trkpt lat="37.763155" lon="-118.998010">
        <ele>2384.7</ele>
        <time>2014-06-29T18:39:28Z</time>
        <sat>11</sat>
      </trkpt>
      <trkpt lat="37.763205" lon="-118.998110">
        <ele>2385.4</ele>
        <time>2014-06-29T18:39:32Z</time>
        <sat>10</sat>
      </trkpt>
      <trkpt lat="37.763255" lon="-118.998212">
        <ele>2385.6</ele>
        <time>2014-06-29T18:39:36Z</time>
        <sat>11</sat>
      </trkpt>
      <trkpt lat="37.763312" lon="-118.998313">
        <ele>2386.2</ele>
        <time>2014-06-29T18:39:40Z</time>
        <sat>11</sat>
      </trkpt>
      <trkpt lat="37.763360" lon="-118.998418">
        <ele>2387.0</ele>
        <time>2014-06-29T18:39:44Z</time>
        <sat>11</sat>
      </trkpt>
      <trkpt lat="37.763400" lon="-118.998548">
        <ele>2387.9</ele>
        <time>2014-06-29T18:39:49Z</time>
        <sat>11</sat>
      </trkpt>
      <trkpt lat="37.763512" lon="-118.998763">
        <ele>2388.3</ele>
        <time>2014-06-29T18:39:58Z</time>
        <sat>11</sat>
      </trkpt>
      <trkpt lat="37.763587" lon="-118.998862">
        <ele>2388.9</ele>
        <time>2014-06-29T18:40:03Z</time>
        <sat>11</sat>
      </trkpt>
      <trkpt lat="37.763653" lon="-118.998952">
        <ele>2389.4</ele>
        <time>2014-06-29T18:40:08Z</time>
        <sat>11</sat>
      </trkpt>
      <trkpt lat="37.763723" lon="-118.999047">
        <ele>2389.9</ele>
        <time>2014-06-29T18:40:13Z</time>
        <sat>11</sat>
      </trkpt>
      <trkpt lat="37.763785" lon="-118.999145">
        <ele>2390.9</ele>
        <time>2014-06-29T18:40:18Z</time>
        <sat>11</sat>
      </trkpt>
      <trkpt lat="37.763838" lon="-118.999242">
        <ele>2391.2</ele>
        <time>2014-06-29T18:40:23Z</time>
        <sat>11</sat>
      </trkpt>
      <trkpt lat="37.763823" lon="-118.999380">
        <ele>2391.0</ele>
        <time>2014-06-29T18:40:28Z</time>
        <sat>11</sat>
      </trkpt>
      <trkpt lat="37.763797" lon="-118.999490">
        <ele>2391.0</ele>
        <time>2014-06-29T18:40:32Z</time>
        <sat>10</sat>
      </trkpt>
      <trkpt lat="37.763750" lon="-118.999618">
        <ele>2390.5</ele>
        <time>2014-06-29T18:40:37Z</time>
        <sat>11</sat>
      </trkpt>
      <trkpt lat="37.763732" lon="-118.999732">
        <ele>2390.3</ele>
        <time>2014-06-29T18:40:41Z</time>
        <sat>11</sat>
      </trkpt>
      <trkpt lat="37.763820" lon="-118.999793">
        <ele>2388.5</ele>
        <time>2014-06-29T18:43:18Z</time>
        <sat>11</sat>
      </trkpt>
      <trkpt lat="37.763940" lon="-118.999990">
        <ele>2387.9</ele>
        <time>2014-06-29T18:43:25Z</time>
        <sat>11</sat>
      </trkpt>
      <trkpt lat="37.764015" lon="-119.000083">
        <ele>2387.6</ele>
        <time>2014-06-29T18:43:28Z</time>
        <sat>11</sat>
      </trkpt>
      <trkpt lat="37.764067" lon="-119.000180">
        <ele>2387.5</ele>
        <time>2014-06-29T18:43:31Z</time>
        <sat>11</sat>
      </trkpt>
      <trkpt lat="37.764123" lon="-119.000282">
        <ele>2387.6</ele>
        <time>2014-06-29T18:43:34Z</time>
        <sat>11</sat>
      </trkpt>
      <trkpt lat="37.764188" lon="-119.000390">
        <ele>2387.4</ele>
        <time>2014-06-29T18:43:37Z</time>
        <sat>11</sat>
      </trkpt>
      <trkpt lat="37.764248" lon="-119.000493">
        <ele>2387.7</ele>
        <time>2014-06-29T18:43:40Z</time>
        <sat>10</sat>
      </trkpt>
      <trkpt lat="37.764303" lon="-119.000600">
        <ele>2387.7</ele>
        <time>2014-06-29T18:43:43Z</time>
        <sat>10</sat>
      </trkpt>
      <trkpt lat="37.764353" lon="-119.000712">
        <ele>2387.4</ele>
        <time>2014-06-29T18:43:46Z</time>
        <sat>10</sat>
      </trkpt>
      <trkpt lat="37.764403" lon="-119.000822">
        <ele>2387.4</ele>
        <time>2014-06-29T18:43:49Z</time>
        <sat>10</sat>
      </trkpt>
      <trkpt lat="37.764455" lon="-119.000932">
        <ele>2387.5</ele>
        <time>2014-06-29T18:43:52Z</time>
        <sat>10</sat>
      </trkpt>
      <trkpt lat="37.764500" lon="-119.001043">
        <ele>2387.3</ele>
        <time>2014-06-29T18:43:55Z</time>
        <sat>11</sat>
      </trkpt>
      <trkpt lat="37.764542" lon="-119.001157">
        <ele>2387.2</ele>
        <time>2014-06-29T18:43:58Z</time>
        <sat>11</sat>
      </trkpt>
      <trkpt lat="37.764588" lon="-119.001273">
        <ele>2387.1</ele>
        <time>2014-06-29T18:44:01Z</time>
        <sat>10</sat>
      </trkpt>
      <trkpt lat="37.764645" lon="-119.001388">
        <ele>2386.9</ele>
        <time>2014-06-29T18:44:04Z</time>
        <sat>10</sat>
      </trkpt>
      <trkpt lat="37.764697" lon="-119.001500">
        <ele>2387.0</ele>
        <time>2014-06-29T18:44:07Z</time>
        <sat>10</sat>
      </trkpt>
      <trkpt lat="37.764745" lon="-119.001607">
        <ele>2387.0</ele>
        <time>2014-06-29T18:44:10Z</time>
        <sat>10</sat>
      </trkpt>
      <trkpt lat="37.764807" lon="-119.001702">
        <ele>2386.8</ele>
        <time>2014-06-29T18:44:13Z</time>
        <sat>11</sat>
      </trkpt>
      <trkpt lat="37.764858" lon="-119.001798">
        <ele>2387.0</ele>
        <time>2014-06-29T18:44:16Z</time>
        <sat>10</sat>
      </trkpt>
      <trkpt lat="37.764898" lon="-119.001935">
        <ele>2387.0</ele>
        <time>2014-06-29T18:44:20Z</time>
        <sat>9</sat>
      </trkpt>
      <trkpt lat="37.764993" lon="-119.002140">
        <ele>2386.8</ele>
        <time>2014-06-29T18:44:26Z</time>
        <sat>11</sat>
      </trkpt>
      <trkpt lat="37.765045" lon="-119.002237">
        <ele>2387.0</ele>
        <time>2014-06-29T18:44:29Z</time>
        <sat>11</sat>
      </trkpt>
      <trkpt lat="37.765087" lon="-119.002342">
        <ele>2387.0</ele>
        <time>2014-06-29T18:44:32Z</time>
        <sat>10</sat>
      </trkpt>
      <trkpt lat="37.765128" lon="-119.002447">
        <ele>2387.1</ele>
        <time>2014-06-29T18:44:35Z</time>
        <sat>11</sat>
      </trkpt>
      <trkpt lat="37.765170" lon="-119.002548">
        <ele>2387.2</ele>
        <time>2014-06-29T18:44:38Z</time>
        <sat>11</sat>
      </trkpt>
      <trkpt lat="37.765225" lon="-119.002685">
        <ele>2387.2</ele>
        <time>2014-06-29T18:44:42Z</time>
        <sat>11</sat>
      </trkpt>
      <trkpt lat="37.765265" lon="-119.002792">
        <ele>2387.2</ele>
        <time>2014-06-29T18:44:45Z</time>
        <sat>10</sat>
      </trkpt>
      <trkpt lat="37.765303" lon="-119.002898">
        <ele>2387.1</ele>
        <time>2014-06-29T18:44:48Z</time>
        <sat>10</sat>
      </trkpt>
      <trkpt lat="37.765347" lon="-119.003002">
        <ele>2387.1</ele>
        <time>2014-06-29T18:44:51Z</time>
        <sat>11</sat>
      </trkpt>
      <trkpt lat="37.765395" lon="-119.003135">
        <ele>2387.1</ele>
        <time>2014-06-29T18:44:55Z</time>
        <sat>10</sat>
      </trkpt>
      <trkpt lat="37.765435" lon="-119.003238">
        <ele>2387.0</ele>
        <time>2014-06-29T18:44:58Z</time>
        <sat>11</sat>
      </trkpt>
      <trkpt lat="37.765485" lon="-119.003340">
        <ele>2387.3</ele>
        <time>2014-06-29T18:45:01Z</time>
        <sat>11</sat>
      </trkpt>
      <trkpt lat="37.765527" lon="-119.003443">
        <ele>2387.3</ele>
        <time>2014-06-29T18:45:04Z</time>
        <sat>11</sat>
      </trkpt>
      <trkpt lat="37.765562" lon="-119.003550">
        <ele>2387.3</ele>
        <time>2014-06-29T18:45:07Z</time>
        <sat>10</sat>
      </trkpt>
      <trkpt lat="37.765600" lon="-119.003657">
        <ele>2387.7</ele>
        <time>2014-06-29T18:45:10Z</time>
        <sat>11</sat>
      </trkpt>
      <trkpt lat="37.765648" lon="-119.003795">
        <ele>2387.4</ele>
        <time>2014-06-29T18:45:14Z</time>
        <sat>11</sat>
      </trkpt>
      <trkpt lat="37.765682" lon="-119.003905">
        <ele>2387.5</ele>
        <time>2014-06-29T18:45:17Z</time>
        <sat>11</sat>
      </trkpt>
      <trkpt lat="37.765720" lon="-119.004048">
        <ele>2387.4</ele>
        <time>2014-06-29T18:45:21Z</time>
        <sat>11</sat>
      </trkpt>
      <trkpt lat="37.765790" lon="-119.004295">
        <ele>2387.5</ele>
        <time>2014-06-29T18:45:28Z</time>
        <sat>11</sat>
      </trkpt>
      <trkpt lat="37.765830" lon="-119.004438">
        <ele>2387.5</ele>
        <time>2014-06-29T18:45:32Z</time>
        <sat>11</sat>
      </trkpt>
      <trkpt lat="37.765865" lon="-119.004580">
        <ele>2387.9</ele>
        <time>2014-06-29T18:45:36Z</time>
        <sat>11</sat>
      </trkpt>
      <trkpt lat="37.765903" lon="-119.004718">
        <ele>2387.8</ele>
        <time>2014-06-29T18:45:40Z</time>
        <sat>11</sat>
      </trkpt>
      <trkpt lat="37.765930" lon="-119.004855">
        <ele>2387.8</ele>
        <time>2014-06-29T18:45:44Z</time>
        <sat>11</sat>
      </trkpt>
      <trkpt lat="37.765955" lon="-119.004990">
        <ele>2387.8</ele>
        <time>2014-06-29T18:45:48Z</time>
        <sat>11</sat>
      </trkpt>
      <trkpt lat="37.765975" lon="-119.005135">
        <ele>2387.9</ele>
        <time>2014-06-29T18:45:52Z</time>
        <sat>11</sat>
      </trkpt>
      <trkpt lat="37.765992" lon="-119.005280">
        <ele>2387.8</ele>
        <time>2014-06-29T18:45:56Z</time>
        <sat>11</sat>
      </trkpt>
      <trkpt lat="37.765998" lon="-119.005427">
        <ele>2387.7</ele>
        <time>2014-06-29T18:46:00Z</time>
        <sat>11</sat>
      </trkpt>
      <trkpt lat="37.766005" lon="-119.005550">
        <ele>2388.1</ele>
        <time>2014-06-29T18:46:03Z</time>
        <sat>11</sat>
      </trkpt>
      <trkpt lat="37.766017" lon="-119.005680">
        <ele>2388.0</ele>
        <time>2014-06-29T18:46:07Z</time>
        <sat>11</sat>
      </trkpt>
      <trkpt lat="37.766032" lon="-119.005797">
        <ele>2388.2</ele>
        <time>2014-06-29T18:46:11Z</time>
        <sat>11</sat>
      </trkpt>
      <trkpt lat="37.766058" lon="-119.005928">
        <ele>2388.3</ele>
        <time>2014-06-29T18:46:15Z</time>
        <sat>11</sat>
      </trkpt>
      <trkpt lat="37.766097" lon="-119.006033">
        <ele>2388.3</ele>
        <time>2014-06-29T18:46:18Z</time>
        <sat>11</sat>
      </trkpt>
      <trkpt lat="37.766137" lon="-119.006147">
        <ele>2388.1</ele>
        <time>2014-06-29T18:46:21Z</time>
        <sat>11</sat>
      </trkpt>
      <trkpt lat="37.766227" lon="-119.006360">
        <ele>2388.7</ele>
        <time>2014-06-29T18:46:27Z</time>
        <sat>11</sat>
      </trkpt>
      <trkpt lat="37.766278" lon="-119.006468">
        <ele>2388.8</ele>
        <time>2014-06-29T18:46:30Z</time>
        <sat>11</sat>
      </trkpt>
      <trkpt lat="37.766328" lon="-119.006568">
        <ele>2389.2</ele>
        <time>2014-06-29T18:46:33Z</time>
        <sat>10</sat>
      </trkpt>
      <trkpt lat="37.766382" lon="-119.006685">
        <ele>2389.4</ele>
        <time>2014-06-29T18:46:37Z</time>
        <sat>10</sat>
      </trkpt>
      <trkpt lat="37.766432" lon="-119.006793">
        <ele>2389.7</ele>
        <time>2014-06-29T18:46:41Z</time>
        <sat>11</sat>
      </trkpt>
      <trkpt lat="37.766482" lon="-119.006902">
        <ele>2389.9</ele>
        <time>2014-06-29T18:46:45Z</time>
        <sat>10</sat>
      </trkpt>
      <trkpt lat="37.766537" lon="-119.007015">
        <ele>2390.5</ele>
        <time>2014-06-29T18:46:49Z</time>
        <sat>10</sat>
      </trkpt>
      <trkpt lat="37.766597" lon="-119.007133">
        <ele>2391.2</ele>
        <time>2014-06-29T18:46:53Z</time>
        <sat>10</sat>
      </trkpt>
      <trkpt lat="37.766653" lon="-119.007255">
        <ele>2391.0</ele>
        <time>2014-06-29T18:46:57Z</time>
        <sat>10</sat>
      </trkpt>
      <trkpt lat="37.766697" lon="-119.007362">
        <ele>2390.9</ele>
        <time>2014-06-29T18:47:00Z</time>
        <sat>10</sat>
      </trkpt>
      <trkpt lat="37.766750" lon="-119.007493">
        <ele>2390.7</ele>
        <time>2014-06-29T18:47:04Z</time>
        <sat>10</sat>
      </trkpt>
      <trkpt lat="37.766792" lon="-119.007602">
        <ele>2390.7</ele>
        <time>2014-06-29T18:47:07Z</time>
        <sat>10</sat>
      </trkpt>
      <trkpt lat="37.766832" lon="-119.007708">
        <ele>2390.7</ele>
        <time>2014-06-29T18:47:10Z</time>
        <sat>10</sat>
      </trkpt>
      <trkpt lat="37.766883" lon="-119.007823">
        <ele>2390.5</ele>
        <time>2014-06-29T18:47:13Z</time>
        <sat>10</sat>
      </trkpt>
      <trkpt lat="37.766935" lon="-119.007935">
        <ele>2390.3</ele>
        <time>2014-06-29T18:47:16Z</time>
        <sat>10</sat>
      </trkpt>
      <trkpt lat="37.766993" lon="-119.008063">
        <ele>2390.6</ele>
        <time>2014-06-29T18:47:20Z</time>
        <sat>10</sat>
      </trkpt>
      <trkpt lat="37.767043" lon="-119.008178">
        <ele>2390.8</ele>
        <time>2014-06-29T18:47:24Z</time>
        <sat>10</sat>
      </trkpt>
      <trkpt lat="37.767153" lon="-119.008387">
        <ele>2391.2</ele>
        <time>2014-06-29T18:47:32Z</time>
        <sat>10</sat>
      </trkpt>
      <trkpt lat="37.767208" lon="-119.008502">
        <ele>2391.5</ele>
        <time>2014-06-29T18:47:36Z</time>
        <sat>11</sat>
      </trkpt>
      <trkpt lat="37.767253" lon="-119.008622">
        <ele>2391.5</ele>
        <time>2014-06-29T18:47:40Z</time>
        <sat>10</sat>
      </trkpt>
      <trkpt lat="37.767305" lon="-119.008753">
        <ele>2391.8</ele>
        <time>2014-06-29T18:47:44Z</time>
        <sat>9</sat>
      </trkpt>
      <trkpt lat="37.767337" lon="-119.008860">
        <ele>2391.8</ele>
        <time>2014-06-29T18:47:47Z</time>
        <sat>10</sat>
      </trkpt>
      <trkpt lat="37.767377" lon="-119.009000">
        <ele>2392.1</ele>
        <time>2014-06-29T18:47:51Z</time>
        <sat>10</sat>
      </trkpt>
      <trkpt lat="37.767414" lon="-119.009138">
        <ele>2391.9</ele>
        <time>2014-06-29T18:47:55Z</time>
        <sat>10</sat>
      </trkpt>
      <trkpt lat="37.767440" lon="-119.009248">
        <ele>2391.9</ele>
        <time>2014-06-29T18:47:58Z</time>
        <sat>11</sat>
      </trkpt>
      <trkpt lat="37.767473" lon="-119.009365">
        <ele>2391.9</ele>
        <time>2014-06-29T18:48:01Z</time>
        <sat>11</sat>
      </trkpt>
      <trkpt lat="37.767510" lon="-119.009482">
        <ele>2392.1</ele>
        <time>2014-06-29T18:48:04Z</time>
        <sat>10</sat>
      </trkpt>
      <trkpt lat="37.767545" lon="-119.009592">
        <ele>2392.4</ele>
        <time>2014-06-29T18:48:07Z</time>
        <sat>9</sat>
      </trkpt>
      <trkpt lat="37.767583" lon="-119.009728">
        <ele>2392.3</ele>
        <time>2014-06-29T18:48:11Z</time>
        <sat>9</sat>
      </trkpt>
      <trkpt lat="37.767628" lon="-119.009865">
        <ele>2392.0</ele>
        <time>2014-06-29T18:48:15Z</time>
        <sat>9</sat>
      </trkpt>
      <trkpt lat="37.767670" lon="-119.009987">
        <ele>2392.2</ele>
        <time>2014-06-29T18:48:19Z</time>
        <sat>10</sat>
      </trkpt>
      <trkpt lat="37.767708" lon="-119.010092">
        <ele>2392.7</ele>
        <time>2014-06-29T18:48:23Z</time>
        <sat>10</sat>
      </trkpt>
      <trkpt lat="37.767752" lon="-119.010218">
        <ele>2393.1</ele>
        <time>2014-06-29T18:48:27Z</time>
        <sat>9</sat>
      </trkpt>
      <trkpt lat="37.767843" lon="-119.010465">
        <ele>2393.1</ele>
        <time>2014-06-29T18:48:35Z</time>
        <sat>9</sat>
      </trkpt>
      <trkpt lat="37.767897" lon="-119.010568">
        <ele>2393.4</ele>
        <time>2014-06-29T18:48:38Z</time>
        <sat>9</sat>
      </trkpt>
      <trkpt lat="37.767958" lon="-119.010665">
        <ele>2393.7</ele>
        <time>2014-06-29T18:48:41Z</time>
        <sat>10</sat>
      </trkpt>
      <trkpt lat="37.768033" lon="-119.010758">
        <ele>2393.6</ele>
        <time>2014-06-29T18:48:44Z</time>
        <sat>9</sat>
      </trkpt>
      <trkpt lat="37.768095" lon="-119.010853">
        <ele>2394.1</ele>
        <time>2014-06-29T18:48:47Z</time>
        <sat>9</sat>
      </trkpt>
      <trkpt lat="37.768157" lon="-119.010942">
        <ele>2394.2</ele>
        <time>2014-06-29T18:48:50Z</time>
        <sat>9</sat>
      </trkpt>
      <trkpt lat="37.768217" lon="-119.011030">
        <ele>2394.5</ele>
        <time>2014-06-29T18:48:53Z</time>
        <sat>9</sat>
      </trkpt>
      <trkpt lat="37.768285" lon="-119.011133">
        <ele>2394.4</ele>
        <time>2014-06-29T18:48:57Z</time>
        <sat>9</sat>
      </trkpt>
      <trkpt lat="37.768353" lon="-119.011235">
        <ele>2394.8</ele>
        <time>2014-06-29T18:49:01Z</time>
        <sat>9</sat>
      </trkpt>
      <trkpt lat="37.768420" lon="-119.011325">
        <ele>2394.6</ele>
        <time>2014-06-29T18:49:05Z</time>
        <sat>10</sat>
      </trkpt>
      <trkpt lat="37.768485" lon="-119.011427">
        <ele>2395.0</ele>
        <time>2014-06-29T18:49:10Z</time>
        <sat>10</sat>
      </trkpt>
      <trkpt lat="37.768548" lon="-119.011518">
        <ele>2395.2</ele>
        <time>2014-06-29T18:49:14Z</time>
        <sat>10</sat>
      </trkpt>
      <trkpt lat="37.768613" lon="-119.011615">
        <ele>2395.4</ele>
        <time>2014-06-29T18:49:18Z</time>
        <sat>10</sat>
      </trkpt>
      <trkpt lat="37.768677" lon="-119.011712">
        <ele>2396.0</ele>
        <time>2014-06-29T18:49:22Z</time>
        <sat>10</sat>
      </trkpt>
      <trkpt lat="37.768745" lon="-119.011822">
        <ele>2396.1</ele>
        <time>2014-06-29T18:49:26Z</time>
        <sat>10</sat>
      </trkpt>
      <trkpt lat="37.768803" lon="-119.011910">
        <ele>2396.3</ele>
        <time>2014-06-29T18:49:29Z</time>
        <sat>10</sat>
      </trkpt>
      <trkpt lat="37.768930" lon="-119.012112">
        <ele>2397.1</ele>
        <time>2014-06-29T18:49:40Z</time>
        <sat>10</sat>
      </trkpt>
      <trkpt lat="37.769000" lon="-119.012208">
        <ele>2397.8</ele>
        <time>2014-06-29T18:51:00Z</time>
        <sat>9</sat>
      </trkpt>
      <trkpt lat="37.769138" lon="-119.012403">
        <ele>2398.4</ele>
        <time>2014-06-29T18:51:08Z</time>
        <sat>9</sat>
      </trkpt>
      <trkpt lat="37.769205" lon="-119.012485">
        <ele>2398.5</ele>
        <time>2014-06-29T18:51:12Z</time>
        <sat>8</sat>
      </trkpt>
      <trkpt lat="37.769277" lon="-119.012590">
        <ele>2399.0</ele>
        <time>2014-06-29T18:51:17Z</time>
        <sat>10</sat>
      </trkpt>
      <trkpt lat="37.769325" lon="-119.012697">
        <ele>2399.4</ele>
        <time>2014-06-29T18:51:22Z</time>
        <sat>10</sat>
      </trkpt>
      <trkpt lat="37.769348" lon="-119.012825">
        <ele>2400.7</ele>
        <time>2014-06-29T18:51:28Z</time>
        <sat>10</sat>
      </trkpt>
      <trkpt lat="37.769363" lon="-119.012950">
        <ele>2402.0</ele>
        <time>2014-06-29T18:51:34Z</time>
        <sat>9</sat>
      </trkpt>
      <trkpt lat="37.769363" lon="-119.013067">
        <ele>2403.0</ele>
        <time>2014-06-29T18:51:40Z</time>
        <sat>9</sat>
      </trkpt>
      <trkpt lat="37.769355" lon="-119.013182">
        <ele>2403.6</ele>
        <time>2014-06-29T18:51:46Z</time>
        <sat>10</sat>
      </trkpt>
      <trkpt lat="37.769358" lon="-119.013303">
        <ele>2404.4</ele>
        <time>2014-06-29T18:51:52Z</time>
        <sat>9</sat>
      </trkpt>
      <trkpt lat="37.769342" lon="-119.013430">
        <ele>2405.2</ele>
        <time>2014-06-29T18:51:59Z</time>
        <sat>11</sat>
      </trkpt>
      <trkpt lat="37.769345" lon="-119.013557">
        <ele>2405.8</ele>
        <time>2014-06-29T18:52:05Z</time>
        <sat>9</sat>
      </trkpt>
      <trkpt lat="37.769372" lon="-119.013788">
        <ele>2407.8</ele>
        <time>2014-06-29T18:52:18Z</time>
        <sat>9</sat>
      </trkpt>
      <trkpt lat="37.769405" lon="-119.013902">
        <ele>2408.7</ele>
        <time>2014-06-29T18:52:25Z</time>
        <sat>9</sat>
      </trkpt>
      <trkpt lat="37.769462" lon="-119.014003">
        <ele>2409.7</ele>
        <time>2014-06-29T18:52:31Z</time>
        <sat>8</sat>
      </trkpt>
      <trkpt lat="37.769513" lon="-119.014110">
        <ele>2411.0</ele>
        <time>2014-06-29T18:52:38Z</time>
        <sat>11</sat>
      </trkpt>
      <trkpt lat="37.769527" lon="-119.014230">
        <ele>2412.0</ele>
        <time>2014-06-29T18:52:45Z</time>
        <sat>9</sat>
      </trkpt>
      <trkpt lat="37.769548" lon="-119.014347">
        <ele>2413.0</ele>
        <time>2014-06-29T18:52:51Z</time>
        <sat>10</sat>
      </trkpt>
      <trkpt lat="37.769580" lon="-119.014467">
        <ele>2414.0</ele>
        <time>2014-06-29T18:52:58Z</time>
        <sat>10</sat>
      </trkpt>
      <trkpt lat="37.769615" lon="-119.014580">
        <ele>2414.8</ele>
        <time>2014-06-29T18:53:04Z</time>
        <sat>9</sat>
      </trkpt>
      <trkpt lat="37.769608" lon="-119.014706">
        <ele>2415.8</ele>
        <time>2014-06-29T18:53:11Z</time>
        <sat>9</sat>
      </trkpt>
      <trkpt lat="37.769587" lon="-119.014953">
        <ele>2418.1</ele>
        <time>2014-06-29T18:53:25Z</time>
        <sat>11</sat>
      </trkpt>
      <trkpt lat="37.769563" lon="-119.015078">
        <ele>2418.4</ele>
        <time>2014-06-29T18:53:31Z</time>
        <sat>10</sat>
      </trkpt>
      <trkpt lat="37.769537" lon="-119.015192">
        <ele>2418.8</ele>
        <time>2014-06-29T18:53:36Z</time>
        <sat>10</sat>
      </trkpt>
      <trkpt lat="37.769577" lon="-119.015313">
        <ele>2419.2</ele>
        <time>2014-06-29T18:53:41Z</time>
        <sat>10</sat>
      </trkpt>
      <trkpt lat="37.769562" lon="-119.015442">
        <ele>2419.5</ele>
        <time>2014-06-29T18:53:46Z</time>
        <sat>10</sat>
      </trkpt>
      <trkpt lat="37.769538" lon="-119.015552">
        <ele>2419.8</ele>
        <time>2014-06-29T18:53:50Z</time>
        <sat>9</sat>
      </trkpt>
      <trkpt lat="37.769513" lon="-119.015662">
        <ele>2419.9</ele>
        <time>2014-06-29T18:53:54Z</time>
        <sat>10</sat>
      </trkpt>
      <trkpt lat="37.769497" lon="-119.015803">
        <ele>2420.5</ele>
        <time>2014-06-29T18:53:59Z</time>
        <sat>8</sat>
      </trkpt>
      <trkpt lat="37.769490" lon="-119.015927">
        <ele>2420.9</ele>
        <time>2014-06-29T18:54:03Z</time>
        <sat>9</sat>
      </trkpt>
      <trkpt lat="37.769460" lon="-119.016057">
        <ele>2421.0</ele>
        <time>2014-06-29T18:54:07Z</time>
        <sat>11</sat>
      </trkpt>
      <trkpt lat="37.769430" lon="-119.016193">
        <ele>2421.0</ele>
        <time>2014-06-29T18:54:11Z</time>
        <sat>9</sat>
      </trkpt>
      <trkpt lat="37.769397" lon="-119.016312">
        <ele>2421.2</ele>
        <time>2014-06-29T18:54:15Z</time>
        <sat>11</sat>
      </trkpt>
      <trkpt lat="37.769307" lon="-119.016562">
        <ele>2421.9</ele>
        <time>2014-06-29T18:54:23Z</time>
        <sat>10</sat>
      </trkpt>
      <trkpt lat="37.769265" lon="-119.016680">
        <ele>2422.1</ele>
        <time>2014-06-29T18:54:27Z</time>
        <sat>11</sat>
      </trkpt>
      <trkpt lat="37.769228" lon="-119.016805">
        <ele>2422.2</ele>
        <time>2014-06-29T18:54:31Z</time>
        <sat>11</sat>
      </trkpt>
      <trkpt lat="37.769212" lon="-119.016943">
        <ele>2422.4</ele>
        <time>2014-06-29T18:54:35Z</time>
        <sat>11</sat>
      </trkpt>
      <trkpt lat="37.769193" lon="-119.017078">
        <ele>2422.1</ele>
        <time>2014-06-29T18:54:39Z</time>
        <sat>11</sat>
      </trkpt>
      <trkpt lat="37.769170" lon="-119.017212">
        <ele>2422.2</ele>
        <time>2014-06-29T18:54:43Z</time>
        <sat>11</sat>
      </trkpt>
      <trkpt lat="37.769138" lon="-119.017343">
        <ele>2422.4</ele>
        <time>2014-06-29T18:54:47Z</time>
        <sat>10</sat>
      </trkpt>
      <trkpt lat="37.769105" lon="-119.017473">
        <ele>2422.5</ele>
        <time>2014-06-29T18:54:51Z</time>
        <sat>11</sat>
      </trkpt>
      <trkpt lat="37.769082" lon="-119.017607">
        <ele>2422.3</ele>
        <time>2014-06-29T18:54:55Z</time>
        <sat>11</sat>
      </trkpt>
      <trkpt lat="37.769060" lon="-119.017738">
        <ele>2422.8</ele>
        <time>2014-06-29T18:55:00Z</time>
        <sat>11</sat>
      </trkpt>
      <trkpt lat="37.769030" lon="-119.017867">
        <ele>2423.0</ele>
        <time>2014-06-29T18:55:04Z</time>
        <sat>11</sat>
      </trkpt>
      <trkpt lat="37.768998" lon="-119.017992">
        <ele>2423.1</ele>
        <time>2014-06-29T18:55:08Z</time>
        <sat>10</sat>
      </trkpt>
      <trkpt lat="37.768992" lon="-119.018127">
        <ele>2423.3</ele>
        <time>2014-06-29T18:55:12Z</time>
        <sat>11</sat>
      </trkpt>
      <trkpt lat="37.768968" lon="-119.018262">
        <ele>2423.4</ele>
        <time>2014-06-29T18:55:16Z</time>
        <sat>10</sat>
      </trkpt>
      <trkpt lat="37.768943" lon="-119.018407">
        <ele>2423.6</ele>
        <time>2014-06-29T18:55:20Z</time>
        <sat>11</sat>
      </trkpt>
      <trkpt lat="37.768893" lon="-119.018648">
        <ele>2423.5</ele>
        <time>2014-06-29T18:55:28Z</time>
        <sat>10</sat>
      </trkpt>
      <trkpt lat="37.768873" lon="-119.018772">
        <ele>2423.9</ele>
        <time>2014-06-29T18:55:32Z</time>
        <sat>10</sat>
      </trkpt>
      <trkpt lat="37.768842" lon="-119.018918">
        <ele>2424.3</ele>
        <time>2014-06-29T18:55:36Z</time>
        <sat>10</sat>
      </trkpt>
      <trkpt lat="37.768837" lon="-119.019062">
        <ele>2424.5</ele>
        <time>2014-06-29T18:55:40Z</time>
        <sat>11</sat>
      </trkpt>
      <trkpt lat="37.768828" lon="-119.019195">
        <ele>2424.7</ele>
        <time>2014-06-29T18:55:44Z</time>
        <sat>10</sat>
      </trkpt>
      <trkpt lat="37.768815" lon="-119.019330">
        <ele>2425.2</ele>
        <time>2014-06-29T18:55:49Z</time>
        <sat>10</sat>
      </trkpt>
      <trkpt lat="37.768777" lon="-119.019447">
        <ele>2425.7</ele>
        <time>2014-06-29T18:55:54Z</time>
        <sat>10</sat>
      </trkpt>
      <trkpt lat="37.768763" lon="-119.019570">
        <ele>2426.3</ele>
        <time>2014-06-29T18:56:00Z</time>
        <sat>10</sat>
      </trkpt>
      <trkpt lat="37.768753" lon="-119.019690">
        <ele>2427.4</ele>
        <time>2014-06-29T18:56:06Z</time>
        <sat>10</sat>
      </trkpt>
      <trkpt lat="37.768760" lon="-119.019805">
        <ele>2428.8</ele>
        <time>2014-06-29T18:56:14Z</time>
        <sat>10</sat>
      </trkpt>
      <trkpt lat="37.768727" lon="-119.019912">
        <ele>2435.0</ele>
        <time>2014-06-29T18:56:53Z</time>
        <sat>10</sat>
      </trkpt>
      <trkpt lat="37.768665" lon="-119.020178">
        <ele>2435.7</ele>
        <time>2014-06-29T18:57:01Z</time>
        <sat>10</sat>
      </trkpt>
      <trkpt lat="37.768625" lon="-119.020288">
        <ele>2436.3</ele>
        <time>2014-06-29T18:57:06Z</time>
        <sat>10</sat>
      </trkpt>
      <trkpt lat="37.768597" lon="-119.020397">
        <ele>2436.8</ele>
        <time>2014-06-29T18:57:11Z</time>
        <sat>11</sat>
      </trkpt>
      <trkpt lat="37.768562" lon="-119.020507">
        <ele>2437.9</ele>
        <time>2014-06-29T18:57:18Z</time>
        <sat>10</sat>
      </trkpt>
      <trkpt lat="37.768510" lon="-119.020617">
        <ele>2438.3</ele>
        <time>2014-06-29T18:57:25Z</time>
        <sat>11</sat>
      </trkpt>
      <trkpt lat="37.768512" lon="-119.020735">
        <ele>2439.9</ele>
        <time>2014-06-29T18:57:35Z</time>
        <sat>11</sat>
      </trkpt>
      <trkpt lat="37.768488" lon="-119.020850">
        <ele>2441.6</ele>
        <time>2014-06-29T18:57:46Z</time>
        <sat>10</sat>
      </trkpt>
      <trkpt lat="37.768455" lon="-119.020965">
        <ele>2442.9</ele>
        <time>2014-06-29T18:57:58Z</time>
        <sat>10</sat>
      </trkpt>
      <trkpt lat="37.768452" lon="-119.021197">
        <ele>2444.3</ele>
        <time>2014-06-29T18:58:14Z</time>
        <sat>10</sat>
      </trkpt>
      <trkpt lat="37.768500" lon="-119.021303">
        <ele>2445.2</ele>
        <time>2014-06-29T18:58:21Z</time>
        <sat>11</sat>
      </trkpt>
      <trkpt lat="37.768563" lon="-119.021392">
        <ele>2447.2</ele>
        <time>2014-06-29T18:58:28Z</time>
        <sat>11</sat>
      </trkpt>
      <trkpt lat="37.768642" lon="-119.021478">
        <ele>2448.4</ele>
        <time>2014-06-29T18:58:34Z</time>
        <sat>11</sat>
      </trkpt>
      <trkpt lat="37.768717" lon="-119.021553">
        <ele>2449.4</ele>
        <time>2014-06-29T18:58:41Z</time>
        <sat>11</sat>
      </trkpt>
      <trkpt lat="37.768813" lon="-119.021598">
        <ele>2450.8</ele>
        <time>2014-06-29T18:59:15Z</time>
        <sat>10</sat>
      </trkpt>
      <trkpt lat="37.768747" lon="-119.021813">
        <ele>2452.7</ele>
        <time>2014-06-29T18:59:32Z</time>
        <sat>11</sat>
      </trkpt>
      <trkpt lat="37.768673" lon="-119.021903">
        <ele>2453.3</ele>
        <time>2014-06-29T18:59:39Z</time>
        <sat>11</sat>
      </trkpt>
      <trkpt lat="37.768615" lon="-119.022003">
        <ele>2454.0</ele>
        <time>2014-06-29T18:59:45Z</time>
        <sat>11</sat>
      </trkpt>
      <trkpt lat="37.768552" lon="-119.022118">
        <ele>2455.0</ele>
        <time>2014-06-29T18:59:51Z</time>
        <sat>11</sat>
      </trkpt>
      <trkpt lat="37.768488" lon="-119.022225">
        <ele>2455.1</ele>
        <time>2014-06-29T18:59:56Z</time>
        <sat>11</sat>
      </trkpt>
      <trkpt lat="37.768448" lon="-119.022348">
        <ele>2456.1</ele>
        <time>2014-06-29T19:00:01Z</time>
        <sat>10</sat>
      </trkpt>
      <trkpt lat="37.768407" lon="-119.022465">
        <ele>2456.3</ele>
        <time>2014-06-29T19:00:06Z</time>
        <sat>11</sat>
      </trkpt>
      <trkpt lat="37.768365" lon="-119.022568">
        <ele>2456.5</ele>
        <time>2014-06-29T19:00:11Z</time>
        <sat>11</sat>
      </trkpt>
      <trkpt lat="37.768318" lon="-119.022697">
        <ele>2456.8</ele>
        <time>2014-06-29T19:00:16Z</time>
        <sat>11</sat>
      </trkpt>
      <trkpt lat="37.768267" lon="-119.022828">
        <ele>2456.7</ele>
        <time>2014-06-29T19:00:20Z</time>
        <sat>11</sat>
      </trkpt>
      <trkpt lat="37.768185" lon="-119.023048">
        <ele>2456.7</ele>
        <time>2014-06-29T19:00:26Z</time>
        <sat>11</sat>
      </trkpt>
      <trkpt lat="37.768142" lon="-119.023152">
        <ele>2456.9</ele>
        <time>2014-06-29T19:00:29Z</time>
        <sat>11</sat>
      </trkpt>
      <trkpt lat="37.768088" lon="-119.023277">
        <ele>2457.0</ele>
        <time>2014-06-29T19:00:33Z</time>
        <sat>10</sat>
      </trkpt>
      <trkpt lat="37.768017" lon="-119.023378">
        <ele>2457.3</ele>
        <time>2014-06-29T19:00:37Z</time>
        <sat>10</sat>
      </trkpt>
      <trkpt lat="37.767945" lon="-119.023483">
        <ele>2457.7</ele>
        <time>2014-06-29T19:00:41Z</time>
        <sat>11</sat>
      </trkpt>
      <trkpt lat="37.767872" lon="-119.023583">
        <ele>2457.8</ele>
        <time>2014-06-29T19:00:45Z</time>
        <sat>10</sat>
      </trkpt>
      <trkpt lat="37.767812" lon="-119.023685">
        <ele>2458.6</ele>
        <time>2014-06-29T19:00:49Z</time>
        <sat>11</sat>
      </trkpt>
      <trkpt lat="37.767760" lon="-119.023790">
        <ele>2459.1</ele>
        <time>2014-06-29T19:00:53Z</time>
        <sat>10</sat>
      </trkpt>
      <trkpt lat="37.767707" lon="-119.023908">
        <ele>2459.7</ele>
        <time>2014-06-29T19:00:58Z</time>
        <sat>11</sat>
      </trkpt>
      <trkpt lat="37.767665" lon="-119.024013">
        <ele>2460.2</ele>
        <time>2014-06-29T19:01:02Z</time>
        <sat>11</sat>
      </trkpt>
      <trkpt lat="37.767617" lon="-119.024142">
        <ele>2460.5</ele>
        <time>2014-06-29T19:01:07Z</time>
        <sat>11</sat>
      </trkpt>
      <trkpt lat="37.767567" lon="-119.024253">
        <ele>2461.3</ele>
        <time>2014-06-29T19:01:12Z</time>
        <sat>9</sat>
      </trkpt>
      <trkpt lat="37.767510" lon="-119.024373">
        <ele>2462.1</ele>
        <time>2014-06-29T19:01:17Z</time>
        <sat>11</sat>
      </trkpt>
      <trkpt lat="37.767447" lon="-119.024490">
        <ele>2463.0</ele>
        <time>2014-06-29T19:01:22Z</time>
        <sat>11</sat>
      </trkpt>
      <trkpt lat="37.767350" lon="-119.024728">
        <ele>2463.8</ele>
        <time>2014-06-29T19:01:32Z</time>
        <sat>11</sat>
      </trkpt>
      <trkpt lat="37.767290" lon="-119.024842">
        <ele>2464.3</ele>
        <time>2014-06-29T19:01:37Z</time>
        <sat>12</sat>
      </trkpt>
      <trkpt lat="37.767230" lon="-119.024942">
        <ele>2464.7</ele>
        <time>2014-06-29T19:01:42Z</time>
        <sat>10</sat>
      </trkpt>
      <trkpt lat="37.767182" lon="-119.025040">
        <ele>2465.3</ele>
        <time>2014-06-29T19:01:46Z</time>
        <sat>11</sat>
      </trkpt>
      <trkpt lat="37.767115" lon="-119.025125">
        <ele>2465.7</ele>
        <time>2014-06-29T19:01:50Z</time>
        <sat>11</sat>
      </trkpt>
      <trkpt lat="37.767037" lon="-119.025212">
        <ele>2466.6</ele>
        <time>2014-06-29T19:01:55Z</time>
        <sat>11</sat>
      </trkpt>
      <trkpt lat="37.766965" lon="-119.025285">
        <ele>2467.4</ele>
        <time>2014-06-29T19:02:00Z</time>
        <sat>10</sat>
      </trkpt>
      <trkpt lat="37.766885" lon="-119.025358">
        <ele>2467.8</ele>
        <time>2014-06-29T19:02:05Z</time>
        <sat>10</sat>
      </trkpt>
      <trkpt lat="37.766805" lon="-119.025430">
        <ele>2469.1</ele>
        <time>2014-06-29T19:02:11Z</time>
        <sat>10</sat>
      </trkpt>
      <trkpt lat="37.766732" lon="-119.025527">
        <ele>2469.7</ele>
        <time>2014-06-29T19:02:17Z</time>
        <sat>10</sat>
      </trkpt>
      <trkpt lat="37.766665" lon="-119.025632">
        <ele>2470.4</ele>
        <time>2014-06-29T19:02:23Z</time>
        <sat>10</sat>
      </trkpt>
      <trkpt lat="37.766543" lon="-119.025823">
        <ele>2471.8</ele>
        <time>2014-06-29T19:02:33Z</time>
        <sat>10</sat>
      </trkpt>
      <trkpt lat="37.766500" lon="-119.025930">
        <ele>2471.9</ele>
        <time>2014-06-29T19:02:38Z</time>
        <sat>10</sat>
      </trkpt>
      <trkpt lat="37.766467" lon="-119.026042">
        <ele>2472.5</ele>
        <time>2014-06-29T19:02:43Z</time>
        <sat>10</sat>
      </trkpt>
      <trkpt lat="37.766423" lon="-119.026168">
        <ele>2473.0</ele>
        <time>2014-06-29T19:02:48Z</time>
        <sat>10</sat>
      </trkpt>
      <trkpt lat="37.766367" lon="-119.026267">
        <ele>2473.1</ele>
        <time>2014-06-29T19:02:52Z</time>
        <sat>10</sat>
      </trkpt>
      <trkpt lat="37.766305" lon="-119.026370">
        <ele>2473.6</ele>
        <time>2014-06-29T19:02:56Z</time>
        <sat>10</sat>
      </trkpt>
      <trkpt lat="37.766237" lon="-119.026470">
        <ele>2474.0</ele>
        <time>2014-06-29T19:03:01Z</time>
        <sat>10</sat>
      </trkpt>
      <trkpt lat="37.766175" lon="-119.026573">
        <ele>2474.3</ele>
        <time>2014-06-29T19:03:06Z</time>
        <sat>10</sat>
      </trkpt>
      <trkpt lat="37.766110" lon="-119.026653">
        <ele>2475.0</ele>
        <time>2014-06-29T19:03:10Z</time>
        <sat>10</sat>
      </trkpt>
      <trkpt lat="37.766055" lon="-119.026748">
        <ele>2475.5</ele>
        <time>2014-06-29T19:03:14Z</time>
        <sat>10</sat>
      </trkpt>
      <trkpt lat="37.765992" lon="-119.026835">
        <ele>2476.0</ele>
        <time>2014-06-29T19:03:18Z</time>
        <sat>10</sat>
      </trkpt>
      <trkpt lat="37.765938" lon="-119.026932">
        <ele>2476.6</ele>
        <time>2014-06-29T19:03:23Z</time>
        <sat>10</sat>
      </trkpt>
      <trkpt lat="37.765868" lon="-119.027037">
        <ele>2477.0</ele>
        <time>2014-06-29T19:03:28Z</time>
        <sat>10</sat>
      </trkpt>
      <trkpt lat="37.765738" lon="-119.027223">
        <ele>2478.7</ele>
        <time>2014-06-29T19:03:38Z</time>
        <sat>10</sat>
      </trkpt>
      <trkpt lat="37.765658" lon="-119.027302">
        <ele>2479.2</ele>
        <time>2014-06-29T19:03:43Z</time>
        <sat>10</sat>
      </trkpt>
      <trkpt lat="37.765580" lon="-119.027365">
        <ele>2479.8</ele>
        <time>2014-06-29T19:03:47Z</time>
        <sat>10</sat>
      </trkpt>
      <trkpt lat="37.765500" lon="-119.027432">
        <ele>2480.3</ele>
        <time>2014-06-29T19:03:51Z</time>
        <sat>10</sat>
      </trkpt>
      <trkpt lat="37.765397" lon="-119.027470">
        <ele>2480.8</ele>
        <time>2014-06-29T19:03:56Z</time>
        <sat>9</sat>
      </trkpt>
      <trkpt lat="37.765300" lon="-119.027435">
        <ele>2481.3</ele>
        <time>2014-06-29T19:04:00Z</time>
        <sat>9</sat>
      </trkpt>
      <trkpt lat="37.765237" lon="-119.027352">
        <ele>2482.5</ele>
        <time>2014-06-29T19:04:05Z</time>
        <sat>9</sat>
      </trkpt>
      <trkpt lat="37.765187" lon="-119.027248">
        <ele>2483.1</ele>
        <time>2014-06-29T19:04:11Z</time>
        <sat>9</sat>
      </trkpt>
      <trkpt lat="37.765155" lon="-119.027128">
        <ele>2484.2</ele>
        <time>2014-06-29T19:04:18Z</time>
        <sat>9</sat>
      </trkpt>
      <trkpt lat="37.765135" lon="-119.027015">
        <ele>2485.0</ele>
        <time>2014-06-29T19:04:23Z</time>
        <sat>9</sat>
      </trkpt>
      <trkpt lat="37.765110" lon="-119.026888">
        <ele>2485.8</ele>
        <time>2014-06-29T19:04:28Z</time>
        <sat>9</sat>
      </trkpt>
      <trkpt lat="37.765085" lon="-119.026775">
        <ele>2486.2</ele>
        <time>2014-06-29T19:04:33Z</time>
        <sat>9</sat>
      </trkpt>
      <trkpt lat="37.765038" lon="-119.026545">
        <ele>2487.6</ele>
        <time>2014-06-29T19:04:46Z</time>
        <sat>9</sat>
      </trkpt>
      <trkpt lat="37.765007" lon="-119.026427">
        <ele>2488.5</ele>
        <time>2014-06-29T19:04:53Z</time>
        <sat>9</sat>
      </trkpt>
      <trkpt lat="37.764973" lon="-119.026302">
        <ele>2489.7</ele>
        <time>2014-06-29T19:04:59Z</time>
        <sat>9</sat>
      </trkpt>
      <trkpt lat="37.764937" lon="-119.026193">
        <ele>2490.4</ele>
        <time>2014-06-29T19:05:04Z</time>
        <sat>9</sat>
      </trkpt>
      <trkpt lat="37.764875" lon="-119.026093">
        <ele>2491.5</ele>
        <time>2014-06-29T19:05:11Z</time>
        <sat>9</sat>
      </trkpt>
      <trkpt lat="37.764790" lon="-119.026033">
        <ele>2492.6</ele>
        <time>2014-06-29T19:05:17Z</time>
        <sat>9</sat>
      </trkpt>
      <trkpt lat="37.764698" lon="-119.025987">
        <ele>2493.5</ele>
        <time>2014-06-29T19:05:24Z</time>
        <sat>8</sat>
      </trkpt>
      <trkpt lat="37.764603" lon="-119.025955">
        <ele>2494.2</ele>
        <time>2014-06-29T19:05:30Z</time>
        <sat>9</sat>
      </trkpt>
      <trkpt lat="37.764502" lon="-119.025935">
        <ele>2495.5</ele>
        <time>2014-06-29T19:05:36Z</time>
        <sat>9</sat>
      </trkpt>
      <trkpt lat="37.764302" lon="-119.025977">
        <ele>2496.8</ele>
        <time>2014-06-29T19:05:48Z</time>
        <sat>8</sat>
      </trkpt>
      <trkpt lat="37.764210" lon="-119.026010">
        <ele>2497.7</ele>
        <time>2014-06-29T19:05:54Z</time>
        <sat>9</sat>
      </trkpt>
      <trkpt lat="37.764123" lon="-119.026053">
        <ele>2498.7</ele>
        <time>2014-06-29T19:06:00Z</time>
        <sat>9</sat>
      </trkpt>
      <trkpt lat="37.764025" lon="-119.026098">
        <ele>2499.5</ele>
        <time>2014-06-29T19:06:06Z</time>
        <sat>9</sat>
      </trkpt>
      <trkpt lat="37.763940" lon="-119.026155">
        <ele>2500.4</ele>
        <time>2014-06-29T19:06:12Z</time>
        <sat>9</sat>
      </trkpt>
      <trkpt lat="37.763855" lon="-119.026213">
        <ele>2501.1</ele>
        <time>2014-06-29T19:06:18Z</time>
        <sat>9</sat>
      </trkpt>
      <trkpt lat="37.763765" lon="-119.026278">
        <ele>2501.3</ele>
        <time>2014-06-29T19:06:24Z</time>
        <sat>9</sat>
      </trkpt>
      <trkpt lat="37.763682" lon="-119.026353">
        <ele>2501.8</ele>
        <time>2014-06-29T19:06:30Z</time>
        <sat>8</sat>
      </trkpt>
      <trkpt lat="37.763592" lon="-119.026405">
        <ele>2502.6</ele>
        <time>2014-06-29T19:06:35Z</time>
        <sat>9</sat>
      </trkpt>
      <trkpt lat="37.763502" lon="-119.026470">
        <ele>2503.6</ele>
        <time>2014-06-29T19:06:41Z</time>
        <sat>8</sat>
      </trkpt>
      <trkpt lat="37.763318" lon="-119.026563">
        <ele>2505.2</ele>
        <time>2014-06-29T19:06:52Z</time>
        <sat>9</sat>
      </trkpt>
      <trkpt lat="37.763230" lon="-119.026613">
        <ele>2505.5</ele>
        <time>2014-06-29T19:06:57Z</time>
        <sat>8</sat>
      </trkpt>
      <trkpt lat="37.763128" lon="-119.026655">
        <ele>2505.9</ele>
        <time>2014-06-29T19:07:02Z</time>
        <sat>9</sat>
      </trkpt>
      <trkpt lat="37.763025" lon="-119.026703">
        <ele>2506.4</ele>
        <time>2014-06-29T19:07:07Z</time>
        <sat>8</sat>
      </trkpt>
      <trkpt lat="37.762937" lon="-119.026738">
        <ele>2506.6</ele>
        <time>2014-06-29T19:07:11Z</time>
        <sat>9</sat>
      </trkpt>
      <trkpt lat="37.762835" lon="-119.026775">
        <ele>2507.1</ele>
        <time>2014-06-29T19:07:16Z</time>
        <sat>7</sat>
      </trkpt>
      <trkpt lat="37.762727" lon="-119.026803">
        <ele>2507.8</ele>
        <time>2014-06-29T19:07:21Z</time>
        <sat>8</sat>
      </trkpt>
      <trkpt lat="37.762630" lon="-119.026833">
        <ele>2508.7</ele>
        <time>2014-06-29T19:07:26Z</time>
        <sat>9</sat>
      </trkpt>
      <trkpt lat="37.762527" lon="-119.026860">
        <ele>2509.2</ele>
        <time>2014-06-29T19:07:31Z</time>
        <sat>7</sat>
      </trkpt>
      <trkpt lat="37.762417" lon="-119.026883">
        <ele>2509.9</ele>
        <time>2014-06-29T19:07:36Z</time>
        <sat>7</sat>
      </trkpt>
      <trkpt lat="37.762328" lon="-119.026923">
        <ele>2510.0</ele>
        <time>2014-06-29T19:07:40Z</time>
        <sat>8</sat>
      </trkpt>
      <trkpt lat="37.762237" lon="-119.026970">
        <ele>2510.3</ele>
        <time>2014-06-29T19:07:44Z</time>
        <sat>9</sat>
      </trkpt>
      <trkpt lat="37.762038" lon="-119.027085">
        <ele>2509.8</ele>
        <time>2014-06-29T19:07:52Z</time>
        <sat>7</sat>
      </trkpt>
      <trkpt lat="37.761935" lon="-119.027143">
        <ele>2510.0</ele>
        <time>2014-06-29T19:07:56Z</time>
        <sat>8</sat>
      </trkpt>
      <trkpt lat="37.761842" lon="-119.027190">
        <ele>2509.9</ele>
        <time>2014-06-29T19:07:59Z</time>
        <sat>9</sat>
      </trkpt>
      <trkpt lat="37.761753" lon="-119.027223">
        <ele>2510.1</ele>
        <time>2014-06-29T19:08:02Z</time>
        <sat>8</sat>
      </trkpt>
      <trkpt lat="37.761657" lon="-119.027258">
        <ele>2510.3</ele>
        <time>2014-06-29T19:08:05Z</time>
        <sat>8</sat>
      </trkpt>
      <trkpt lat="37.761548" lon="-119.027300">
        <ele>2510.5</ele>
        <time>2014-06-29T19:08:09Z</time>
        <sat>8</sat>
      </trkpt>
      <trkpt lat="37.761453" lon="-119.027342">
        <ele>2511.0</ele>
        <time>2014-06-29T19:08:13Z</time>
        <sat>8</sat>
      </trkpt>
      <trkpt lat="37.761365" lon="-119.027377">
        <ele>2511.4</ele>
        <time>2014-06-29T19:08:17Z</time>
        <sat>8</sat>
      </trkpt>
      <trkpt lat="37.761277" lon="-119.027412">
        <ele>2511.8</ele>
        <time>2014-06-29T19:08:21Z</time>
        <sat>8</sat>
      </trkpt>
      <trkpt lat="37.761188" lon="-119.027440">
        <ele>2512.5</ele>
        <time>2014-06-29T19:08:25Z</time>
        <sat>8</sat>
      </trkpt>
      <trkpt lat="37.761088" lon="-119.027465">
        <ele>2512.9</ele>
        <time>2014-06-29T19:08:30Z</time>
        <sat>8</sat>
      </trkpt>
      <trkpt lat="37.760995" lon="-119.027497">
        <ele>2513.6</ele>
        <time>2014-06-29T19:08:35Z</time>
        <sat>8</sat>
      </trkpt>
      <trkpt lat="37.760902" lon="-119.027532">
        <ele>2514.1</ele>
        <time>2014-06-29T19:08:40Z</time>
        <sat>8</sat>
      </trkpt>
      <trkpt lat="37.760805" lon="-119.027563">
        <ele>2514.5</ele>
        <time>2014-06-29T19:08:45Z</time>
        <sat>8</sat>
      </trkpt>
      <trkpt lat="37.760702" lon="-119.027593">
        <ele>2514.7</ele>
        <time>2014-06-29T19:08:50Z</time>
        <sat>7</sat>
      </trkpt>
      <trkpt lat="37.760505" lon="-119.027633">
        <ele>2515.7</ele>
        <time>2014-06-29T19:08:58Z</time>
        <sat>7</sat>
      </trkpt>
      <trkpt lat="37.760405" lon="-119.027655">
        <ele>2516.5</ele>
        <time>2014-06-29T19:09:02Z</time>
        <sat>8</sat>
      </trkpt>
      <trkpt lat="37.760302" lon="-119.027675">
        <ele>2516.5</ele>
        <time>2014-06-29T19:09:06Z</time>
        <sat>7</sat>
      </trkpt>
      <trkpt lat="37.760198" lon="-119.027695">
        <ele>2516.2</ele>
        <time>2014-06-29T19:09:10Z</time>
        <sat>8</sat>
      </trkpt>
      <trkpt lat="37.760105" lon="-119.027722">
        <ele>2516.4</ele>
        <time>2014-06-29T19:09:15Z</time>
        <sat>8</sat>
      </trkpt>
      <trkpt lat="37.760017" lon="-119.027748">
        <ele>2516.2</ele>
        <time>2014-06-29T19:09:20Z</time>
        <sat>8</sat>
      </trkpt>
      <trkpt lat="37.759907" lon="-119.027792">
        <ele>2516.6</ele>
        <time>2014-06-29T19:09:24Z</time>
        <sat>8</sat>
      </trkpt>
      <trkpt lat="37.759812" lon="-119.027817">
        <ele>2516.5</ele>
        <time>2014-06-29T19:09:27Z</time>
        <sat>8</sat>
      </trkpt>
      <trkpt lat="37.759712" lon="-119.027847">
        <ele>2516.6</ele>
        <time>2014-06-29T19:09:30Z</time>
        <sat>8</sat>
      </trkpt>
      <trkpt lat="37.759615" lon="-119.027877">
        <ele>2516.7</ele>
        <time>2014-06-29T19:09:33Z</time>
        <sat>8</sat>
      </trkpt>
      <trkpt lat="37.759512" lon="-119.027895">
        <ele>2516.9</ele>
        <time>2014-06-29T19:09:36Z</time>
        <sat>8</sat>
      </trkpt>
      <trkpt lat="37.759413" lon="-119.027930">
        <ele>2516.7</ele>
        <time>2014-06-29T19:09:39Z</time>
        <sat>8</sat>
      </trkpt>
      <trkpt lat="37.759312" lon="-119.027950">
        <ele>2517.0</ele>
        <time>2014-06-29T19:09:42Z</time>
        <sat>7</sat>
      </trkpt>
      <trkpt lat="37.759197" lon="-119.027970">
        <ele>2516.6</ele>
        <time>2014-06-29T19:09:45Z</time>
        <sat>8</sat>
      </trkpt>
      <trkpt lat="37.759090" lon="-119.027993">
        <ele>2517.0</ele>
        <time>2014-06-29T19:09:48Z</time>
        <sat>8</sat>
      </trkpt>
      <trkpt lat="37.758997" lon="-119.028015">
        <ele>2517.6</ele>
        <time>2014-06-29T19:09:51Z</time>
        <sat>8</sat>
      </trkpt>
      <trkpt lat="37.758763" lon="-119.028077">
        <ele>2518.4</ele>
        <time>2014-06-29T19:09:59Z</time>
        <sat>9</sat>
      </trkpt>
      <trkpt lat="37.758652" lon="-119.028107">
        <ele>2518.7</ele>
        <time>2014-06-29T19:10:03Z</time>
        <sat>9</sat>
      </trkpt>
      <trkpt lat="37.758562" lon="-119.028113">
        <ele>2519.1</ele>
        <time>2014-06-29T19:10:08Z</time>
        <sat>9</sat>
      </trkpt>
      <trkpt lat="37.758440" lon="-119.028102">
        <ele>2519.5</ele>
        <time>2014-06-29T19:12:46Z</time>
        <sat>9</sat>
      </trkpt>
      <trkpt lat="37.758262" lon="-119.028030">
        <ele>2519.6</ele>
        <time>2014-06-29T19:12:52Z</time>
        <sat>9</sat>
      </trkpt>
      <trkpt lat="37.758175" lon="-119.027938">
        <ele>2520.1</ele>
        <time>2014-06-29T19:12:56Z</time>
        <sat>9</sat>
      </trkpt>
      <trkpt lat="37.758120" lon="-119.027845">
        <ele>2521.0</ele>
        <time>2014-06-29T19:13:01Z</time>
        <sat>9</sat>
      </trkpt>
      <trkpt lat="37.758065" lon="-119.027735">
        <ele>2521.7</ele>
        <time>2014-06-29T19:13:06Z</time>
        <sat>9</sat>
      </trkpt>
      <trkpt lat="37.758005" lon="-119.027635">
        <ele>2522.3</ele>
        <time>2014-06-29T19:13:11Z</time>
        <sat>8</sat>
      </trkpt>
      <trkpt lat="37.757948" lon="-119.027515">
        <ele>2522.6</ele>
        <time>2014-06-29T19:13:16Z</time>
        <sat>9</sat>
      </trkpt>
      <trkpt lat="37.757893" lon="-119.027425">
        <ele>2522.7</ele>
        <time>2014-06-29T19:13:20Z</time>
        <sat>9</sat>
      </trkpt>
      <trkpt lat="37.757925" lon="-119.027550">
        <ele>2523.0</ele>
        <time>2014-06-29T19:13:31Z</time>
        <sat>9</sat>
      </trkpt>
      <trkpt lat="37.757970" lon="-119.027658">
        <ele>2523.4</ele>
        <time>2014-06-29T19:15:47Z</time>
        <sat>9</sat>
      </trkpt>
      <trkpt lat="37.758100" lon="-119.027890">
        <ele>2522.4</ele>
        <time>2014-06-29T19:15:54Z</time>
        <sat>9</sat>
      </trkpt>
      <trkpt lat="37.758188" lon="-119.028007">
        <ele>2521.9</ele>
        <time>2014-06-29T19:15:57Z</time>
        <sat>9</sat>
      </trkpt>
      <trkpt lat="37.758312" lon="-119.028053">
        <ele>2521.4</ele>
        <time>2014-06-29T19:16:00Z</time>
        <sat>9</sat>
      </trkpt>
      <trkpt lat="37.758402" lon="-119.028082">
        <ele>2521.1</ele>
        <time>2014-06-29T19:16:03Z</time>
        <sat>9</sat>
      </trkpt>
      <trkpt lat="37.758350" lon="-119.028178">
        <ele>2522.0</ele>
        <time>2014-06-29T19:16:12Z</time>
        <sat>9</sat>
      </trkpt>
      <trkpt lat="37.758265" lon="-119.028218">
        <ele>2523.4</ele>
        <time>2014-06-29T19:16:22Z</time>
        <sat>9</sat>
      </trkpt>
      <trkpt lat="37.758167" lon="-119.028210">
        <ele>2524.3</ele>
        <time>2014-06-29T19:16:30Z</time>
        <sat>9</sat>
      </trkpt>
      <trkpt lat="37.758085" lon="-119.028150">
        <ele>2525.0</ele>
        <time>2014-06-29T19:16:38Z</time>
        <sat>9</sat>
      </trkpt>
      <trkpt lat="37.758008" lon="-119.028083">
        <ele>2525.6</ele>
        <time>2014-06-29T19:16:45Z</time>
        <sat>9</sat>
      </trkpt>
      <trkpt lat="37.757938" lon="-119.028003">
        <ele>2526.4</ele>
        <time>2014-06-29T19:16:51Z</time>
        <sat>9</sat>
      </trkpt>
      <trkpt lat="37.757812" lon="-119.027803">
        <ele>2528.3</ele>
        <time>2014-06-29T19:17:05Z</time>
        <sat>10</sat>
      </trkpt>
      <trkpt lat="37.757743" lon="-119.027722">
        <ele>2528.6</ele>
        <time>2014-06-29T19:17:12Z</time>
        <sat>9</sat>
      </trkpt>
      <trkpt lat="37.757672" lon="-119.027635">
        <ele>2529.2</ele>
        <time>2014-06-29T19:17:18Z</time>
        <sat>10</sat>
      </trkpt>
      <trkpt lat="37.757603" lon="-119.027542">
        <ele>2530.1</ele>
        <time>2014-06-29T19:17:24Z</time>
        <sat>10</sat>
      </trkpt>
      <trkpt lat="37.757532" lon="-119.027467">
        <ele>2530.7</ele>
        <time>2014-06-29T19:17:30Z</time>
        <sat>10</sat>
      </trkpt>
      <trkpt lat="37.757463" lon="-119.027385">
        <ele>2531.3</ele>
        <time>2014-06-29T19:17:36Z</time>
        <sat>10</sat>
      </trkpt>
      <trkpt lat="37.757385" lon="-119.027300">
        <ele>2532.0</ele>
        <time>2014-06-29T19:17:42Z</time>
        <sat>10</sat>
      </trkpt>
      <trkpt lat="37.757303" lon="-119.027215">
        <ele>2532.4</ele>
        <time>2014-06-29T19:17:48Z</time>
        <sat>10</sat>
      </trkpt>
      <trkpt lat="37.757223" lon="-119.027153">
        <ele>2532.9</ele>
        <time>2014-06-29T19:17:54Z</time>
        <sat>10</sat>
      </trkpt>
      <trkpt lat="37.757027" lon="-119.027090">
        <ele>2533.8</ele>
        <time>2014-06-29T19:18:07Z</time>
        <sat>10</sat>
      </trkpt>
      <trkpt lat="37.756938" lon="-119.027127">
        <ele>2535.0</ele>
        <time>2014-06-29T19:18:14Z</time>
        <sat>10</sat>
      </trkpt>
      <trkpt lat="37.756867" lon="-119.027210">
        <ele>2536.5</ele>
        <time>2014-06-29T19:18:22Z</time>
        <sat>10</sat>
      </trkpt>
      <trkpt lat="37.756827" lon="-119.027323">
        <ele>2538.0</ele>
        <time>2014-06-29T19:18:30Z</time>
        <sat>10</sat>
      </trkpt>
      <trkpt lat="37.756808" lon="-119.027438">
        <ele>2539.3</ele>
        <time>2014-06-29T19:18:37Z</time>
        <sat>10</sat>
      </trkpt>
      <trkpt lat="37.756798" lon="-119.027567">
        <ele>2539.8</ele>
        <time>2014-06-29T19:18:44Z</time>
        <sat>10</sat>
      </trkpt>
      <trkpt lat="37.756798" lon="-119.027690">
        <ele>2540.1</ele>
        <time>2014-06-29T19:18:50Z</time>
        <sat>9</sat>
      </trkpt>
      <trkpt lat="37.756848" lon="-119.027797">
        <ele>2540.6</ele>
        <time>2014-06-29T19:18:55Z</time>
        <sat>9</sat>
      </trkpt>
      <trkpt lat="37.756870" lon="-119.027912">
        <ele>2541.1</ele>
        <time>2014-06-29T19:19:00Z</time>
        <sat>9</sat>
      </trkpt>
      <trkpt lat="37.756955" lon="-119.028133">
        <ele>2542.3</ele>
        <time>2014-06-29T19:19:10Z</time>
        <sat>9</sat>
      </trkpt>
      <trkpt lat="37.757028" lon="-119.028237">
        <ele>2541.8</ele>
        <time>2014-06-29T19:19:15Z</time>
        <sat>10</sat>
      </trkpt>
      <trkpt lat="37.757105" lon="-119.028340">
        <ele>2541.6</ele>
        <time>2014-06-29T19:19:19Z</time>
        <sat>9</sat>
      </trkpt>
      <trkpt lat="37.757185" lon="-119.028438">
        <ele>2541.6</ele>
        <time>2014-06-29T19:19:22Z</time>
        <sat>9</sat>
      </trkpt>
      <trkpt lat="37.757253" lon="-119.028537">
        <ele>2541.8</ele>
        <time>2014-06-29T19:19:25Z</time>
        <sat>9</sat>
      </trkpt>
      <trkpt lat="37.757327" lon="-119.028635">
        <ele>2541.7</ele>
        <time>2014-06-29T19:19:29Z</time>
        <sat>9</sat>
      </trkpt>
      <trkpt lat="37.757408" lon="-119.028700">
        <ele>2541.8</ele>
        <time>2014-06-29T19:19:32Z</time>
        <sat>9</sat>
      </trkpt>
      <trkpt lat="37.757510" lon="-119.028778">
        <ele>2542.0</ele>
        <time>2014-06-29T19:19:36Z</time>
        <sat>9</sat>
      </trkpt>
      <trkpt lat="37.757605" lon="-119.028825">
        <ele>2542.2</ele>
        <time>2014-06-29T19:19:39Z</time>
        <sat>9</sat>
      </trkpt>
      <trkpt lat="37.757698" lon="-119.028892">
        <ele>2542.4</ele>
        <time>2014-06-29T19:19:43Z</time>
        <sat>9</sat>
      </trkpt>
      <trkpt lat="37.757805" lon="-119.028950">
        <ele>2542.6</ele>
        <time>2014-06-29T19:19:47Z</time>
        <sat>9</sat>
      </trkpt>
      <trkpt lat="37.757898" lon="-119.028980">
        <ele>2542.5</ele>
        <time>2014-06-29T19:19:50Z</time>
        <sat>9</sat>
      </trkpt>
      <trkpt lat="37.758020" lon="-119.029018">
        <ele>2542.9</ele>
        <time>2014-06-29T19:19:54Z</time>
        <sat>9</sat>
      </trkpt>
      <trkpt lat="37.758120" lon="-119.029033">
        <ele>2543.0</ele>
        <time>2014-06-29T19:19:57Z</time>
        <sat>9</sat>
      </trkpt>
      <trkpt lat="37.758227" lon="-119.029060">
        <ele>2543.5</ele>
        <time>2014-06-29T19:20:01Z</time>
        <sat>9</sat>
      </trkpt>
      <trkpt lat="37.758427" lon="-119.029128">
        <ele>2544.5</ele>
        <time>2014-06-29T19:20:10Z</time>
        <sat>9</sat>
      </trkpt>
      <trkpt lat="37.758530" lon="-119.029158">
        <ele>2544.9</ele>
        <time>2014-06-29T19:20:15Z</time>
        <sat>9</sat>
      </trkpt>
      <trkpt lat="37.758623" lon="-119.029173">
        <ele>2545.2</ele>
        <time>2014-06-29T19:20:19Z</time>
        <sat>9</sat>
      </trkpt>
      <trkpt lat="37.758712" lon="-119.029217">
        <ele>2545.9</ele>
        <time>2014-06-29T19:20:24Z</time>
        <sat>9</sat>
      </trkpt>
      <trkpt lat="37.758810" lon="-119.029238">
        <ele>2546.9</ele>
        <time>2014-06-29T19:20:29Z</time>
        <sat>9</sat>
      </trkpt>
      <trkpt lat="37.758905" lon="-119.029257">
        <ele>2547.6</ele>
        <time>2014-06-29T19:20:35Z</time>
        <sat>9</sat>
      </trkpt>
      <trkpt lat="37.759000" lon="-119.029282">
        <ele>2548.3</ele>
        <time>2014-06-29T19:20:41Z</time>
        <sat>9</sat>
      </trkpt>
      <trkpt lat="37.759112" lon="-119.029303">
        <ele>2549.2</ele>
        <time>2014-06-29T19:20:47Z</time>
        <sat>9</sat>
      </trkpt>
      <trkpt lat="37.759203" lon="-119.029333">
        <ele>2549.7</ele>
        <time>2014-06-29T19:20:53Z</time>
        <sat>9</sat>
      </trkpt>
      <trkpt lat="37.759297" lon="-119.029353">
        <ele>2550.5</ele>
        <time>2014-06-29T19:20:58Z</time>
        <sat>9</sat>
      </trkpt>
      <trkpt lat="37.759380" lon="-119.029400">
        <ele>2551.6</ele>
        <time>2014-06-29T19:21:04Z</time>
        <sat>10</sat>
      </trkpt>
      <trkpt lat="37.759583" lon="-119.029490">
        <ele>2553.2</ele>
        <time>2014-06-29T19:21:17Z</time>
        <sat>10</sat>
      </trkpt>
      <trkpt lat="37.759677" lon="-119.029527">
        <ele>2553.9</ele>
        <time>2014-06-29T19:21:22Z</time>
        <sat>10</sat>
      </trkpt>
      <trkpt lat="37.759752" lon="-119.029595">
        <ele>2554.6</ele>
        <time>2014-06-29T19:21:28Z</time>
        <sat>10</sat>
      </trkpt>
      <trkpt lat="37.759842" lon="-119.029670">
        <ele>2555.4</ele>
        <time>2014-06-29T19:21:34Z</time>
        <sat>9</sat>
      </trkpt>
      <trkpt lat="37.759923" lon="-119.029748">
        <ele>2556.0</ele>
        <time>2014-06-29T19:21:40Z</time>
        <sat>10</sat>
      </trkpt>
      <trkpt lat="37.760003" lon="-119.029833">
        <ele>2556.6</ele>
        <time>2014-06-29T19:21:46Z</time>
        <sat>10</sat>
      </trkpt>
      <trkpt lat="37.760057" lon="-119.029947">
        <ele>2556.7</ele>
        <time>2014-06-29T19:21:52Z</time>
        <sat>10</sat>
      </trkpt>
      <trkpt lat="37.760110" lon="-119.030050">
        <ele>2557.3</ele>
        <time>2014-06-29T19:21:57Z</time>
        <sat>10</sat>
      </trkpt>
      <trkpt lat="37.760163" lon="-119.030163">
        <ele>2558.0</ele>
        <time>2014-06-29T19:22:03Z</time>
        <sat>10</sat>
      </trkpt>
      <trkpt lat="37.760227" lon="-119.030260">
        <ele>2558.6</ele>
        <time>2014-06-29T19:22:08Z</time>
        <sat>10</sat>
      </trkpt>
      <trkpt lat="37.760342" lon="-119.030447">
        <ele>2559.5</ele>
        <time>2014-06-29T19:22:18Z</time>
        <sat>10</sat>
      </trkpt>
      <trkpt lat="37.760397" lon="-119.030552">
        <ele>2560.8</ele>
        <time>2014-06-29T19:22:24Z</time>
        <sat>10</sat>
      </trkpt>
      <trkpt lat="37.760423" lon="-119.030672">
        <ele>2561.9</ele>
        <time>2014-06-29T19:22:31Z</time>
        <sat>10</sat>
      </trkpt>
      <trkpt lat="37.760463" lon="-119.030792">
        <ele>2562.8</ele>
        <time>2014-06-29T19:22:38Z</time>
        <sat>10</sat>
      </trkpt>
      <trkpt lat="37.760515" lon="-119.030898">
        <ele>2563.8</ele>
        <time>2014-06-29T19:22:44Z</time>
        <sat>10</sat>
      </trkpt>
      <trkpt lat="37.760572" lon="-119.031002">
        <ele>2564.1</ele>
        <time>2014-06-29T19:22:50Z</time>
        <sat>10</sat>
      </trkpt>
      <trkpt lat="37.760635" lon="-119.031112">
        <ele>2564.7</ele>
        <time>2014-06-29T19:22:56Z</time>
        <sat>10</sat>
      </trkpt>
      <trkpt lat="37.760695" lon="-119.031228">
        <ele>2565.5</ele>
        <time>2014-06-29T19:23:02Z</time>
        <sat>10</sat>
      </trkpt>
      <trkpt lat="37.760762" lon="-119.031312">
        <ele>2566.0</ele>
        <time>2014-06-29T19:23:07Z</time>
        <sat>10</sat>
      </trkpt>
      <trkpt lat="37.760815" lon="-119.031403">
        <ele>2567.0</ele>
        <time>2014-06-29T19:23:13Z</time>
        <sat>10</sat>
      </trkpt>
      <trkpt lat="37.760943" lon="-119.031600">
        <ele>2569.0</ele>
        <time>2014-06-29T19:23:27Z</time>
        <sat>10</sat>
      </trkpt>
      <trkpt lat="37.761022" lon="-119.031672">
        <ele>2569.4</ele>
        <time>2014-06-29T19:23:33Z</time>
        <sat>10</sat>
      </trkpt>
      <trkpt lat="37.761093" lon="-119.031752">
        <ele>2571.2</ele>
        <time>2014-06-29T19:25:58Z</time>
        <sat>10</sat>
      </trkpt>
      <trkpt lat="37.761240" lon="-119.031925">
        <ele>2573.4</ele>
        <time>2014-06-29T19:26:11Z</time>
        <sat>10</sat>
      </trkpt>
      <trkpt lat="37.761322" lon="-119.031998">
        <ele>2574.5</ele>
        <time>2014-06-29T19:26:17Z</time>
        <sat>10</sat>
      </trkpt>
      <trkpt lat="37.761410" lon="-119.032075">
        <ele>2575.5</ele>
        <time>2014-06-29T19:26:24Z</time>
        <sat>10</sat>
      </trkpt>
      <trkpt lat="37.761493" lon="-119.032157">
        <ele>2575.2</ele>
        <time>2014-06-29T19:26:30Z</time>
        <sat>10</sat>
      </trkpt>
      <trkpt lat="37.761568" lon="-119.032220">
        <ele>2575.7</ele>
        <time>2014-06-29T19:26:36Z</time>
        <sat>10</sat>
      </trkpt>
      <trkpt lat="37.761630" lon="-119.032315">
        <ele>2576.5</ele>
        <time>2014-06-29T19:26:43Z</time>
        <sat>10</sat>
      </trkpt>
      <trkpt lat="37.761698" lon="-119.032392">
        <ele>2577.2</ele>
        <time>2014-06-29T19:26:49Z</time>
        <sat>10</sat>
      </trkpt>
      <trkpt lat="37.761768" lon="-119.032482">
        <ele>2577.9</ele>
        <time>2014-06-29T19:26:55Z</time>
        <sat>10</sat>
      </trkpt>
      <trkpt lat="37.761840" lon="-119.032560">
        <ele>2578.7</ele>
        <time>2014-06-29T19:27:01Z</time>
        <sat>10</sat>
      </trkpt>
      <trkpt lat="37.761988" lon="-119.032705">
        <ele>2580.4</ele>
        <time>2014-06-29T19:27:14Z</time>
        <sat>10</sat>
      </trkpt>
      <trkpt lat="37.762052" lon="-119.032807">
        <ele>2581.5</ele>
        <time>2014-06-29T19:27:22Z</time>
        <sat>10</sat>
      </trkpt>
      <trkpt lat="37.762082" lon="-119.032923">
        <ele>2582.5</ele>
        <time>2014-06-29T19:27:30Z</time>
        <sat>10</sat>
      </trkpt>
      <trkpt lat="37.762083" lon="-119.033043">
        <ele>2583.9</ele>
        <time>2014-06-29T19:27:38Z</time>
        <sat>10</sat>
      </trkpt>
      <trkpt lat="37.762075" lon="-119.033163">
        <ele>2584.7</ele>
        <time>2014-06-29T19:27:45Z</time>
        <sat>10</sat>
      </trkpt>
      <trkpt lat="37.762068" lon="-119.033292">
        <ele>2585.6</ele>
        <time>2014-06-29T19:27:53Z</time>
        <sat>10</sat>
      </trkpt>
      <trkpt lat="37.762083" lon="-119.033417">
        <ele>2586.2</ele>
        <time>2014-06-29T19:28:00Z</time>
        <sat>10</sat>
      </trkpt>
      <trkpt lat="37.762110" lon="-119.033552">
        <ele>2587.2</ele>
        <time>2014-06-29T19:28:06Z</time>
        <sat>10</sat>
      </trkpt>
      <trkpt lat="37.762182" lon="-119.033787">
        <ele>2588.6</ele>
        <time>2014-06-29T19:28:18Z</time>
        <sat>10</sat>
      </trkpt>
      <trkpt lat="37.762233" lon="-119.033902">
        <ele>2589.7</ele>
        <time>2014-06-29T19:28:24Z</time>
        <sat>10</sat>
      </trkpt>
      <trkpt lat="37.762267" lon="-119.034015">
        <ele>2590.4</ele>
        <time>2014-06-29T19:28:30Z</time>
        <sat>9</sat>
      </trkpt>
      <trkpt lat="37.762298" lon="-119.034140">
        <ele>2590.8</ele>
        <time>2014-06-29T19:28:36Z</time>
        <sat>9</sat>
      </trkpt>
      <trkpt lat="37.762320" lon="-119.034252">
        <ele>2590.6</ele>
        <time>2014-06-29T19:28:40Z</time>
        <sat>9</sat>
      </trkpt>
      <trkpt lat="37.762338" lon="-119.034382">
        <ele>2590.7</ele>
        <time>2014-06-29T19:28:45Z</time>
        <sat>9</sat>
      </trkpt>
      <trkpt lat="37.762397" lon="-119.034487">
        <ele>2590.6</ele>
        <time>2014-06-29T19:28:49Z</time>
        <sat>9</sat>
      </trkpt>
      <trkpt lat="37.762457" lon="-119.034613">
        <ele>2590.7</ele>
        <time>2014-06-29T19:28:53Z</time>
        <sat>9</sat>
      </trkpt>
      <trkpt lat="37.762488" lon="-119.034723">
        <ele>2590.5</ele>
        <time>2014-06-29T19:28:56Z</time>
        <sat>9</sat>
      </trkpt>
      <trkpt lat="37.762525" lon="-119.034837">
        <ele>2590.4</ele>
        <time>2014-06-29T19:28:59Z</time>
        <sat>9</sat>
      </trkpt>
      <trkpt lat="37.762590" lon="-119.034947">
        <ele>2590.8</ele>
        <time>2014-06-29T19:29:03Z</time>
        <sat>9</sat>
      </trkpt>
      <trkpt lat="37.762648" lon="-119.035035">
        <ele>2591.8</ele>
        <time>2014-06-29T19:29:08Z</time>
        <sat>9</sat>
      </trkpt>
      <trkpt lat="37.762725" lon="-119.035248">
        <ele>2593.8</ele>
        <time>2014-06-29T19:29:19Z</time>
        <sat>9</sat>
      </trkpt>
      <trkpt lat="37.762780" lon="-119.035338">
        <ele>2594.5</ele>
        <time>2014-06-29T19:29:24Z</time>
        <sat>9</sat>
      </trkpt>
      <trkpt lat="37.762863" lon="-119.035415">
        <ele>2594.9</ele>
        <time>2014-06-29T19:29:29Z</time>
        <sat>9</sat>
      </trkpt>
      <trkpt lat="37.762955" lon="-119.035473">
        <ele>2595.5</ele>
        <time>2014-06-29T19:29:34Z</time>
        <sat>9</sat>
      </trkpt>
      <trkpt lat="37.763050" lon="-119.035503">
        <ele>2596.4</ele>
        <time>2014-06-29T19:29:39Z</time>
        <sat>9</sat>
      </trkpt>
      <trkpt lat="37.763150" lon="-119.035537">
        <ele>2597.0</ele>
        <time>2014-06-29T19:29:44Z</time>
        <sat>9</sat>
      </trkpt>
      <trkpt lat="37.763232" lon="-119.035607">
        <ele>2597.8</ele>
        <time>2014-06-29T19:29:50Z</time>
        <sat>9</sat>
      </trkpt>
      <trkpt lat="37.763292" lon="-119.035698">
        <ele>2598.6</ele>
        <time>2014-06-29T19:29:55Z</time>
        <sat>9</sat>
      </trkpt>
      <trkpt lat="37.763347" lon="-119.035793">
        <ele>2599.1</ele>
        <time>2014-06-29T19:30:00Z</time>
        <sat>9</sat>
      </trkpt>
      <trkpt lat="37.763382" lon="-119.035915">
        <ele>2600.0</ele>
        <time>2014-06-29T19:30:06Z</time>
        <sat>9</sat>
      </trkpt>
      <trkpt lat="37.763410" lon="-119.036032">
        <ele>2600.8</ele>
        <time>2014-06-29T19:30:12Z</time>
        <sat>9</sat>
      </trkpt>
      <trkpt lat="37.763488" lon="-119.036253">
        <ele>2602.5</ele>
        <time>2014-06-29T19:30:24Z</time>
        <sat>9</sat>
      </trkpt>
      <trkpt lat="37.763548" lon="-119.036355">
        <ele>2603.1</ele>
        <time>2014-06-29T19:30:30Z</time>
        <sat>9</sat>
      </trkpt>
      <trkpt lat="37.763620" lon="-119.036432">
        <ele>2603.6</ele>
        <time>2014-06-29T19:30:35Z</time>
        <sat>9</sat>
      </trkpt>
      <trkpt lat="37.763690" lon="-119.036510">
        <ele>2604.3</ele>
        <time>2014-06-29T19:30:40Z</time>
        <sat>9</sat>
      </trkpt>
      <trkpt lat="37.763773" lon="-119.036593">
        <ele>2605.2</ele>
        <time>2014-06-29T19:30:46Z</time>
        <sat>9</sat>
      </trkpt>
      <trkpt lat="37.763847" lon="-119.036687">
        <ele>2606.1</ele>
        <time>2014-06-29T19:30:52Z</time>
        <sat>9</sat>
      </trkpt>
      <trkpt lat="37.763928" lon="-119.036768">
        <ele>2606.9</ele>
        <time>2014-06-29T19:30:59Z</time>
        <sat>9</sat>
      </trkpt>
      <trkpt lat="37.764007" lon="-119.036838">
        <ele>2607.6</ele>
        <time>2014-06-29T19:31:05Z</time>
        <sat>9</sat>
      </trkpt>
      <trkpt lat="37.764073" lon="-119.036925">
        <ele>2608.3</ele>
        <time>2014-06-29T19:31:11Z</time>
        <sat>9</sat>
      </trkpt>
      <trkpt lat="37.764163" lon="-119.036988">
        <ele>2609.2</ele>
        <time>2014-06-29T19:31:17Z</time>
        <sat>9</sat>
      </trkpt>
      <trkpt lat="37.764367" lon="-119.037012">
        <ele>2610.2</ele>
        <time>2014-06-29T19:31:28Z</time>
        <sat>9</sat>
      </trkpt>
      <trkpt lat="37.764470" lon="-119.036992">
        <ele>2610.4</ele>
        <time>2014-06-29T19:31:33Z</time>
        <sat>9</sat>
      </trkpt>
      <trkpt lat="37.764572" lon="-119.036935">
        <ele>2610.1</ele>
        <time>2014-06-29T19:31:37Z</time>
        <sat>9</sat>
      </trkpt>
      <trkpt lat="37.764675" lon="-119.036895">
        <ele>2609.8</ele>
        <time>2014-06-29T19:31:40Z</time>
        <sat>9</sat>
      </trkpt>
      <trkpt lat="37.764788" lon="-119.036860">
        <ele>2609.0</ele>
        <time>2014-06-29T19:31:43Z</time>
        <sat>9</sat>
      </trkpt>
      <trkpt lat="37.764890" lon="-119.036843">
        <ele>2608.7</ele>
        <time>2014-06-29T19:31:46Z</time>
        <sat>9</sat>
      </trkpt>
      <trkpt lat="37.764992" lon="-119.036837">
        <ele>2608.6</ele>
        <time>2014-06-29T19:31:49Z</time>
        <sat>9</sat>
      </trkpt>
      <trkpt lat="37.765085" lon="-119.036837">
        <ele>2608.6</ele>
        <time>2014-06-29T19:31:52Z</time>
        <sat>9</sat>
      </trkpt>
      <trkpt lat="37.765198" lon="-119.036858">
        <ele>2608.4</ele>
        <time>2014-06-29T19:31:56Z</time>
        <sat>9</sat>
      </trkpt>
      <trkpt lat="37.765298" lon="-119.036868">
        <ele>2608.2</ele>
        <time>2014-06-29T19:31:59Z</time>
        <sat>9</sat>
      </trkpt>
      <trkpt lat="37.765398" lon="-119.036898">
        <ele>2608.2</ele>
        <time>2014-06-29T19:32:02Z</time>
        <sat>9</sat>
      </trkpt>
      <trkpt lat="37.765508" lon="-119.036952">
        <ele>2608.1</ele>
        <time>2014-06-29T19:32:06Z</time>
        <sat>9</sat>
      </trkpt>
      <trkpt lat="37.765597" lon="-119.036993">
        <ele>2608.0</ele>
        <time>2014-06-29T19:32:09Z</time>
        <sat>9</sat>
      </trkpt>
      <trkpt lat="37.765703" lon="-119.037048">
        <ele>2608.4</ele>
        <time>2014-06-29T19:32:12Z</time>
        <sat>9</sat>
      </trkpt>
      <trkpt lat="37.765807" lon="-119.037108">
        <ele>2608.5</ele>
        <time>2014-06-29T19:32:15Z</time>
        <sat>9</sat>
      </trkpt>
      <trkpt lat="37.765893" lon="-119.037152">
        <ele>2608.3</ele>
        <time>2014-06-29T19:32:18Z</time>
        <sat>9</sat>
      </trkpt>
      <trkpt lat="37.766080" lon="-119.037295">
        <ele>2609.1</ele>
        <time>2014-06-29T19:32:26Z</time>
        <sat>9</sat>
      </trkpt>
      <trkpt lat="37.766160" lon="-119.037387">
        <ele>2609.8</ele>
        <time>2014-06-29T19:32:31Z</time>
        <sat>9</sat>
      </trkpt>
      <trkpt lat="37.766230" lon="-119.037463">
        <ele>2610.0</ele>
        <time>2014-06-29T19:32:35Z</time>
        <sat>9</sat>
      </trkpt>
      <trkpt lat="37.766303" lon="-119.037545">
        <ele>2610.1</ele>
        <time>2014-06-29T19:32:39Z</time>
        <sat>9</sat>
      </trkpt>
      <trkpt lat="37.766380" lon="-119.037607">
        <ele>2610.3</ele>
        <time>2014-06-29T19:32:42Z</time>
        <sat>9</sat>
      </trkpt>
      <trkpt lat="37.766448" lon="-119.037685">
        <ele>2610.4</ele>
        <time>2014-06-29T19:32:45Z</time>
        <sat>9</sat>
      </trkpt>
      <trkpt lat="37.766538" lon="-119.037752">
        <ele>2610.5</ele>
        <time>2014-06-29T19:32:48Z</time>
        <sat>9</sat>
      </trkpt>
      <trkpt lat="37.766625" lon="-119.037820">
        <ele>2610.4</ele>
        <time>2014-06-29T19:32:51Z</time>
        <sat>9</sat>
      </trkpt>
      <trkpt lat="37.766700" lon="-119.037900">
        <ele>2610.2</ele>
        <time>2014-06-29T19:32:54Z</time>
        <sat>9</sat>
      </trkpt>
      <trkpt lat="37.766765" lon="-119.037988">
        <ele>2610.5</ele>
        <time>2014-06-29T19:32:57Z</time>
        <sat>9</sat>
      </trkpt>
      <trkpt lat="37.766848" lon="-119.038090">
        <ele>2610.2</ele>
        <time>2014-06-29T19:33:01Z</time>
        <sat>9</sat>
      </trkpt>
      <trkpt lat="37.766905" lon="-119.038190">
        <ele>2609.7</ele>
        <time>2014-06-29T19:33:04Z</time>
        <sat>9</sat>
      </trkpt>
      <trkpt lat="37.766975" lon="-119.038302">
        <ele>2610.0</ele>
        <time>2014-06-29T19:33:08Z</time>
        <sat>9</sat>
      </trkpt>
      <trkpt lat="37.767037" lon="-119.038402">
        <ele>2610.0</ele>
        <time>2014-06-29T19:33:11Z</time>
        <sat>9</sat>
      </trkpt>
      <trkpt lat="37.767092" lon="-119.038503">
        <ele>2609.5</ele>
        <time>2014-06-29T19:33:14Z</time>
        <sat>9</sat>
      </trkpt>
      <trkpt lat="37.767155" lon="-119.038608">
        <ele>2609.0</ele>
        <time>2014-06-29T19:33:17Z</time>
        <sat>9</sat>
      </trkpt>
      <trkpt lat="37.767217" lon="-119.038703">
        <ele>2608.6</ele>
        <time>2014-06-29T19:33:20Z</time>
        <sat>9</sat>
      </trkpt>
      <trkpt lat="37.767342" lon="-119.038928">
        <ele>2608.7</ele>
        <time>2014-06-29T19:33:28Z</time>
        <sat>9</sat>
      </trkpt>
      <trkpt lat="37.767395" lon="-119.039025">
        <ele>2609.0</ele>
        <time>2014-06-29T19:33:32Z</time>
        <sat>9</sat>
      </trkpt>
      <trkpt lat="37.767430" lon="-119.039132">
        <ele>2609.1</ele>
        <time>2014-06-29T19:33:36Z</time>
        <sat>9</sat>
      </trkpt>
      <trkpt lat="37.767472" lon="-119.039255">
        <ele>2609.3</ele>
        <time>2014-06-29T19:33:40Z</time>
        <sat>9</sat>
      </trkpt>
      <trkpt lat="37.767497" lon="-119.039408">
        <ele>2609.1</ele>
        <time>2014-06-29T19:33:44Z</time>
        <sat>9</sat>
      </trkpt>
      <trkpt lat="37.767503" lon="-119.039523">
        <ele>2609.0</ele>
        <time>2014-06-29T19:33:47Z</time>
        <sat>9</sat>
      </trkpt>
      <trkpt lat="37.767495" lon="-119.039648">
        <ele>2609.0</ele>
        <time>2014-06-29T19:33:50Z</time>
        <sat>9</sat>
      </trkpt>
      <trkpt lat="37.767495" lon="-119.039787">
        <ele>2609.1</ele>
        <time>2014-06-29T19:33:54Z</time>
        <sat>9</sat>
      </trkpt>
      <trkpt lat="37.767508" lon="-119.039917">
        <ele>2609.0</ele>
        <time>2014-06-29T19:33:57Z</time>
        <sat>8</sat>
      </trkpt>
      <trkpt lat="37.767537" lon="-119.040033">
        <ele>2609.3</ele>
        <time>2014-06-29T19:34:00Z</time>
        <sat>9</sat>
      </trkpt>
      <trkpt lat="37.767580" lon="-119.040140">
        <ele>2609.5</ele>
        <time>2014-06-29T19:34:03Z</time>
        <sat>9</sat>
      </trkpt>
      <trkpt lat="37.767658" lon="-119.040198">
        <ele>2609.9</ele>
        <time>2014-06-29T19:34:06Z</time>
        <sat>9</sat>
      </trkpt>
      <trkpt lat="37.767762" lon="-119.040200">
        <ele>2610.3</ele>
        <time>2014-06-29T19:34:10Z</time>
        <sat>9</sat>
      </trkpt>
      <trkpt lat="37.767857" lon="-119.040177">
        <ele>2610.4</ele>
        <time>2014-06-29T19:34:13Z</time>
        <sat>9</sat>
      </trkpt>
      <trkpt lat="37.767977" lon="-119.040152">
        <ele>2610.0</ele>
        <time>2014-06-29T19:34:16Z</time>
        <sat>9</sat>
      </trkpt>
      <trkpt lat="37.768087" lon="-119.040120">
        <ele>2609.8</ele>
        <time>2014-06-29T19:34:19Z</time>
        <sat>9</sat>
      </trkpt>
      <trkpt lat="37.768190" lon="-119.040085">
        <ele>2609.7</ele>
        <time>2014-06-29T19:34:24Z</time>
        <sat>9</sat>
      </trkpt>
      <trkpt lat="37.768373" lon="-119.040095">
        <ele>2609.7</ele>
        <time>2014-06-29T19:35:34Z</time>
        <sat>9</sat>
      </trkpt>
      <trkpt lat="37.768567" lon="-119.040153">
        <ele>2609.9</ele>
        <time>2014-06-29T19:35:41Z</time>
        <sat>9</sat>
      </trkpt>
      <trkpt lat="37.768655" lon="-119.040192">
        <ele>2609.5</ele>
        <time>2014-06-29T19:35:44Z</time>
        <sat>9</sat>
      </trkpt>
      <trkpt lat="37.768765" lon="-119.040268">
        <ele>2609.4</ele>
        <time>2014-06-29T19:35:48Z</time>
        <sat>9</sat>
      </trkpt>
      <trkpt lat="37.768852" lon="-119.040335">
        <ele>2609.6</ele>
        <time>2014-06-29T19:35:51Z</time>
        <sat>9</sat>
      </trkpt>
      <trkpt lat="37.768925" lon="-119.040403">
        <ele>2609.7</ele>
        <time>2014-06-29T19:35:54Z</time>
        <sat>8</sat>
      </trkpt>
      <trkpt lat="37.769012" lon="-119.040493">
        <ele>2609.8</ele>
        <time>2014-06-29T19:35:58Z</time>
        <sat>9</sat>
      </trkpt>
      <trkpt lat="37.769093" lon="-119.040593">
        <ele>2609.9</ele>
        <time>2014-06-29T19:36:02Z</time>
        <sat>9</sat>
      </trkpt>
      <trkpt lat="37.769162" lon="-119.040672">
        <ele>2610.5</ele>
        <time>2014-06-29T19:36:05Z</time>
        <sat>9</sat>
      </trkpt>
      <trkpt lat="37.769228" lon="-119.040757">
        <ele>2611.0</ele>
        <time>2014-06-29T19:36:09Z</time>
        <sat>9</sat>
      </trkpt>
      <trkpt lat="37.769297" lon="-119.040855">
        <ele>2611.5</ele>
        <time>2014-06-29T19:36:14Z</time>
        <sat>9</sat>
      </trkpt>
      <trkpt lat="37.769363" lon="-119.040943">
        <ele>2612.1</ele>
        <time>2014-06-29T19:36:18Z</time>
        <sat>9</sat>
      </trkpt>
      <trkpt lat="37.769448" lon="-119.041052">
        <ele>2611.9</ele>
        <time>2014-06-29T19:36:22Z</time>
        <sat>9</sat>
      </trkpt>
      <trkpt lat="37.769528" lon="-119.041155">
        <ele>2611.8</ele>
        <time>2014-06-29T19:36:26Z</time>
        <sat>9</sat>
      </trkpt>
      <trkpt lat="37.769613" lon="-119.041223">
        <ele>2611.7</ele>
        <time>2014-06-29T19:36:29Z</time>
        <sat>9</sat>
      </trkpt>
      <trkpt lat="37.769710" lon="-119.041257">
        <ele>2611.9</ele>
        <time>2014-06-29T19:36:32Z</time>
        <sat>9</sat>
      </trkpt>
      <trkpt lat="37.769807" lon="-119.041277">
        <ele>2612.2</ele>
        <time>2014-06-29T19:36:36Z</time>
        <sat>9</sat>
      </trkpt>
      <trkpt lat="37.769983" lon="-119.041373">
        <ele>2613.4</ele>
        <time>2014-06-29T19:36:46Z</time>
        <sat>9</sat>
      </trkpt>
      <trkpt lat="37.770068" lon="-119.041428">
        <ele>2614.0</ele>
        <time>2014-06-29T19:36:51Z</time>
        <sat>8</sat>
      </trkpt>
      <trkpt lat="37.770158" lon="-119.041497">
        <ele>2614.4</ele>
        <time>2014-06-29T19:36:56Z</time>
        <sat>9</sat>
      </trkpt>
      <trkpt lat="37.770268" lon="-119.041565">
        <ele>2614.5</ele>
        <time>2014-06-29T19:37:00Z</time>
        <sat>9</sat>
      </trkpt>
      <trkpt lat="37.770357" lon="-119.041613">
        <ele>2614.9</ele>
        <time>2014-06-29T19:37:03Z</time>
        <sat>9</sat>
      </trkpt>
      <trkpt lat="37.770430" lon="-119.041680">
        <ele>2615.1</ele>
        <time>2014-06-29T19:37:07Z</time>
        <sat>9</sat>
      </trkpt>
      <trkpt lat="37.770513" lon="-119.041742">
        <ele>2615.5</ele>
        <time>2014-06-29T19:37:12Z</time>
        <sat>9</sat>
      </trkpt>
      <trkpt lat="37.770600" lon="-119.041793">
        <ele>2615.9</ele>
        <time>2014-06-29T19:37:16Z</time>
        <sat>9</sat>
      </trkpt>
      <trkpt lat="37.770685" lon="-119.041858">
        <ele>2616.6</ele>
        <time>2014-06-29T19:37:21Z</time>
        <sat>9</sat>
      </trkpt>
      <trkpt lat="37.770777" lon="-119.041923">
        <ele>2616.6</ele>
        <time>2014-06-29T19:37:26Z</time>
        <sat>9</sat>
      </trkpt>
      <trkpt lat="37.770860" lon="-119.041983">
        <ele>2617.4</ele>
        <time>2014-06-29T19:37:31Z</time>
        <sat>9</sat>
      </trkpt>
      <trkpt lat="37.770958" lon="-119.042040">
        <ele>2617.9</ele>
        <time>2014-06-29T19:37:36Z</time>
        <sat>9</sat>
      </trkpt>
      <trkpt lat="37.771042" lon="-119.042090">
        <ele>2618.6</ele>
        <time>2014-06-29T19:37:40Z</time>
        <sat>9</sat>
      </trkpt>
      <trkpt lat="37.771225" lon="-119.042218">
        <ele>2619.0</ele>
        <time>2014-06-29T19:37:49Z</time>
        <sat>9</sat>
      </trkpt>
      <trkpt lat="37.771315" lon="-119.042275">
        <ele>2619.0</ele>
        <time>2014-06-29T19:37:53Z</time>
        <sat>9</sat>
      </trkpt>
      <trkpt lat="37.771393" lon="-119.042370">
        <ele>2619.5</ele>
        <time>2014-06-29T19:37:58Z</time>
        <sat>9</sat>
      </trkpt>
      <trkpt lat="37.771460" lon="-119.042473">
        <ele>2620.0</ele>
        <time>2014-06-29T19:38:03Z</time>
        <sat>9</sat>
      </trkpt>
      <trkpt lat="37.771528" lon="-119.042558">
        <ele>2620.2</ele>
        <time>2014-06-29T19:38:07Z</time>
        <sat>9</sat>
      </trkpt>
      <trkpt lat="37.771600" lon="-119.042663">
        <ele>2620.8</ele>
        <time>2014-06-29T19:38:12Z</time>
        <sat>9</sat>
      </trkpt>
      <trkpt lat="37.771675" lon="-119.042732">
        <ele>2621.8</ele>
        <time>2014-06-29T19:38:17Z</time>
        <sat>9</sat>
      </trkpt>
      <trkpt lat="37.771760" lon="-119.042797">
        <ele>2622.6</ele>
        <time>2014-06-29T19:38:23Z</time>
        <sat>9</sat>
      </trkpt>
      <trkpt lat="37.771848" lon="-119.042867">
        <ele>2623.0</ele>
        <time>2014-06-29T19:38:28Z</time>
        <sat>9</sat>
      </trkpt>
      <trkpt lat="37.771928" lon="-119.042937">
        <ele>2623.7</ele>
        <time>2014-06-29T19:38:33Z</time>
        <sat>9</sat>
      </trkpt>
      <trkpt lat="37.772012" lon="-119.043020">
        <ele>2623.6</ele>
        <time>2014-06-29T19:38:38Z</time>
        <sat>9</sat>
      </trkpt>
      <trkpt lat="37.772088" lon="-119.043093">
        <ele>2624.0</ele>
        <time>2014-06-29T19:38:43Z</time>
        <sat>9</sat>
      </trkpt>
      <trkpt lat="37.772232" lon="-119.043253">
        <ele>2625.3</ele>
        <time>2014-06-29T19:38:53Z</time>
        <sat>9</sat>
      </trkpt>
      <trkpt lat="37.772305" lon="-119.043330">
        <ele>2626.0</ele>
        <time>2014-06-29T19:38:58Z</time>
        <sat>9</sat>
      </trkpt>
      <trkpt lat="37.772370" lon="-119.043423">
        <ele>2625.9</ele>
        <time>2014-06-29T19:39:03Z</time>
        <sat>9</sat>
      </trkpt>
      <trkpt lat="37.772440" lon="-119.043513">
        <ele>2626.4</ele>
        <time>2014-06-29T19:39:08Z</time>
        <sat>9</sat>
      </trkpt>
      <trkpt lat="37.772497" lon="-119.043615">
        <ele>2627.2</ele>
        <time>2014-06-29T19:39:13Z</time>
        <sat>9</sat>
      </trkpt>
      <trkpt lat="37.772570" lon="-119.043690">
        <ele>2627.2</ele>
        <time>2014-06-29T19:39:17Z</time>
        <sat>9</sat>
      </trkpt>
      <trkpt lat="37.772658" lon="-119.043750">
        <ele>2627.4</ele>
        <time>2014-06-29T19:39:22Z</time>
        <sat>9</sat>
      </trkpt>
      <trkpt lat="37.772738" lon="-119.043817">
        <ele>2628.0</ele>
        <time>2014-06-29T19:39:27Z</time>
        <sat>9</sat>
      </trkpt>
      <trkpt lat="37.772830" lon="-119.043892">
        <ele>2629.0</ele>
        <time>2014-06-29T19:39:33Z</time>
        <sat>9</sat>
      </trkpt>
      <trkpt lat="37.772903" lon="-119.043967">
        <ele>2629.4</ele>
        <time>2014-06-29T19:39:38Z</time>
        <sat>9</sat>
      </trkpt>
      <trkpt lat="37.772978" lon="-119.044058">
        <ele>2630.1</ele>
        <time>2014-06-29T19:39:43Z</time>
        <sat>9</sat>
      </trkpt>
      <trkpt lat="37.773060" lon="-119.044138">
        <ele>2631.5</ele>
        <time>2014-06-29T19:39:53Z</time>
        <sat>9</sat>
      </trkpt>
      <trkpt lat="37.773210" lon="-119.044287">
        <ele>2632.4</ele>
        <time>2014-06-29T19:40:05Z</time>
        <sat>9</sat>
      </trkpt>
      <trkpt lat="37.773280" lon="-119.044365">
        <ele>2633.4</ele>
        <time>2014-06-29T19:40:11Z</time>
        <sat>9</sat>
      </trkpt>
      <trkpt lat="37.773350" lon="-119.044438">
        <ele>2633.7</ele>
        <time>2014-06-29T19:40:17Z</time>
        <sat>9</sat>
      </trkpt>
      <trkpt lat="37.773418" lon="-119.044523">
        <ele>2634.8</ele>
        <time>2014-06-29T19:40:24Z</time>
        <sat>9</sat>
      </trkpt>
      <trkpt lat="37.773483" lon="-119.044605">
        <ele>2635.2</ele>
        <time>2014-06-29T19:40:30Z</time>
        <sat>9</sat>
      </trkpt>
      <trkpt lat="37.773560" lon="-119.044697">
        <ele>2636.0</ele>
        <time>2014-06-29T19:40:37Z</time>
        <sat>9</sat>
      </trkpt>
      <trkpt lat="37.773628" lon="-119.044775">
        <ele>2637.0</ele>
        <time>2014-06-29T19:40:44Z</time>
        <sat>9</sat>
      </trkpt>
      <trkpt lat="37.773723" lon="-119.044827">
        <ele>2637.8</ele>
        <time>2014-06-29T19:40:51Z</time>
        <sat>9</sat>
      </trkpt>
      <trkpt lat="37.773813" lon="-119.044907">
        <ele>2638.5</ele>
        <time>2014-06-29T19:40:57Z</time>
        <sat>9</sat>
      </trkpt>
      <trkpt lat="37.773935" lon="-119.045100">
        <ele>2639.3</ele>
        <time>2014-06-29T19:41:07Z</time>
        <sat>9</sat>
      </trkpt>
      <trkpt lat="37.773998" lon="-119.045202">
        <ele>2639.6</ele>
        <time>2014-06-29T19:41:12Z</time>
        <sat>9</sat>
      </trkpt>
      <trkpt lat="37.774068" lon="-119.045275">
        <ele>2639.9</ele>
        <time>2014-06-29T19:41:17Z</time>
        <sat>9</sat>
      </trkpt>
      <trkpt lat="37.774133" lon="-119.045362">
        <ele>2640.8</ele>
        <time>2014-06-29T19:41:23Z</time>
        <sat>9</sat>
      </trkpt>
      <trkpt lat="37.774190" lon="-119.045463">
        <ele>2641.9</ele>
        <time>2014-06-29T19:41:30Z</time>
        <sat>9</sat>
      </trkpt>
      <trkpt lat="37.774265" lon="-119.045533">
        <ele>2643.1</ele>
        <time>2014-06-29T19:41:36Z</time>
        <sat>9</sat>
      </trkpt>
      <trkpt lat="37.774328" lon="-119.045623">
        <ele>2644.0</ele>
        <time>2014-06-29T19:41:43Z</time>
        <sat>9</sat>
      </trkpt>
      <trkpt lat="37.774405" lon="-119.045683">
        <ele>2645.0</ele>
        <time>2014-06-29T19:41:49Z</time>
        <sat>9</sat>
      </trkpt>
      <trkpt lat="37.774503" lon="-119.045723">
        <ele>2645.5</ele>
        <time>2014-06-29T19:41:56Z</time>
        <sat>9</sat>
      </trkpt>
      <trkpt lat="37.774598" lon="-119.045742">
        <ele>2645.9</ele>
        <time>2014-06-29T19:42:02Z</time>
        <sat>9</sat>
      </trkpt>
      <trkpt lat="37.774802" lon="-119.045707">
        <ele>2646.4</ele>
        <time>2014-06-29T19:42:13Z</time>
        <sat>9</sat>
      </trkpt>
      <trkpt lat="37.774898" lon="-119.045653">
        <ele>2646.4</ele>
        <time>2014-06-29T19:42:17Z</time>
        <sat>9</sat>
      </trkpt>
      <trkpt lat="37.774993" lon="-119.045573">
        <ele>2646.4</ele>
        <time>2014-06-29T19:42:22Z</time>
        <sat>9</sat>
      </trkpt>
      <trkpt lat="37.775090" lon="-119.045513">
        <ele>2646.2</ele>
        <time>2014-06-29T19:42:26Z</time>
        <sat>9</sat>
      </trkpt>
      <trkpt lat="37.775173" lon="-119.045442">
        <ele>2646.2</ele>
        <time>2014-06-29T19:42:30Z</time>
        <sat>9</sat>
      </trkpt>
      <trkpt lat="37.775267" lon="-119.045362">
        <ele>2646.2</ele>
        <time>2014-06-29T19:42:34Z</time>
        <sat>9</sat>
      </trkpt>
      <trkpt lat="37.775368" lon="-119.045295">
        <ele>2646.6</ele>
        <time>2014-06-29T19:42:38Z</time>
        <sat>9</sat>
      </trkpt>
      <trkpt lat="37.775463" lon="-119.045237">
        <ele>2646.7</ele>
        <time>2014-06-29T19:42:42Z</time>
        <sat>9</sat>
      </trkpt>
      <trkpt lat="37.775565" lon="-119.045202">
        <ele>2646.8</ele>
        <time>2014-06-29T19:42:46Z</time>
        <sat>9</sat>
      </trkpt>
      <trkpt lat="37.775667" lon="-119.045175">
        <ele>2647.1</ele>
        <time>2014-06-29T19:42:50Z</time>
        <sat>9</sat>
      </trkpt>
      <trkpt lat="37.775762" lon="-119.045153">
        <ele>2647.6</ele>
        <time>2014-06-29T19:42:55Z</time>
        <sat>9</sat>
      </trkpt>
      <trkpt lat="37.775872" lon="-119.045128">
        <ele>2648.6</ele>
        <time>2014-06-29T19:43:01Z</time>
        <sat>9</sat>
      </trkpt>
      <trkpt lat="37.775958" lon="-119.045083">
        <ele>2649.0</ele>
        <time>2014-06-29T19:43:06Z</time>
        <sat>9</sat>
      </trkpt>
      <trkpt lat="37.776163" lon="-119.045057">
        <ele>2649.1</ele>
        <time>2014-06-29T19:43:14Z</time>
        <sat>9</sat>
      </trkpt>
      <trkpt lat="37.776265" lon="-119.045088">
        <ele>2649.1</ele>
        <time>2014-06-29T19:43:18Z</time>
        <sat>9</sat>
      </trkpt>
      <trkpt lat="37.776363" lon="-119.045148">
        <ele>2649.2</ele>
        <time>2014-06-29T19:43:22Z</time>
        <sat>9</sat>
      </trkpt>
      <trkpt lat="37.776478" lon="-119.045182">
        <ele>2649.0</ele>
        <time>2014-06-29T19:43:26Z</time>
        <sat>9</sat>
      </trkpt>
      <trkpt lat="37.776567" lon="-119.045218">
        <ele>2648.6</ele>
        <time>2014-06-29T19:43:29Z</time>
        <sat>9</sat>
      </trkpt>
      <trkpt lat="37.776660" lon="-119.045260">
        <ele>2648.4</ele>
        <time>2014-06-29T19:43:32Z</time>
        <sat>9</sat>
      </trkpt>
      <trkpt lat="37.776765" lon="-119.045308">
        <ele>2647.9</ele>
        <time>2014-06-29T19:43:35Z</time>
        <sat>9</sat>
      </trkpt>
      <trkpt lat="37.776870" lon="-119.045352">
        <ele>2647.6</ele>
        <time>2014-06-29T19:43:38Z</time>
        <sat>9</sat>
      </trkpt>
      <trkpt lat="37.776970" lon="-119.045388">
        <ele>2647.4</ele>
        <time>2014-06-29T19:43:41Z</time>
        <sat>9</sat>
      </trkpt>
      <trkpt lat="37.777063" lon="-119.045425">
        <ele>2647.4</ele>
        <time>2014-06-29T19:43:44Z</time>
        <sat>9</sat>
      </trkpt>
      <trkpt lat="37.777155" lon="-119.045457">
        <ele>2647.5</ele>
        <time>2014-06-29T19:43:47Z</time>
        <sat>9</sat>
      </trkpt>
      <trkpt lat="37.777248" lon="-119.045518">
        <ele>2647.5</ele>
        <time>2014-06-29T19:43:50Z</time>
        <sat>9</sat>
      </trkpt>
      <trkpt lat="37.777327" lon="-119.045575">
        <ele>2647.7</ele>
        <time>2014-06-29T19:43:53Z</time>
        <sat>9</sat>
      </trkpt>
      <trkpt lat="37.777428" lon="-119.045670">
        <ele>2647.0</ele>
        <time>2014-06-29T19:43:57Z</time>
        <sat>9</sat>
      </trkpt>
      <trkpt lat="37.777522" lon="-119.045743">
        <ele>2646.9</ele>
        <time>2014-06-29T19:44:00Z</time>
        <sat>9</sat>
      </trkpt>
      <trkpt lat="37.777588" lon="-119.045825">
        <ele>2647.0</ele>
        <time>2014-06-29T19:44:03Z</time>
        <sat>9</sat>
      </trkpt>
      <trkpt lat="37.777627" lon="-119.045947">
        <ele>2647.6</ele>
        <time>2014-06-29T19:44:07Z</time>
        <sat>9</sat>
      </trkpt>
      <trkpt lat="37.777643" lon="-119.046193">
        <ele>2647.5</ele>
        <time>2014-06-29T19:44:14Z</time>
        <sat>9</sat>
      </trkpt>
      <trkpt lat="37.777617" lon="-119.046340">
        <ele>2647.4</ele>
        <time>2014-06-29T19:44:18Z</time>
        <sat>9</sat>
      </trkpt>
      <trkpt lat="37.777560" lon="-119.046477">
        <ele>2647.6</ele>
        <time>2014-06-29T19:44:22Z</time>
        <sat>9</sat>
      </trkpt>
      <trkpt lat="37.777543" lon="-119.046607">
        <ele>2647.9</ele>
        <time>2014-06-29T19:44:26Z</time>
        <sat>9</sat>
      </trkpt>
      <trkpt lat="37.777533" lon="-119.046727">
        <ele>2648.1</ele>
        <time>2014-06-29T19:44:30Z</time>
        <sat>9</sat>
      </trkpt>
      <trkpt lat="37.777520" lon="-119.046845">
        <ele>2648.6</ele>
        <time>2014-06-29T19:44:34Z</time>
        <sat>9</sat>
      </trkpt>
      <trkpt lat="37.777517" lon="-119.046960">
        <ele>2649.5</ele>
        <time>2014-06-29T19:44:39Z</time>
        <sat>9</sat>
      </trkpt>
      <trkpt lat="37.777520" lon="-119.047085">
        <ele>2649.7</ele>
        <time>2014-06-29T19:44:45Z</time>
        <sat>9</sat>
      </trkpt>
      <trkpt lat="37.777523" lon="-119.047222">
        <ele>2650.3</ele>
        <time>2014-06-29T19:44:51Z</time>
        <sat>9</sat>
      </trkpt>
      <trkpt lat="37.777545" lon="-119.047337">
        <ele>2650.7</ele>
        <time>2014-06-29T19:44:55Z</time>
        <sat>9</sat>
      </trkpt>
      <trkpt lat="37.777570" lon="-119.047447">
        <ele>2650.8</ele>
        <time>2014-06-29T19:44:59Z</time>
        <sat>9</sat>
      </trkpt>
      <trkpt lat="37.777613" lon="-119.047555">
        <ele>2651.1</ele>
        <time>2014-06-29T19:45:04Z</time>
        <sat>9</sat>
      </trkpt>
      <trkpt lat="37.777673" lon="-119.047647">
        <ele>2651.5</ele>
        <time>2014-06-29T19:45:09Z</time>
        <sat>9</sat>
      </trkpt>
      <trkpt lat="37.777872" lon="-119.047745">
        <ele>2652.1</ele>
        <time>2014-06-29T19:45:17Z</time>
        <sat>9</sat>
      </trkpt>
      <trkpt lat="37.777968" lon="-119.047770">
        <ele>2652.5</ele>
        <time>2014-06-29T19:45:21Z</time>
        <sat>9</sat>
      </trkpt>
      <trkpt lat="37.778065" lon="-119.047808">
        <ele>2652.9</ele>
        <time>2014-06-29T19:45:25Z</time>
        <sat>9</sat>
      </trkpt>
      <trkpt lat="37.778137" lon="-119.047880">
        <ele>2653.1</ele>
        <time>2014-06-29T19:45:29Z</time>
        <sat>9</sat>
      </trkpt>
      <trkpt lat="37.778215" lon="-119.047988">
        <ele>2652.8</ele>
        <time>2014-06-29T19:45:33Z</time>
        <sat>9</sat>
      </trkpt>
      <trkpt lat="37.778305" lon="-119.048077">
        <ele>2652.2</ele>
        <time>2014-06-29T19:45:36Z</time>
        <sat>9</sat>
      </trkpt>
      <trkpt lat="37.778383" lon="-119.048148">
        <ele>2652.2</ele>
        <time>2014-06-29T19:45:39Z</time>
        <sat>9</sat>
      </trkpt>
      <trkpt lat="37.778473" lon="-119.048230">
        <ele>2651.9</ele>
        <time>2014-06-29T19:45:43Z</time>
        <sat>9</sat>
      </trkpt>
      <trkpt lat="37.778558" lon="-119.048302">
        <ele>2651.9</ele>
        <time>2014-06-29T19:45:47Z</time>
        <sat>9</sat>
      </trkpt>
      <trkpt lat="37.778650" lon="-119.048377">
        <ele>2652.5</ele>
        <time>2014-06-29T19:45:51Z</time>
        <sat>9</sat>
      </trkpt>
      <trkpt lat="37.778738" lon="-119.048452">
        <ele>2653.3</ele>
        <time>2014-06-29T19:45:55Z</time>
        <sat>9</sat>
      </trkpt>
      <trkpt lat="37.778823" lon="-119.048522">
        <ele>2653.6</ele>
        <time>2014-06-29T19:45:59Z</time>
        <sat>9</sat>
      </trkpt>
      <trkpt lat="37.778930" lon="-119.048588">
        <ele>2653.8</ele>
        <time>2014-06-29T19:46:03Z</time>
        <sat>9</sat>
      </trkpt>
      <trkpt lat="37.779023" lon="-119.048635">
        <ele>2653.8</ele>
        <time>2014-06-29T19:46:06Z</time>
        <sat>9</sat>
      </trkpt>
      <trkpt lat="37.779117" lon="-119.048693">
        <ele>2653.5</ele>
        <time>2014-06-29T19:46:10Z</time>
        <sat>9</sat>
      </trkpt>
      <trkpt lat="37.779298" lon="-119.048780">
        <ele>2653.7</ele>
        <time>2014-06-29T19:46:16Z</time>
        <sat>9</sat>
      </trkpt>
      <trkpt lat="37.779410" lon="-119.048797">
        <ele>2653.9</ele>
        <time>2014-06-29T19:46:20Z</time>
        <sat>9</sat>
      </trkpt>
      <trkpt lat="37.779510" lon="-119.048777">
        <ele>2654.0</ele>
        <time>2014-06-29T19:46:24Z</time>
        <sat>9</sat>
      </trkpt>
      <trkpt lat="37.779598" lon="-119.048750">
        <ele>2654.4</ele>
        <time>2014-06-29T19:46:27Z</time>
        <sat>9</sat>
      </trkpt>
      <trkpt lat="37.779688" lon="-119.048730">
        <ele>2654.5</ele>
        <time>2014-06-29T19:46:30Z</time>
        <sat>9</sat>
      </trkpt>
      <trkpt lat="37.779803" lon="-119.048687">
        <ele>2654.4</ele>
        <time>2014-06-29T19:46:33Z</time>
        <sat>9</sat>
      </trkpt>
      <trkpt lat="37.779903" lon="-119.048643">
        <ele>2654.2</ele>
        <time>2014-06-29T19:46:36Z</time>
        <sat>9</sat>
      </trkpt>
      <trkpt lat="37.779997" lon="-119.048608">
        <ele>2654.1</ele>
        <time>2014-06-29T19:46:39Z</time>
        <sat>9</sat>
      </trkpt>
      <trkpt lat="37.780095" lon="-119.048570">
        <ele>2654.1</ele>
        <time>2014-06-29T19:46:42Z</time>
        <sat>9</sat>
      </trkpt>
      <trkpt lat="37.780198" lon="-119.048520">
        <ele>2654.3</ele>
        <time>2014-06-29T19:46:46Z</time>
        <sat>9</sat>
      </trkpt>
      <trkpt lat="37.780298" lon="-119.048470">
        <ele>2654.6</ele>
        <time>2014-06-29T19:46:50Z</time>
        <sat>9</sat>
      </trkpt>
      <trkpt lat="37.780393" lon="-119.048417">
        <ele>2654.8</ele>
        <time>2014-06-29T19:46:54Z</time>
        <sat>9</sat>
      </trkpt>
      <trkpt lat="37.780480" lon="-119.048350">
        <ele>2655.2</ele>
        <time>2014-06-29T19:46:58Z</time>
        <sat>9</sat>
      </trkpt>
      <trkpt lat="37.780577" lon="-119.048298">
        <ele>2654.9</ele>
        <time>2014-06-29T19:47:02Z</time>
        <sat>9</sat>
      </trkpt>
      <trkpt lat="37.780662" lon="-119.048257">
        <ele>2654.7</ele>
        <time>2014-06-29T19:47:05Z</time>
        <sat>9</sat>
      </trkpt>
      <trkpt lat="37.780758" lon="-119.048210">
        <ele>2654.6</ele>
        <time>2014-06-29T19:47:08Z</time>
        <sat>9</sat>
      </trkpt>
      <trkpt lat="37.780853" lon="-119.048165">
        <ele>2654.7</ele>
        <time>2014-06-29T19:47:11Z</time>
        <sat>9</sat>
      </trkpt>
      <trkpt lat="37.781053" lon="-119.048062">
        <ele>2654.4</ele>
        <time>2014-06-29T19:47:18Z</time>
        <sat>9</sat>
      </trkpt>
      <trkpt lat="37.781140" lon="-119.048020">
        <ele>2654.6</ele>
        <time>2014-06-29T19:47:21Z</time>
        <sat>9</sat>
      </trkpt>
      <trkpt lat="37.781230" lon="-119.047977">
        <ele>2654.6</ele>
        <time>2014-06-29T19:47:24Z</time>
        <sat>9</sat>
      </trkpt>
      <trkpt lat="37.781318" lon="-119.047943">
        <ele>2654.8</ele>
        <time>2014-06-29T19:47:27Z</time>
        <sat>9</sat>
      </trkpt>
      <trkpt lat="37.781422" lon="-119.047913">
        <ele>2655.4</ele>
        <time>2014-06-29T19:47:31Z</time>
        <sat>9</sat>
      </trkpt>
      <trkpt lat="37.781522" lon="-119.047867">
        <ele>2656.4</ele>
        <time>2014-06-29T19:47:36Z</time>
        <sat>9</sat>
      </trkpt>
      <trkpt lat="37.781612" lon="-119.047862">
        <ele>2656.5</ele>
        <time>2014-06-29T19:47:44Z</time>
        <sat>9</sat>
      </trkpt>
      <trkpt lat="37.781678" lon="-119.047762">
        <ele>2658.0</ele>
        <time>2014-06-29T19:48:33Z</time>
        <sat>9</sat>
      </trkpt>
      <trkpt lat="37.781872" lon="-119.047672">
        <ele>2658.5</ele>
        <time>2014-06-29T19:48:41Z</time>
        <sat>9</sat>
      </trkpt>
      <trkpt lat="37.781958" lon="-119.047630">
        <ele>2658.6</ele>
        <time>2014-06-29T19:48:44Z</time>
        <sat>9</sat>
      </trkpt>
      <trkpt lat="37.782045" lon="-119.047578">
        <ele>2658.4</ele>
        <time>2014-06-29T19:48:47Z</time>
        <sat>9</sat>
      </trkpt>
      <trkpt lat="37.782138" lon="-119.047525">
        <ele>2658.6</ele>
        <time>2014-06-29T19:48:50Z</time>
        <sat>9</sat>
      </trkpt>
      <trkpt lat="37.782245" lon="-119.047475">
        <ele>2658.3</ele>
        <time>2014-06-29T19:48:54Z</time>
        <sat>9</sat>
      </trkpt>
      <trkpt lat="37.782353" lon="-119.047415">
        <ele>2658.3</ele>
        <time>2014-06-29T19:48:58Z</time>
        <sat>9</sat>
      </trkpt>
      <trkpt lat="37.782440" lon="-119.047363">
        <ele>2658.3</ele>
        <time>2014-06-29T19:49:01Z</time>
        <sat>9</sat>
      </trkpt>
      <trkpt lat="37.782533" lon="-119.047297">
        <ele>2657.8</ele>
        <time>2014-06-29T19:49:04Z</time>
        <sat>9</sat>
      </trkpt>
      <trkpt lat="37.782628" lon="-119.047255">
        <ele>2657.3</ele>
        <time>2014-06-29T19:49:06Z</time>
        <sat>9</sat>
      </trkpt>
      <trkpt lat="37.782730" lon="-119.047222">
        <ele>2657.0</ele>
        <time>2014-06-29T19:49:08Z</time>
        <sat>9</sat>
      </trkpt>
      <trkpt lat="37.782835" lon="-119.047202">
        <ele>2656.5</ele>
        <time>2014-06-29T19:49:10Z</time>
        <sat>9</sat>
      </trkpt>
      <trkpt lat="37.782938" lon="-119.047188">
        <ele>2656.1</ele>
        <time>2014-06-29T19:49:12Z</time>
        <sat>9</sat>
      </trkpt>
      <trkpt lat="37.783033" lon="-119.047178">
        <ele>2656.0</ele>
        <time>2014-06-29T19:49:14Z</time>
        <sat>9</sat>
      </trkpt>
      <trkpt lat="37.783157" lon="-119.047157">
        <ele>2655.9</ele>
        <time>2014-06-29T19:49:17Z</time>
        <sat>9</sat>
      </trkpt>
      <trkpt lat="37.783253" lon="-119.047098">
        <ele>2655.9</ele>
        <time>2014-06-29T19:49:20Z</time>
        <sat>9</sat>
      </trkpt>
      <trkpt lat="37.783352" lon="-119.047038">
        <ele>2656.2</ele>
        <time>2014-06-29T19:49:23Z</time>
        <sat>9</sat>
      </trkpt>
      <trkpt lat="37.783453" lon="-119.046983">
        <ele>2656.6</ele>
        <time>2014-06-29T19:49:26Z</time>
        <sat>9</sat>
      </trkpt>
      <trkpt lat="37.783542" lon="-119.046930">
        <ele>2657.1</ele>
        <time>2014-06-29T19:49:29Z</time>
        <sat>9</sat>
      </trkpt>
      <trkpt lat="37.783627" lon="-119.046875">
        <ele>2657.3</ele>
        <time>2014-06-29T19:49:32Z</time>
        <sat>9</sat>
      </trkpt>
      <trkpt lat="37.783732" lon="-119.046807">
        <ele>2657.6</ele>
        <time>2014-06-29T19:49:36Z</time>
        <sat>9</sat>
      </trkpt>
      <trkpt lat="37.783942" lon="-119.046767">
        <ele>2657.8</ele>
        <time>2014-06-29T19:49:43Z</time>
        <sat>8</sat>
      </trkpt>
      <trkpt lat="37.784033" lon="-119.046783">
        <ele>2656.7</ele>
        <time>2014-06-29T19:49:49Z</time>
        <sat>9</sat>
      </trkpt>
      <trkpt lat="37.784108" lon="-119.046890">
        <ele>2658.1</ele>
        <time>2014-06-29T19:51:54Z</time>
        <sat>9</sat>
      </trkpt>
      <trkpt lat="37.784275" lon="-119.047038">
        <ele>2656.0</ele>
        <time>2014-06-29T19:52:03Z</time>
        <sat>9</sat>
      </trkpt>
      <trkpt lat="37.784363" lon="-119.047128">
        <ele>2654.7</ele>
        <time>2014-06-29T19:52:07Z</time>
        <sat>9</sat>
      </trkpt>
      <trkpt lat="37.784447" lon="-119.047220">
        <ele>2653.8</ele>
        <time>2014-06-29T19:52:11Z</time>
        <sat>9</sat>
      </trkpt>
      <trkpt lat="37.784527" lon="-119.047292">
        <ele>2653.0</ele>
        <time>2014-06-29T19:52:14Z</time>
        <sat>9</sat>
      </trkpt>
      <trkpt lat="37.784610" lon="-119.047362">
        <ele>2652.8</ele>
        <time>2014-06-29T19:52:17Z</time>
        <sat>9</sat>
      </trkpt>
      <trkpt lat="37.784700" lon="-119.047457">
        <ele>2651.9</ele>
        <time>2014-06-29T19:52:20Z</time>
        <sat>9</sat>
      </trkpt>
      <trkpt lat="37.784787" lon="-119.047565">
        <ele>2651.1</ele>
        <time>2014-06-29T19:52:23Z</time>
        <sat>9</sat>
      </trkpt>
      <trkpt lat="37.784844" lon="-119.047657">
        <ele>2650.5</ele>
        <time>2014-06-29T19:52:25Z</time>
        <sat>9</sat>
      </trkpt>
      <trkpt lat="37.784902" lon="-119.047765">
        <ele>2649.7</ele>
        <time>2014-06-29T19:52:27Z</time>
        <sat>9</sat>
      </trkpt>
      <trkpt lat="37.784947" lon="-119.047868">
        <ele>2648.6</ele>
        <time>2014-06-29T19:52:29Z</time>
        <sat>9</sat>
      </trkpt>
      <trkpt lat="37.785032" lon="-119.047957">
        <ele>2647.6</ele>
        <time>2014-06-29T19:52:31Z</time>
        <sat>9</sat>
      </trkpt>
      <trkpt lat="37.785147" lon="-119.048025">
        <ele>2646.6</ele>
        <time>2014-06-29T19:52:33Z</time>
        <sat>9</sat>
      </trkpt>
      <trkpt lat="37.785267" lon="-119.048080">
        <ele>2646.0</ele>
        <time>2014-06-29T19:52:35Z</time>
        <sat>9</sat>
      </trkpt>
      <trkpt lat="37.785390" lon="-119.048127">
        <ele>2645.3</ele>
        <time>2014-06-29T19:52:37Z</time>
        <sat>9</sat>
      </trkpt>
      <trkpt lat="37.785525" lon="-119.048167">
        <ele>2644.3</ele>
        <time>2014-06-29T19:52:39Z</time>
        <sat>9</sat>
      </trkpt>
      <trkpt lat="37.785662" lon="-119.048218">
        <ele>2643.2</ele>
        <time>2014-06-29T19:52:41Z</time>
        <sat>9</sat>
      </trkpt>
      <trkpt lat="37.785807" lon="-119.048285">
        <ele>2642.3</ele>
        <time>2014-06-29T19:52:43Z</time>
        <sat>9</sat>
      </trkpt>
      <trkpt lat="37.785938" lon="-119.048360">
        <ele>2641.1</ele>
        <time>2014-06-29T19:52:45Z</time>
        <sat>9</sat>
      </trkpt>
      <trkpt lat="37.786080" lon="-119.048418">
        <ele>2640.1</ele>
        <time>2014-06-29T19:52:47Z</time>
        <sat>9</sat>
      </trkpt>
      <trkpt lat="37.786245" lon="-119.048438">
        <ele>2639.5</ele>
        <time>2014-06-29T19:52:49Z</time>
        <sat>8</sat>
      </trkpt>
      <trkpt lat="37.786405" lon="-119.048430">
        <ele>2638.5</ele>
        <time>2014-06-29T19:52:51Z</time>
        <sat>9</sat>
      </trkpt>
      <trkpt lat="37.786538" lon="-119.048375">
        <ele>2637.5</ele>
        <time>2014-06-29T19:52:53Z</time>
        <sat>9</sat>
      </trkpt>
      <trkpt lat="37.786630" lon="-119.048298">
        <ele>2636.5</ele>
        <time>2014-06-29T19:52:55Z</time>
        <sat>9</sat>
      </trkpt>
      <trkpt lat="37.786842" lon="-119.048282">
        <ele>2635.7</ele>
        <time>2014-06-29T19:53:00Z</time>
        <sat>9</sat>
      </trkpt>
      <trkpt lat="37.786943" lon="-119.048340">
        <ele>2636.0</ele>
        <time>2014-06-29T19:53:04Z</time>
        <sat>9</sat>
      </trkpt>
      <trkpt lat="37.787025" lon="-119.048420">
        <ele>2636.3</ele>
        <time>2014-06-29T19:53:08Z</time>
        <sat>9</sat>
      </trkpt>
      <trkpt lat="37.787122" lon="-119.048490">
        <ele>2637.0</ele>
        <time>2014-06-29T19:53:13Z</time>
        <sat>9</sat>
      </trkpt>
      <trkpt lat="37.787217" lon="-119.048535">
        <ele>2638.3</ele>
        <time>2014-06-29T19:53:19Z</time>
        <sat>9</sat>
      </trkpt>
      <trkpt lat="37.787307" lon="-119.048592">
        <ele>2639.2</ele>
        <time>2014-06-29T19:53:26Z</time>
        <sat>9</sat>
      </trkpt>
      <trkpt lat="37.787392" lon="-119.048655">
        <ele>2640.4</ele>
        <time>2014-06-29T19:53:34Z</time>
        <sat>9</sat>
      </trkpt>
      <trkpt lat="37.787462" lon="-119.048747">
        <ele>2641.3</ele>
        <time>2014-06-29T19:53:41Z</time>
        <sat>9</sat>
      </trkpt>
      <trkpt lat="37.787492" lon="-119.048867">
        <ele>2642.6</ele>
        <time>2014-06-29T19:53:49Z</time>
        <sat>9</sat>
      </trkpt>
      <trkpt lat="37.787532" lon="-119.048975">
        <ele>2643.9</ele>
        <time>2014-06-29T19:53:57Z</time>
        <sat>9</sat>
      </trkpt>
      <trkpt lat="37.787588" lon="-119.049193">
        <ele>2646.2</ele>
        <time>2014-06-29T19:54:13Z</time>
        <sat>9</sat>
      </trkpt>
      <trkpt lat="37.787628" lon="-119.049302">
        <ele>2646.3</ele>
        <time>2014-06-29T19:54:17Z</time>
        <sat>9</sat>
      </trkpt>
      <trkpt lat="37.787680" lon="-119.049395">
        <ele>2646.0</ele>
        <time>2014-06-29T19:54:21Z</time>
        <sat>9</sat>
      </trkpt>
      <trkpt lat="37.787753" lon="-119.049495">
        <ele>2645.7</ele>
        <time>2014-06-29T19:54:25Z</time>
        <sat>9</sat>
      </trkpt>
      <trkpt lat="37.787807" lon="-119.049602">
        <ele>2645.2</ele>
        <time>2014-06-29T19:54:29Z</time>
        <sat>9</sat>
      </trkpt>
      <trkpt lat="37.787855" lon="-119.049715">
        <ele>2645.1</ele>
        <time>2014-06-29T19:54:33Z</time>
        <sat>9</sat>
      </trkpt>
      <trkpt lat="37.787912" lon="-119.049808">
        <ele>2645.0</ele>
        <time>2014-06-29T19:54:36Z</time>
        <sat>9</sat>
      </trkpt>
      <trkpt lat="37.787983" lon="-119.049903">
        <ele>2645.0</ele>
        <time>2014-06-29T19:54:39Z</time>
        <sat>9</sat>
      </trkpt>
      <trkpt lat="37.788067" lon="-119.049963">
        <ele>2645.3</ele>
        <time>2014-06-29T19:54:42Z</time>
        <sat>9</sat>
      </trkpt>
      <trkpt lat="37.788157" lon="-119.049993">
        <ele>2645.5</ele>
        <time>2014-06-29T19:54:46Z</time>
        <sat>9</sat>
      </trkpt>
      <trkpt lat="37.788260" lon="-119.050002">
        <ele>2646.3</ele>
        <time>2014-06-29T19:54:52Z</time>
        <sat>9</sat>
      </trkpt>
      <trkpt lat="37.788362" lon="-119.049998">
        <ele>2647.3</ele>
        <time>2014-06-29T19:54:59Z</time>
        <sat>9</sat>
      </trkpt>
      <trkpt lat="37.788550" lon="-119.050065">
        <ele>2649.8</ele>
        <time>2014-06-29T19:55:12Z</time>
        <sat>9</sat>
      </trkpt>
      <trkpt lat="37.788612" lon="-119.050163">
        <ele>2651.6</ele>
        <time>2014-06-29T19:55:20Z</time>
        <sat>9</sat>
      </trkpt>
      <trkpt lat="37.788657" lon="-119.050265">
        <ele>2653.0</ele>
        <time>2014-06-29T19:55:28Z</time>
        <sat>9</sat>
      </trkpt>
      <trkpt lat="37.788705" lon="-119.050363">
        <ele>2655.1</ele>
        <time>2014-06-29T19:55:38Z</time>
        <sat>9</sat>
      </trkpt>
      <trkpt lat="37.788762" lon="-119.050467">
        <ele>2656.0</ele>
        <time>2014-06-29T19:55:48Z</time>
        <sat>9</sat>
      </trkpt>
      <trkpt lat="37.788798" lon="-119.050582">
        <ele>2657.4</ele>
        <time>2014-06-29T19:55:58Z</time>
        <sat>8</sat>
      </trkpt>
      <trkpt lat="37.788818" lon="-119.050698">
        <ele>2658.3</ele>
        <time>2014-06-29T19:56:07Z</time>
        <sat>9</sat>
      </trkpt>
      <trkpt lat="37.788855" lon="-119.050942">
        <ele>2660.3</ele>
        <time>2014-06-29T19:56:27Z</time>
        <sat>9</sat>
      </trkpt>
      <trkpt lat="37.788877" lon="-119.051058">
        <ele>2661.1</ele>
        <time>2014-06-29T19:56:34Z</time>
        <sat>9</sat>
      </trkpt>
      <trkpt lat="37.788900" lon="-119.051188">
        <ele>2661.0</ele>
        <time>2014-06-29T19:56:41Z</time>
        <sat>9</sat>
      </trkpt>
      <trkpt lat="37.788985" lon="-119.051308">
        <ele>2660.2</ele>
        <time>2014-06-29T19:56:45Z</time>
        <sat>9</sat>
      </trkpt>
      <trkpt lat="37.789087" lon="-119.051372">
        <ele>2659.3</ele>
        <time>2014-06-29T19:56:47Z</time>
        <sat>9</sat>
      </trkpt>
      <trkpt lat="37.789185" lon="-119.051463">
        <ele>2658.1</ele>
        <time>2014-06-29T19:56:49Z</time>
        <sat>9</sat>
      </trkpt>
      <trkpt lat="37.789310" lon="-119.051547">
        <ele>2656.7</ele>
        <time>2014-06-29T19:56:51Z</time>
        <sat>9</sat>
      </trkpt>
      <trkpt lat="37.789427" lon="-119.051662">
        <ele>2655.4</ele>
        <time>2014-06-29T19:56:53Z</time>
        <sat>9</sat>
      </trkpt>
      <trkpt lat="37.789478" lon="-119.051818">
        <ele>2654.3</ele>
        <time>2014-06-29T19:56:55Z</time>
        <sat>9</sat>
      </trkpt>
      <trkpt lat="37.789542" lon="-119.051990">
        <ele>2653.0</ele>
        <time>2014-06-29T19:56:57Z</time>
        <sat>9</sat>
      </trkpt>
      <trkpt lat="37.789628" lon="-119.052147">
        <ele>2651.2</ele>
        <time>2014-06-29T19:56:59Z</time>
        <sat>9</sat>
      </trkpt>
      <trkpt lat="37.789690" lon="-119.052277">
        <ele>2648.8</ele>
        <time>2014-06-29T19:57:01Z</time>
        <sat>9</sat>
      </trkpt>
      <trkpt lat="37.789752" lon="-119.052428">
        <ele>2646.5</ele>
        <time>2014-06-29T19:57:03Z</time>
        <sat>8</sat>
      </trkpt>
      <trkpt lat="37.789808" lon="-119.052593">
        <ele>2644.1</ele>
        <time>2014-06-29T19:57:05Z</time>
        <sat>9</sat>
      </trkpt>
      <trkpt lat="37.789885" lon="-119.052742">
        <ele>2641.8</ele>
        <time>2014-06-29T19:57:07Z</time>
        <sat>9</sat>
      </trkpt>
      <trkpt lat="37.789985" lon="-119.052873">
        <ele>2639.8</ele>
        <time>2014-06-29T19:57:09Z</time>
        <sat>9</sat>
      </trkpt>
      <trkpt lat="37.790183" lon="-119.053007">
        <ele>2635.5</ele>
        <time>2014-06-29T19:57:13Z</time>
        <sat>9</sat>
      </trkpt>
      <trkpt lat="37.790242" lon="-119.053140">
        <ele>2633.0</ele>
        <time>2014-06-29T19:57:15Z</time>
        <sat>8</sat>
      </trkpt>
      <trkpt lat="37.790252" lon="-119.053320">
        <ele>2630.6</ele>
        <time>2014-06-29T19:57:17Z</time>
        <sat>8</sat>
      </trkpt>
      <trkpt lat="37.790225" lon="-119.053480">
        <ele>2628.1</ele>
        <time>2014-06-29T19:57:19Z</time>
        <sat>9</sat>
      </trkpt>
      <trkpt lat="37.790225" lon="-119.053633">
        <ele>2626.0</ele>
        <time>2014-06-29T19:57:21Z</time>
        <sat>8</sat>
      </trkpt>
      <trkpt lat="37.790275" lon="-119.053793">
        <ele>2623.1</ele>
        <time>2014-06-29T19:57:23Z</time>
        <sat>9</sat>
      </trkpt>
      <trkpt lat="37.790360" lon="-119.053912">
        <ele>2620.4</ele>
        <time>2014-06-29T19:57:25Z</time>
        <sat>9</sat>
      </trkpt>
      <trkpt lat="37.790463" lon="-119.054065">
        <ele>2618.1</ele>
        <time>2014-06-29T19:57:27Z</time>
        <sat>9</sat>
      </trkpt>
      <trkpt lat="37.790580" lon="-119.054235">
        <ele>2616.0</ele>
        <time>2014-06-29T19:57:29Z</time>
        <sat>9</sat>
      </trkpt>
      <trkpt lat="37.790652" lon="-119.054320">
        <ele>2614.5</ele>
        <time>2014-06-29T19:57:30Z</time>
        <sat>9</sat>
      </trkpt>
      <trkpt lat="37.790723" lon="-119.054410">
        <ele>2613.4</ele>
        <time>2014-06-29T19:57:31Z</time>
        <sat>9</sat>
      </trkpt>
      <trkpt lat="37.790797" lon="-119.054492">
        <ele>2612.3</ele>
        <time>2014-06-29T19:57:32Z</time>
        <sat>9</sat>
      </trkpt>
      <trkpt lat="37.790867" lon="-119.054565">
        <ele>2611.2</ele>
        <time>2014-06-29T19:57:33Z</time>
        <sat>9</sat>
      </trkpt>
      <trkpt lat="37.790982" lon="-119.054710">
        <ele>2609.2</ele>
        <time>2014-06-29T19:57:35Z</time>
        <sat>9</sat>
      </trkpt>
      <trkpt lat="37.791115" lon="-119.054853">
        <ele>2607.8</ele>
        <time>2014-06-29T19:57:37Z</time>
        <sat>9</sat>
      </trkpt>
      <trkpt lat="37.791182" lon="-119.054930">
        <ele>2607.2</ele>
        <time>2014-06-29T19:57:38Z</time>
        <sat>9</sat>
      </trkpt>
      <trkpt lat="37.791247" lon="-119.055012">
        <ele>2606.4</ele>
        <time>2014-06-29T19:57:39Z</time>
        <sat>9</sat>
      </trkpt>
      <trkpt lat="37.791373" lon="-119.055170">
        <ele>2605.4</ele>
        <time>2014-06-29T19:57:41Z</time>
        <sat>9</sat>
      </trkpt>
      <trkpt lat="37.791495" lon="-119.055292">
        <ele>2604.5</ele>
        <time>2014-06-29T19:57:43Z</time>
        <sat>9</sat>
      </trkpt>
      <trkpt lat="37.791597" lon="-119.055383">
        <ele>2603.3</ele>
        <time>2014-06-29T19:57:45Z</time>
        <sat>9</sat>
      </trkpt>
      <trkpt lat="37.791682" lon="-119.055432">
        <ele>2602.3</ele>
        <time>2014-06-29T19:57:47Z</time>
        <sat>9</sat>
      </trkpt>
      <trkpt lat="37.791797" lon="-119.055520">
        <ele>2600.9</ele>
        <time>2014-06-29T19:57:50Z</time>
        <sat>9</sat>
      </trkpt>
      <trkpt lat="37.791902" lon="-119.055606">
        <ele>2600.1</ele>
        <time>2014-06-29T19:57:53Z</time>
        <sat>9</sat>
      </trkpt>
      <trkpt lat="37.791993" lon="-119.055683">
        <ele>2599.7</ele>
        <time>2014-06-29T19:57:56Z</time>
        <sat>9</sat>
      </trkpt>
      <trkpt lat="37.792068" lon="-119.055755">
        <ele>2598.4</ele>
        <time>2014-06-29T19:58:01Z</time>
        <sat>9</sat>
      </trkpt>
      <trkpt lat="37.792157" lon="-119.055855">
        <ele>2598.0</ele>
        <time>2014-06-29T19:58:16Z</time>
        <sat>9</sat>
      </trkpt>
      <trkpt lat="37.792280" lon="-119.056137">
        <ele>2596.8</ele>
        <time>2014-06-29T19:58:21Z</time>
        <sat>9</sat>
      </trkpt>
      <trkpt lat="37.792338" lon="-119.056268">
        <ele>2596.2</ele>
        <time>2014-06-29T19:58:23Z</time>
        <sat>9</sat>
      </trkpt>
      <trkpt lat="37.792385" lon="-119.056405">
        <ele>2595.5</ele>
        <time>2014-06-29T19:58:25Z</time>
        <sat>9</sat>
      </trkpt>
      <trkpt lat="37.792423" lon="-119.056553">
        <ele>2594.8</ele>
        <time>2014-06-29T19:58:27Z</time>
        <sat>9</sat>
      </trkpt>
      <trkpt lat="37.792460" lon="-119.056708">
        <ele>2593.9</ele>
        <time>2014-06-29T19:58:29Z</time>
        <sat>9</sat>
      </trkpt>
      <trkpt lat="37.792482" lon="-119.056863">
        <ele>2593.3</ele>
        <time>2014-06-29T19:58:31Z</time>
        <sat>9</sat>
      </trkpt>
      <trkpt lat="37.792507" lon="-119.057028">
        <ele>2592.2</ele>
        <time>2014-06-29T19:58:33Z</time>
        <sat>9</sat>
      </trkpt>
      <trkpt lat="37.792547" lon="-119.057243">
        <ele>2590.6</ele>
        <time>2014-06-29T19:58:35Z</time>
        <sat>9</sat>
      </trkpt>
      <trkpt lat="37.792605" lon="-119.057437">
        <ele>2589.2</ele>
        <time>2014-06-29T19:58:37Z</time>
        <sat>9</sat>
      </trkpt>
      <trkpt lat="37.792660" lon="-119.057625">
        <ele>2587.6</ele>
        <time>2014-06-29T19:58:39Z</time>
        <sat>9</sat>
      </trkpt>
      <trkpt lat="37.792722" lon="-119.057812">
        <ele>2586.1</ele>
        <time>2014-06-29T19:58:41Z</time>
        <sat>9</sat>
      </trkpt>
      <trkpt lat="37.792767" lon="-119.057997">
        <ele>2584.5</ele>
        <time>2014-06-29T19:58:43Z</time>
        <sat>9</sat>
      </trkpt>
      <trkpt lat="37.792788" lon="-119.058158">
        <ele>2583.1</ele>
        <time>2014-06-29T19:58:45Z</time>
        <sat>9</sat>
      </trkpt>
      <trkpt lat="37.792797" lon="-119.058302">
        <ele>2582.0</ele>
        <time>2014-06-29T19:58:47Z</time>
        <sat>9</sat>
      </trkpt>
      <trkpt lat="37.792838" lon="-119.058413">
        <ele>2580.5</ele>
        <time>2014-06-29T19:58:49Z</time>
        <sat>9</sat>
      </trkpt>
      <trkpt lat="37.792925" lon="-119.058465">
        <ele>2579.3</ele>
        <time>2014-06-29T19:58:51Z</time>
        <sat>9</sat>
      </trkpt>
      <trkpt lat="37.793012" lon="-119.058508">
        <ele>2578.8</ele>
        <time>2014-06-29T19:58:53Z</time>
        <sat>9</sat>
      </trkpt>
      <trkpt lat="37.793073" lon="-119.058625">
        <ele>2578.6</ele>
        <time>2014-06-29T19:58:56Z</time>
        <sat>8</sat>
      </trkpt>
      <trkpt lat="37.793153" lon="-119.058723">
        <ele>2577.9</ele>
        <time>2014-06-29T19:58:59Z</time>
        <sat>9</sat>
      </trkpt>
      <trkpt lat="37.793180" lon="-119.058608">
        <ele>2580.4</ele>
        <time>2014-06-29T20:03:47Z</time>
        <sat>9</sat>
      </trkpt>
      <trkpt lat="37.793007" lon="-119.058527">
        <ele>2581.4</ele>
        <time>2014-06-29T20:03:57Z</time>
        <sat>9</sat>
      </trkpt>
      <trkpt lat="37.793015" lon="-119.058412">
        <ele>2581.8</ele>
        <time>2014-06-29T20:04:03Z</time>
        <sat>9</sat>
      </trkpt>
      <trkpt lat="37.793087" lon="-119.058327">
        <ele>2581.3</ele>
        <time>2014-06-29T20:04:07Z</time>
        <sat>9</sat>
      </trkpt>
      <trkpt lat="37.793173" lon="-119.058222">
        <ele>2580.8</ele>
        <time>2014-06-29T20:04:10Z</time>
        <sat>9</sat>
      </trkpt>
      <trkpt lat="37.793260" lon="-119.058128">
        <ele>2579.8</ele>
        <time>2014-06-29T20:04:12Z</time>
        <sat>9</sat>
      </trkpt>
      <trkpt lat="37.793345" lon="-119.058010">
        <ele>2579.1</ele>
        <time>2014-06-29T20:04:14Z</time>
        <sat>9</sat>
      </trkpt>
      <trkpt lat="37.793465" lon="-119.057883">
        <ele>2578.3</ele>
        <time>2014-06-29T20:04:16Z</time>
        <sat>9</sat>
      </trkpt>
      <trkpt lat="37.793585" lon="-119.057735">
        <ele>2577.2</ele>
        <time>2014-06-29T20:04:18Z</time>
        <sat>9</sat>
      </trkpt>
      <trkpt lat="37.793682" lon="-119.057563">
        <ele>2576.1</ele>
        <time>2014-06-29T20:04:20Z</time>
        <sat>9</sat>
      </trkpt>
      <trkpt lat="37.793783" lon="-119.057383">
        <ele>2575.0</ele>
        <time>2014-06-29T20:04:22Z</time>
        <sat>9</sat>
      </trkpt>
      <trkpt lat="37.793893" lon="-119.057208">
        <ele>2573.9</ele>
        <time>2014-06-29T20:04:24Z</time>
        <sat>9</sat>
      </trkpt>
      <trkpt lat="37.793957" lon="-119.057127">
        <ele>2572.9</ele>
        <time>2014-06-29T20:04:25Z</time>
        <sat>9</sat>
      </trkpt>
      <trkpt lat="37.794017" lon="-119.057042">
        <ele>2572.3</ele>
        <time>2014-06-29T20:04:26Z</time>
        <sat>9</sat>
      </trkpt>
      <trkpt lat="37.794083" lon="-119.056957">
        <ele>2571.7</ele>
        <time>2014-06-29T20:04:27Z</time>
        <sat>9</sat>
      </trkpt>
      <trkpt lat="37.794150" lon="-119.056872">
        <ele>2571.1</ele>
        <time>2014-06-29T20:04:28Z</time>
        <sat>9</sat>
      </trkpt>
      <trkpt lat="37.794218" lon="-119.056788">
        <ele>2570.4</ele>
        <time>2014-06-29T20:04:29Z</time>
        <sat>9</sat>
      </trkpt>
      <trkpt lat="37.794290" lon="-119.056710">
        <ele>2569.4</ele>
        <time>2014-06-29T20:04:30Z</time>
        <sat>9</sat>
      </trkpt>
      <trkpt lat="37.794372" lon="-119.056638">
        <ele>2568.5</ele>
        <time>2014-06-29T20:04:31Z</time>
        <sat>9</sat>
      </trkpt>
      <trkpt lat="37.794452" lon="-119.056585">
        <ele>2567.8</ele>
        <time>2014-06-29T20:04:32Z</time>
        <sat>9</sat>
      </trkpt>
      <trkpt lat="37.794528" lon="-119.056520">
        <ele>2567.0</ele>
        <time>2014-06-29T20:04:33Z</time>
        <sat>9</sat>
      </trkpt>
      <trkpt lat="37.794603" lon="-119.056445">
        <ele>2565.8</ele>
        <time>2014-06-29T20:04:34Z</time>
        <sat>9</sat>
      </trkpt>
      <trkpt lat="37.794728" lon="-119.056300">
        <ele>2564.3</ele>
        <time>2014-06-29T20:04:36Z</time>
        <sat>9</sat>
      </trkpt>
      <trkpt lat="37.794817" lon="-119.056227">
        <ele>2562.5</ele>
        <time>2014-06-29T20:04:38Z</time>
        <sat>9</sat>
      </trkpt>
      <trkpt lat="37.794872" lon="-119.056332">
        <ele>2559.7</ele>
        <time>2014-06-29T20:04:59Z</time>
        <sat>9</sat>
      </trkpt>
      <trkpt lat="37.795005" lon="-119.056543">
        <ele>2559.4</ele>
        <time>2014-06-29T20:05:07Z</time>
        <sat>9</sat>
      </trkpt>
      <trkpt lat="37.795092" lon="-119.056605">
        <ele>2559.4</ele>
        <time>2014-06-29T20:05:10Z</time>
        <sat>9</sat>
      </trkpt>
      <trkpt lat="37.795220" lon="-119.056615">
        <ele>2559.0</ele>
        <time>2014-06-29T20:05:13Z</time>
        <sat>9</sat>
      </trkpt>
      <trkpt lat="37.795323" lon="-119.056568">
        <ele>2558.7</ele>
        <time>2014-06-29T20:05:15Z</time>
        <sat>9</sat>
      </trkpt>
      <trkpt lat="37.795433" lon="-119.056513">
        <ele>2558.2</ele>
        <time>2014-06-29T20:05:17Z</time>
        <sat>9</sat>
      </trkpt>
      <trkpt lat="37.795557" lon="-119.056442">
        <ele>2557.4</ele>
        <time>2014-06-29T20:05:19Z</time>
        <sat>9</sat>
      </trkpt>
      <trkpt lat="37.795692" lon="-119.056403">
        <ele>2556.2</ele>
        <time>2014-06-29T20:05:21Z</time>
        <sat>9</sat>
      </trkpt>
      <trkpt lat="37.795827" lon="-119.056402">
        <ele>2554.9</ele>
        <time>2014-06-29T20:05:23Z</time>
        <sat>9</sat>
      </trkpt>
      <trkpt lat="37.795935" lon="-119.056377">
        <ele>2552.9</ele>
        <time>2014-06-29T20:05:25Z</time>
        <sat>9</sat>
      </trkpt>
      <trkpt lat="37.795978" lon="-119.056268">
        <ele>2551.2</ele>
        <time>2014-06-29T20:05:27Z</time>
        <sat>9</sat>
      </trkpt>
      <trkpt lat="37.796010" lon="-119.056137">
        <ele>2549.4</ele>
        <time>2014-06-29T20:05:29Z</time>
        <sat>9</sat>
      </trkpt>
      <trkpt lat="37.796107" lon="-119.056052">
        <ele>2547.4</ele>
        <time>2014-06-29T20:05:31Z</time>
        <sat>9</sat>
      </trkpt>
      <trkpt lat="37.796217" lon="-119.055947">
        <ele>2544.9</ele>
        <time>2014-06-29T20:05:33Z</time>
        <sat>9</sat>
      </trkpt>
      <trkpt lat="37.796287" lon="-119.055810">
        <ele>2543.1</ele>
        <time>2014-06-29T20:05:35Z</time>
        <sat>9</sat>
      </trkpt>
      <trkpt lat="37.796403" lon="-119.055722">
        <ele>2541.3</ele>
        <time>2014-06-29T20:05:37Z</time>
        <sat>9</sat>
      </trkpt>
      <trkpt lat="37.796528" lon="-119.055682">
        <ele>2539.3</ele>
        <time>2014-06-29T20:05:39Z</time>
        <sat>9</sat>
      </trkpt>
      <trkpt lat="37.796655" lon="-119.055632">
        <ele>2537.7</ele>
        <time>2014-06-29T20:05:41Z</time>
        <sat>9</sat>
      </trkpt>
      <trkpt lat="37.796795" lon="-119.055577">
        <ele>2535.7</ele>
        <time>2014-06-29T20:05:43Z</time>
        <sat>9</sat>
      </trkpt>
      <trkpt lat="37.796917" lon="-119.055542">
        <ele>2533.7</ele>
        <time>2014-06-29T20:05:45Z</time>
        <sat>9</sat>
      </trkpt>
      <trkpt lat="37.797035" lon="-119.055491">
        <ele>2532.0</ele>
        <time>2014-06-29T20:05:47Z</time>
        <sat>9</sat>
      </trkpt>
      <trkpt lat="37.797138" lon="-119.055428">
        <ele>2530.5</ele>
        <time>2014-06-29T20:05:49Z</time>
        <sat>9</sat>
      </trkpt>
      <trkpt lat="37.797215" lon="-119.055305">
        <ele>2528.9</ele>
        <time>2014-06-29T20:05:51Z</time>
        <sat>9</sat>
      </trkpt>
      <trkpt lat="37.797275" lon="-119.055155">
        <ele>2527.1</ele>
        <time>2014-06-29T20:05:53Z</time>
        <sat>9</sat>
      </trkpt>
      <trkpt lat="37.797375" lon="-119.055028">
        <ele>2525.0</ele>
        <time>2014-06-29T20:05:55Z</time>
        <sat>9</sat>
      </trkpt>
      <trkpt lat="37.797475" lon="-119.054903">
        <ele>2522.9</ele>
        <time>2014-06-29T20:05:57Z</time>
        <sat>9</sat>
      </trkpt>
      <trkpt lat="37.797587" lon="-119.054815">
        <ele>2521.0</ele>
        <time>2014-06-29T20:05:59Z</time>
        <sat>9</sat>
      </trkpt>
      <trkpt lat="37.797702" lon="-119.054742">
        <ele>2519.4</ele>
        <time>2014-06-29T20:06:01Z</time>
        <sat>9</sat>
      </trkpt>
      <trkpt lat="37.797858" lon="-119.054507">
        <ele>2516.8</ele>
        <time>2014-06-29T20:06:05Z</time>
        <sat>9</sat>
      </trkpt>
      <trkpt lat="37.797942" lon="-119.054397">
        <ele>2514.8</ele>
        <time>2014-06-29T20:06:07Z</time>
        <sat>9</sat>
      </trkpt>
      <trkpt lat="37.798013" lon="-119.054297">
        <ele>2512.7</ele>
        <time>2014-06-29T20:06:09Z</time>
        <sat>9</sat>
      </trkpt>
      <trkpt lat="37.798083" lon="-119.054165">
        <ele>2509.3</ele>
        <time>2014-06-29T20:06:12Z</time>
        <sat>9</sat>
      </trkpt>
      <trkpt lat="37.798152" lon="-119.054047">
        <ele>2505.7</ele>
        <time>2014-06-29T20:06:15Z</time>
        <sat>9</sat>
      </trkpt>
      <trkpt lat="37.798235" lon="-119.053910">
        <ele>2502.0</ele>
        <time>2014-06-29T20:06:18Z</time>
        <sat>9</sat>
      </trkpt>
      <trkpt lat="37.798287" lon="-119.053805">
        <ele>2499.4</ele>
        <time>2014-06-29T20:06:21Z</time>
        <sat>9</sat>
      </trkpt>
      <trkpt lat="37.798305" lon="-119.053640">
        <ele>2495.2</ele>
        <time>2014-06-29T20:06:44Z</time>
        <sat>9</sat>
      </trkpt>
      <trkpt lat="37.798343" lon="-119.053517">
        <ele>2494.1</ele>
        <time>2014-06-29T20:06:46Z</time>
        <sat>9</sat>
      </trkpt>
      <trkpt lat="37.798397" lon="-119.053402">
        <ele>2493.0</ele>
        <time>2014-06-29T20:06:48Z</time>
        <sat>9</sat>
      </trkpt>
      <trkpt lat="37.798480" lon="-119.053347">
        <ele>2492.2</ele>
        <time>2014-06-29T20:06:50Z</time>
        <sat>9</sat>
      </trkpt>
      <trkpt lat="37.798597" lon="-119.053335">
        <ele>2491.4</ele>
        <time>2014-06-29T20:06:52Z</time>
        <sat>9</sat>
      </trkpt>
      <trkpt lat="37.798718" lon="-119.053353">
        <ele>2490.5</ele>
        <time>2014-06-29T20:06:54Z</time>
        <sat>9</sat>
      </trkpt>
      <trkpt lat="37.798838" lon="-119.053345">
        <ele>2490.0</ele>
        <time>2014-06-29T20:06:56Z</time>
        <sat>9</sat>
      </trkpt>
      <trkpt lat="37.798953" lon="-119.053267">
        <ele>2489.3</ele>
        <time>2014-06-29T20:06:58Z</time>
        <sat>9</sat>
      </trkpt>
      <trkpt lat="37.799073" lon="-119.053178">
        <ele>2487.8</ele>
        <time>2014-06-29T20:07:00Z</time>
        <sat>9</sat>
      </trkpt>
      <trkpt lat="37.799205" lon="-119.053108">
        <ele>2486.3</ele>
        <time>2014-06-29T20:07:02Z</time>
        <sat>9</sat>
      </trkpt>
      <trkpt lat="37.799463" lon="-119.052948">
        <ele>2483.2</ele>
        <time>2014-06-29T20:07:06Z</time>
        <sat>9</sat>
      </trkpt>
      <trkpt lat="37.799578" lon="-119.052862">
        <ele>2481.1</ele>
        <time>2014-06-29T20:07:08Z</time>
        <sat>9</sat>
      </trkpt>
      <trkpt lat="37.799682" lon="-119.052778">
        <ele>2479.5</ele>
        <time>2014-06-29T20:07:10Z</time>
        <sat>9</sat>
      </trkpt>
      <trkpt lat="37.799785" lon="-119.052692">
        <ele>2478.0</ele>
        <time>2014-06-29T20:07:12Z</time>
        <sat>9</sat>
      </trkpt>
      <trkpt lat="37.799895" lon="-119.052600">
        <ele>2476.5</ele>
        <time>2014-06-29T20:07:14Z</time>
        <sat>9</sat>
      </trkpt>
      <trkpt lat="37.800002" lon="-119.052510">
        <ele>2475.0</ele>
        <time>2014-06-29T20:07:16Z</time>
        <sat>9</sat>
      </trkpt>
      <trkpt lat="37.800108" lon="-119.052418">
        <ele>2473.5</ele>
        <time>2014-06-29T20:07:18Z</time>
        <sat>9</sat>
      </trkpt>
      <trkpt lat="37.800210" lon="-119.052322">
        <ele>2471.8</ele>
        <time>2014-06-29T20:07:20Z</time>
        <sat>9</sat>
      </trkpt>
      <trkpt lat="37.800305" lon="-119.052222">
        <ele>2470.0</ele>
        <time>2014-06-29T20:07:22Z</time>
        <sat>9</sat>
      </trkpt>
      <trkpt lat="37.800392" lon="-119.052120">
        <ele>2468.2</ele>
        <time>2014-06-29T20:07:24Z</time>
        <sat>9</sat>
      </trkpt>
      <trkpt lat="37.800495" lon="-119.052003">
        <ele>2466.3</ele>
        <time>2014-06-29T20:07:26Z</time>
        <sat>9</sat>
      </trkpt>
      <trkpt lat="37.800585" lon="-119.051895">
        <ele>2464.5</ele>
        <time>2014-06-29T20:07:28Z</time>
        <sat>9</sat>
      </trkpt>
      <trkpt lat="37.800672" lon="-119.051788">
        <ele>2462.5</ele>
        <time>2014-06-29T20:07:30Z</time>
        <sat>9</sat>
      </trkpt>
      <trkpt lat="37.800753" lon="-119.051675">
        <ele>2460.8</ele>
        <time>2014-06-29T20:07:32Z</time>
        <sat>9</sat>
      </trkpt>
      <trkpt lat="37.800820" lon="-119.051568">
        <ele>2459.2</ele>
        <time>2014-06-29T20:07:34Z</time>
        <sat>9</sat>
      </trkpt>
      <trkpt lat="37.800903" lon="-119.051453">
        <ele>2457.4</ele>
        <time>2014-06-29T20:07:36Z</time>
        <sat>9</sat>
      </trkpt>
      <trkpt lat="37.800978" lon="-119.051342">
        <ele>2455.8</ele>
        <time>2014-06-29T20:07:38Z</time>
        <sat>9</sat>
      </trkpt>
      <trkpt lat="37.801040" lon="-119.051247">
        <ele>2454.3</ele>
        <time>2014-06-29T20:07:40Z</time>
        <sat>9</sat>
      </trkpt>
      <trkpt lat="37.801108" lon="-119.051145">
        <ele>2452.9</ele>
        <time>2014-06-29T20:07:42Z</time>
        <sat>9</sat>
      </trkpt>
      <trkpt lat="37.801180" lon="-119.051038">
        <ele>2451.8</ele>
        <time>2014-06-29T20:07:44Z</time>
        <sat>9</sat>
      </trkpt>
      <trkpt lat="37.801260" lon="-119.050920">
        <ele>2450.8</ele>
        <time>2014-06-29T20:07:46Z</time>
        <sat>9</sat>
      </trkpt>
      <trkpt lat="37.801340" lon="-119.050807">
        <ele>2449.5</ele>
        <time>2014-06-29T20:07:48Z</time>
        <sat>9</sat>
      </trkpt>
      <trkpt lat="37.801418" lon="-119.050695">
        <ele>2448.2</ele>
        <time>2014-06-29T20:07:50Z</time>
        <sat>9</sat>
      </trkpt>
      <trkpt lat="37.801492" lon="-119.050617">
        <ele>2446.8</ele>
        <time>2014-06-29T20:07:52Z</time>
        <sat>9</sat>
      </trkpt>
      <trkpt lat="37.801560" lon="-119.050530">
        <ele>2445.7</ele>
        <time>2014-06-29T20:07:54Z</time>
        <sat>9</sat>
      </trkpt>
      <trkpt lat="37.801635" lon="-119.050432">
        <ele>2444.6</ele>
        <time>2014-06-29T20:07:56Z</time>
        <sat>9</sat>
      </trkpt>
      <trkpt lat="37.801705" lon="-119.050320">
        <ele>2443.6</ele>
        <time>2014-06-29T20:07:58Z</time>
        <sat>9</sat>
      </trkpt>
      <trkpt lat="37.801767" lon="-119.050207">
        <ele>2442.4</ele>
        <time>2014-06-29T20:08:00Z</time>
        <sat>9</sat>
      </trkpt>
      <trkpt lat="37.801835" lon="-119.050073">
        <ele>2441.2</ele>
        <time>2014-06-29T20:08:03Z</time>
        <sat>9</sat>
      </trkpt>
      <trkpt lat="37.801943" lon="-119.049820">
        <ele>2439.4</ele>
        <time>2014-06-29T20:08:08Z</time>
        <sat>9</sat>
      </trkpt>
      <trkpt lat="37.802000" lon="-119.049675">
        <ele>2438.6</ele>
        <time>2014-06-29T20:08:11Z</time>
        <sat>9</sat>
      </trkpt>
      <trkpt lat="37.802048" lon="-119.049565">
        <ele>2437.8</ele>
        <time>2014-06-29T20:08:13Z</time>
        <sat>9</sat>
      </trkpt>
      <trkpt lat="37.802100" lon="-119.049453">
        <ele>2437.1</ele>
        <time>2014-06-29T20:08:15Z</time>
        <sat>9</sat>
      </trkpt>
      <trkpt lat="37.802167" lon="-119.049345">
        <ele>2436.5</ele>
        <time>2014-06-29T20:08:17Z</time>
        <sat>9</sat>
      </trkpt>
      <trkpt lat="37.802250" lon="-119.049232">
        <ele>2436.0</ele>
        <time>2014-06-29T20:08:19Z</time>
        <sat>9</sat>
      </trkpt>
      <trkpt lat="37.802343" lon="-119.049130">
        <ele>2435.3</ele>
        <time>2014-06-29T20:08:21Z</time>
        <sat>9</sat>
      </trkpt>
      <trkpt lat="37.802448" lon="-119.049033">
        <ele>2435.1</ele>
        <time>2014-06-29T20:08:23Z</time>
        <sat>9</sat>
      </trkpt>
      <trkpt lat="37.802570" lon="-119.048932">
        <ele>2434.3</ele>
        <time>2014-06-29T20:08:25Z</time>
        <sat>9</sat>
      </trkpt>
      <trkpt lat="37.802687" lon="-119.048835">
        <ele>2433.7</ele>
        <time>2014-06-29T20:08:27Z</time>
        <sat>9</sat>
      </trkpt>
      <trkpt lat="37.802805" lon="-119.048735">
        <ele>2432.9</ele>
        <time>2014-06-29T20:08:29Z</time>
        <sat>9</sat>
      </trkpt>
      <trkpt lat="37.802917" lon="-119.048635">
        <ele>2432.6</ele>
        <time>2014-06-29T20:08:31Z</time>
        <sat>9</sat>
      </trkpt>
      <trkpt lat="37.803032" lon="-119.048530">
        <ele>2432.1</ele>
        <time>2014-06-29T20:08:33Z</time>
        <sat>9</sat>
      </trkpt>
      <trkpt lat="37.803145" lon="-119.048425">
        <ele>2431.5</ele>
        <time>2014-06-29T20:08:35Z</time>
        <sat>9</sat>
      </trkpt>
      <trkpt lat="37.803252" lon="-119.048323">
        <ele>2430.8</ele>
        <time>2014-06-29T20:08:37Z</time>
        <sat>9</sat>
      </trkpt>
      <trkpt lat="37.803362" lon="-119.048218">
        <ele>2429.9</ele>
        <time>2014-06-29T20:08:39Z</time>
        <sat>9</sat>
      </trkpt>
      <trkpt lat="37.803478" lon="-119.048132">
        <ele>2428.8</ele>
        <time>2014-06-29T20:08:41Z</time>
        <sat>9</sat>
      </trkpt>
      <trkpt lat="37.803585" lon="-119.048075">
        <ele>2427.5</ele>
        <time>2014-06-29T20:08:43Z</time>
        <sat>9</sat>
      </trkpt>
      <trkpt lat="37.803687" lon="-119.048052">
        <ele>2426.3</ele>
        <time>2014-06-29T20:08:45Z</time>
        <sat>9</sat>
      </trkpt>
      <trkpt lat="37.803798" lon="-119.048077">
        <ele>2425.1</ele>
        <time>2014-06-29T20:08:47Z</time>
        <sat>9</sat>
      </trkpt>
      <trkpt lat="37.803897" lon="-119.048163">
        <ele>2423.6</ele>
        <time>2014-06-29T20:08:49Z</time>
        <sat>9</sat>
      </trkpt>
      <trkpt lat="37.804002" lon="-119.048233">
        <ele>2422.3</ele>
        <time>2014-06-29T20:08:51Z</time>
        <sat>9</sat>
      </trkpt>
      <trkpt lat="37.804143" lon="-119.048218">
        <ele>2420.8</ele>
        <time>2014-06-29T20:08:53Z</time>
        <sat>9</sat>
      </trkpt>
      <trkpt lat="37.804267" lon="-119.048125">
        <ele>2419.6</ele>
        <time>2014-06-29T20:08:55Z</time>
        <sat>9</sat>
      </trkpt>
      <trkpt lat="37.804392" lon="-119.048020">
        <ele>2418.4</ele>
        <time>2014-06-29T20:08:57Z</time>
        <sat>9</sat>
      </trkpt>
      <trkpt lat="37.804535" lon="-119.047925">
        <ele>2417.4</ele>
        <time>2014-06-29T20:08:59Z</time>
        <sat>9</sat>
      </trkpt>
      <trkpt lat="37.804690" lon="-119.047863">
        <ele>2416.0</ele>
        <time>2014-06-29T20:09:01Z</time>
        <sat>9</sat>
      </trkpt>
      <trkpt lat="37.804853" lon="-119.047827">
        <ele>2414.6</ele>
        <time>2014-06-29T20:09:03Z</time>
        <sat>9</sat>
      </trkpt>
      <trkpt lat="37.805017" lon="-119.047815">
        <ele>2412.9</ele>
        <time>2014-06-29T20:09:05Z</time>
        <sat>9</sat>
      </trkpt>
      <trkpt lat="37.805323" lon="-119.047797">
        <ele>2409.8</ele>
        <time>2014-06-29T20:09:09Z</time>
        <sat>9</sat>
      </trkpt>
      <trkpt lat="37.805472" lon="-119.047763">
        <ele>2408.4</ele>
        <time>2014-06-29T20:09:11Z</time>
        <sat>9</sat>
      </trkpt>
      <trkpt lat="37.805607" lon="-119.047687">
        <ele>2407.3</ele>
        <time>2014-06-29T20:09:13Z</time>
        <sat>9</sat>
      </trkpt>
      <trkpt lat="37.805725" lon="-119.047615">
        <ele>2406.2</ele>
        <time>2014-06-29T20:09:15Z</time>
        <sat>9</sat>
      </trkpt>
      <trkpt lat="37.805852" lon="-119.047600">
        <ele>2405.4</ele>
        <time>2014-06-29T20:09:17Z</time>
        <sat>9</sat>
      </trkpt>
      <trkpt lat="37.805957" lon="-119.047632">
        <ele>2404.7</ele>
        <time>2014-06-29T20:09:19Z</time>
        <sat>9</sat>
      </trkpt>
      <trkpt lat="37.806050" lon="-119.047668">
        <ele>2404.1</ele>
        <time>2014-06-29T20:09:21Z</time>
        <sat>9</sat>
      </trkpt>
      <trkpt lat="37.806153" lon="-119.047688">
        <ele>2403.4</ele>
        <time>2014-06-29T20:09:23Z</time>
        <sat>9</sat>
      </trkpt>
      <trkpt lat="37.806258" lon="-119.047700">
        <ele>2402.9</ele>
        <time>2014-06-29T20:09:25Z</time>
        <sat>9</sat>
      </trkpt>
      <trkpt lat="37.806377" lon="-119.047700">
        <ele>2402.6</ele>
        <time>2014-06-29T20:09:27Z</time>
        <sat>9</sat>
      </trkpt>
      <trkpt lat="37.806497" lon="-119.047703">
        <ele>2402.0</ele>
        <time>2014-06-29T20:09:29Z</time>
        <sat>9</sat>
      </trkpt>
      <trkpt lat="37.806620" lon="-119.047703">
        <ele>2401.6</ele>
        <time>2014-06-29T20:09:31Z</time>
        <sat>9</sat>
      </trkpt>
      <trkpt lat="37.806747" lon="-119.047700">
        <ele>2401.2</ele>
        <time>2014-06-29T20:09:33Z</time>
        <sat>9</sat>
      </trkpt>
      <trkpt lat="37.806865" lon="-119.047712">
        <ele>2400.7</ele>
        <time>2014-06-29T20:09:35Z</time>
        <sat>9</sat>
      </trkpt>
      <trkpt lat="37.806983" lon="-119.047735">
        <ele>2400.3</ele>
        <time>2014-06-29T20:09:37Z</time>
        <sat>9</sat>
      </trkpt>
      <trkpt lat="37.807100" lon="-119.047767">
        <ele>2399.4</ele>
        <time>2014-06-29T20:09:39Z</time>
        <sat>9</sat>
      </trkpt>
      <trkpt lat="37.807213" lon="-119.047807">
        <ele>2398.9</ele>
        <time>2014-06-29T20:09:41Z</time>
        <sat>9</sat>
      </trkpt>
      <trkpt lat="37.807323" lon="-119.047853">
        <ele>2398.4</ele>
        <time>2014-06-29T20:09:43Z</time>
        <sat>9</sat>
      </trkpt>
      <trkpt lat="37.807427" lon="-119.047897">
        <ele>2398.2</ele>
        <time>2014-06-29T20:09:45Z</time>
        <sat>9</sat>
      </trkpt>
      <trkpt lat="37.807523" lon="-119.047947">
        <ele>2397.9</ele>
        <time>2014-06-29T20:09:47Z</time>
        <sat>9</sat>
      </trkpt>
      <trkpt lat="37.807615" lon="-119.048018">
        <ele>2397.4</ele>
        <time>2014-06-29T20:09:50Z</time>
        <sat>9</sat>
      </trkpt>
      <trkpt lat="37.807678" lon="-119.048118">
        <ele>2397.8</ele>
        <time>2014-06-29T20:10:15Z</time>
        <sat>9</sat>
      </trkpt>
      <trkpt lat="37.807747" lon="-119.048343">
        <ele>2400.0</ele>
        <time>2014-06-29T20:10:37Z</time>
        <sat>9</sat>
      </trkpt>
      <trkpt lat="37.807757" lon="-119.048457">
        <ele>2402.3</ele>
        <time>2014-06-29T20:10:52Z</time>
        <sat>9</sat>
      </trkpt>
      <trkpt lat="37.807777" lon="-119.048573">
        <ele>2403.5</ele>
        <time>2014-06-29T20:11:07Z</time>
        <sat>9</sat>
      </trkpt>
      <trkpt lat="37.807797" lon="-119.048692">
        <ele>2405.6</ele>
        <time>2014-06-29T20:11:20Z</time>
        <sat>9</sat>
      </trkpt>
      <trkpt lat="37.807953" lon="-119.048830">
        <ele>2407.4</ele>
        <time>2014-06-29T20:11:44Z</time>
        <sat>9</sat>
      </trkpt>
      <trkpt lat="37.808063" lon="-119.048875">
        <ele>2406.9</ele>
        <time>2014-06-29T20:11:48Z</time>
        <sat>9</sat>
      </trkpt>
      <trkpt lat="37.808205" lon="-119.048923">
        <ele>2406.0</ele>
        <time>2014-06-29T20:11:51Z</time>
        <sat>9</sat>
      </trkpt>
      <trkpt lat="37.808307" lon="-119.048968">
        <ele>2405.6</ele>
        <time>2014-06-29T20:11:53Z</time>
        <sat>9</sat>
      </trkpt>
      <trkpt lat="37.808415" lon="-119.049035">
        <ele>2405.9</ele>
        <time>2014-06-29T20:11:56Z</time>
        <sat>9</sat>
      </trkpt>
      <trkpt lat="37.808502" lon="-119.049095">
        <ele>2406.9</ele>
        <time>2014-06-29T20:12:00Z</time>
        <sat>9</sat>
      </trkpt>
      <trkpt lat="37.808573" lon="-119.049172">
        <ele>2408.3</ele>
        <time>2014-06-29T20:12:08Z</time>
        <sat>9</sat>
      </trkpt>
      <trkpt lat="37.808630" lon="-119.049290">
        <ele>2406.6</ele>
        <time>2014-06-29T20:12:14Z</time>
        <sat>9</sat>
      </trkpt>
      <trkpt lat="37.808678" lon="-119.049395">
        <ele>2404.1</ele>
        <time>2014-06-29T20:12:18Z</time>
        <sat>9</sat>
      </trkpt>
      <trkpt lat="37.808665" lon="-119.049517">
        <ele>2401.9</ele>
        <time>2014-06-29T20:12:39Z</time>
        <sat>9</sat>
      </trkpt>
      <trkpt lat="37.808658" lon="-119.049758">
        <ele>2401.3</ele>
        <time>2014-06-29T20:12:45Z</time>
        <sat>9</sat>
      </trkpt>
      <trkpt lat="37.808677" lon="-119.049915">
        <ele>2401.3</ele>
        <time>2014-06-29T20:12:48Z</time>
        <sat>9</sat>
      </trkpt>
      <trkpt lat="37.808698" lon="-119.050058">
        <ele>2400.8</ele>
        <time>2014-06-29T20:12:51Z</time>
        <sat>9</sat>
      </trkpt>
      <trkpt lat="37.808738" lon="-119.050200">
        <ele>2400.3</ele>
        <time>2014-06-29T20:12:54Z</time>
        <sat>9</sat>
      </trkpt>
      <trkpt lat="37.808805" lon="-119.050290">
        <ele>2400.0</ele>
        <time>2014-06-29T20:12:56Z</time>
        <sat>9</sat>
      </trkpt>
      <trkpt lat="37.808878" lon="-119.050392">
        <ele>2399.3</ele>
        <time>2014-06-29T20:12:58Z</time>
        <sat>9</sat>
      </trkpt>
      <trkpt lat="37.808978" lon="-119.050473">
        <ele>2398.6</ele>
        <time>2014-06-29T20:13:00Z</time>
        <sat>9</sat>
      </trkpt>
      <trkpt lat="37.809108" lon="-119.050510">
        <ele>2398.1</ele>
        <time>2014-06-29T20:13:02Z</time>
        <sat>9</sat>
      </trkpt>
      <trkpt lat="37.809245" lon="-119.050515">
        <ele>2397.8</ele>
        <time>2014-06-29T20:13:04Z</time>
        <sat>9</sat>
      </trkpt>
      <trkpt lat="37.809383" lon="-119.050502">
        <ele>2397.3</ele>
        <time>2014-06-29T20:13:06Z</time>
        <sat>9</sat>
      </trkpt>
      <trkpt lat="37.809518" lon="-119.050500">
        <ele>2397.0</ele>
        <time>2014-06-29T20:13:08Z</time>
        <sat>9</sat>
      </trkpt>
      <trkpt lat="37.809613" lon="-119.050548">
        <ele>2396.9</ele>
        <time>2014-06-29T20:13:10Z</time>
        <sat>9</sat>
      </trkpt>
      <trkpt lat="37.809673" lon="-119.050633">
        <ele>2396.4</ele>
        <time>2014-06-29T20:13:13Z</time>
        <sat>9</sat>
      </trkpt>
      <trkpt lat="37.809723" lon="-119.050765">
        <ele>2395.3</ele>
        <time>2014-06-29T20:13:18Z</time>
        <sat>9</sat>
      </trkpt>
      <trkpt lat="37.809825" lon="-119.050865">
        <ele>2394.3</ele>
        <time>2014-06-29T20:13:21Z</time>
        <sat>9</sat>
      </trkpt>
      <trkpt lat="37.809935" lon="-119.050918">
        <ele>2393.6</ele>
        <time>2014-06-29T20:13:23Z</time>
        <sat>9</sat>
      </trkpt>
      <trkpt lat="37.810025" lon="-119.050995">
        <ele>2392.8</ele>
        <time>2014-06-29T20:13:25Z</time>
        <sat>9</sat>
      </trkpt>
      <trkpt lat="37.810115" lon="-119.051085">
        <ele>2392.2</ele>
        <time>2014-06-29T20:13:27Z</time>
        <sat>9</sat>
      </trkpt>
      <trkpt lat="37.810197" lon="-119.051175">
        <ele>2391.9</ele>
        <time>2014-06-29T20:13:29Z</time>
        <sat>9</sat>
      </trkpt>
      <trkpt lat="37.810275" lon="-119.051273">
        <ele>2391.0</ele>
        <time>2014-06-29T20:13:31Z</time>
        <sat>9</sat>
      </trkpt>
      <trkpt lat="37.810353" lon="-119.051402">
        <ele>2389.5</ele>
        <time>2014-06-29T20:13:33Z</time>
        <sat>9</sat>
      </trkpt>
      <trkpt lat="37.810457" lon="-119.051523">
        <ele>2388.3</ele>
        <time>2014-06-29T20:13:35Z</time>
        <sat>9</sat>
      </trkpt>
      <trkpt lat="37.810577" lon="-119.051613">
        <ele>2386.9</ele>
        <time>2014-06-29T20:13:37Z</time>
        <sat>9</sat>
      </trkpt>
      <trkpt lat="37.810693" lon="-119.051695">
        <ele>2385.4</ele>
        <time>2014-06-29T20:13:39Z</time>
        <sat>9</sat>
      </trkpt>
      <trkpt lat="37.810773" lon="-119.051802">
        <ele>2383.6</ele>
        <time>2014-06-29T20:13:41Z</time>
        <sat>9</sat>
      </trkpt>
      <trkpt lat="37.810838" lon="-119.052090">
        <ele>2379.6</ele>
        <time>2014-06-29T20:13:45Z</time>
        <sat>9</sat>
      </trkpt>
      <trkpt lat="37.810860" lon="-119.052260">
        <ele>2378.0</ele>
        <time>2014-06-29T20:13:47Z</time>
        <sat>9</sat>
      </trkpt>
      <trkpt lat="37.810877" lon="-119.052462">
        <ele>2376.1</ele>
        <time>2014-06-29T20:13:49Z</time>
        <sat>9</sat>
      </trkpt>
      <trkpt lat="37.810912" lon="-119.052648">
        <ele>2374.4</ele>
        <time>2014-06-29T20:13:51Z</time>
        <sat>9</sat>
      </trkpt>
      <trkpt lat="37.810962" lon="-119.052763">
        <ele>2373.3</ele>
        <time>2014-06-29T20:13:53Z</time>
        <sat>9</sat>
      </trkpt>
      <trkpt lat="37.811053" lon="-119.052833">
        <ele>2372.6</ele>
        <time>2014-06-29T20:13:55Z</time>
        <sat>9</sat>
      </trkpt>
      <trkpt lat="37.811133" lon="-119.052898">
        <ele>2372.4</ele>
        <time>2014-06-29T20:13:57Z</time>
        <sat>9</sat>
      </trkpt>
      <trkpt lat="37.811205" lon="-119.052970">
        <ele>2372.2</ele>
        <time>2014-06-29T20:13:59Z</time>
        <sat>9</sat>
      </trkpt>
      <trkpt lat="37.811285" lon="-119.053040">
        <ele>2371.4</ele>
        <time>2014-06-29T20:14:02Z</time>
        <sat>9</sat>
      </trkpt>
      <trkpt lat="37.811370" lon="-119.053105">
        <ele>2370.9</ele>
        <time>2014-06-29T20:14:07Z</time>
        <sat>9</sat>
      </trkpt>
      <trkpt lat="37.811455" lon="-119.053168">
        <ele>2370.9</ele>
        <time>2014-06-29T20:14:11Z</time>
        <sat>9</sat>
      </trkpt>
      <trkpt lat="37.811552" lon="-119.053218">
        <ele>2370.9</ele>
        <time>2014-06-29T20:14:14Z</time>
        <sat>9</sat>
      </trkpt>
      <trkpt lat="37.811658" lon="-119.053290">
        <ele>2370.7</ele>
        <time>2014-06-29T20:14:17Z</time>
        <sat>9</sat>
      </trkpt>
      <trkpt lat="37.811753" lon="-119.053365">
        <ele>2370.6</ele>
        <time>2014-06-29T20:14:20Z</time>
        <sat>9</sat>
      </trkpt>
      <trkpt lat="37.811848" lon="-119.053442">
        <ele>2370.8</ele>
        <time>2014-06-29T20:14:23Z</time>
        <sat>9</sat>
      </trkpt>
      <trkpt lat="37.811942" lon="-119.053510">
        <ele>2371.1</ele>
        <time>2014-06-29T20:14:26Z</time>
        <sat>9</sat>
      </trkpt>
      <trkpt lat="37.812030" lon="-119.053588">
        <ele>2371.0</ele>
        <time>2014-06-29T20:14:29Z</time>
        <sat>9</sat>
      </trkpt>
      <trkpt lat="37.812112" lon="-119.053670">
        <ele>2370.9</ele>
        <time>2014-06-29T20:14:32Z</time>
        <sat>9</sat>
      </trkpt>
      <trkpt lat="37.812195" lon="-119.053740">
        <ele>2370.8</ele>
        <time>2014-06-29T20:14:35Z</time>
        <sat>9</sat>
      </trkpt>
      <trkpt lat="37.812282" lon="-119.053798">
        <ele>2370.6</ele>
        <time>2014-06-29T20:14:38Z</time>
        <sat>9</sat>
      </trkpt>
      <trkpt lat="37.812368" lon="-119.053890">
        <ele>2371.1</ele>
        <time>2014-06-29T20:14:42Z</time>
        <sat>9</sat>
      </trkpt>
      <trkpt lat="37.812592" lon="-119.053950">
        <ele>2370.2</ele>
        <time>2014-06-29T20:14:48Z</time>
        <sat>9</sat>
      </trkpt>
      <trkpt lat="37.812700" lon="-119.053970">
        <ele>2369.7</ele>
        <time>2014-06-29T20:14:52Z</time>
        <sat>9</sat>
      </trkpt>
      <trkpt lat="37.812787" lon="-119.054030">
        <ele>2369.8</ele>
        <time>2014-06-29T20:14:59Z</time>
        <sat>9</sat>
      </trkpt>
      <trkpt lat="37.812703" lon="-119.054073">
        <ele>2370.2</ele>
        <time>2014-06-29T20:16:58Z</time>
        <sat>8</sat>
      </trkpt>
      <trkpt lat="37.812557" lon="-119.053995">
        <ele>2371.8</ele>
        <time>2014-06-29T20:48:37Z</time>
        <sat>9</sat>
      </trkpt>
      <trkpt lat="37.812360" lon="-119.053950">
        <ele>2372.2</ele>
        <time>2014-06-29T20:48:46Z</time>
        <sat>8</sat>
      </trkpt>
      <trkpt lat="37.812360" lon="-119.053817">
        <ele>2372.5</ele>
        <time>2014-06-29T20:48:51Z</time>
        <sat>9</sat>
      </trkpt>
      <trkpt lat="37.812460" lon="-119.053743">
        <ele>2372.3</ele>
        <time>2014-06-29T20:48:54Z</time>
        <sat>10</sat>
      </trkpt>
      <trkpt lat="37.812568" lon="-119.053662">
        <ele>2372.2</ele>
        <time>2014-06-29T20:48:57Z</time>
        <sat>9</sat>
      </trkpt>
      <trkpt lat="37.812668" lon="-119.053585">
        <ele>2372.0</ele>
        <time>2014-06-29T20:49:00Z</time>
        <sat>10</sat>
      </trkpt>
      <trkpt lat="37.812758" lon="-119.053557">
        <ele>2372.1</ele>
        <time>2014-06-29T20:49:02Z</time>
        <sat>10</sat>
      </trkpt>
      <trkpt lat="37.812865" lon="-119.053575">
        <ele>2372.0</ele>
        <time>2014-06-29T20:49:04Z</time>
        <sat>10</sat>
      </trkpt>
      <trkpt lat="37.812973" lon="-119.053635">
        <ele>2372.0</ele>
        <time>2014-06-29T20:49:06Z</time>
        <sat>10</sat>
      </trkpt>
      <trkpt lat="37.813058" lon="-119.053743">
        <ele>2371.8</ele>
        <time>2014-06-29T20:49:08Z</time>
        <sat>9</sat>
      </trkpt>
      <trkpt lat="37.813148" lon="-119.053858">
        <ele>2371.5</ele>
        <time>2014-06-29T20:49:10Z</time>
        <sat>10</sat>
      </trkpt>
      <trkpt lat="37.813240" lon="-119.053978">
        <ele>2371.2</ele>
        <time>2014-06-29T20:49:12Z</time>
        <sat>10</sat>
      </trkpt>
      <trkpt lat="37.813333" lon="-119.054110">
        <ele>2371.2</ele>
        <time>2014-06-29T20:49:14Z</time>
        <sat>9</sat>
      </trkpt>
      <trkpt lat="37.813427" lon="-119.054242">
        <ele>2371.2</ele>
        <time>2014-06-29T20:49:16Z</time>
        <sat>10</sat>
      </trkpt>
      <trkpt lat="37.813522" lon="-119.054370">
        <ele>2370.5</ele>
        <time>2014-06-29T20:49:18Z</time>
        <sat>9</sat>
      </trkpt>
      <trkpt lat="37.813627" lon="-119.054407">
        <ele>2370.2</ele>
        <time>2014-06-29T20:49:20Z</time>
        <sat>10</sat>
      </trkpt>
      <trkpt lat="37.813738" lon="-119.054313">
        <ele>2369.4</ele>
        <time>2014-06-29T20:49:22Z</time>
        <sat>10</sat>
      </trkpt>
      <trkpt lat="37.813842" lon="-119.054213">
        <ele>2368.1</ele>
        <time>2014-06-29T20:49:24Z</time>
        <sat>10</sat>
      </trkpt>
      <trkpt lat="37.813910" lon="-119.054133">
        <ele>2367.3</ele>
        <time>2014-06-29T20:49:26Z</time>
        <sat>10</sat>
      </trkpt>
      <trkpt lat="37.813970" lon="-119.054035">
        <ele>2365.0</ele>
        <time>2014-06-29T20:49:42Z</time>
        <sat>10</sat>
      </trkpt>
      <trkpt lat="37.814228" lon="-119.053832">
        <ele>2364.2</ele>
        <time>2014-06-29T20:51:09Z</time>
        <sat>10</sat>
      </trkpt>
      <trkpt lat="37.814318" lon="-119.053865">
        <ele>2363.4</ele>
        <time>2014-06-29T20:51:12Z</time>
        <sat>10</sat>
      </trkpt>
      <trkpt lat="37.814415" lon="-119.053898">
        <ele>2363.2</ele>
        <time>2014-06-29T20:51:15Z</time>
        <sat>10</sat>
      </trkpt>
      <trkpt lat="37.814520" lon="-119.053953">
        <ele>2362.4</ele>
        <time>2014-06-29T20:51:32Z</time>
        <sat>10</sat>
      </trkpt>
      <trkpt lat="37.814607" lon="-119.054010">
        <ele>2362.2</ele>
        <time>2014-06-29T20:51:34Z</time>
        <sat>10</sat>
      </trkpt>
      <trkpt lat="37.814702" lon="-119.054072">
        <ele>2362.0</ele>
        <time>2014-06-29T20:51:36Z</time>
        <sat>10</sat>
      </trkpt>
      <trkpt lat="37.814800" lon="-119.054143">
        <ele>2361.4</ele>
        <time>2014-06-29T20:51:38Z</time>
        <sat>10</sat>
      </trkpt>
      <trkpt lat="37.814905" lon="-119.054218">
        <ele>2360.5</ele>
        <time>2014-06-29T20:51:40Z</time>
        <sat>10</sat>
      </trkpt>
      <trkpt lat="37.815012" lon="-119.054300">
        <ele>2360.2</ele>
        <time>2014-06-29T20:51:42Z</time>
        <sat>10</sat>
      </trkpt>
      <trkpt lat="37.815117" lon="-119.054383">
        <ele>2360.1</ele>
        <time>2014-06-29T20:51:44Z</time>
        <sat>10</sat>
      </trkpt>
      <trkpt lat="37.815222" lon="-119.054470">
        <ele>2360.2</ele>
        <time>2014-06-29T20:51:46Z</time>
        <sat>10</sat>
      </trkpt>
      <trkpt lat="37.815322" lon="-119.054553">
        <ele>2360.0</ele>
        <time>2014-06-29T20:51:48Z</time>
        <sat>10</sat>
      </trkpt>
      <trkpt lat="37.815417" lon="-119.054638">
        <ele>2360.0</ele>
        <time>2014-06-29T20:51:50Z</time>
        <sat>10</sat>
      </trkpt>
      <trkpt lat="37.815510" lon="-119.054723">
        <ele>2359.9</ele>
        <time>2014-06-29T20:51:52Z</time>
        <sat>10</sat>
      </trkpt>
      <trkpt lat="37.815605" lon="-119.054808">
        <ele>2359.6</ele>
        <time>2014-06-29T20:51:54Z</time>
        <sat>10</sat>
      </trkpt>
      <trkpt lat="37.815703" lon="-119.054895">
        <ele>2357.0</ele>
        <time>2014-06-29T20:51:56Z</time>
        <sat>10</sat>
      </trkpt>
      <trkpt lat="37.815802" lon="-119.054982">
        <ele>2358.1</ele>
        <time>2014-06-29T20:51:58Z</time>
        <sat>10</sat>
      </trkpt>
      <trkpt lat="37.815898" lon="-119.055068">
        <ele>2358.6</ele>
        <time>2014-06-29T20:52:00Z</time>
        <sat>10</sat>
      </trkpt>
      <trkpt lat="37.815995" lon="-119.055152">
        <ele>2358.9</ele>
        <time>2014-06-29T20:52:02Z</time>
        <sat>10</sat>
      </trkpt>
      <trkpt lat="37.816088" lon="-119.055228">
        <ele>2358.8</ele>
        <time>2014-06-29T20:52:04Z</time>
        <sat>10</sat>
      </trkpt>
      <trkpt lat="37.816282" lon="-119.055333">
        <ele>2358.9</ele>
        <time>2014-06-29T20:52:08Z</time>
        <sat>10</sat>
      </trkpt>
      <trkpt lat="37.816380" lon="-119.055360">
        <ele>2358.9</ele>
        <time>2014-06-29T20:52:10Z</time>
        <sat>10</sat>
      </trkpt>
      <trkpt lat="37.816473" lon="-119.055372">
        <ele>2359.0</ele>
        <time>2014-06-29T20:52:12Z</time>
        <sat>10</sat>
      </trkpt>
      <trkpt lat="37.816607" lon="-119.055372">
        <ele>2358.8</ele>
        <time>2014-06-29T20:52:15Z</time>
        <sat>10</sat>
      </trkpt>
      <trkpt lat="37.816698" lon="-119.055370">
        <ele>2358.8</ele>
        <time>2014-06-29T20:52:17Z</time>
        <sat>10</sat>
      </trkpt>
      <trkpt lat="37.816793" lon="-119.055368">
        <ele>2358.7</ele>
        <time>2014-06-29T20:52:19Z</time>
        <sat>10</sat>
      </trkpt>
      <trkpt lat="37.816895" lon="-119.055365">
        <ele>2358.7</ele>
        <time>2014-06-29T20:52:21Z</time>
        <sat>10</sat>
      </trkpt>
      <trkpt lat="37.816998" lon="-119.055358">
        <ele>2358.6</ele>
        <time>2014-06-29T20:52:23Z</time>
        <sat>10</sat>
      </trkpt>
      <trkpt lat="37.817103" lon="-119.055347">
        <ele>2358.7</ele>
        <time>2014-06-29T20:52:25Z</time>
        <sat>10</sat>
      </trkpt>
      <trkpt lat="37.817210" lon="-119.055330">
        <ele>2358.2</ele>
        <time>2014-06-29T20:52:27Z</time>
        <sat>10</sat>
      </trkpt>
      <trkpt lat="37.817315" lon="-119.055310">
        <ele>2358.1</ele>
        <time>2014-06-29T20:52:29Z</time>
        <sat>10</sat>
      </trkpt>
      <trkpt lat="37.817420" lon="-119.055287">
        <ele>2358.3</ele>
        <time>2014-06-29T20:52:31Z</time>
        <sat>10</sat>
      </trkpt>
      <trkpt lat="37.817528" lon="-119.055262">
        <ele>2358.2</ele>
        <time>2014-06-29T20:52:33Z</time>
        <sat>10</sat>
      </trkpt>
      <trkpt lat="37.817640" lon="-119.055238">
        <ele>2358.4</ele>
        <time>2014-06-29T20:52:35Z</time>
        <sat>10</sat>
      </trkpt>
      <trkpt lat="37.817752" lon="-119.055213">
        <ele>2358.4</ele>
        <time>2014-06-29T20:52:37Z</time>
        <sat>10</sat>
      </trkpt>
      <trkpt lat="37.817865" lon="-119.055190">
        <ele>2358.4</ele>
        <time>2014-06-29T20:52:39Z</time>
        <sat>10</sat>
      </trkpt>
      <trkpt lat="37.817977" lon="-119.055168">
        <ele>2358.4</ele>
        <time>2014-06-29T20:52:41Z</time>
        <sat>10</sat>
      </trkpt>
      <trkpt lat="37.818087" lon="-119.055157">
        <ele>2358.1</ele>
        <time>2014-06-29T20:52:43Z</time>
        <sat>10</sat>
      </trkpt>
      <trkpt lat="37.818195" lon="-119.055153">
        <ele>2358.1</ele>
        <time>2014-06-29T20:52:45Z</time>
        <sat>10</sat>
      </trkpt>
      <trkpt lat="37.818307" lon="-119.055152">
        <ele>2358.1</ele>
        <time>2014-06-29T20:52:47Z</time>
        <sat>10</sat>
      </trkpt>
      <trkpt lat="37.818420" lon="-119.055153">
        <ele>2358.2</ele>
        <time>2014-06-29T20:52:49Z</time>
        <sat>10</sat>
      </trkpt>
      <trkpt lat="37.818535" lon="-119.055152">
        <ele>2357.8</ele>
        <time>2014-06-29T20:52:51Z</time>
        <sat>10</sat>
      </trkpt>
      <trkpt lat="37.818652" lon="-119.055145">
        <ele>2357.7</ele>
        <time>2014-06-29T20:52:53Z</time>
        <sat>10</sat>
      </trkpt>
      <trkpt lat="37.818763" lon="-119.055123">
        <ele>2357.6</ele>
        <time>2014-06-29T20:52:55Z</time>
        <sat>10</sat>
      </trkpt>
      <trkpt lat="37.818875" lon="-119.055083">
        <ele>2357.6</ele>
        <time>2014-06-29T20:52:57Z</time>
        <sat>10</sat>
      </trkpt>
      <trkpt lat="37.818975" lon="-119.055030">
        <ele>2357.5</ele>
        <time>2014-06-29T20:52:59Z</time>
        <sat>10</sat>
      </trkpt>
      <trkpt lat="37.819053" lon="-119.054973">
        <ele>2358.0</ele>
        <time>2014-06-29T20:53:01Z</time>
        <sat>10</sat>
      </trkpt>
      <trkpt lat="37.819128" lon="-119.054890">
        <ele>2359.0</ele>
        <time>2014-06-29T20:53:24Z</time>
        <sat>10</sat>
      </trkpt>
      <trkpt lat="37.819283" lon="-119.054745">
        <ele>2358.4</ele>
        <time>2014-06-29T20:53:29Z</time>
        <sat>10</sat>
      </trkpt>
      <trkpt lat="37.819373" lon="-119.054670">
        <ele>2358.3</ele>
        <time>2014-06-29T20:53:31Z</time>
        <sat>10</sat>
      </trkpt>
      <trkpt lat="37.819473" lon="-119.054593">
        <ele>2357.9</ele>
        <time>2014-06-29T20:53:33Z</time>
        <sat>10</sat>
      </trkpt>
      <trkpt lat="37.819587" lon="-119.054528">
        <ele>2357.5</ele>
        <time>2014-06-29T20:53:35Z</time>
        <sat>10</sat>
      </trkpt>
      <trkpt lat="37.819708" lon="-119.054472">
        <ele>2357.0</ele>
        <time>2014-06-29T20:53:37Z</time>
        <sat>10</sat>
      </trkpt>
      <trkpt lat="37.819833" lon="-119.054420">
        <ele>2356.6</ele>
        <time>2014-06-29T20:53:39Z</time>
        <sat>10</sat>
      </trkpt>
      <trkpt lat="37.819965" lon="-119.054370">
        <ele>2356.2</ele>
        <time>2014-06-29T20:53:41Z</time>
        <sat>10</sat>
      </trkpt>
      <trkpt lat="37.820100" lon="-119.054318">
        <ele>2355.7</ele>
        <time>2014-06-29T20:53:43Z</time>
        <sat>10</sat>
      </trkpt>
      <trkpt lat="37.820242" lon="-119.054273">
        <ele>2354.9</ele>
        <time>2014-06-29T20:53:45Z</time>
        <sat>10</sat>
      </trkpt>
      <trkpt lat="37.820387" lon="-119.054247">
        <ele>2354.3</ele>
        <time>2014-06-29T20:53:47Z</time>
        <sat>10</sat>
      </trkpt>
      <trkpt lat="37.820532" lon="-119.054238">
        <ele>2353.6</ele>
        <time>2014-06-29T20:53:49Z</time>
        <sat>10</sat>
      </trkpt>
      <trkpt lat="37.820668" lon="-119.054253">
        <ele>2353.0</ele>
        <time>2014-06-29T20:53:51Z</time>
        <sat>10</sat>
      </trkpt>
      <trkpt lat="37.820790" lon="-119.054290">
        <ele>2352.8</ele>
        <time>2014-06-29T20:53:53Z</time>
        <sat>10</sat>
      </trkpt>
      <trkpt lat="37.820897" lon="-119.054350">
        <ele>2352.8</ele>
        <time>2014-06-29T20:53:55Z</time>
        <sat>10</sat>
      </trkpt>
      <trkpt lat="37.820992" lon="-119.054422">
        <ele>2352.5</ele>
        <time>2014-06-29T20:53:57Z</time>
        <sat>10</sat>
      </trkpt>
      <trkpt lat="37.821077" lon="-119.054490">
        <ele>2355.6</ele>
        <time>2014-06-29T20:53:59Z</time>
        <sat>9</sat>
      </trkpt>
      <trkpt lat="37.821158" lon="-119.054563">
        <ele>2354.1</ele>
        <time>2014-06-29T20:54:01Z</time>
        <sat>10</sat>
      </trkpt>
      <trkpt lat="37.821243" lon="-119.054645">
        <ele>2353.2</ele>
        <time>2014-06-29T20:54:03Z</time>
        <sat>11</sat>
      </trkpt>
      <trkpt lat="37.821323" lon="-119.054735">
        <ele>2352.6</ele>
        <time>2014-06-29T20:54:05Z</time>
        <sat>10</sat>
      </trkpt>
      <trkpt lat="37.821398" lon="-119.054833">
        <ele>2352.2</ele>
        <time>2014-06-29T20:54:07Z</time>
        <sat>11</sat>
      </trkpt>
      <trkpt lat="37.821478" lon="-119.054935">
        <ele>2351.7</ele>
        <time>2014-06-29T20:54:09Z</time>
        <sat>11</sat>
      </trkpt>
      <trkpt lat="37.821557" lon="-119.055040">
        <ele>2351.8</ele>
        <time>2014-06-29T20:54:11Z</time>
        <sat>11</sat>
      </trkpt>
      <trkpt lat="37.821637" lon="-119.055143">
        <ele>2351.6</ele>
        <time>2014-06-29T20:54:13Z</time>
        <sat>10</sat>
      </trkpt>
      <trkpt lat="37.821717" lon="-119.055245">
        <ele>2351.3</ele>
        <time>2014-06-29T20:54:15Z</time>
        <sat>11</sat>
      </trkpt>
      <trkpt lat="37.821793" lon="-119.055340">
        <ele>2351.2</ele>
        <time>2014-06-29T20:54:17Z</time>
        <sat>11</sat>
      </trkpt>
      <trkpt lat="37.821870" lon="-119.055430">
        <ele>2351.2</ele>
        <time>2014-06-29T20:54:19Z</time>
        <sat>11</sat>
      </trkpt>
      <trkpt lat="37.821938" lon="-119.055505">
        <ele>2351.2</ele>
        <time>2014-06-29T20:54:21Z</time>
        <sat>11</sat>
      </trkpt>
      <trkpt lat="37.822030" lon="-119.055597">
        <ele>2351.2</ele>
        <time>2014-06-29T20:54:24Z</time>
        <sat>11</sat>
      </trkpt>
      <trkpt lat="37.822120" lon="-119.055667">
        <ele>2350.9</ele>
        <time>2014-06-29T20:54:27Z</time>
        <sat>10</sat>
      </trkpt>
      <trkpt lat="37.822348" lon="-119.055753">
        <ele>2351.0</ele>
        <time>2014-06-29T20:54:33Z</time>
        <sat>11</sat>
      </trkpt>
      <trkpt lat="37.822467" lon="-119.055760">
        <ele>2350.9</ele>
        <time>2014-06-29T20:54:36Z</time>
        <sat>11</sat>
      </trkpt>
      <trkpt lat="37.822572" lon="-119.055755">
        <ele>2351.3</ele>
        <time>2014-06-29T20:54:39Z</time>
        <sat>11</sat>
      </trkpt>
      <trkpt lat="37.822687" lon="-119.055753">
        <ele>2351.7</ele>
        <time>2014-06-29T20:54:42Z</time>
        <sat>11</sat>
      </trkpt>
      <trkpt lat="37.822803" lon="-119.055752">
        <ele>2351.7</ele>
        <time>2014-06-29T20:54:45Z</time>
        <sat>11</sat>
      </trkpt>
      <trkpt lat="37.822930" lon="-119.055753">
        <ele>2351.3</ele>
        <time>2014-06-29T20:54:48Z</time>
        <sat>11</sat>
      </trkpt>
      <trkpt lat="37.823023" lon="-119.055753">
        <ele>2351.4</ele>
        <time>2014-06-29T20:54:50Z</time>
        <sat>11</sat>
      </trkpt>
      <trkpt lat="37.823122" lon="-119.055747">
        <ele>2351.6</ele>
        <time>2014-06-29T20:54:52Z</time>
        <sat>11</sat>
      </trkpt>
      <trkpt lat="37.823217" lon="-119.055747">
        <ele>2351.8</ele>
        <time>2014-06-29T20:54:54Z</time>
        <sat>11</sat>
      </trkpt>
      <trkpt lat="37.823310" lon="-119.055743">
        <ele>2352.4</ele>
        <time>2014-06-29T20:54:56Z</time>
        <sat>11</sat>
      </trkpt>
      <trkpt lat="37.823402" lon="-119.055738">
        <ele>2352.3</ele>
        <time>2014-06-29T20:54:58Z</time>
        <sat>11</sat>
      </trkpt>
      <trkpt lat="37.823492" lon="-119.055733">
        <ele>2352.3</ele>
        <time>2014-06-29T20:55:00Z</time>
        <sat>11</sat>
      </trkpt>
      <trkpt lat="37.823620" lon="-119.055712">
        <ele>2351.9</ele>
        <time>2014-06-29T20:55:03Z</time>
        <sat>11</sat>
      </trkpt>
      <trkpt lat="37.823708" lon="-119.055687">
        <ele>2351.8</ele>
        <time>2014-06-29T20:55:05Z</time>
        <sat>11</sat>
      </trkpt>
      <trkpt lat="37.823800" lon="-119.055650">
        <ele>2351.8</ele>
        <time>2014-06-29T20:55:07Z</time>
        <sat>11</sat>
      </trkpt>
      <trkpt lat="37.823888" lon="-119.055590">
        <ele>2351.9</ele>
        <time>2014-06-29T20:55:09Z</time>
        <sat>11</sat>
      </trkpt>
      <trkpt lat="37.823968" lon="-119.055522">
        <ele>2351.8</ele>
        <time>2014-06-29T20:55:11Z</time>
        <sat>11</sat>
      </trkpt>
      <trkpt lat="37.824042" lon="-119.055455">
        <ele>2352.0</ele>
        <time>2014-06-29T20:55:13Z</time>
        <sat>11</sat>
      </trkpt>
      <trkpt lat="37.824155" lon="-119.055365">
        <ele>2352.1</ele>
        <time>2014-06-29T20:55:16Z</time>
        <sat>11</sat>
      </trkpt>
      <trkpt lat="37.824237" lon="-119.055313">
        <ele>2351.9</ele>
        <time>2014-06-29T20:55:18Z</time>
        <sat>11</sat>
      </trkpt>
      <trkpt lat="37.824323" lon="-119.055263">
        <ele>2351.8</ele>
        <time>2014-06-29T20:55:20Z</time>
        <sat>11</sat>
      </trkpt>
      <trkpt lat="37.824443" lon="-119.055202">
        <ele>2352.1</ele>
        <time>2014-06-29T20:55:23Z</time>
        <sat>11</sat>
      </trkpt>
      <trkpt lat="37.824543" lon="-119.055128">
        <ele>2352.6</ele>
        <time>2014-06-29T20:55:26Z</time>
        <sat>11</sat>
      </trkpt>
      <trkpt lat="37.824617" lon="-119.055028">
        <ele>2352.6</ele>
        <time>2014-06-29T20:55:29Z</time>
        <sat>11</sat>
      </trkpt>
      <trkpt lat="37.824773" lon="-119.054825">
        <ele>2352.7</ele>
        <time>2014-06-29T20:55:35Z</time>
        <sat>11</sat>
      </trkpt>
      <trkpt lat="37.824863" lon="-119.054712">
        <ele>2352.4</ele>
        <time>2014-06-29T20:55:38Z</time>
        <sat>11</sat>
      </trkpt>
      <trkpt lat="37.824943" lon="-119.054625">
        <ele>2352.1</ele>
        <time>2014-06-29T20:55:40Z</time>
        <sat>11</sat>
      </trkpt>
      <trkpt lat="37.825027" lon="-119.054533">
        <ele>2351.5</ele>
        <time>2014-06-29T20:55:42Z</time>
        <sat>11</sat>
      </trkpt>
      <trkpt lat="37.825100" lon="-119.054438">
        <ele>2350.9</ele>
        <time>2014-06-29T20:55:44Z</time>
        <sat>11</sat>
      </trkpt>
      <trkpt lat="37.825160" lon="-119.054335">
        <ele>2350.2</ele>
        <time>2014-06-29T20:55:46Z</time>
        <sat>11</sat>
      </trkpt>
      <trkpt lat="37.825230" lon="-119.054242">
        <ele>2349.3</ele>
        <time>2014-06-29T20:55:49Z</time>
        <sat>10</sat>
      </trkpt>
      <trkpt lat="37.825265" lon="-119.054232">
        <ele>2348.9</ele>
        <time>2014-06-29T20:57:12Z</time>
        <sat>9</sat>
      </trkpt>
      <trkpt lat="37.825473" lon="-119.053405">
        <ele>2326.3</ele>
        <time>2014-06-29T22:08:55Z</time>
        <sat>8</sat>
      </trkpt>
      <trkpt lat="37.825473" lon="-119.053405">
        <ele>2326.7</ele>
        <time>2014-06-29T22:08:56Z</time>
        <sat>8</sat>
      </trkpt>
      <trkpt lat="37.825498" lon="-119.053277">
        <ele>2327.1</ele>
        <time>2014-06-29T22:09:34Z</time>
        <sat>8</sat>
      </trkpt>
      <trkpt lat="37.825527" lon="-119.053165">
        <ele>2326.9</ele>
        <time>2014-06-29T22:09:37Z</time>
        <sat>8</sat>
      </trkpt>
      <trkpt lat="37.825558" lon="-119.053053">
        <ele>2326.4</ele>
        <time>2014-06-29T22:09:40Z</time>
        <sat>8</sat>
      </trkpt>
      <trkpt lat="37.825595" lon="-119.052938">
        <ele>2326.3</ele>
        <time>2014-06-29T22:09:43Z</time>
        <sat>8</sat>
      </trkpt>
      <trkpt lat="37.825645" lon="-119.052813">
        <ele>2326.3</ele>
        <time>2014-06-29T22:09:47Z</time>
        <sat>8</sat>
      </trkpt>
      <trkpt lat="37.825690" lon="-119.052712">
        <ele>2327.3</ele>
        <time>2014-06-29T22:09:50Z</time>
        <sat>8</sat>
      </trkpt>
      <trkpt lat="37.825744" lon="-119.052615">
        <ele>2325.8</ele>
        <time>2014-06-29T22:10:02Z</time>
        <sat>8</sat>
      </trkpt>
      <trkpt lat="37.825805" lon="-119.052512">
        <ele>2325.2</ele>
        <time>2014-06-29T22:10:19Z</time>
        <sat>8</sat>
      </trkpt>
      <trkpt lat="37.825883" lon="-119.052420">
        <ele>2325.3</ele>
        <time>2014-06-29T22:10:23Z</time>
        <sat>8</sat>
      </trkpt>
      <trkpt lat="37.825970" lon="-119.052350">
        <ele>2326.3</ele>
        <time>2014-06-29T22:10:48Z</time>
        <sat>8</sat>
      </trkpt>
      <trkpt lat="37.826072" lon="-119.052312">
        <ele>2326.3</ele>
        <time>2014-06-29T22:10:52Z</time>
        <sat>7</sat>
      </trkpt>
      <trkpt lat="37.826165" lon="-119.052300">
        <ele>2326.6</ele>
        <time>2014-06-29T22:10:55Z</time>
        <sat>8</sat>
      </trkpt>
      <trkpt lat="37.826262" lon="-119.052298">
        <ele>2327.0</ele>
        <time>2014-06-29T22:10:58Z</time>
        <sat>8</sat>
      </trkpt>
      <trkpt lat="37.826355" lon="-119.052300">
        <ele>2327.5</ele>
        <time>2014-06-29T22:11:01Z</time>
        <sat>8</sat>
      </trkpt>
      <trkpt lat="37.826472" lon="-119.052298">
        <ele>2328.2</ele>
        <time>2014-06-29T22:11:05Z</time>
        <sat>8</sat>
      </trkpt>
      <trkpt lat="37.826587" lon="-119.052300">
        <ele>2328.6</ele>
        <time>2014-06-29T22:11:09Z</time>
        <sat>8</sat>
      </trkpt>
      <trkpt lat="37.826700" lon="-119.052298">
        <ele>2329.0</ele>
        <time>2014-06-29T22:11:13Z</time>
        <sat>8</sat>
      </trkpt>
      <trkpt lat="37.826817" lon="-119.052297">
        <ele>2328.9</ele>
        <time>2014-06-29T22:11:17Z</time>
        <sat>8</sat>
      </trkpt>
      <trkpt lat="37.826912" lon="-119.052293">
        <ele>2328.9</ele>
        <time>2014-06-29T22:11:20Z</time>
        <sat>8</sat>
      </trkpt>
      <trkpt lat="37.827008" lon="-119.052292">
        <ele>2329.0</ele>
        <time>2014-06-29T22:11:24Z</time>
        <sat>8</sat>
      </trkpt>
      <trkpt lat="37.827102" lon="-119.052295">
        <ele>2329.7</ele>
        <time>2014-06-29T22:11:30Z</time>
        <sat>8</sat>
      </trkpt>
      <trkpt lat="37.827195" lon="-119.052287">
        <ele>2329.3</ele>
        <time>2014-06-29T22:11:37Z</time>
        <sat>8</sat>
      </trkpt>
      <trkpt lat="37.827295" lon="-119.052302">
        <ele>2330.2</ele>
        <time>2014-06-29T22:11:50Z</time>
        <sat>8</sat>
      </trkpt>
      <trkpt lat="37.827388" lon="-119.052302">
        <ele>2330.3</ele>
        <time>2014-06-29T22:11:52Z</time>
        <sat>8</sat>
      </trkpt>
      <trkpt lat="37.827483" lon="-119.052278">
        <ele>2331.5</ele>
        <time>2014-06-29T22:12:00Z</time>
        <sat>8</sat>
      </trkpt>
      <trkpt lat="37.827580" lon="-119.052278">
        <ele>2331.8</ele>
        <time>2014-06-29T22:12:06Z</time>
        <sat>8</sat>
      </trkpt>
      <trkpt lat="37.827682" lon="-119.052258">
        <ele>2332.2</ele>
        <time>2014-06-29T22:12:13Z</time>
        <sat>8</sat>
      </trkpt>
      <trkpt lat="37.827770" lon="-119.052208">
        <ele>2332.0</ele>
        <time>2014-06-29T22:12:18Z</time>
        <sat>8</sat>
      </trkpt>
      <trkpt lat="37.827873" lon="-119.052140">
        <ele>2332.4</ele>
        <time>2014-06-29T22:12:22Z</time>
        <sat>8</sat>
      </trkpt>
      <trkpt lat="37.827972" lon="-119.052075">
        <ele>2332.7</ele>
        <time>2014-06-29T22:12:26Z</time>
        <sat>8</sat>
      </trkpt>
      <trkpt lat="37.828073" lon="-119.052008">
        <ele>2333.2</ele>
        <time>2014-06-29T22:12:30Z</time>
        <sat>8</sat>
      </trkpt>
      <trkpt lat="37.828153" lon="-119.051953">
        <ele>2333.6</ele>
        <time>2014-06-29T22:12:33Z</time>
        <sat>7</sat>
      </trkpt>
      <trkpt lat="37.828257" lon="-119.051882">
        <ele>2333.8</ele>
        <time>2014-06-29T22:12:37Z</time>
        <sat>7</sat>
      </trkpt>
      <trkpt lat="37.828362" lon="-119.051817">
        <ele>2334.1</ele>
        <time>2014-06-29T22:12:41Z</time>
        <sat>8</sat>
      </trkpt>
      <trkpt lat="37.828465" lon="-119.051767">
        <ele>2334.0</ele>
        <time>2014-06-29T22:12:45Z</time>
        <sat>8</sat>
      </trkpt>
      <trkpt lat="37.828563" lon="-119.051733">
        <ele>2333.8</ele>
        <time>2014-06-29T22:12:49Z</time>
        <sat>8</sat>
      </trkpt>
      <trkpt lat="37.828662" lon="-119.051667">
        <ele>2333.9</ele>
        <time>2014-06-29T22:12:53Z</time>
        <sat>8</sat>
      </trkpt>
      <trkpt lat="37.828850" lon="-119.051573">
        <ele>2335.0</ele>
        <time>2014-06-29T22:12:59Z</time>
        <sat>8</sat>
      </trkpt>
      <trkpt lat="37.828938" lon="-119.051535">
        <ele>2334.5</ele>
        <time>2014-06-29T22:13:02Z</time>
        <sat>8</sat>
      </trkpt>
      <trkpt lat="37.829028" lon="-119.051495">
        <ele>2334.3</ele>
        <time>2014-06-29T22:13:05Z</time>
        <sat>8</sat>
      </trkpt>
      <trkpt lat="37.829135" lon="-119.051450">
        <ele>2334.1</ele>
        <time>2014-06-29T22:13:08Z</time>
        <sat>8</sat>
      </trkpt>
      <trkpt lat="37.829247" lon="-119.051413">
        <ele>2334.0</ele>
        <time>2014-06-29T22:13:11Z</time>
        <sat>8</sat>
      </trkpt>
      <trkpt lat="37.829353" lon="-119.051392">
        <ele>2333.5</ele>
        <time>2014-06-29T22:13:14Z</time>
        <sat>8</sat>
      </trkpt>
      <trkpt lat="37.829470" lon="-119.051373">
        <ele>2332.8</ele>
        <time>2014-06-29T22:13:17Z</time>
        <sat>8</sat>
      </trkpt>
      <trkpt lat="37.829590" lon="-119.051375">
        <ele>2332.8</ele>
        <time>2014-06-29T22:13:20Z</time>
        <sat>8</sat>
      </trkpt>
      <trkpt lat="37.829692" lon="-119.051403">
        <ele>2333.3</ele>
        <time>2014-06-29T22:13:23Z</time>
        <sat>8</sat>
      </trkpt>
      <trkpt lat="37.829805" lon="-119.051453">
        <ele>2334.7</ele>
        <time>2014-06-29T22:13:27Z</time>
        <sat>8</sat>
      </trkpt>
      <trkpt lat="37.829918" lon="-119.051470">
        <ele>2335.4</ele>
        <time>2014-06-29T22:13:31Z</time>
        <sat>8</sat>
      </trkpt>
      <trkpt lat="37.830010" lon="-119.051443">
        <ele>2335.6</ele>
        <time>2014-06-29T22:13:34Z</time>
        <sat>8</sat>
      </trkpt>
      <trkpt lat="37.830102" lon="-119.051415">
        <ele>2335.4</ele>
        <time>2014-06-29T22:13:37Z</time>
        <sat>8</sat>
      </trkpt>
      <trkpt lat="37.830213" lon="-119.051358">
        <ele>2335.0</ele>
        <time>2014-06-29T22:13:40Z</time>
        <sat>8</sat>
      </trkpt>
      <trkpt lat="37.830303" lon="-119.051310">
        <ele>2334.6</ele>
        <time>2014-06-29T22:13:43Z</time>
        <sat>8</sat>
      </trkpt>
      <trkpt lat="37.830373" lon="-119.051197">
        <ele>2333.3</ele>
        <time>2014-06-29T22:13:46Z</time>
        <sat>8</sat>
      </trkpt>
      <trkpt lat="37.830405" lon="-119.051083">
        <ele>2332.3</ele>
        <time>2014-06-29T22:13:48Z</time>
        <sat>7</sat>
      </trkpt>
      <trkpt lat="37.830418" lon="-119.050943">
        <ele>2330.7</ele>
        <time>2014-06-29T22:13:50Z</time>
        <sat>7</sat>
      </trkpt>
      <trkpt lat="37.830420" lon="-119.050785">
        <ele>2328.8</ele>
        <time>2014-06-29T22:13:52Z</time>
        <sat>7</sat>
      </trkpt>
      <trkpt lat="37.830457" lon="-119.050612">
        <ele>2327.4</ele>
        <time>2014-06-29T22:13:54Z</time>
        <sat>7</sat>
      </trkpt>
      <trkpt lat="37.830578" lon="-119.050232">
        <ele>2323.3</ele>
        <time>2014-06-29T22:13:58Z</time>
        <sat>8</sat>
      </trkpt>
      <trkpt lat="37.830647" lon="-119.050027">
        <ele>2321.2</ele>
        <time>2014-06-29T22:14:00Z</time>
        <sat>7</sat>
      </trkpt>
      <trkpt lat="37.830740" lon="-119.049870">
        <ele>2319.7</ele>
        <time>2014-06-29T22:14:02Z</time>
        <sat>8</sat>
      </trkpt>
      <trkpt lat="37.830860" lon="-119.049780">
        <ele>2318.6</ele>
        <time>2014-06-29T22:14:04Z</time>
        <sat>8</sat>
      </trkpt>
      <trkpt lat="37.830985" lon="-119.049705">
        <ele>2317.7</ele>
        <time>2014-06-29T22:14:06Z</time>
        <sat>8</sat>
      </trkpt>
      <trkpt lat="37.831093" lon="-119.049607">
        <ele>2317.1</ele>
        <time>2014-06-29T22:14:08Z</time>
        <sat>8</sat>
      </trkpt>
      <trkpt lat="37.831190" lon="-119.049497">
        <ele>2315.8</ele>
        <time>2014-06-29T22:14:10Z</time>
        <sat>8</sat>
      </trkpt>
      <trkpt lat="37.831273" lon="-119.049398">
        <ele>2314.6</ele>
        <time>2014-06-29T22:14:12Z</time>
        <sat>7</sat>
      </trkpt>
      <trkpt lat="37.831365" lon="-119.049305">
        <ele>2314.5</ele>
        <time>2014-06-29T22:14:14Z</time>
        <sat>8</sat>
      </trkpt>
      <trkpt lat="37.831452" lon="-119.049213">
        <ele>2313.9</ele>
        <time>2014-06-29T22:14:16Z</time>
        <sat>8</sat>
      </trkpt>
      <trkpt lat="37.831520" lon="-119.049122">
        <ele>2313.1</ele>
        <time>2014-06-29T22:14:18Z</time>
        <sat>8</sat>
      </trkpt>
      <trkpt lat="37.831590" lon="-119.049010">
        <ele>2312.7</ele>
        <time>2014-06-29T22:14:20Z</time>
        <sat>8</sat>
      </trkpt>
      <trkpt lat="37.831653" lon="-119.048880">
        <ele>2312.2</ele>
        <time>2014-06-29T22:14:22Z</time>
        <sat>7</sat>
      </trkpt>
      <trkpt lat="37.831703" lon="-119.048718">
        <ele>2311.4</ele>
        <time>2014-06-29T22:14:24Z</time>
        <sat>7</sat>
      </trkpt>
      <trkpt lat="37.831765" lon="-119.048563">
        <ele>2310.3</ele>
        <time>2014-06-29T22:14:26Z</time>
        <sat>8</sat>
      </trkpt>
      <trkpt lat="37.831863" lon="-119.048425">
        <ele>2309.4</ele>
        <time>2014-06-29T22:14:28Z</time>
        <sat>8</sat>
      </trkpt>
      <trkpt lat="37.831977" lon="-119.048315">
        <ele>2308.4</ele>
        <time>2014-06-29T22:14:30Z</time>
        <sat>7</sat>
      </trkpt>
      <trkpt lat="37.832073" lon="-119.048208">
        <ele>2307.7</ele>
        <time>2014-06-29T22:14:32Z</time>
        <sat>8</sat>
      </trkpt>
      <trkpt lat="37.832132" lon="-119.048092">
        <ele>2306.7</ele>
        <time>2014-06-29T22:14:34Z</time>
        <sat>8</sat>
      </trkpt>
      <trkpt lat="37.832107" lon="-119.047942">
        <ele>2305.3</ele>
        <time>2014-06-29T22:14:37Z</time>
        <sat>7</sat>
      </trkpt>
      <trkpt lat="37.832187" lon="-119.047852">
        <ele>2303.7</ele>
        <time>2014-06-29T22:14:41Z</time>
        <sat>8</sat>
      </trkpt>
      <trkpt lat="37.832308" lon="-119.047812">
        <ele>2302.2</ele>
        <time>2014-06-29T22:14:45Z</time>
        <sat>8</sat>
      </trkpt>
      <trkpt lat="37.832427" lon="-119.047752">
        <ele>2301.5</ele>
        <time>2014-06-29T22:14:48Z</time>
        <sat>7</sat>
      </trkpt>
      <trkpt lat="37.832507" lon="-119.047685">
        <ele>2300.4</ele>
        <time>2014-06-29T22:14:51Z</time>
        <sat>7</sat>
      </trkpt>
      <trkpt lat="37.832587" lon="-119.047612">
        <ele>2299.9</ele>
        <time>2014-06-29T22:14:54Z</time>
        <sat>7</sat>
      </trkpt>
      <trkpt lat="37.832668" lon="-119.047543">
        <ele>2299.4</ele>
        <time>2014-06-29T22:14:57Z</time>
        <sat>8</sat>
      </trkpt>
      <trkpt lat="37.832827" lon="-119.047395">
        <ele>2298.2</ele>
        <time>2014-06-29T22:15:04Z</time>
        <sat>8</sat>
      </trkpt>
      <trkpt lat="37.832912" lon="-119.047308">
        <ele>2297.9</ele>
        <time>2014-06-29T22:15:08Z</time>
        <sat>8</sat>
      </trkpt>
      <trkpt lat="37.832987" lon="-119.047222">
        <ele>2297.4</ele>
        <time>2014-06-29T22:15:12Z</time>
        <sat>7</sat>
      </trkpt>
      <trkpt lat="37.833053" lon="-119.047143">
        <ele>2297.2</ele>
        <time>2014-06-29T22:15:16Z</time>
        <sat>8</sat>
      </trkpt>
      <trkpt lat="37.833123" lon="-119.047065">
        <ele>2296.3</ele>
        <time>2014-06-29T22:15:20Z</time>
        <sat>7</sat>
      </trkpt>
      <trkpt lat="37.833188" lon="-119.046982">
        <ele>2296.3</ele>
        <time>2014-06-29T22:15:23Z</time>
        <sat>8</sat>
      </trkpt>
      <trkpt lat="37.833247" lon="-119.046893">
        <ele>2295.9</ele>
        <time>2014-06-29T22:15:26Z</time>
        <sat>7</sat>
      </trkpt>
      <trkpt lat="37.833298" lon="-119.046773">
        <ele>2295.4</ele>
        <time>2014-06-29T22:15:29Z</time>
        <sat>8</sat>
      </trkpt>
      <trkpt lat="37.833350" lon="-119.046640">
        <ele>2294.8</ele>
        <time>2014-06-29T22:15:32Z</time>
        <sat>8</sat>
      </trkpt>
      <trkpt lat="37.833400" lon="-119.046528">
        <ele>2294.2</ele>
        <time>2014-06-29T22:15:35Z</time>
        <sat>8</sat>
      </trkpt>
      <trkpt lat="37.833452" lon="-119.046397">
        <ele>2293.6</ele>
        <time>2014-06-29T22:15:39Z</time>
        <sat>8</sat>
      </trkpt>
      <trkpt lat="37.833480" lon="-119.046283">
        <ele>2292.9</ele>
        <time>2014-06-29T22:15:42Z</time>
        <sat>7</sat>
      </trkpt>
      <trkpt lat="37.833505" lon="-119.046155">
        <ele>2292.7</ele>
        <time>2014-06-29T22:15:46Z</time>
        <sat>8</sat>
      </trkpt>
      <trkpt lat="37.833502" lon="-119.046025">
        <ele>2292.2</ele>
        <time>2014-06-29T22:15:50Z</time>
        <sat>7</sat>
      </trkpt>
      <trkpt lat="37.833490" lon="-119.045898">
        <ele>2291.9</ele>
        <time>2014-06-29T22:15:53Z</time>
        <sat>7</sat>
      </trkpt>
      <trkpt lat="37.833462" lon="-119.045760">
        <ele>2291.6</ele>
        <time>2014-06-29T22:15:56Z</time>
        <sat>8</sat>
      </trkpt>
      <trkpt lat="37.833440" lon="-119.045642">
        <ele>2290.7</ele>
        <time>2014-06-29T22:16:00Z</time>
        <sat>8</sat>
      </trkpt>
      <trkpt lat="37.833373" lon="-119.045393">
        <ele>2290.3</ele>
        <time>2014-06-29T22:16:11Z</time>
        <sat>8</sat>
      </trkpt>
      <trkpt lat="37.833332" lon="-119.045272">
        <ele>2290.0</ele>
        <time>2014-06-29T22:16:15Z</time>
        <sat>7</sat>
      </trkpt>
      <trkpt lat="37.833277" lon="-119.045170">
        <ele>2288.9</ele>
        <time>2014-06-29T22:16:20Z</time>
        <sat>7</sat>
      </trkpt>
      <trkpt lat="37.833215" lon="-119.045075">
        <ele>2288.6</ele>
        <time>2014-06-29T22:16:26Z</time>
        <sat>6</sat>
      </trkpt>
      <trkpt lat="37.833163" lon="-119.044965">
        <ele>2287.9</ele>
        <time>2014-06-29T22:16:31Z</time>
        <sat>6</sat>
      </trkpt>
      <trkpt lat="37.833112" lon="-119.044848">
        <ele>2287.2</ele>
        <time>2014-06-29T22:16:37Z</time>
        <sat>7</sat>
      </trkpt>
      <trkpt lat="37.833107" lon="-119.044730">
        <ele>2286.3</ele>
        <time>2014-06-29T22:17:02Z</time>
        <sat>7</sat>
      </trkpt>
      <trkpt lat="37.833283" lon="-119.044578">
        <ele>2285.7</ele>
        <time>2014-06-29T22:17:12Z</time>
        <sat>8</sat>
      </trkpt>
      <trkpt lat="37.833373" lon="-119.044547">
        <ele>2285.7</ele>
        <time>2014-06-29T22:17:15Z</time>
        <sat>7</sat>
      </trkpt>
      <trkpt lat="37.833462" lon="-119.044518">
        <ele>2285.7</ele>
        <time>2014-06-29T22:17:18Z</time>
        <sat>7</sat>
      </trkpt>
      <trkpt lat="37.833552" lon="-119.044468">
        <ele>2285.3</ele>
        <time>2014-06-29T22:17:22Z</time>
        <sat>8</sat>
      </trkpt>
      <trkpt lat="37.833635" lon="-119.044423">
        <ele>2285.4</ele>
        <time>2014-06-29T22:17:25Z</time>
        <sat>7</sat>
      </trkpt>
      <trkpt lat="37.833740" lon="-119.044365">
        <ele>2285.4</ele>
        <time>2014-06-29T22:17:29Z</time>
        <sat>8</sat>
      </trkpt>
      <trkpt lat="37.833830" lon="-119.044330">
        <ele>2285.6</ele>
        <time>2014-06-29T22:17:32Z</time>
        <sat>7</sat>
      </trkpt>
      <trkpt lat="37.833927" lon="-119.044275">
        <ele>2285.7</ele>
        <time>2014-06-29T22:17:35Z</time>
        <sat>8</sat>
      </trkpt>
      <trkpt lat="37.834010" lon="-119.044198">
        <ele>2285.6</ele>
        <time>2014-06-29T22:17:38Z</time>
        <sat>8</sat>
      </trkpt>
      <trkpt lat="37.834100" lon="-119.044137">
        <ele>2285.7</ele>
        <time>2014-06-29T22:17:42Z</time>
        <sat>8</sat>
      </trkpt>
      <trkpt lat="37.834200" lon="-119.044077">
        <ele>2285.2</ele>
        <time>2014-06-29T22:17:58Z</time>
        <sat>8</sat>
      </trkpt>
      <trkpt lat="37.834307" lon="-119.043992">
        <ele>2284.8</ele>
        <time>2014-06-29T22:18:01Z</time>
        <sat>8</sat>
      </trkpt>
      <trkpt lat="37.834383" lon="-119.043920">
        <ele>2284.8</ele>
        <time>2014-06-29T22:18:03Z</time>
        <sat>9</sat>
      </trkpt>
      <trkpt lat="37.834462" lon="-119.043840">
        <ele>2284.8</ele>
        <time>2014-06-29T22:18:05Z</time>
        <sat>9</sat>
      </trkpt>
      <trkpt lat="37.834610" lon="-119.043660">
        <ele>2285.1</ele>
        <time>2014-06-29T22:18:09Z</time>
        <sat>8</sat>
      </trkpt>
      <trkpt lat="37.834680" lon="-119.043568">
        <ele>2284.7</ele>
        <time>2014-06-29T22:18:11Z</time>
        <sat>9</sat>
      </trkpt>
      <trkpt lat="37.834742" lon="-119.043478">
        <ele>2284.8</ele>
        <time>2014-06-29T22:18:13Z</time>
        <sat>9</sat>
      </trkpt>
      <trkpt lat="37.834810" lon="-119.043380">
        <ele>2284.4</ele>
        <time>2014-06-29T22:18:15Z</time>
        <sat>9</sat>
      </trkpt>
      <trkpt lat="37.834880" lon="-119.043287">
        <ele>2284.2</ele>
        <time>2014-06-29T22:18:17Z</time>
        <sat>8</sat>
      </trkpt>
      <trkpt lat="37.834945" lon="-119.043200">
        <ele>2284.3</ele>
        <time>2014-06-29T22:18:19Z</time>
        <sat>8</sat>
      </trkpt>
      <trkpt lat="37.835035" lon="-119.043073">
        <ele>2284.0</ele>
        <time>2014-06-29T22:18:22Z</time>
        <sat>8</sat>
      </trkpt>
      <trkpt lat="37.835122" lon="-119.042950">
        <ele>2283.5</ele>
        <time>2014-06-29T22:18:25Z</time>
        <sat>8</sat>
      </trkpt>
      <trkpt lat="37.835205" lon="-119.042833">
        <ele>2283.6</ele>
        <time>2014-06-29T22:18:28Z</time>
        <sat>8</sat>
      </trkpt>
      <trkpt lat="37.835280" lon="-119.042720">
        <ele>2283.4</ele>
        <time>2014-06-29T22:18:31Z</time>
        <sat>9</sat>
      </trkpt>
      <trkpt lat="37.835348" lon="-119.042617">
        <ele>2283.4</ele>
        <time>2014-06-29T22:18:34Z</time>
        <sat>9</sat>
      </trkpt>
      <trkpt lat="37.835423" lon="-119.042502">
        <ele>2282.6</ele>
        <time>2014-06-29T22:18:37Z</time>
        <sat>9</sat>
      </trkpt>
      <trkpt lat="37.835488" lon="-119.042398">
        <ele>2281.8</ele>
        <time>2014-06-29T22:18:39Z</time>
        <sat>9</sat>
      </trkpt>
      <trkpt lat="37.835562" lon="-119.042277">
        <ele>2280.9</ele>
        <time>2014-06-29T22:18:41Z</time>
        <sat>9</sat>
      </trkpt>
      <trkpt lat="37.835647" lon="-119.042143">
        <ele>2280.1</ele>
        <time>2014-06-29T22:18:43Z</time>
        <sat>9</sat>
      </trkpt>
      <trkpt lat="37.835742" lon="-119.042003">
        <ele>2279.5</ele>
        <time>2014-06-29T22:18:45Z</time>
        <sat>9</sat>
      </trkpt>
      <trkpt lat="37.835847" lon="-119.041867">
        <ele>2279.2</ele>
        <time>2014-06-29T22:18:47Z</time>
        <sat>9</sat>
      </trkpt>
      <trkpt lat="37.835952" lon="-119.041735">
        <ele>2278.8</ele>
        <time>2014-06-29T22:18:49Z</time>
        <sat>9</sat>
      </trkpt>
      <trkpt lat="37.836050" lon="-119.041607">
        <ele>2278.2</ele>
        <time>2014-06-29T22:18:51Z</time>
        <sat>9</sat>
      </trkpt>
      <trkpt lat="37.836152" lon="-119.041497">
        <ele>2277.5</ele>
        <time>2014-06-29T22:18:53Z</time>
        <sat>9</sat>
      </trkpt>
      <trkpt lat="37.836257" lon="-119.041393">
        <ele>2277.3</ele>
        <time>2014-06-29T22:18:55Z</time>
        <sat>9</sat>
      </trkpt>
      <trkpt lat="37.836335" lon="-119.041267">
        <ele>2276.8</ele>
        <time>2014-06-29T22:18:57Z</time>
        <sat>9</sat>
      </trkpt>
      <trkpt lat="37.836400" lon="-119.041122">
        <ele>2276.6</ele>
        <time>2014-06-29T22:18:59Z</time>
        <sat>9</sat>
      </trkpt>
      <trkpt lat="37.836445" lon="-119.040965">
        <ele>2276.3</ele>
        <time>2014-06-29T22:19:01Z</time>
        <sat>9</sat>
      </trkpt>
      <trkpt lat="37.836475" lon="-119.040803">
        <ele>2276.0</ele>
        <time>2014-06-29T22:19:03Z</time>
        <sat>9</sat>
      </trkpt>
      <trkpt lat="37.836505" lon="-119.040650">
        <ele>2275.6</ele>
        <time>2014-06-29T22:19:05Z</time>
        <sat>8</sat>
      </trkpt>
      <trkpt lat="37.836540" lon="-119.040505">
        <ele>2275.5</ele>
        <time>2014-06-29T22:19:07Z</time>
        <sat>9</sat>
      </trkpt>
      <trkpt lat="37.836592" lon="-119.040248">
        <ele>2274.9</ele>
        <time>2014-06-29T22:19:11Z</time>
        <sat>9</sat>
      </trkpt>
      <trkpt lat="37.836602" lon="-119.040128">
        <ele>2274.9</ele>
        <time>2014-06-29T22:19:13Z</time>
        <sat>9</sat>
      </trkpt>
      <trkpt lat="37.836628" lon="-119.040013">
        <ele>2275.0</ele>
        <time>2014-06-29T22:19:15Z</time>
        <sat>9</sat>
      </trkpt>
      <trkpt lat="37.836677" lon="-119.039912">
        <ele>2274.7</ele>
        <time>2014-06-29T22:19:17Z</time>
        <sat>9</sat>
      </trkpt>
      <trkpt lat="37.836762" lon="-119.039797">
        <ele>2274.5</ele>
        <time>2014-06-29T22:19:20Z</time>
        <sat>9</sat>
      </trkpt>
      <trkpt lat="37.836858" lon="-119.039733">
        <ele>2274.1</ele>
        <time>2014-06-29T22:19:24Z</time>
        <sat>9</sat>
      </trkpt>
      <trkpt lat="37.836967" lon="-119.039728">
        <ele>2274.2</ele>
        <time>2014-06-29T22:19:28Z</time>
        <sat>9</sat>
      </trkpt>
      <trkpt lat="37.837078" lon="-119.039738">
        <ele>2273.8</ele>
        <time>2014-06-29T22:19:32Z</time>
        <sat>9</sat>
      </trkpt>
      <trkpt lat="37.837200" lon="-119.039740">
        <ele>2273.6</ele>
        <time>2014-06-29T22:19:36Z</time>
        <sat>9</sat>
      </trkpt>
      <trkpt lat="37.837297" lon="-119.039745">
        <ele>2273.7</ele>
        <time>2014-06-29T22:19:39Z</time>
        <sat>8</sat>
      </trkpt>
      <trkpt lat="37.837415" lon="-119.039755">
        <ele>2274.0</ele>
        <time>2014-06-29T22:19:43Z</time>
        <sat>9</sat>
      </trkpt>
      <trkpt lat="37.837520" lon="-119.039760">
        <ele>2273.8</ele>
        <time>2014-06-29T22:19:47Z</time>
        <sat>9</sat>
      </trkpt>
      <trkpt lat="37.837630" lon="-119.039758">
        <ele>2273.8</ele>
        <time>2014-06-29T22:19:51Z</time>
        <sat>8</sat>
      </trkpt>
      <trkpt lat="37.837740" lon="-119.039753">
        <ele>2273.7</ele>
        <time>2014-06-29T22:19:55Z</time>
        <sat>9</sat>
      </trkpt>
      <trkpt lat="37.837833" lon="-119.039743">
        <ele>2274.2</ele>
        <time>2014-06-29T22:19:59Z</time>
        <sat>9</sat>
      </trkpt>
      <trkpt lat="37.837938" lon="-119.039720">
        <ele>2274.4</ele>
        <time>2014-06-29T22:20:03Z</time>
        <sat>8</sat>
      </trkpt>
      <trkpt lat="37.838030" lon="-119.039702">
        <ele>2274.1</ele>
        <time>2014-06-29T22:20:06Z</time>
        <sat>9</sat>
      </trkpt>
      <trkpt lat="37.838125" lon="-119.039677">
        <ele>2274.5</ele>
        <time>2014-06-29T22:20:09Z</time>
        <sat>9</sat>
      </trkpt>
      <trkpt lat="37.838332" lon="-119.039685">
        <ele>2275.7</ele>
        <time>2014-06-29T22:20:16Z</time>
        <sat>9</sat>
      </trkpt>
      <trkpt lat="37.838423" lon="-119.039720">
        <ele>2276.2</ele>
        <time>2014-06-29T22:20:21Z</time>
        <sat>9</sat>
      </trkpt>
      <trkpt lat="37.838515" lon="-119.039762">
        <ele>2276.2</ele>
        <time>2014-06-29T22:20:58Z</time>
        <sat>9</sat>
      </trkpt>
      <trkpt lat="37.838628" lon="-119.039807">
        <ele>2275.8</ele>
        <time>2014-06-29T22:21:01Z</time>
        <sat>9</sat>
      </trkpt>
      <trkpt lat="37.838718" lon="-119.039845">
        <ele>2275.7</ele>
        <time>2014-06-29T22:21:03Z</time>
        <sat>9</sat>
      </trkpt>
      <trkpt lat="37.838822" lon="-119.039882">
        <ele>2275.2</ele>
        <time>2014-06-29T22:21:05Z</time>
        <sat>9</sat>
      </trkpt>
      <trkpt lat="37.838930" lon="-119.039913">
        <ele>2274.3</ele>
        <time>2014-06-29T22:21:07Z</time>
        <sat>9</sat>
      </trkpt>
      <trkpt lat="37.839037" lon="-119.039935">
        <ele>2273.5</ele>
        <time>2014-06-29T22:21:09Z</time>
        <sat>9</sat>
      </trkpt>
      <trkpt lat="37.839140" lon="-119.039947">
        <ele>2273.1</ele>
        <time>2014-06-29T22:21:11Z</time>
        <sat>9</sat>
      </trkpt>
      <trkpt lat="37.839360" lon="-119.039943">
        <ele>2272.5</ele>
        <time>2014-06-29T22:21:15Z</time>
        <sat>9</sat>
      </trkpt>
      <trkpt lat="37.839470" lon="-119.039932">
        <ele>2272.7</ele>
        <time>2014-06-29T22:21:17Z</time>
        <sat>9</sat>
      </trkpt>
      <trkpt lat="37.839580" lon="-119.039918">
        <ele>2272.5</ele>
        <time>2014-06-29T22:21:19Z</time>
        <sat>9</sat>
      </trkpt>
      <trkpt lat="37.839682" lon="-119.039900">
        <ele>2272.4</ele>
        <time>2014-06-29T22:21:21Z</time>
        <sat>9</sat>
      </trkpt>
      <trkpt lat="37.839773" lon="-119.039882">
        <ele>2272.3</ele>
        <time>2014-06-29T22:21:23Z</time>
        <sat>9</sat>
      </trkpt>
      <trkpt lat="37.839892" lon="-119.039858">
        <ele>2272.3</ele>
        <time>2014-06-29T22:21:26Z</time>
        <sat>9</sat>
      </trkpt>
      <trkpt lat="37.840002" lon="-119.039823">
        <ele>2272.2</ele>
        <time>2014-06-29T22:21:29Z</time>
        <sat>9</sat>
      </trkpt>
      <trkpt lat="37.840113" lon="-119.039793">
        <ele>2271.9</ele>
        <time>2014-06-29T22:21:32Z</time>
        <sat>9</sat>
      </trkpt>
      <trkpt lat="37.840228" lon="-119.039765">
        <ele>2272.0</ele>
        <time>2014-06-29T22:21:35Z</time>
        <sat>9</sat>
      </trkpt>
      <trkpt lat="37.840347" lon="-119.039733">
        <ele>2271.9</ele>
        <time>2014-06-29T22:21:38Z</time>
        <sat>9</sat>
      </trkpt>
      <trkpt lat="37.840470" lon="-119.039702">
        <ele>2271.6</ele>
        <time>2014-06-29T22:21:41Z</time>
        <sat>9</sat>
      </trkpt>
      <trkpt lat="37.840603" lon="-119.039675">
        <ele>2271.2</ele>
        <time>2014-06-29T22:21:44Z</time>
        <sat>9</sat>
      </trkpt>
      <trkpt lat="37.840693" lon="-119.039660">
        <ele>2270.9</ele>
        <time>2014-06-29T22:21:46Z</time>
        <sat>9</sat>
      </trkpt>
      <trkpt lat="37.840823" lon="-119.039647">
        <ele>2271.1</ele>
        <time>2014-06-29T22:21:49Z</time>
        <sat>9</sat>
      </trkpt>
      <trkpt lat="37.840937" lon="-119.039640">
        <ele>2271.2</ele>
        <time>2014-06-29T22:21:52Z</time>
        <sat>9</sat>
      </trkpt>
      <trkpt lat="37.841052" lon="-119.039637">
        <ele>2270.8</ele>
        <time>2014-06-29T22:21:55Z</time>
        <sat>9</sat>
      </trkpt>
      <trkpt lat="37.841173" lon="-119.039642">
        <ele>2270.9</ele>
        <time>2014-06-29T22:21:58Z</time>
        <sat>9</sat>
      </trkpt>
      <trkpt lat="37.841300" lon="-119.039650">
        <ele>2270.6</ele>
        <time>2014-06-29T22:22:01Z</time>
        <sat>9</sat>
      </trkpt>
      <trkpt lat="37.841428" lon="-119.039668">
        <ele>2270.6</ele>
        <time>2014-06-29T22:22:04Z</time>
        <sat>9</sat>
      </trkpt>
      <trkpt lat="37.841553" lon="-119.039698">
        <ele>2270.5</ele>
        <time>2014-06-29T22:22:07Z</time>
        <sat>9</sat>
      </trkpt>
      <trkpt lat="37.841672" lon="-119.039720">
        <ele>2270.6</ele>
        <time>2014-06-29T22:22:10Z</time>
        <sat>9</sat>
      </trkpt>
      <trkpt lat="37.841787" lon="-119.039735">
        <ele>2270.5</ele>
        <time>2014-06-29T22:22:13Z</time>
        <sat>9</sat>
      </trkpt>
      <trkpt lat="37.842027" lon="-119.039742">
        <ele>2270.0</ele>
        <time>2014-06-29T22:22:19Z</time>
        <sat>9</sat>
      </trkpt>
      <trkpt lat="37.842152" lon="-119.039742">
        <ele>2269.9</ele>
        <time>2014-06-29T22:22:22Z</time>
        <sat>9</sat>
      </trkpt>
      <trkpt lat="37.842275" lon="-119.039745">
        <ele>2269.9</ele>
        <time>2014-06-29T22:22:25Z</time>
        <sat>9</sat>
      </trkpt>
      <trkpt lat="37.842400" lon="-119.039748">
        <ele>2269.9</ele>
        <time>2014-06-29T22:22:28Z</time>
        <sat>9</sat>
      </trkpt>
      <trkpt lat="37.842525" lon="-119.039750">
        <ele>2269.5</ele>
        <time>2014-06-29T22:22:31Z</time>
        <sat>9</sat>
      </trkpt>
      <trkpt lat="37.842642" lon="-119.039760">
        <ele>2269.4</ele>
        <time>2014-06-29T22:22:34Z</time>
        <sat>9</sat>
      </trkpt>
      <trkpt lat="37.842760" lon="-119.039767">
        <ele>2269.6</ele>
        <time>2014-06-29T22:22:37Z</time>
        <sat>9</sat>
      </trkpt>
      <trkpt lat="37.842882" lon="-119.039765">
        <ele>2269.4</ele>
        <time>2014-06-29T22:22:40Z</time>
        <sat>9</sat>
      </trkpt>
      <trkpt lat="37.842987" lon="-119.039768">
        <ele>2269.6</ele>
        <time>2014-06-29T22:22:43Z</time>
        <sat>9</sat>
      </trkpt>
      <trkpt lat="37.843085" lon="-119.039773">
        <ele>2269.6</ele>
        <time>2014-06-29T22:22:46Z</time>
        <sat>9</sat>
      </trkpt>
      <trkpt lat="37.843197" lon="-119.039775">
        <ele>2269.3</ele>
        <time>2014-06-29T22:22:49Z</time>
        <sat>9</sat>
      </trkpt>
      <trkpt lat="37.843312" lon="-119.039770">
        <ele>2269.4</ele>
        <time>2014-06-29T22:22:52Z</time>
        <sat>9</sat>
      </trkpt>
      <trkpt lat="37.843425" lon="-119.039758">
        <ele>2269.6</ele>
        <time>2014-06-29T22:22:55Z</time>
        <sat>9</sat>
      </trkpt>
      <trkpt lat="37.843532" lon="-119.039738">
        <ele>2269.3</ele>
        <time>2014-06-29T22:22:58Z</time>
        <sat>9</sat>
      </trkpt>
      <trkpt lat="37.843633" lon="-119.039713">
        <ele>2269.2</ele>
        <time>2014-06-29T22:23:01Z</time>
        <sat>9</sat>
      </trkpt>
      <trkpt lat="37.843730" lon="-119.039687">
        <ele>2269.3</ele>
        <time>2014-06-29T22:23:04Z</time>
        <sat>9</sat>
      </trkpt>
      <trkpt lat="37.843820" lon="-119.039690">
        <ele>2269.6</ele>
        <time>2014-06-29T22:23:07Z</time>
        <sat>9</sat>
      </trkpt>
      <trkpt lat="37.843903" lon="-119.039742">
        <ele>2269.7</ele>
        <time>2014-06-29T22:23:12Z</time>
        <sat>9</sat>
      </trkpt>
      <trkpt lat="37.843982" lon="-119.039833">
        <ele>2269.3</ele>
        <time>2014-06-29T22:24:54Z</time>
        <sat>8</sat>
      </trkpt>
      <trkpt lat="37.844127" lon="-119.039992">
        <ele>2269.7</ele>
        <time>2014-06-29T22:25:06Z</time>
        <sat>8</sat>
      </trkpt>
      <trkpt lat="37.844198" lon="-119.040070">
        <ele>2270.0</ele>
        <time>2014-06-29T22:25:13Z</time>
        <sat>8</sat>
      </trkpt>
      <trkpt lat="37.844263" lon="-119.040150">
        <ele>2270.6</ele>
        <time>2014-06-29T22:25:21Z</time>
        <sat>8</sat>
      </trkpt>
      <trkpt lat="37.844318" lon="-119.040247">
        <ele>2271.6</ele>
        <time>2014-06-29T22:25:32Z</time>
        <sat>8</sat>
      </trkpt>
      <trkpt lat="37.844380" lon="-119.040333">
        <ele>2272.7</ele>
        <time>2014-06-29T22:25:44Z</time>
        <sat>8</sat>
      </trkpt>
      <trkpt lat="37.844452" lon="-119.040403">
        <ele>2274.1</ele>
        <time>2014-06-29T22:25:55Z</time>
        <sat>8</sat>
      </trkpt>
      <trkpt lat="37.844597" lon="-119.040565">
        <ele>2276.2</ele>
        <time>2014-06-29T22:26:13Z</time>
        <sat>8</sat>
      </trkpt>
      <trkpt lat="37.844670" lon="-119.040642">
        <ele>2276.8</ele>
        <time>2014-06-29T22:26:23Z</time>
        <sat>8</sat>
      </trkpt>
      <trkpt lat="37.844742" lon="-119.040713">
        <ele>2278.4</ele>
        <time>2014-06-29T22:26:33Z</time>
        <sat>8</sat>
      </trkpt>
      <trkpt lat="37.844813" lon="-119.040798">
        <ele>2279.7</ele>
        <time>2014-06-29T22:26:43Z</time>
        <sat>8</sat>
      </trkpt>
      <trkpt lat="37.844882" lon="-119.040873">
        <ele>2280.8</ele>
        <time>2014-06-29T22:26:52Z</time>
        <sat>8</sat>
      </trkpt>
      <trkpt lat="37.844950" lon="-119.040957">
        <ele>2281.7</ele>
        <time>2014-06-29T22:27:01Z</time>
        <sat>8</sat>
      </trkpt>
      <trkpt lat="37.845098" lon="-119.041103">
        <ele>2281.4</ele>
        <time>2014-06-29T22:27:24Z</time>
        <sat>8</sat>
      </trkpt>
      <trkpt lat="37.845165" lon="-119.041180">
        <ele>2281.2</ele>
        <time>2014-06-29T22:27:27Z</time>
        <sat>8</sat>
      </trkpt>
      <trkpt lat="37.845248" lon="-119.041270">
        <ele>2280.5</ele>
        <time>2014-06-29T22:27:30Z</time>
        <sat>8</sat>
      </trkpt>
      <trkpt lat="37.845348" lon="-119.041373">
        <ele>2279.3</ele>
        <time>2014-06-29T22:27:33Z</time>
        <sat>8</sat>
      </trkpt>
      <trkpt lat="37.845423" lon="-119.041448">
        <ele>2278.8</ele>
        <time>2014-06-29T22:27:35Z</time>
        <sat>8</sat>
      </trkpt>
      <trkpt lat="37.845500" lon="-119.041527">
        <ele>2278.7</ele>
        <time>2014-06-29T22:27:37Z</time>
        <sat>8</sat>
      </trkpt>
      <trkpt lat="37.845575" lon="-119.041607">
        <ele>2278.3</ele>
        <time>2014-06-29T22:27:39Z</time>
        <sat>8</sat>
      </trkpt>
      <trkpt lat="37.845647" lon="-119.041683">
        <ele>2277.9</ele>
        <time>2014-06-29T22:27:41Z</time>
        <sat>8</sat>
      </trkpt>
      <trkpt lat="37.845717" lon="-119.041758">
        <ele>2278.1</ele>
        <time>2014-06-29T22:27:43Z</time>
        <sat>8</sat>
      </trkpt>
      <trkpt lat="37.845787" lon="-119.041835">
        <ele>2277.6</ele>
        <time>2014-06-29T22:27:45Z</time>
        <sat>8</sat>
      </trkpt>
      <trkpt lat="37.845883" lon="-119.041942">
        <ele>2277.4</ele>
        <time>2014-06-29T22:27:48Z</time>
        <sat>8</sat>
      </trkpt>
      <trkpt lat="37.845978" lon="-119.042052">
        <ele>2277.4</ele>
        <time>2014-06-29T22:27:51Z</time>
        <sat>8</sat>
      </trkpt>
      <trkpt lat="37.846072" lon="-119.042168">
        <ele>2277.1</ele>
        <time>2014-06-29T22:27:54Z</time>
        <sat>8</sat>
      </trkpt>
      <trkpt lat="37.846167" lon="-119.042290">
        <ele>2276.4</ele>
        <time>2014-06-29T22:27:57Z</time>
        <sat>8</sat>
      </trkpt>
      <trkpt lat="37.846232" lon="-119.042372">
        <ele>2276.2</ele>
        <time>2014-06-29T22:27:59Z</time>
        <sat>8</sat>
      </trkpt>
      <trkpt lat="37.846298" lon="-119.042460">
        <ele>2275.7</ele>
        <time>2014-06-29T22:28:01Z</time>
        <sat>8</sat>
      </trkpt>
      <trkpt lat="37.846365" lon="-119.042548">
        <ele>2275.2</ele>
        <time>2014-06-29T22:28:03Z</time>
        <sat>8</sat>
      </trkpt>
      <trkpt lat="37.846493" lon="-119.042727">
        <ele>2274.0</ele>
        <time>2014-06-29T22:28:07Z</time>
        <sat>8</sat>
      </trkpt>
      <trkpt lat="37.846555" lon="-119.042810">
        <ele>2273.5</ele>
        <time>2014-06-29T22:28:09Z</time>
        <sat>8</sat>
      </trkpt>
      <trkpt lat="37.846635" lon="-119.042927">
        <ele>2272.8</ele>
        <time>2014-06-29T22:28:12Z</time>
        <sat>8</sat>
      </trkpt>
      <trkpt lat="37.846708" lon="-119.043042">
        <ele>2272.3</ele>
        <time>2014-06-29T22:28:15Z</time>
        <sat>8</sat>
      </trkpt>
      <trkpt lat="37.846790" lon="-119.043167">
        <ele>2271.7</ele>
        <time>2014-06-29T22:28:18Z</time>
        <sat>8</sat>
      </trkpt>
      <trkpt lat="37.846853" lon="-119.043255">
        <ele>2271.2</ele>
        <time>2014-06-29T22:28:20Z</time>
        <sat>8</sat>
      </trkpt>
      <trkpt lat="37.846925" lon="-119.043348">
        <ele>2270.8</ele>
        <time>2014-06-29T22:28:22Z</time>
        <sat>8</sat>
      </trkpt>
      <trkpt lat="37.847000" lon="-119.043447">
        <ele>2270.2</ele>
        <time>2014-06-29T22:28:24Z</time>
        <sat>8</sat>
      </trkpt>
      <trkpt lat="37.847080" lon="-119.043550">
        <ele>2269.6</ele>
        <time>2014-06-29T22:28:26Z</time>
        <sat>8</sat>
      </trkpt>
      <trkpt lat="37.847162" lon="-119.043655">
        <ele>2268.6</ele>
        <time>2014-06-29T22:28:28Z</time>
        <sat>8</sat>
      </trkpt>
      <trkpt lat="37.847242" lon="-119.043765">
        <ele>2267.6</ele>
        <time>2014-06-29T22:28:30Z</time>
        <sat>8</sat>
      </trkpt>
      <trkpt lat="37.847320" lon="-119.043870">
        <ele>2266.9</ele>
        <time>2014-06-29T22:28:32Z</time>
        <sat>8</sat>
      </trkpt>
      <trkpt lat="37.847395" lon="-119.043973">
        <ele>2265.9</ele>
        <time>2014-06-29T22:28:34Z</time>
        <sat>8</sat>
      </trkpt>
      <trkpt lat="37.847467" lon="-119.044080">
        <ele>2265.4</ele>
        <time>2014-06-29T22:28:36Z</time>
        <sat>8</sat>
      </trkpt>
      <trkpt lat="37.847538" lon="-119.044190">
        <ele>2264.8</ele>
        <time>2014-06-29T22:28:38Z</time>
        <sat>8</sat>
      </trkpt>
      <trkpt lat="37.847613" lon="-119.044298">
        <ele>2263.8</ele>
        <time>2014-06-29T22:28:40Z</time>
        <sat>8</sat>
      </trkpt>
      <trkpt lat="37.847685" lon="-119.044407">
        <ele>2263.2</ele>
        <time>2014-06-29T22:28:42Z</time>
        <sat>8</sat>
      </trkpt>
      <trkpt lat="37.847760" lon="-119.044503">
        <ele>2262.8</ele>
        <time>2014-06-29T22:28:44Z</time>
        <sat>8</sat>
      </trkpt>
      <trkpt lat="37.847850" lon="-119.044592">
        <ele>2262.3</ele>
        <time>2014-06-29T22:28:46Z</time>
        <sat>8</sat>
      </trkpt>
      <trkpt lat="37.847947" lon="-119.044672">
        <ele>2262.5</ele>
        <time>2014-06-29T22:28:48Z</time>
        <sat>8</sat>
      </trkpt>
      <trkpt lat="37.848030" lon="-119.044743">
        <ele>2262.6</ele>
        <time>2014-06-29T22:28:50Z</time>
        <sat>8</sat>
      </trkpt>
      <trkpt lat="37.848100" lon="-119.044825">
        <ele>2262.1</ele>
        <time>2014-06-29T22:28:52Z</time>
        <sat>8</sat>
      </trkpt>
      <trkpt lat="37.848168" lon="-119.044925">
        <ele>2261.6</ele>
        <time>2014-06-29T22:28:54Z</time>
        <sat>8</sat>
      </trkpt>
      <trkpt lat="37.848238" lon="-119.045033">
        <ele>2260.7</ele>
        <time>2014-06-29T22:28:56Z</time>
        <sat>8</sat>
      </trkpt>
      <trkpt lat="37.848302" lon="-119.045145">
        <ele>2259.8</ele>
        <time>2014-06-29T22:28:58Z</time>
        <sat>8</sat>
      </trkpt>
      <trkpt lat="37.848377" lon="-119.045267">
        <ele>2258.9</ele>
        <time>2014-06-29T22:29:00Z</time>
        <sat>7</sat>
      </trkpt>
      <trkpt lat="37.848453" lon="-119.045413">
        <ele>2257.1</ele>
        <time>2014-06-29T22:29:02Z</time>
        <sat>8</sat>
      </trkpt>
      <trkpt lat="37.848545" lon="-119.045582">
        <ele>2255.6</ele>
        <time>2014-06-29T22:29:04Z</time>
        <sat>8</sat>
      </trkpt>
      <trkpt lat="37.848752" lon="-119.045923">
        <ele>2253.2</ele>
        <time>2014-06-29T22:29:08Z</time>
        <sat>8</sat>
      </trkpt>
      <trkpt lat="37.848840" lon="-119.046077">
        <ele>2252.9</ele>
        <time>2014-06-29T22:29:10Z</time>
        <sat>8</sat>
      </trkpt>
      <trkpt lat="37.848915" lon="-119.046203">
        <ele>2253.0</ele>
        <time>2014-06-29T22:29:12Z</time>
        <sat>8</sat>
      </trkpt>
      <trkpt lat="37.848985" lon="-119.046310">
        <ele>2253.1</ele>
        <time>2014-06-29T22:29:14Z</time>
        <sat>8</sat>
      </trkpt>
      <trkpt lat="37.849055" lon="-119.046407">
        <ele>2253.2</ele>
        <time>2014-06-29T22:29:16Z</time>
        <sat>8</sat>
      </trkpt>
      <trkpt lat="37.849128" lon="-119.046503">
        <ele>2253.2</ele>
        <time>2014-06-29T22:29:18Z</time>
        <sat>8</sat>
      </trkpt>
      <trkpt lat="37.849205" lon="-119.046603">
        <ele>2253.2</ele>
        <time>2014-06-29T22:29:20Z</time>
        <sat>8</sat>
      </trkpt>
      <trkpt lat="37.849285" lon="-119.046717">
        <ele>2252.6</ele>
        <time>2014-06-29T22:29:22Z</time>
        <sat>8</sat>
      </trkpt>
      <trkpt lat="37.849362" lon="-119.046845">
        <ele>2251.7</ele>
        <time>2014-06-29T22:29:24Z</time>
        <sat>8</sat>
      </trkpt>
      <trkpt lat="37.849443" lon="-119.046980">
        <ele>2251.0</ele>
        <time>2014-06-29T22:29:26Z</time>
        <sat>8</sat>
      </trkpt>
      <trkpt lat="37.849530" lon="-119.047112">
        <ele>2250.5</ele>
        <time>2014-06-29T22:29:28Z</time>
        <sat>8</sat>
      </trkpt>
      <trkpt lat="37.849620" lon="-119.047243">
        <ele>2249.3</ele>
        <time>2014-06-29T22:29:30Z</time>
        <sat>8</sat>
      </trkpt>
      <trkpt lat="37.849713" lon="-119.047375">
        <ele>2248.2</ele>
        <time>2014-06-29T22:29:32Z</time>
        <sat>8</sat>
      </trkpt>
      <trkpt lat="37.849817" lon="-119.047503">
        <ele>2247.5</ele>
        <time>2014-06-29T22:29:34Z</time>
        <sat>8</sat>
      </trkpt>
      <trkpt lat="37.849933" lon="-119.047642">
        <ele>2246.0</ele>
        <time>2014-06-29T22:29:36Z</time>
        <sat>8</sat>
      </trkpt>
      <trkpt lat="37.850055" lon="-119.047797">
        <ele>2244.3</ele>
        <time>2014-06-29T22:29:38Z</time>
        <sat>8</sat>
      </trkpt>
      <trkpt lat="37.850173" lon="-119.047967">
        <ele>2242.6</ele>
        <time>2014-06-29T22:29:40Z</time>
        <sat>8</sat>
      </trkpt>
      <trkpt lat="37.850235" lon="-119.048055">
        <ele>2241.7</ele>
        <time>2014-06-29T22:29:41Z</time>
        <sat>8</sat>
      </trkpt>
      <trkpt lat="37.850297" lon="-119.048142">
        <ele>2240.5</ele>
        <time>2014-06-29T22:29:42Z</time>
        <sat>8</sat>
      </trkpt>
      <trkpt lat="37.850360" lon="-119.048227">
        <ele>2239.4</ele>
        <time>2014-06-29T22:29:43Z</time>
        <sat>8</sat>
      </trkpt>
      <trkpt lat="37.850478" lon="-119.048390">
        <ele>2237.5</ele>
        <time>2014-06-29T22:29:45Z</time>
        <sat>8</sat>
      </trkpt>
      <trkpt lat="37.850583" lon="-119.048543">
        <ele>2235.9</ele>
        <time>2014-06-29T22:29:47Z</time>
        <sat>8</sat>
      </trkpt>
      <trkpt lat="37.850692" lon="-119.048667">
        <ele>2234.6</ele>
        <time>2014-06-29T22:29:49Z</time>
        <sat>8</sat>
      </trkpt>
      <trkpt lat="37.850807" lon="-119.048777">
        <ele>2233.4</ele>
        <time>2014-06-29T22:29:51Z</time>
        <sat>8</sat>
      </trkpt>
      <trkpt lat="37.850892" lon="-119.048913">
        <ele>2232.1</ele>
        <time>2014-06-29T22:29:53Z</time>
        <sat>8</sat>
      </trkpt>
      <trkpt lat="37.850953" lon="-119.049050">
        <ele>2231.3</ele>
        <time>2014-06-29T22:29:55Z</time>
        <sat>8</sat>
      </trkpt>
      <trkpt lat="37.851020" lon="-119.049170">
        <ele>2230.6</ele>
        <time>2014-06-29T22:29:57Z</time>
        <sat>8</sat>
      </trkpt>
      <trkpt lat="37.851092" lon="-119.049278">
        <ele>2230.2</ele>
        <time>2014-06-29T22:29:59Z</time>
        <sat>8</sat>
      </trkpt>
      <trkpt lat="37.851168" lon="-119.049388">
        <ele>2230.1</ele>
        <time>2014-06-29T22:30:01Z</time>
        <sat>8</sat>
      </trkpt>
      <trkpt lat="37.851240" lon="-119.049490">
        <ele>2229.9</ele>
        <time>2014-06-29T22:30:03Z</time>
        <sat>8</sat>
      </trkpt>
      <trkpt lat="37.851302" lon="-119.049587">
        <ele>2229.7</ele>
        <time>2014-06-29T22:30:05Z</time>
        <sat>8</sat>
      </trkpt>
      <trkpt lat="37.851362" lon="-119.049688">
        <ele>2229.4</ele>
        <time>2014-06-29T22:30:07Z</time>
        <sat>8</sat>
      </trkpt>
      <trkpt lat="37.851525" lon="-119.049925">
        <ele>2226.9</ele>
        <time>2014-06-29T22:30:11Z</time>
        <sat>8</sat>
      </trkpt>
      <trkpt lat="37.851628" lon="-119.050075">
        <ele>2225.3</ele>
        <time>2014-06-29T22:30:13Z</time>
        <sat>8</sat>
      </trkpt>
      <trkpt lat="37.851742" lon="-119.050237">
        <ele>2223.3</ele>
        <time>2014-06-29T22:30:15Z</time>
        <sat>8</sat>
      </trkpt>
      <trkpt lat="37.851860" lon="-119.050403">
        <ele>2222.1</ele>
        <time>2014-06-29T22:30:17Z</time>
        <sat>8</sat>
      </trkpt>
      <trkpt lat="37.851982" lon="-119.050575">
        <ele>2220.7</ele>
        <time>2014-06-29T22:30:19Z</time>
        <sat>8</sat>
      </trkpt>
      <trkpt lat="37.852045" lon="-119.050662">
        <ele>2220.1</ele>
        <time>2014-06-29T22:30:20Z</time>
        <sat>8</sat>
      </trkpt>
      <trkpt lat="37.852108" lon="-119.050750">
        <ele>2219.4</ele>
        <time>2014-06-29T22:30:21Z</time>
        <sat>8</sat>
      </trkpt>
      <trkpt lat="37.852173" lon="-119.050840">
        <ele>2218.2</ele>
        <time>2014-06-29T22:30:22Z</time>
        <sat>8</sat>
      </trkpt>
      <trkpt lat="37.852238" lon="-119.050930">
        <ele>2217.4</ele>
        <time>2014-06-29T22:30:23Z</time>
        <sat>8</sat>
      </trkpt>
      <trkpt lat="37.852300" lon="-119.051020">
        <ele>2216.5</ele>
        <time>2014-06-29T22:30:24Z</time>
        <sat>8</sat>
      </trkpt>
      <trkpt lat="37.852363" lon="-119.051112">
        <ele>2215.5</ele>
        <time>2014-06-29T22:30:25Z</time>
        <sat>8</sat>
      </trkpt>
      <trkpt lat="37.852432" lon="-119.051203">
        <ele>2214.3</ele>
        <time>2014-06-29T22:30:26Z</time>
        <sat>8</sat>
      </trkpt>
      <trkpt lat="37.852500" lon="-119.051298">
        <ele>2213.3</ele>
        <time>2014-06-29T22:30:27Z</time>
        <sat>8</sat>
      </trkpt>
      <trkpt lat="37.852572" lon="-119.051395">
        <ele>2212.4</ele>
        <time>2014-06-29T22:30:28Z</time>
        <sat>8</sat>
      </trkpt>
      <trkpt lat="37.852642" lon="-119.051493">
        <ele>2211.2</ele>
        <time>2014-06-29T22:30:29Z</time>
        <sat>8</sat>
      </trkpt>
      <trkpt lat="37.852713" lon="-119.051593">
        <ele>2209.8</ele>
        <time>2014-06-29T22:30:30Z</time>
        <sat>8</sat>
      </trkpt>
      <trkpt lat="37.852785" lon="-119.051692">
        <ele>2208.9</ele>
        <time>2014-06-29T22:30:31Z</time>
        <sat>8</sat>
      </trkpt>
      <trkpt lat="37.852857" lon="-119.051792">
        <ele>2207.6</ele>
        <time>2014-06-29T22:30:32Z</time>
        <sat>8</sat>
      </trkpt>
      <trkpt lat="37.852930" lon="-119.051890">
        <ele>2206.6</ele>
        <time>2014-06-29T22:30:33Z</time>
        <sat>8</sat>
      </trkpt>
      <trkpt lat="37.853005" lon="-119.051988">
        <ele>2205.8</ele>
        <time>2014-06-29T22:30:34Z</time>
        <sat>8</sat>
      </trkpt>
      <trkpt lat="37.853077" lon="-119.052085">
        <ele>2204.6</ele>
        <time>2014-06-29T22:30:35Z</time>
        <sat>8</sat>
      </trkpt>
      <trkpt lat="37.853148" lon="-119.052180">
        <ele>2204.0</ele>
        <time>2014-06-29T22:30:36Z</time>
        <sat>8</sat>
      </trkpt>
      <trkpt lat="37.853217" lon="-119.052272">
        <ele>2202.8</ele>
        <time>2014-06-29T22:30:37Z</time>
        <sat>8</sat>
      </trkpt>
      <trkpt lat="37.853283" lon="-119.052360">
        <ele>2202.0</ele>
        <time>2014-06-29T22:30:38Z</time>
        <sat>8</sat>
      </trkpt>
      <trkpt lat="37.853348" lon="-119.052448">
        <ele>2201.1</ele>
        <time>2014-06-29T22:30:39Z</time>
        <sat>8</sat>
      </trkpt>
      <trkpt lat="37.853410" lon="-119.052535">
        <ele>2200.0</ele>
        <time>2014-06-29T22:30:40Z</time>
        <sat>8</sat>
      </trkpt>
      <trkpt lat="37.853470" lon="-119.052620">
        <ele>2199.5</ele>
        <time>2014-06-29T22:30:41Z</time>
        <sat>8</sat>
      </trkpt>
      <trkpt lat="37.853587" lon="-119.052792">
        <ele>2198.5</ele>
        <time>2014-06-29T22:30:43Z</time>
        <sat>8</sat>
      </trkpt>
      <trkpt lat="37.853700" lon="-119.052960">
        <ele>2197.7</ele>
        <time>2014-06-29T22:30:45Z</time>
        <sat>8</sat>
      </trkpt>
      <trkpt lat="37.853812" lon="-119.053127">
        <ele>2196.9</ele>
        <time>2014-06-29T22:30:47Z</time>
        <sat>8</sat>
      </trkpt>
      <trkpt lat="37.853917" lon="-119.053293">
        <ele>2195.8</ele>
        <time>2014-06-29T22:30:49Z</time>
        <sat>8</sat>
      </trkpt>
      <trkpt lat="37.854010" lon="-119.053470">
        <ele>2195.0</ele>
        <time>2014-06-29T22:30:51Z</time>
        <sat>8</sat>
      </trkpt>
      <trkpt lat="37.854092" lon="-119.053645">
        <ele>2194.1</ele>
        <time>2014-06-29T22:30:53Z</time>
        <sat>8</sat>
      </trkpt>
      <trkpt lat="37.854182" lon="-119.053812">
        <ele>2193.0</ele>
        <time>2014-06-29T22:30:55Z</time>
        <sat>8</sat>
      </trkpt>
      <trkpt lat="37.854265" lon="-119.053998">
        <ele>2191.3</ele>
        <time>2014-06-29T22:30:57Z</time>
        <sat>8</sat>
      </trkpt>
      <trkpt lat="37.854343" lon="-119.054188">
        <ele>2189.8</ele>
        <time>2014-06-29T22:30:59Z</time>
        <sat>8</sat>
      </trkpt>
      <trkpt lat="37.854423" lon="-119.054368">
        <ele>2188.1</ele>
        <time>2014-06-29T22:31:01Z</time>
        <sat>8</sat>
      </trkpt>
      <trkpt lat="37.854498" lon="-119.054558">
        <ele>2186.6</ele>
        <time>2014-06-29T22:31:03Z</time>
        <sat>8</sat>
      </trkpt>
      <trkpt lat="37.854568" lon="-119.054738">
        <ele>2185.3</ele>
        <time>2014-06-29T22:31:05Z</time>
        <sat>8</sat>
      </trkpt>
      <trkpt lat="37.854640" lon="-119.054912">
        <ele>2184.2</ele>
        <time>2014-06-29T22:31:07Z</time>
        <sat>8</sat>
      </trkpt>
      <trkpt lat="37.854717" lon="-119.055083">
        <ele>2183.0</ele>
        <time>2014-06-29T22:31:09Z</time>
        <sat>8</sat>
      </trkpt>
      <trkpt lat="37.854883" lon="-119.055407">
        <ele>2180.3</ele>
        <time>2014-06-29T22:31:13Z</time>
        <sat>8</sat>
      </trkpt>
      <trkpt lat="37.854992" lon="-119.055518">
        <ele>2179.3</ele>
        <time>2014-06-29T22:31:15Z</time>
        <sat>8</sat>
      </trkpt>
      <trkpt lat="37.855113" lon="-119.055580">
        <ele>2178.6</ele>
        <time>2014-06-29T22:31:17Z</time>
        <sat>8</sat>
      </trkpt>
      <trkpt lat="37.855235" lon="-119.055593">
        <ele>2177.8</ele>
        <time>2014-06-29T22:31:19Z</time>
        <sat>8</sat>
      </trkpt>
      <trkpt lat="37.855357" lon="-119.055573">
        <ele>2177.5</ele>
        <time>2014-06-29T22:31:21Z</time>
        <sat>8</sat>
      </trkpt>
      <trkpt lat="37.855468" lon="-119.055567">
        <ele>2177.6</ele>
        <time>2014-06-29T22:31:23Z</time>
        <sat>8</sat>
      </trkpt>
      <trkpt lat="37.855563" lon="-119.055592">
        <ele>2177.5</ele>
        <time>2014-06-29T22:31:25Z</time>
        <sat>8</sat>
      </trkpt>
      <trkpt lat="37.855652" lon="-119.055637">
        <ele>2177.4</ele>
        <time>2014-06-29T22:31:27Z</time>
        <sat>8</sat>
      </trkpt>
      <trkpt lat="37.855752" lon="-119.055703">
        <ele>2177.1</ele>
        <time>2014-06-29T22:31:30Z</time>
        <sat>8</sat>
      </trkpt>
      <trkpt lat="37.855825" lon="-119.055770">
        <ele>2176.8</ele>
        <time>2014-06-29T22:31:46Z</time>
        <sat>8</sat>
      </trkpt>
      <trkpt lat="37.855903" lon="-119.055838">
        <ele>2176.6</ele>
        <time>2014-06-29T22:31:50Z</time>
        <sat>8</sat>
      </trkpt>
      <trkpt lat="37.855982" lon="-119.055915">
        <ele>2176.2</ele>
        <time>2014-06-29T22:31:55Z</time>
        <sat>8</sat>
      </trkpt>
      <trkpt lat="37.856065" lon="-119.055963">
        <ele>2176.6</ele>
        <time>2014-06-29T22:31:59Z</time>
        <sat>8</sat>
      </trkpt>
      <trkpt lat="37.856155" lon="-119.055907">
        <ele>2176.2</ele>
        <time>2014-06-29T22:32:27Z</time>
        <sat>8</sat>
      </trkpt>
      <trkpt lat="37.856260" lon="-119.056045">
        <ele>2175.1</ele>
        <time>2014-06-29T22:32:37Z</time>
        <sat>8</sat>
      </trkpt>
      <trkpt lat="37.856223" lon="-119.056160">
        <ele>2174.9</ele>
        <time>2014-06-29T22:32:41Z</time>
        <sat>8</sat>
      </trkpt>
      <trkpt lat="37.856288" lon="-119.056240">
        <ele>2174.7</ele>
        <time>2014-06-29T22:32:45Z</time>
        <sat>8</sat>
      </trkpt>
      <trkpt lat="37.856387" lon="-119.056308">
        <ele>2174.2</ele>
        <time>2014-06-29T22:32:49Z</time>
        <sat>8</sat>
      </trkpt>
      <trkpt lat="37.856472" lon="-119.056363">
        <ele>2174.3</ele>
        <time>2014-06-29T22:32:53Z</time>
        <sat>8</sat>
      </trkpt>
      <trkpt lat="37.856543" lon="-119.056448">
        <ele>2174.5</ele>
        <time>2014-06-29T22:32:58Z</time>
        <sat>8</sat>
      </trkpt>
      <trkpt lat="37.856608" lon="-119.056570">
        <ele>2174.1</ele>
        <time>2014-06-29T22:33:04Z</time>
        <sat>8</sat>
      </trkpt>
      <trkpt lat="37.856670" lon="-119.056655">
        <ele>2174.1</ele>
        <time>2014-06-29T22:33:07Z</time>
        <sat>8</sat>
      </trkpt>
      <trkpt lat="37.856740" lon="-119.056732">
        <ele>2174.0</ele>
        <time>2014-06-29T22:33:10Z</time>
        <sat>8</sat>
      </trkpt>
      <trkpt lat="37.856813" lon="-119.056798">
        <ele>2174.2</ele>
        <time>2014-06-29T22:33:13Z</time>
        <sat>8</sat>
      </trkpt>
      <trkpt lat="37.856888" lon="-119.056877">
        <ele>2174.2</ele>
        <time>2014-06-29T22:33:16Z</time>
        <sat>8</sat>
      </trkpt>
      <trkpt lat="37.856968" lon="-119.056952">
        <ele>2174.0</ele>
        <time>2014-06-29T22:33:19Z</time>
        <sat>8</sat>
      </trkpt>
      <trkpt lat="37.857043" lon="-119.057033">
        <ele>2174.5</ele>
        <time>2014-06-29T22:33:22Z</time>
        <sat>8</sat>
      </trkpt>
      <trkpt lat="37.857105" lon="-119.057157">
        <ele>2174.4</ele>
        <time>2014-06-29T22:33:26Z</time>
        <sat>8</sat>
      </trkpt>
      <trkpt lat="37.857092" lon="-119.057278">
        <ele>2175.2</ele>
        <time>2014-06-29T22:33:32Z</time>
        <sat>8</sat>
      </trkpt>
      <trkpt lat="37.857170" lon="-119.057490">
        <ele>2175.0</ele>
        <time>2014-06-29T22:33:46Z</time>
        <sat>8</sat>
      </trkpt>
      <trkpt lat="37.857237" lon="-119.057598">
        <ele>2175.7</ele>
        <time>2014-06-29T22:33:50Z</time>
        <sat>8</sat>
      </trkpt>
      <trkpt lat="37.857297" lon="-119.057728">
        <ele>2174.7</ele>
        <time>2014-06-29T22:33:54Z</time>
        <sat>8</sat>
      </trkpt>
      <trkpt lat="37.857337" lon="-119.057843">
        <ele>2175.2</ele>
        <time>2014-06-29T22:33:57Z</time>
        <sat>8</sat>
      </trkpt>
      <trkpt lat="37.857382" lon="-119.057953">
        <ele>2174.6</ele>
        <time>2014-06-29T22:34:00Z</time>
        <sat>8</sat>
      </trkpt>
      <trkpt lat="37.857415" lon="-119.058072">
        <ele>2174.6</ele>
        <time>2014-06-29T22:34:03Z</time>
        <sat>8</sat>
      </trkpt>
      <trkpt lat="37.857455" lon="-119.058197">
        <ele>2174.2</ele>
        <time>2014-06-29T22:34:06Z</time>
        <sat>8</sat>
      </trkpt>
      <trkpt lat="37.857508" lon="-119.058310">
        <ele>2173.9</ele>
        <time>2014-06-29T22:34:09Z</time>
        <sat>8</sat>
      </trkpt>
      <trkpt lat="37.857573" lon="-119.058418">
        <ele>2173.8</ele>
        <time>2014-06-29T22:34:12Z</time>
        <sat>8</sat>
      </trkpt>
      <trkpt lat="37.857643" lon="-119.058522">
        <ele>2173.6</ele>
        <time>2014-06-29T22:34:15Z</time>
        <sat>8</sat>
      </trkpt>
      <trkpt lat="37.857720" lon="-119.058632">
        <ele>2173.1</ele>
        <time>2014-06-29T22:34:18Z</time>
        <sat>8</sat>
      </trkpt>
      <trkpt lat="37.857798" lon="-119.058737">
        <ele>2172.3</ele>
        <time>2014-06-29T22:34:21Z</time>
        <sat>8</sat>
      </trkpt>
      <trkpt lat="37.857873" lon="-119.058840">
        <ele>2171.6</ele>
        <time>2014-06-29T22:34:24Z</time>
        <sat>8</sat>
      </trkpt>
      <trkpt lat="37.857927" lon="-119.058967">
        <ele>2171.0</ele>
        <time>2014-06-29T22:34:27Z</time>
        <sat>8</sat>
      </trkpt>
      <trkpt lat="37.857943" lon="-119.059100">
        <ele>2171.5</ele>
        <time>2014-06-29T22:34:30Z</time>
        <sat>8</sat>
      </trkpt>
      <trkpt lat="37.857930" lon="-119.059230">
        <ele>2171.5</ele>
        <time>2014-06-29T22:34:33Z</time>
        <sat>8</sat>
      </trkpt>
      <trkpt lat="37.857870" lon="-119.059475">
        <ele>2169.4</ele>
        <time>2014-06-29T22:34:40Z</time>
        <sat>8</sat>
      </trkpt>
      <trkpt lat="37.857838" lon="-119.059590">
        <ele>2170.8</ele>
        <time>2014-06-29T22:34:44Z</time>
        <sat>8</sat>
      </trkpt>
      <trkpt lat="37.857932" lon="-119.059625">
        <ele>2171.1</ele>
        <time>2014-06-29T22:35:00Z</time>
        <sat>8</sat>
      </trkpt>
      <trkpt lat="37.858018" lon="-119.059692">
        <ele>2170.7</ele>
        <time>2014-06-29T22:35:05Z</time>
        <sat>8</sat>
      </trkpt>
      <trkpt lat="37.858107" lon="-119.059715">
        <ele>2170.5</ele>
        <time>2014-06-29T22:35:09Z</time>
        <sat>8</sat>
      </trkpt>
      <trkpt lat="37.858203" lon="-119.059728">
        <ele>2169.8</ele>
        <time>2014-06-29T22:35:12Z</time>
        <sat>8</sat>
      </trkpt>
      <trkpt lat="37.858295" lon="-119.059825">
        <ele>2169.9</ele>
        <time>2014-06-29T22:35:16Z</time>
        <sat>8</sat>
      </trkpt>
      <trkpt lat="37.858382" lon="-119.059932">
        <ele>2169.7</ele>
        <time>2014-06-29T22:35:20Z</time>
        <sat>8</sat>
      </trkpt>
      <trkpt lat="37.858462" lon="-119.059988">
        <ele>2169.1</ele>
        <time>2014-06-29T22:35:23Z</time>
        <sat>8</sat>
      </trkpt>
      <trkpt lat="37.858550" lon="-119.060050">
        <ele>2168.6</ele>
        <time>2014-06-29T22:35:26Z</time>
        <sat>8</sat>
      </trkpt>
      <trkpt lat="37.858635" lon="-119.060107">
        <ele>2168.2</ele>
        <time>2014-06-29T22:35:29Z</time>
        <sat>8</sat>
      </trkpt>
      <trkpt lat="37.858730" lon="-119.060187">
        <ele>2167.0</ele>
        <time>2014-06-29T22:35:33Z</time>
        <sat>8</sat>
      </trkpt>
      <trkpt lat="37.858808" lon="-119.060290">
        <ele>2166.0</ele>
        <time>2014-06-29T22:35:37Z</time>
        <sat>8</sat>
      </trkpt>
      <trkpt lat="37.858935" lon="-119.060480">
        <ele>2164.7</ele>
        <time>2014-06-29T22:35:46Z</time>
        <sat>8</sat>
      </trkpt>
      <trkpt lat="37.858992" lon="-119.060573">
        <ele>2164.0</ele>
        <time>2014-06-29T22:35:50Z</time>
        <sat>8</sat>
      </trkpt>
      <trkpt lat="37.859048" lon="-119.060665">
        <ele>2163.4</ele>
        <time>2014-06-29T22:35:54Z</time>
        <sat>8</sat>
      </trkpt>
      <trkpt lat="37.859108" lon="-119.060757">
        <ele>2163.3</ele>
        <time>2014-06-29T22:35:58Z</time>
        <sat>8</sat>
      </trkpt>
      <trkpt lat="37.859165" lon="-119.060850">
        <ele>2162.6</ele>
        <time>2014-06-29T22:36:02Z</time>
        <sat>8</sat>
      </trkpt>
      <trkpt lat="37.859222" lon="-119.060947">
        <ele>2162.1</ele>
        <time>2014-06-29T22:36:07Z</time>
        <sat>8</sat>
      </trkpt>
      <trkpt lat="37.859272" lon="-119.061057">
        <ele>2161.6</ele>
        <time>2014-06-29T22:36:12Z</time>
        <sat>8</sat>
      </trkpt>
      <trkpt lat="37.859313" lon="-119.061158">
        <ele>2161.3</ele>
        <time>2014-06-29T22:36:16Z</time>
        <sat>8</sat>
      </trkpt>
      <trkpt lat="37.859348" lon="-119.061268">
        <ele>2160.9</ele>
        <time>2014-06-29T22:36:20Z</time>
        <sat>8</sat>
      </trkpt>
      <trkpt lat="37.859363" lon="-119.061405">
        <ele>2160.2</ele>
        <time>2014-06-29T22:36:24Z</time>
        <sat>8</sat>
      </trkpt>
      <trkpt lat="37.859418" lon="-119.061500">
        <ele>2159.9</ele>
        <time>2014-06-29T22:36:28Z</time>
        <sat>8</sat>
      </trkpt>
      <trkpt lat="37.859495" lon="-119.061578">
        <ele>2159.6</ele>
        <time>2014-06-29T22:36:32Z</time>
        <sat>8</sat>
      </trkpt>
      <trkpt lat="37.859572" lon="-119.061670">
        <ele>2159.2</ele>
        <time>2014-06-29T22:36:36Z</time>
        <sat>8</sat>
      </trkpt>
      <trkpt lat="37.859683" lon="-119.061720">
        <ele>2158.6</ele>
        <time>2014-06-29T22:36:40Z</time>
        <sat>8</sat>
      </trkpt>
      <trkpt lat="37.859855" lon="-119.061817">
        <ele>2156.5</ele>
        <time>2014-06-29T22:36:46Z</time>
        <sat>8</sat>
      </trkpt>
      <trkpt lat="37.859938" lon="-119.061895">
        <ele>2155.7</ele>
        <time>2014-06-29T22:36:49Z</time>
        <sat>8</sat>
      </trkpt>
      <trkpt lat="37.860007" lon="-119.061983">
        <ele>2155.0</ele>
        <time>2014-06-29T22:36:52Z</time>
        <sat>8</sat>
      </trkpt>
      <trkpt lat="37.860073" lon="-119.062085">
        <ele>2154.2</ele>
        <time>2014-06-29T22:36:56Z</time>
        <sat>8</sat>
      </trkpt>
      <trkpt lat="37.860132" lon="-119.062183">
        <ele>2154.0</ele>
        <time>2014-06-29T22:37:00Z</time>
        <sat>8</sat>
      </trkpt>
      <trkpt lat="37.860198" lon="-119.062272">
        <ele>2153.7</ele>
        <time>2014-06-29T22:37:08Z</time>
        <sat>8</sat>
      </trkpt>
      <trkpt lat="37.860268" lon="-119.062358">
        <ele>2153.0</ele>
        <time>2014-06-29T22:37:19Z</time>
        <sat>8</sat>
      </trkpt>
      <trkpt lat="37.860335" lon="-119.062437">
        <ele>2152.5</ele>
        <time>2014-06-29T22:37:26Z</time>
        <sat>8</sat>
      </trkpt>
      <trkpt lat="37.860397" lon="-119.062525">
        <ele>2152.0</ele>
        <time>2014-06-29T22:37:37Z</time>
        <sat>8</sat>
      </trkpt>
      <trkpt lat="37.860462" lon="-119.062622">
        <ele>2151.9</ele>
        <time>2014-06-29T22:38:00Z</time>
        <sat>8</sat>
      </trkpt>
      <trkpt lat="37.860593" lon="-119.062807">
        <ele>2149.5</ele>
        <time>2014-06-29T22:38:23Z</time>
        <sat>8</sat>
      </trkpt>
      <trkpt lat="37.860657" lon="-119.062895">
        <ele>2149.6</ele>
        <time>2014-06-29T22:38:30Z</time>
        <sat>8</sat>
      </trkpt>
      <trkpt lat="37.860718" lon="-119.062982">
        <ele>2150.2</ele>
        <time>2014-06-29T22:38:36Z</time>
        <sat>8</sat>
      </trkpt>
      <trkpt lat="37.860785" lon="-119.063082">
        <ele>2150.0</ele>
        <time>2014-06-29T22:38:43Z</time>
        <sat>8</sat>
      </trkpt>
      <trkpt lat="37.860852" lon="-119.063177">
        <ele>2149.3</ele>
        <time>2014-06-29T22:38:50Z</time>
        <sat>8</sat>
      </trkpt>
      <trkpt lat="37.860908" lon="-119.063277">
        <ele>2149.1</ele>
        <time>2014-06-29T22:38:57Z</time>
        <sat>8</sat>
      </trkpt>
      <trkpt lat="37.860967" lon="-119.063367">
        <ele>2149.0</ele>
        <time>2014-06-29T22:39:04Z</time>
        <sat>8</sat>
      </trkpt>
      <trkpt lat="37.861075" lon="-119.063570">
        <ele>2148.2</ele>
        <time>2014-06-29T22:39:19Z</time>
        <sat>8</sat>
      </trkpt>
      <trkpt lat="37.861128" lon="-119.063672">
        <ele>2147.9</ele>
        <time>2014-06-29T22:39:27Z</time>
        <sat>8</sat>
      </trkpt>
      <trkpt lat="37.861188" lon="-119.063768">
        <ele>2148.2</ele>
        <time>2014-06-29T22:39:35Z</time>
        <sat>8</sat>
      </trkpt>
      <trkpt lat="37.861242" lon="-119.063862">
        <ele>2147.8</ele>
        <time>2014-06-29T22:39:42Z</time>
        <sat>8</sat>
      </trkpt>
      <trkpt lat="37.861292" lon="-119.063957">
        <ele>2147.4</ele>
        <time>2014-06-29T22:39:50Z</time>
        <sat>8</sat>
      </trkpt>
      <trkpt lat="37.861362" lon="-119.064050">
        <ele>2147.0</ele>
        <time>2014-06-29T22:39:59Z</time>
        <sat>8</sat>
      </trkpt>
      <trkpt lat="37.861418" lon="-119.064143">
        <ele>2146.3</ele>
        <time>2014-06-29T22:40:06Z</time>
        <sat>8</sat>
      </trkpt>
      <trkpt lat="37.861548" lon="-119.064330">
        <ele>2145.5</ele>
        <time>2014-06-29T22:40:23Z</time>
        <sat>8</sat>
      </trkpt>
      <trkpt lat="37.861612" lon="-119.064428">
        <ele>2145.3</ele>
        <time>2014-06-29T22:40:30Z</time>
        <sat>8</sat>
      </trkpt>
      <trkpt lat="37.861683" lon="-119.064518">
        <ele>2145.4</ele>
        <time>2014-06-29T22:40:38Z</time>
        <sat>8</sat>
      </trkpt>
      <trkpt lat="37.861747" lon="-119.064612">
        <ele>2144.5</ele>
        <time>2014-06-29T22:40:48Z</time>
        <sat>8</sat>
      </trkpt>
      <trkpt lat="37.861810" lon="-119.064698">
        <ele>2144.4</ele>
        <time>2014-06-29T22:40:53Z</time>
        <sat>8</sat>
      </trkpt>
      <trkpt lat="37.861877" lon="-119.064782">
        <ele>2144.7</ele>
        <time>2014-06-29T22:40:58Z</time>
        <sat>8</sat>
      </trkpt>
      <trkpt lat="37.861942" lon="-119.064878">
        <ele>2144.6</ele>
        <time>2014-06-29T22:41:04Z</time>
        <sat>8</sat>
      </trkpt>
      <trkpt lat="37.862003" lon="-119.064967">
        <ele>2144.7</ele>
        <time>2014-06-29T22:41:11Z</time>
        <sat>8</sat>
      </trkpt>
      <trkpt lat="37.862132" lon="-119.065137">
        <ele>2143.6</ele>
        <time>2014-06-29T22:41:29Z</time>
        <sat>8</sat>
      </trkpt>
      <trkpt lat="37.862198" lon="-119.065227">
        <ele>2143.2</ele>
        <time>2014-06-29T22:41:38Z</time>
        <sat>8</sat>
      </trkpt>
      <trkpt lat="37.862260" lon="-119.065317">
        <ele>2143.5</ele>
        <time>2014-06-29T22:41:46Z</time>
        <sat>8</sat>
      </trkpt>
      <trkpt lat="37.862327" lon="-119.065417">
        <ele>2143.3</ele>
        <time>2014-06-29T22:41:54Z</time>
        <sat>8</sat>
      </trkpt>
      <trkpt lat="37.862400" lon="-119.065503">
        <ele>2142.9</ele>
        <time>2014-06-29T22:42:02Z</time>
        <sat>8</sat>
      </trkpt>
      <trkpt lat="37.862457" lon="-119.065607">
        <ele>2143.2</ele>
        <time>2014-06-29T22:42:10Z</time>
        <sat>8</sat>
      </trkpt>
      <trkpt lat="37.862517" lon="-119.065705">
        <ele>2142.8</ele>
        <time>2014-06-29T22:42:18Z</time>
        <sat>8</sat>
      </trkpt>
      <trkpt lat="37.862648" lon="-119.065883">
        <ele>2142.6</ele>
        <time>2014-06-29T22:42:34Z</time>
        <sat>8</sat>
      </trkpt>
      <trkpt lat="37.862715" lon="-119.065975">
        <ele>2142.3</ele>
        <time>2014-06-29T22:42:42Z</time>
        <sat>8</sat>
      </trkpt>
      <trkpt lat="37.862778" lon="-119.066070">
        <ele>2142.1</ele>
        <time>2014-06-29T22:42:50Z</time>
        <sat>8</sat>
      </trkpt>
      <trkpt lat="37.862847" lon="-119.066160">
        <ele>2142.2</ele>
        <time>2014-06-29T22:42:58Z</time>
        <sat>8</sat>
      </trkpt>
      <trkpt lat="37.862902" lon="-119.066258">
        <ele>2142.4</ele>
        <time>2014-06-29T22:43:10Z</time>
        <sat>8</sat>
      </trkpt>
      <trkpt lat="37.862955" lon="-119.066357">
        <ele>2142.1</ele>
        <time>2014-06-29T22:43:18Z</time>
        <sat>7</sat>
      </trkpt>
      <trkpt lat="37.863080" lon="-119.066563">
        <ele>2142.4</ele>
        <time>2014-06-29T22:43:30Z</time>
        <sat>7</sat>
      </trkpt>
      <trkpt lat="37.863147" lon="-119.066648">
        <ele>2142.8</ele>
        <time>2014-06-29T22:43:39Z</time>
        <sat>7</sat>
      </trkpt>
      <trkpt lat="37.863215" lon="-119.066725">
        <ele>2142.5</ele>
        <time>2014-06-29T22:43:47Z</time>
        <sat>7</sat>
      </trkpt>
      <trkpt lat="37.863280" lon="-119.066822">
        <ele>2142.5</ele>
        <time>2014-06-29T22:43:55Z</time>
        <sat>7</sat>
      </trkpt>
      <trkpt lat="37.863343" lon="-119.066920">
        <ele>2142.3</ele>
        <time>2014-06-29T22:44:03Z</time>
        <sat>7</sat>
      </trkpt>
      <trkpt lat="37.863407" lon="-119.067012">
        <ele>2142.0</ele>
        <time>2014-06-29T22:44:10Z</time>
        <sat>7</sat>
      </trkpt>
      <trkpt lat="37.863470" lon="-119.067097">
        <ele>2142.4</ele>
        <time>2014-06-29T22:44:17Z</time>
        <sat>7</sat>
      </trkpt>
      <trkpt lat="37.863542" lon="-119.067192">
        <ele>2141.5</ele>
        <time>2014-06-29T22:44:25Z</time>
        <sat>7</sat>
      </trkpt>
      <trkpt lat="37.863662" lon="-119.067393">
        <ele>2140.5</ele>
        <time>2014-06-29T22:44:40Z</time>
        <sat>7</sat>
      </trkpt>
      <trkpt lat="37.863727" lon="-119.067473">
        <ele>2140.4</ele>
        <time>2014-06-29T22:44:48Z</time>
        <sat>7</sat>
      </trkpt>
      <trkpt lat="37.863792" lon="-119.067570">
        <ele>2141.3</ele>
        <time>2014-06-29T22:44:57Z</time>
        <sat>7</sat>
      </trkpt>
      <trkpt lat="37.863848" lon="-119.067675">
        <ele>2140.8</ele>
        <time>2014-06-29T22:45:05Z</time>
        <sat>7</sat>
      </trkpt>
      <trkpt lat="37.863910" lon="-119.067775">
        <ele>2140.1</ele>
        <time>2014-06-29T22:45:13Z</time>
        <sat>7</sat>
      </trkpt>
      <trkpt lat="37.863973" lon="-119.067867">
        <ele>2139.9</ele>
        <time>2014-06-29T22:45:20Z</time>
        <sat>7</sat>
      </trkpt>
      <trkpt lat="37.864038" lon="-119.067953">
        <ele>2139.9</ele>
        <time>2014-06-29T22:45:27Z</time>
        <sat>7</sat>
      </trkpt>
      <trkpt lat="37.864167" lon="-119.068140">
        <ele>2139.4</ele>
        <time>2014-06-29T22:45:42Z</time>
        <sat>7</sat>
      </trkpt>
      <trkpt lat="37.864228" lon="-119.068227">
        <ele>2139.9</ele>
        <time>2014-06-29T22:45:50Z</time>
        <sat>7</sat>
      </trkpt>
      <trkpt lat="37.864292" lon="-119.068315">
        <ele>2140.5</ele>
        <time>2014-06-29T22:45:58Z</time>
        <sat>7</sat>
      </trkpt>
      <trkpt lat="37.864358" lon="-119.068403">
        <ele>2140.8</ele>
        <time>2014-06-29T22:46:06Z</time>
        <sat>7</sat>
      </trkpt>
      <trkpt lat="37.864417" lon="-119.068493">
        <ele>2140.0</ele>
        <time>2014-06-29T22:46:56Z</time>
        <sat>7</sat>
      </trkpt>
      <trkpt lat="37.864537" lon="-119.068685">
        <ele>2139.3</ele>
        <time>2014-06-29T22:47:06Z</time>
        <sat>7</sat>
      </trkpt>
      <trkpt lat="37.864608" lon="-119.068780">
        <ele>2139.3</ele>
        <time>2014-06-29T22:47:11Z</time>
        <sat>7</sat>
      </trkpt>
      <trkpt lat="37.864678" lon="-119.068872">
        <ele>2139.2</ele>
        <time>2014-06-29T22:47:18Z</time>
        <sat>7</sat>
      </trkpt>
      <trkpt lat="37.864737" lon="-119.068972">
        <ele>2139.4</ele>
        <time>2014-06-29T22:47:24Z</time>
        <sat>6</sat>
      </trkpt>
      <trkpt lat="37.864798" lon="-119.069067">
        <ele>2139.5</ele>
        <time>2014-06-29T22:47:30Z</time>
        <sat>7</sat>
      </trkpt>
      <trkpt lat="37.864862" lon="-119.069168">
        <ele>2139.5</ele>
        <time>2014-06-29T22:47:36Z</time>
        <sat>7</sat>
      </trkpt>
      <trkpt lat="37.864925" lon="-119.069262">
        <ele>2139.0</ele>
        <time>2014-06-29T22:47:42Z</time>
        <sat>7</sat>
      </trkpt>
      <trkpt lat="37.864992" lon="-119.069347">
        <ele>2139.1</ele>
        <time>2014-06-29T22:47:48Z</time>
        <sat>7</sat>
      </trkpt>
      <trkpt lat="37.865063" lon="-119.069428">
        <ele>2139.0</ele>
        <time>2014-06-29T22:47:54Z</time>
        <sat>7</sat>
      </trkpt>
      <trkpt lat="37.865125" lon="-119.069532">
        <ele>2138.8</ele>
        <time>2014-06-29T22:47:59Z</time>
        <sat>7</sat>
      </trkpt>
      <trkpt lat="37.865250" lon="-119.069730">
        <ele>2138.3</ele>
        <time>2014-06-29T22:48:09Z</time>
        <sat>7</sat>
      </trkpt>
      <trkpt lat="37.865317" lon="-119.069840">
        <ele>2137.9</ele>
        <time>2014-06-29T22:48:13Z</time>
        <sat>7</sat>
      </trkpt>
      <trkpt lat="37.865388" lon="-119.069948">
        <ele>2138.0</ele>
        <time>2014-06-29T22:48:17Z</time>
        <sat>6</sat>
      </trkpt>
      <trkpt lat="37.865450" lon="-119.070038">
        <ele>2137.6</ele>
        <time>2014-06-29T22:48:21Z</time>
        <sat>7</sat>
      </trkpt>
      <trkpt lat="37.865517" lon="-119.070135">
        <ele>2138.4</ele>
        <time>2014-06-29T22:48:27Z</time>
        <sat>7</sat>
      </trkpt>
      <trkpt lat="37.865580" lon="-119.070228">
        <ele>2138.8</ele>
        <time>2014-06-29T22:48:33Z</time>
        <sat>7</sat>
      </trkpt>
      <trkpt lat="37.865645" lon="-119.070322">
        <ele>2139.1</ele>
        <time>2014-06-29T22:48:38Z</time>
        <sat>7</sat>
      </trkpt>
      <trkpt lat="37.865715" lon="-119.070397">
        <ele>2138.7</ele>
        <time>2014-06-29T22:48:41Z</time>
        <sat>7</sat>
      </trkpt>
      <trkpt lat="37.865778" lon="-119.070483">
        <ele>2138.5</ele>
        <time>2014-06-29T22:48:44Z</time>
        <sat>7</sat>
      </trkpt>
      <trkpt lat="37.865840" lon="-119.070572">
        <ele>2138.2</ele>
        <time>2014-06-29T22:48:47Z</time>
        <sat>7</sat>
      </trkpt>
      <trkpt lat="37.865903" lon="-119.070673">
        <ele>2137.9</ele>
        <time>2014-06-29T22:48:51Z</time>
        <sat>7</sat>
      </trkpt>
      <trkpt lat="37.865975" lon="-119.070765">
        <ele>2137.9</ele>
        <time>2014-06-29T22:48:56Z</time>
        <sat>7</sat>
      </trkpt>
      <trkpt lat="37.866047" lon="-119.070862">
        <ele>2137.9</ele>
        <time>2014-06-29T22:49:02Z</time>
        <sat>7</sat>
      </trkpt>
      <trkpt lat="37.866165" lon="-119.071040">
        <ele>2137.4</ele>
        <time>2014-06-29T22:49:14Z</time>
        <sat>7</sat>
      </trkpt>
      <trkpt lat="37.866245" lon="-119.071102">
        <ele>2138.6</ele>
        <time>2014-06-29T22:49:31Z</time>
        <sat>7</sat>
      </trkpt>
      <trkpt lat="37.866295" lon="-119.071198">
        <ele>2136.9</ele>
        <time>2014-06-29T22:49:39Z</time>
        <sat>7</sat>
      </trkpt>
      <trkpt lat="37.866370" lon="-119.071277">
        <ele>2139.0</ele>
        <time>2014-06-29T22:49:48Z</time>
        <sat>7</sat>
      </trkpt>
      <trkpt lat="37.866435" lon="-119.071360">
        <ele>2138.1</ele>
        <time>2014-06-29T22:49:55Z</time>
        <sat>7</sat>
      </trkpt>
      <trkpt lat="37.866508" lon="-119.071432">
        <ele>2137.7</ele>
        <time>2014-06-29T22:50:02Z</time>
        <sat>7</sat>
      </trkpt>
      <trkpt lat="37.866635" lon="-119.071635">
        <ele>2138.2</ele>
        <time>2014-06-29T22:50:19Z</time>
        <sat>7</sat>
      </trkpt>
      <trkpt lat="37.866703" lon="-119.071728">
        <ele>2138.4</ele>
        <time>2014-06-29T22:50:26Z</time>
        <sat>7</sat>
      </trkpt>
      <trkpt lat="37.866773" lon="-119.071825">
        <ele>2138.0</ele>
        <time>2014-06-29T22:50:32Z</time>
        <sat>7</sat>
      </trkpt>
      <trkpt lat="37.866842" lon="-119.071925">
        <ele>2138.2</ele>
        <time>2014-06-29T22:50:38Z</time>
        <sat>7</sat>
      </trkpt>
      <trkpt lat="37.866907" lon="-119.072012">
        <ele>2138.3</ele>
        <time>2014-06-29T22:50:43Z</time>
        <sat>7</sat>
      </trkpt>
      <trkpt lat="37.866975" lon="-119.072095">
        <ele>2138.4</ele>
        <time>2014-06-29T22:50:48Z</time>
        <sat>7</sat>
      </trkpt>
      <trkpt lat="37.867052" lon="-119.072193">
        <ele>2138.6</ele>
        <time>2014-06-29T22:50:54Z</time>
        <sat>7</sat>
      </trkpt>
      <trkpt lat="37.867120" lon="-119.072287">
        <ele>2138.4</ele>
        <time>2014-06-29T22:50:59Z</time>
        <sat>7</sat>
      </trkpt>
      <trkpt lat="37.867190" lon="-119.072382">
        <ele>2138.7</ele>
        <time>2014-06-29T22:51:04Z</time>
        <sat>7</sat>
      </trkpt>
      <trkpt lat="37.867323" lon="-119.072565">
        <ele>2138.6</ele>
        <time>2014-06-29T22:51:14Z</time>
        <sat>7</sat>
      </trkpt>
      <trkpt lat="37.867392" lon="-119.072662">
        <ele>2138.6</ele>
        <time>2014-06-29T22:51:19Z</time>
        <sat>7</sat>
      </trkpt>
      <trkpt lat="37.867465" lon="-119.072760">
        <ele>2138.7</ele>
        <time>2014-06-29T22:51:24Z</time>
        <sat>7</sat>
      </trkpt>
      <trkpt lat="37.867528" lon="-119.072852">
        <ele>2138.8</ele>
        <time>2014-06-29T22:51:30Z</time>
        <sat>7</sat>
      </trkpt>
      <trkpt lat="37.867595" lon="-119.072930">
        <ele>2138.9</ele>
        <time>2014-06-29T22:51:36Z</time>
        <sat>7</sat>
      </trkpt>
      <trkpt lat="37.867658" lon="-119.073013">
        <ele>2139.0</ele>
        <time>2014-06-29T22:51:41Z</time>
        <sat>7</sat>
      </trkpt>
      <trkpt lat="37.867728" lon="-119.073105">
        <ele>2138.8</ele>
        <time>2014-06-29T22:51:46Z</time>
        <sat>7</sat>
      </trkpt>
      <trkpt lat="37.867798" lon="-119.073202">
        <ele>2138.7</ele>
        <time>2014-06-29T22:51:51Z</time>
        <sat>7</sat>
      </trkpt>
      <trkpt lat="37.867870" lon="-119.073300">
        <ele>2139.1</ele>
        <time>2014-06-29T22:51:56Z</time>
        <sat>7</sat>
      </trkpt>
      <trkpt lat="37.867943" lon="-119.073402">
        <ele>2138.8</ele>
        <time>2014-06-29T22:52:01Z</time>
        <sat>7</sat>
      </trkpt>
      <trkpt lat="37.868008" lon="-119.073493">
        <ele>2139.1</ele>
        <time>2014-06-29T22:52:06Z</time>
        <sat>7</sat>
      </trkpt>
      <trkpt lat="37.868135" lon="-119.073683">
        <ele>2139.0</ele>
        <time>2014-06-29T22:52:16Z</time>
        <sat>7</sat>
      </trkpt>
      <trkpt lat="37.868205" lon="-119.073793">
        <ele>2138.8</ele>
        <time>2014-06-29T22:52:20Z</time>
        <sat>6</sat>
      </trkpt>
      <trkpt lat="37.868270" lon="-119.073893">
        <ele>2138.4</ele>
        <time>2014-06-29T22:52:24Z</time>
        <sat>6</sat>
      </trkpt>
      <trkpt lat="37.868335" lon="-119.074005">
        <ele>2138.2</ele>
        <time>2014-06-29T22:52:29Z</time>
        <sat>7</sat>
      </trkpt>
      <trkpt lat="37.868398" lon="-119.074103">
        <ele>2137.9</ele>
        <time>2014-06-29T22:52:33Z</time>
        <sat>7</sat>
      </trkpt>
      <trkpt lat="37.868453" lon="-119.074207">
        <ele>2137.6</ele>
        <time>2014-06-29T22:52:37Z</time>
        <sat>7</sat>
      </trkpt>
      <trkpt lat="37.868510" lon="-119.074317">
        <ele>2136.8</ele>
        <time>2014-06-29T22:52:43Z</time>
        <sat>7</sat>
      </trkpt>
      <trkpt lat="37.868568" lon="-119.074427">
        <ele>2136.6</ele>
        <time>2014-06-29T22:52:50Z</time>
        <sat>7</sat>
      </trkpt>
      <trkpt lat="37.868618" lon="-119.074527">
        <ele>2136.8</ele>
        <time>2014-06-29T22:52:57Z</time>
        <sat>7</sat>
      </trkpt>
      <trkpt lat="37.868672" lon="-119.074643">
        <ele>2137.0</ele>
        <time>2014-06-29T22:53:05Z</time>
        <sat>7</sat>
      </trkpt>
      <trkpt lat="37.868720" lon="-119.074753">
        <ele>2136.7</ele>
        <time>2014-06-29T22:53:11Z</time>
        <sat>7</sat>
      </trkpt>
      <trkpt lat="37.868818" lon="-119.074972">
        <ele>2136.5</ele>
        <time>2014-06-29T22:53:26Z</time>
        <sat>7</sat>
      </trkpt>
      <trkpt lat="37.868847" lon="-119.075083">
        <ele>2136.8</ele>
        <time>2014-06-29T22:53:36Z</time>
        <sat>7</sat>
      </trkpt>
      <trkpt lat="37.868885" lon="-119.075195">
        <ele>2137.3</ele>
        <time>2014-06-29T22:53:45Z</time>
        <sat>7</sat>
      </trkpt>
      <trkpt lat="37.868918" lon="-119.075302">
        <ele>2137.4</ele>
        <time>2014-06-29T22:53:54Z</time>
        <sat>7</sat>
      </trkpt>
      <trkpt lat="37.868953" lon="-119.075408">
        <ele>2137.5</ele>
        <time>2014-06-29T22:54:03Z</time>
        <sat>7</sat>
      </trkpt>
      <trkpt lat="37.868992" lon="-119.075512">
        <ele>2137.4</ele>
        <time>2014-06-29T22:54:11Z</time>
        <sat>7</sat>
      </trkpt>
      <trkpt lat="37.869028" lon="-119.075632">
        <ele>2137.8</ele>
        <time>2014-06-29T22:54:21Z</time>
        <sat>7</sat>
      </trkpt>
      <trkpt lat="37.869078" lon="-119.075868">
        <ele>2138.1</ele>
        <time>2014-06-29T22:54:39Z</time>
        <sat>7</sat>
      </trkpt>
      <trkpt lat="37.869115" lon="-119.075977">
        <ele>2138.7</ele>
        <time>2014-06-29T22:54:47Z</time>
        <sat>7</sat>
      </trkpt>
      <trkpt lat="37.869137" lon="-119.076088">
        <ele>2139.2</ele>
        <time>2014-06-29T22:54:55Z</time>
        <sat>7</sat>
      </trkpt>
      <trkpt lat="37.869168" lon="-119.076207">
        <ele>2139.6</ele>
        <time>2014-06-29T22:55:03Z</time>
        <sat>7</sat>
      </trkpt>
      <trkpt lat="37.869197" lon="-119.076327">
        <ele>2138.7</ele>
        <time>2014-06-29T22:55:11Z</time>
        <sat>7</sat>
      </trkpt>
      <trkpt lat="37.869227" lon="-119.076448">
        <ele>2139.7</ele>
        <time>2014-06-29T22:55:20Z</time>
        <sat>7</sat>
      </trkpt>
      <trkpt lat="37.869250" lon="-119.076560">
        <ele>2140.2</ele>
        <time>2014-06-29T22:55:28Z</time>
        <sat>7</sat>
      </trkpt>
      <trkpt lat="37.869298" lon="-119.076808">
        <ele>2139.7</ele>
        <time>2014-06-29T22:55:44Z</time>
        <sat>7</sat>
      </trkpt>
      <trkpt lat="37.869325" lon="-119.076920">
        <ele>2139.8</ele>
        <time>2014-06-29T22:55:51Z</time>
        <sat>7</sat>
      </trkpt>
      <trkpt lat="37.869348" lon="-119.077043">
        <ele>2139.6</ele>
        <time>2014-06-29T22:55:59Z</time>
        <sat>7</sat>
      </trkpt>
      <trkpt lat="37.869373" lon="-119.077165">
        <ele>2139.1</ele>
        <time>2014-06-29T22:56:07Z</time>
        <sat>7</sat>
      </trkpt>
      <trkpt lat="37.869402" lon="-119.077287">
        <ele>2139.3</ele>
        <time>2014-06-29T22:56:15Z</time>
        <sat>7</sat>
      </trkpt>
      <trkpt lat="37.869423" lon="-119.077400">
        <ele>2139.3</ele>
        <time>2014-06-29T22:56:22Z</time>
        <sat>7</sat>
      </trkpt>
      <trkpt lat="37.869445" lon="-119.077523">
        <ele>2139.5</ele>
        <time>2014-06-29T22:56:29Z</time>
        <sat>7</sat>
      </trkpt>
      <trkpt lat="37.869498" lon="-119.077772">
        <ele>2139.2</ele>
        <time>2014-06-29T22:56:43Z</time>
        <sat>7</sat>
      </trkpt>
      <trkpt lat="37.869515" lon="-119.077900">
        <ele>2139.1</ele>
        <time>2014-06-29T22:56:50Z</time>
        <sat>7</sat>
      </trkpt>
      <trkpt lat="37.869543" lon="-119.078012">
        <ele>2139.2</ele>
        <time>2014-06-29T22:56:59Z</time>
        <sat>7</sat>
      </trkpt>
      <trkpt lat="37.869575" lon="-119.078143">
        <ele>2139.2</ele>
        <time>2014-06-29T22:57:05Z</time>
        <sat>6</sat>
      </trkpt>
      <trkpt lat="37.869612" lon="-119.078265">
        <ele>2138.8</ele>
        <time>2014-06-29T22:57:11Z</time>
        <sat>6</sat>
      </trkpt>
      <trkpt lat="37.869633" lon="-119.078387">
        <ele>2138.4</ele>
        <time>2014-06-29T22:57:17Z</time>
        <sat>6</sat>
      </trkpt>
      <trkpt lat="37.869648" lon="-119.078505">
        <ele>2138.4</ele>
        <time>2014-06-29T22:57:23Z</time>
        <sat>7</sat>
      </trkpt>
      <trkpt lat="37.869672" lon="-119.078618">
        <ele>2138.6</ele>
        <time>2014-06-29T22:57:29Z</time>
        <sat>7</sat>
      </trkpt>
      <trkpt lat="37.869702" lon="-119.078745">
        <ele>2138.2</ele>
        <time>2014-06-29T22:57:35Z</time>
        <sat>7</sat>
      </trkpt>
      <trkpt lat="37.869758" lon="-119.078970">
        <ele>2137.3</ele>
        <time>2014-06-29T22:57:44Z</time>
        <sat>6</sat>
      </trkpt>
      <trkpt lat="37.869785" lon="-119.079107">
        <ele>2136.9</ele>
        <time>2014-06-29T22:57:49Z</time>
        <sat>7</sat>
      </trkpt>
      <trkpt lat="37.869807" lon="-119.079232">
        <ele>2136.7</ele>
        <time>2014-06-29T22:57:52Z</time>
        <sat>7</sat>
      </trkpt>
      <trkpt lat="37.869830" lon="-119.079377">
        <ele>2136.0</ele>
        <time>2014-06-29T22:57:55Z</time>
        <sat>6</sat>
      </trkpt>
      <trkpt lat="37.869855" lon="-119.079513">
        <ele>2135.4</ele>
        <time>2014-06-29T22:57:58Z</time>
        <sat>7</sat>
      </trkpt>
      <trkpt lat="37.869873" lon="-119.079642">
        <ele>2135.2</ele>
        <time>2014-06-29T22:58:01Z</time>
        <sat>7</sat>
      </trkpt>
      <trkpt lat="37.869893" lon="-119.079782">
        <ele>2135.1</ele>
        <time>2014-06-29T22:58:05Z</time>
        <sat>7</sat>
      </trkpt>
      <trkpt lat="37.869917" lon="-119.079900">
        <ele>2135.0</ele>
        <time>2014-06-29T22:58:09Z</time>
        <sat>7</sat>
      </trkpt>
      <trkpt lat="37.869940" lon="-119.080042">
        <ele>2134.9</ele>
        <time>2014-06-29T22:58:14Z</time>
        <sat>6</sat>
      </trkpt>
      <trkpt lat="37.869958" lon="-119.080155">
        <ele>2134.8</ele>
        <time>2014-06-29T22:58:18Z</time>
        <sat>6</sat>
      </trkpt>
      <trkpt lat="37.869978" lon="-119.080272">
        <ele>2135.2</ele>
        <time>2014-06-29T22:58:23Z</time>
        <sat>7</sat>
      </trkpt>
      <trkpt lat="37.870002" lon="-119.080388">
        <ele>2135.2</ele>
        <time>2014-06-29T22:58:29Z</time>
        <sat>7</sat>
      </trkpt>
      <trkpt lat="37.870032" lon="-119.080507">
        <ele>2135.3</ele>
        <time>2014-06-29T22:58:34Z</time>
        <sat>7</sat>
      </trkpt>
      <trkpt lat="37.870053" lon="-119.080633">
        <ele>2135.2</ele>
        <time>2014-06-29T22:58:39Z</time>
        <sat>7</sat>
      </trkpt>
      <trkpt lat="37.870102" lon="-119.080888">
        <ele>2135.4</ele>
        <time>2014-06-29T22:58:50Z</time>
        <sat>7</sat>
      </trkpt>
      <trkpt lat="37.870123" lon="-119.081018">
        <ele>2135.4</ele>
        <time>2014-06-29T22:58:54Z</time>
        <sat>7</sat>
      </trkpt>
      <trkpt lat="37.870148" lon="-119.081148">
        <ele>2135.4</ele>
        <time>2014-06-29T22:58:58Z</time>
        <sat>7</sat>
      </trkpt>
      <trkpt lat="37.870172" lon="-119.081272">
        <ele>2135.5</ele>
        <time>2014-06-29T22:59:02Z</time>
        <sat>7</sat>
      </trkpt>
      <trkpt lat="37.870200" lon="-119.081407">
        <ele>2135.4</ele>
        <time>2014-06-29T22:59:07Z</time>
        <sat>7</sat>
      </trkpt>
      <trkpt lat="37.870225" lon="-119.081517">
        <ele>2135.3</ele>
        <time>2014-06-29T22:59:11Z</time>
        <sat>7</sat>
      </trkpt>
      <trkpt lat="37.870245" lon="-119.081630">
        <ele>2135.4</ele>
        <time>2014-06-29T22:59:15Z</time>
        <sat>7</sat>
      </trkpt>
      <trkpt lat="37.870272" lon="-119.081762">
        <ele>2135.5</ele>
        <time>2014-06-29T22:59:20Z</time>
        <sat>7</sat>
      </trkpt>
      <trkpt lat="37.870302" lon="-119.081897">
        <ele>2135.5</ele>
        <time>2014-06-29T22:59:25Z</time>
        <sat>7</sat>
      </trkpt>
      <trkpt lat="37.870330" lon="-119.082035">
        <ele>2135.2</ele>
        <time>2014-06-29T22:59:30Z</time>
        <sat>7</sat>
      </trkpt>
      <trkpt lat="37.870355" lon="-119.082168">
        <ele>2135.6</ele>
        <time>2014-06-29T22:59:35Z</time>
        <sat>7</sat>
      </trkpt>
      <trkpt lat="37.870377" lon="-119.082282">
        <ele>2135.8</ele>
        <time>2014-06-29T22:59:39Z</time>
        <sat>6</sat>
      </trkpt>
      <trkpt lat="37.870402" lon="-119.082420">
        <ele>2135.6</ele>
        <time>2014-06-29T22:59:44Z</time>
        <sat>7</sat>
      </trkpt>
      <trkpt lat="37.870457" lon="-119.082655">
        <ele>2136.2</ele>
        <time>2014-06-29T22:59:52Z</time>
        <sat>7</sat>
      </trkpt>
      <trkpt lat="37.870488" lon="-119.082770">
        <ele>2136.1</ele>
        <time>2014-06-29T22:59:57Z</time>
        <sat>6</sat>
      </trkpt>
      <trkpt lat="37.870507" lon="-119.082897">
        <ele>2136.1</ele>
        <time>2014-06-29T23:00:02Z</time>
        <sat>7</sat>
      </trkpt>
      <trkpt lat="37.870528" lon="-119.083017">
        <ele>2136.6</ele>
        <time>2014-06-29T23:00:06Z</time>
        <sat>7</sat>
      </trkpt>
      <trkpt lat="37.870550" lon="-119.083155">
        <ele>2136.0</ele>
        <time>2014-06-29T23:00:10Z</time>
        <sat>6</sat>
      </trkpt>
      <trkpt lat="37.870578" lon="-119.083297">
        <ele>2135.7</ele>
        <time>2014-06-29T23:00:14Z</time>
        <sat>7</sat>
      </trkpt>
      <trkpt lat="37.870603" lon="-119.083425">
        <ele>2135.8</ele>
        <time>2014-06-29T23:00:18Z</time>
        <sat>7</sat>
      </trkpt>
      <trkpt lat="37.870630" lon="-119.083547">
        <ele>2136.0</ele>
        <time>2014-06-29T23:00:23Z</time>
        <sat>7</sat>
      </trkpt>
      <trkpt lat="37.870655" lon="-119.083675">
        <ele>2136.3</ele>
        <time>2014-06-29T23:00:29Z</time>
        <sat>7</sat>
      </trkpt>
      <trkpt lat="37.870673" lon="-119.083795">
        <ele>2136.7</ele>
        <time>2014-06-29T23:00:34Z</time>
        <sat>7</sat>
      </trkpt>
      <trkpt lat="37.870693" lon="-119.083913">
        <ele>2136.6</ele>
        <time>2014-06-29T23:00:39Z</time>
        <sat>6</sat>
      </trkpt>
      <trkpt lat="37.870715" lon="-119.084050">
        <ele>2136.6</ele>
        <time>2014-06-29T23:00:44Z</time>
        <sat>6</sat>
      </trkpt>
      <trkpt lat="37.870738" lon="-119.084165">
        <ele>2136.4</ele>
        <time>2014-06-29T23:00:48Z</time>
        <sat>7</sat>
      </trkpt>
      <trkpt lat="37.870792" lon="-119.084405">
        <ele>2136.0</ele>
        <time>2014-06-29T23:00:57Z</time>
        <sat>6</sat>
      </trkpt>
      <trkpt lat="37.870813" lon="-119.084523">
        <ele>2136.2</ele>
        <time>2014-06-29T23:01:01Z</time>
        <sat>7</sat>
      </trkpt>
      <trkpt lat="37.870838" lon="-119.084638">
        <ele>2136.1</ele>
        <time>2014-06-29T23:01:05Z</time>
        <sat>6</sat>
      </trkpt>
      <trkpt lat="37.870860" lon="-119.084773">
        <ele>2136.0</ele>
        <time>2014-06-29T23:01:09Z</time>
        <sat>6</sat>
      </trkpt>
      <trkpt lat="37.870882" lon="-119.084890">
        <ele>2136.2</ele>
        <time>2014-06-29T23:01:13Z</time>
        <sat>7</sat>
      </trkpt>
      <trkpt lat="37.870905" lon="-119.085002">
        <ele>2136.7</ele>
        <time>2014-06-29T23:01:17Z</time>
        <sat>7</sat>
      </trkpt>
      <trkpt lat="37.870925" lon="-119.085123">
        <ele>2136.6</ele>
        <time>2014-06-29T23:01:21Z</time>
        <sat>6</sat>
      </trkpt>
      <trkpt lat="37.870948" lon="-119.085237">
        <ele>2136.6</ele>
        <time>2014-06-29T23:01:25Z</time>
        <sat>7</sat>
      </trkpt>
      <trkpt lat="37.870978" lon="-119.085367">
        <ele>2136.9</ele>
        <time>2014-06-29T23:01:30Z</time>
        <sat>6</sat>
      </trkpt>
      <trkpt lat="37.871005" lon="-119.085500">
        <ele>2137.5</ele>
        <time>2014-06-29T23:01:35Z</time>
        <sat>7</sat>
      </trkpt>
      <trkpt lat="37.871035" lon="-119.085625">
        <ele>2137.4</ele>
        <time>2014-06-29T23:01:40Z</time>
        <sat>6</sat>
      </trkpt>
      <trkpt lat="37.871070" lon="-119.085763">
        <ele>2137.4</ele>
        <time>2014-06-29T23:01:45Z</time>
        <sat>6</sat>
      </trkpt>
      <trkpt lat="37.871100" lon="-119.085893">
        <ele>2136.4</ele>
        <time>2014-06-29T23:01:49Z</time>
        <sat>7</sat>
      </trkpt>
      <trkpt lat="37.871163" lon="-119.086180">
        <ele>2134.3</ele>
        <time>2014-06-29T23:01:56Z</time>
        <sat>6</sat>
      </trkpt>
      <trkpt lat="37.871188" lon="-119.086335">
        <ele>2133.7</ele>
        <time>2014-06-29T23:01:59Z</time>
        <sat>7</sat>
      </trkpt>
      <trkpt lat="37.871235" lon="-119.086475">
        <ele>2133.4</ele>
        <time>2014-06-29T23:02:02Z</time>
        <sat>7</sat>
      </trkpt>
      <trkpt lat="37.871287" lon="-119.086573">
        <ele>2134.0</ele>
        <time>2014-06-29T23:02:05Z</time>
        <sat>7</sat>
      </trkpt>
      <trkpt lat="37.871335" lon="-119.086683">
        <ele>2134.9</ele>
        <time>2014-06-29T23:02:09Z</time>
        <sat>7</sat>
      </trkpt>
      <trkpt lat="37.871380" lon="-119.086813">
        <ele>2135.7</ele>
        <time>2014-06-29T23:02:14Z</time>
        <sat>7</sat>
      </trkpt>
      <trkpt lat="37.871417" lon="-119.086925">
        <ele>2136.3</ele>
        <time>2014-06-29T23:02:18Z</time>
        <sat>7</sat>
      </trkpt>
      <trkpt lat="37.871463" lon="-119.087038">
        <ele>2136.3</ele>
        <time>2014-06-29T23:02:22Z</time>
        <sat>7</sat>
      </trkpt>
      <trkpt lat="37.871512" lon="-119.087155">
        <ele>2136.4</ele>
        <time>2014-06-29T23:02:26Z</time>
        <sat>7</sat>
      </trkpt>
      <trkpt lat="37.871557" lon="-119.087287">
        <ele>2136.1</ele>
        <time>2014-06-29T23:02:30Z</time>
        <sat>7</sat>
      </trkpt>
      <trkpt lat="37.871572" lon="-119.087417">
        <ele>2136.5</ele>
        <time>2014-06-29T23:02:34Z</time>
        <sat>7</sat>
      </trkpt>
      <trkpt lat="37.871577" lon="-119.087542">
        <ele>2136.6</ele>
        <time>2014-06-29T23:02:38Z</time>
        <sat>7</sat>
      </trkpt>
      <trkpt lat="37.871577" lon="-119.087662">
        <ele>2137.3</ele>
        <time>2014-06-29T23:02:42Z</time>
        <sat>7</sat>
      </trkpt>
      <trkpt lat="37.871590" lon="-119.087792">
        <ele>2137.7</ele>
        <time>2014-06-29T23:05:56Z</time>
        <sat>7</sat>
      </trkpt>
      <trkpt lat="37.871763" lon="-119.087890">
        <ele>2137.7</ele>
        <time>2014-06-29T23:06:07Z</time>
        <sat>7</sat>
      </trkpt>
      <trkpt lat="37.871887" lon="-119.087915">
        <ele>2137.1</ele>
        <time>2014-06-29T23:06:10Z</time>
        <sat>7</sat>
      </trkpt>
      <trkpt lat="37.871978" lon="-119.087937">
        <ele>2136.6</ele>
        <time>2014-06-29T23:06:12Z</time>
        <sat>7</sat>
      </trkpt>
      <trkpt lat="37.872077" lon="-119.087957">
        <ele>2136.4</ele>
        <time>2014-06-29T23:06:14Z</time>
        <sat>7</sat>
      </trkpt>
      <trkpt lat="37.872178" lon="-119.087977">
        <ele>2136.2</ele>
        <time>2014-06-29T23:06:16Z</time>
        <sat>7</sat>
      </trkpt>
      <trkpt lat="37.872285" lon="-119.087998">
        <ele>2135.9</ele>
        <time>2014-06-29T23:06:18Z</time>
        <sat>7</sat>
      </trkpt>
      <trkpt lat="37.872393" lon="-119.088022">
        <ele>2135.8</ele>
        <time>2014-06-29T23:06:20Z</time>
        <sat>7</sat>
      </trkpt>
      <trkpt lat="37.872502" lon="-119.088043">
        <ele>2135.6</ele>
        <time>2014-06-29T23:06:22Z</time>
        <sat>7</sat>
      </trkpt>
      <trkpt lat="37.872610" lon="-119.088062">
        <ele>2135.5</ele>
        <time>2014-06-29T23:06:24Z</time>
        <sat>7</sat>
      </trkpt>
      <trkpt lat="37.872723" lon="-119.088087">
        <ele>2135.0</ele>
        <time>2014-06-29T23:06:26Z</time>
        <sat>7</sat>
      </trkpt>
      <trkpt lat="37.872835" lon="-119.088110">
        <ele>2134.6</ele>
        <time>2014-06-29T23:06:28Z</time>
        <sat>7</sat>
      </trkpt>
      <trkpt lat="37.872948" lon="-119.088132">
        <ele>2134.1</ele>
        <time>2014-06-29T23:06:30Z</time>
        <sat>7</sat>
      </trkpt>
      <trkpt lat="37.873062" lon="-119.088158">
        <ele>2133.6</ele>
        <time>2014-06-29T23:06:32Z</time>
        <sat>7</sat>
      </trkpt>
      <trkpt lat="37.873173" lon="-119.088177">
        <ele>2133.1</ele>
        <time>2014-06-29T23:06:34Z</time>
        <sat>7</sat>
      </trkpt>
      <trkpt lat="37.873287" lon="-119.088198">
        <ele>2133.0</ele>
        <time>2014-06-29T23:06:36Z</time>
        <sat>7</sat>
      </trkpt>
      <trkpt lat="37.873402" lon="-119.088218">
        <ele>2133.8</ele>
        <time>2014-06-29T23:06:38Z</time>
        <sat>7</sat>
      </trkpt>
      <trkpt lat="37.873512" lon="-119.088237">
        <ele>2132.8</ele>
        <time>2014-06-29T23:06:40Z</time>
        <sat>7</sat>
      </trkpt>
      <trkpt lat="37.873625" lon="-119.088257">
        <ele>2132.4</ele>
        <time>2014-06-29T23:06:42Z</time>
        <sat>7</sat>
      </trkpt>
      <trkpt lat="37.873740" lon="-119.088277">
        <ele>2131.8</ele>
        <time>2014-06-29T23:06:44Z</time>
        <sat>7</sat>
      </trkpt>
      <trkpt lat="37.873860" lon="-119.088300">
        <ele>2131.3</ele>
        <time>2014-06-29T23:06:46Z</time>
        <sat>7</sat>
      </trkpt>
      <trkpt lat="37.873980" lon="-119.088323">
        <ele>2130.6</ele>
        <time>2014-06-29T23:06:48Z</time>
        <sat>7</sat>
      </trkpt>
      <trkpt lat="37.874100" lon="-119.088345">
        <ele>2130.1</ele>
        <time>2014-06-29T23:06:50Z</time>
        <sat>7</sat>
      </trkpt>
      <trkpt lat="37.874217" lon="-119.088367">
        <ele>2129.9</ele>
        <time>2014-06-29T23:06:52Z</time>
        <sat>7</sat>
      </trkpt>
      <trkpt lat="37.874335" lon="-119.088390">
        <ele>2129.9</ele>
        <time>2014-06-29T23:06:54Z</time>
        <sat>7</sat>
      </trkpt>
      <trkpt lat="37.874452" lon="-119.088413">
        <ele>2130.3</ele>
        <time>2014-06-29T23:06:56Z</time>
        <sat>7</sat>
      </trkpt>
      <trkpt lat="37.874568" lon="-119.088433">
        <ele>2129.8</ele>
        <time>2014-06-29T23:06:58Z</time>
        <sat>7</sat>
      </trkpt>
      <trkpt lat="37.874802" lon="-119.088477">
        <ele>2129.1</ele>
        <time>2014-06-29T23:07:02Z</time>
        <sat>7</sat>
      </trkpt>
      <trkpt lat="37.874927" lon="-119.088500">
        <ele>2128.7</ele>
        <time>2014-06-29T23:07:04Z</time>
        <sat>7</sat>
      </trkpt>
      <trkpt lat="37.875053" lon="-119.088525">
        <ele>2128.4</ele>
        <time>2014-06-29T23:07:06Z</time>
        <sat>7</sat>
      </trkpt>
      <trkpt lat="37.875182" lon="-119.088552">
        <ele>2128.1</ele>
        <time>2014-06-29T23:07:08Z</time>
        <sat>7</sat>
      </trkpt>
      <trkpt lat="37.875310" lon="-119.088575">
        <ele>2127.9</ele>
        <time>2014-06-29T23:07:10Z</time>
        <sat>7</sat>
      </trkpt>
      <trkpt lat="37.875437" lon="-119.088602">
        <ele>2127.7</ele>
        <time>2014-06-29T23:07:12Z</time>
        <sat>7</sat>
      </trkpt>
      <trkpt lat="37.875563" lon="-119.088628">
        <ele>2127.6</ele>
        <time>2014-06-29T23:07:14Z</time>
        <sat>7</sat>
      </trkpt>
      <trkpt lat="37.875685" lon="-119.088648">
        <ele>2127.4</ele>
        <time>2014-06-29T23:07:16Z</time>
        <sat>7</sat>
      </trkpt>
      <trkpt lat="37.875807" lon="-119.088668">
        <ele>2127.3</ele>
        <time>2014-06-29T23:07:18Z</time>
        <sat>7</sat>
      </trkpt>
      <trkpt lat="37.875925" lon="-119.088690">
        <ele>2127.2</ele>
        <time>2014-06-29T23:07:20Z</time>
        <sat>7</sat>
      </trkpt>
      <trkpt lat="37.876042" lon="-119.088717">
        <ele>2126.9</ele>
        <time>2014-06-29T23:07:22Z</time>
        <sat>7</sat>
      </trkpt>
      <trkpt lat="37.876160" lon="-119.088742">
        <ele>2126.7</ele>
        <time>2014-06-29T23:07:24Z</time>
        <sat>7</sat>
      </trkpt>
      <trkpt lat="37.876278" lon="-119.088765">
        <ele>2126.4</ele>
        <time>2014-06-29T23:07:26Z</time>
        <sat>7</sat>
      </trkpt>
      <trkpt lat="37.876400" lon="-119.088782">
        <ele>2126.2</ele>
        <time>2014-06-29T23:07:28Z</time>
        <sat>7</sat>
      </trkpt>
      <trkpt lat="37.876520" lon="-119.088797">
        <ele>2125.9</ele>
        <time>2014-06-29T23:07:30Z</time>
        <sat>7</sat>
      </trkpt>
      <trkpt lat="37.876638" lon="-119.088818">
        <ele>2125.6</ele>
        <time>2014-06-29T23:07:32Z</time>
        <sat>7</sat>
      </trkpt>
      <trkpt lat="37.876758" lon="-119.088842">
        <ele>2125.3</ele>
        <time>2014-06-29T23:07:34Z</time>
        <sat>7</sat>
      </trkpt>
      <trkpt lat="37.876877" lon="-119.088863">
        <ele>2125.1</ele>
        <time>2014-06-29T23:07:36Z</time>
        <sat>7</sat>
      </trkpt>
      <trkpt lat="37.876995" lon="-119.088885">
        <ele>2124.9</ele>
        <time>2014-06-29T23:07:38Z</time>
        <sat>7</sat>
      </trkpt>
      <trkpt lat="37.877115" lon="-119.088905">
        <ele>2124.7</ele>
        <time>2014-06-29T23:07:40Z</time>
        <sat>7</sat>
      </trkpt>
      <trkpt lat="37.877238" lon="-119.088927">
        <ele>2124.6</ele>
        <time>2014-06-29T23:07:42Z</time>
        <sat>7</sat>
      </trkpt>
      <trkpt lat="37.877363" lon="-119.088950">
        <ele>2124.4</ele>
        <time>2014-06-29T23:07:44Z</time>
        <sat>7</sat>
      </trkpt>
      <trkpt lat="37.877488" lon="-119.088973">
        <ele>2124.1</ele>
        <time>2014-06-29T23:07:46Z</time>
        <sat>7</sat>
      </trkpt>
      <trkpt lat="37.877612" lon="-119.088995">
        <ele>2124.1</ele>
        <time>2014-06-29T23:07:48Z</time>
        <sat>7</sat>
      </trkpt>
      <trkpt lat="37.877727" lon="-119.089018">
        <ele>2124.0</ele>
        <time>2014-06-29T23:07:50Z</time>
        <sat>7</sat>
      </trkpt>
      <trkpt lat="37.877842" lon="-119.089038">
        <ele>2123.8</ele>
        <time>2014-06-29T23:07:52Z</time>
        <sat>7</sat>
      </trkpt>
      <trkpt lat="37.877963" lon="-119.089058">
        <ele>2123.9</ele>
        <time>2014-06-29T23:07:54Z</time>
        <sat>7</sat>
      </trkpt>
      <trkpt lat="37.878090" lon="-119.089078">
        <ele>2123.8</ele>
        <time>2014-06-29T23:07:56Z</time>
        <sat>7</sat>
      </trkpt>
      <trkpt lat="37.878223" lon="-119.089103">
        <ele>2123.7</ele>
        <time>2014-06-29T23:07:58Z</time>
        <sat>7</sat>
      </trkpt>
      <trkpt lat="37.878357" lon="-119.089123">
        <ele>2123.6</ele>
        <time>2014-06-29T23:08:00Z</time>
        <sat>7</sat>
      </trkpt>
      <trkpt lat="37.878625" lon="-119.089168">
        <ele>2123.5</ele>
        <time>2014-06-29T23:08:04Z</time>
        <sat>7</sat>
      </trkpt>
      <trkpt lat="37.878763" lon="-119.089187">
        <ele>2122.9</ele>
        <time>2014-06-29T23:08:06Z</time>
        <sat>7</sat>
      </trkpt>
      <trkpt lat="37.878907" lon="-119.089208">
        <ele>2122.4</ele>
        <time>2014-06-29T23:08:08Z</time>
        <sat>7</sat>
      </trkpt>
      <trkpt lat="37.879055" lon="-119.089230">
        <ele>2122.2</ele>
        <time>2014-06-29T23:08:10Z</time>
        <sat>7</sat>
      </trkpt>
      <trkpt lat="37.879205" lon="-119.089253">
        <ele>2122.0</ele>
        <time>2014-06-29T23:08:12Z</time>
        <sat>7</sat>
      </trkpt>
      <trkpt lat="37.879355" lon="-119.089275">
        <ele>2121.6</ele>
        <time>2014-06-29T23:08:14Z</time>
        <sat>7</sat>
      </trkpt>
      <trkpt lat="37.879508" lon="-119.089298">
        <ele>2121.5</ele>
        <time>2014-06-29T23:08:16Z</time>
        <sat>7</sat>
      </trkpt>
      <trkpt lat="37.879663" lon="-119.089322">
        <ele>2120.9</ele>
        <time>2014-06-29T23:08:18Z</time>
        <sat>7</sat>
      </trkpt>
      <trkpt lat="37.879817" lon="-119.089347">
        <ele>2120.7</ele>
        <time>2014-06-29T23:08:20Z</time>
        <sat>7</sat>
      </trkpt>
      <trkpt lat="37.879970" lon="-119.089372">
        <ele>2120.2</ele>
        <time>2014-06-29T23:08:22Z</time>
        <sat>7</sat>
      </trkpt>
      <trkpt lat="37.880120" lon="-119.089395">
        <ele>2120.1</ele>
        <time>2014-06-29T23:08:24Z</time>
        <sat>7</sat>
      </trkpt>
      <trkpt lat="37.880267" lon="-119.089417">
        <ele>2119.9</ele>
        <time>2014-06-29T23:08:26Z</time>
        <sat>7</sat>
      </trkpt>
      <trkpt lat="37.880417" lon="-119.089438">
        <ele>2119.6</ele>
        <time>2014-06-29T23:08:28Z</time>
        <sat>7</sat>
      </trkpt>
      <trkpt lat="37.880572" lon="-119.089465">
        <ele>2119.1</ele>
        <time>2014-06-29T23:08:30Z</time>
        <sat>7</sat>
      </trkpt>
      <trkpt lat="37.880725" lon="-119.089488">
        <ele>2118.7</ele>
        <time>2014-06-29T23:08:32Z</time>
        <sat>7</sat>
      </trkpt>
      <trkpt lat="37.880878" lon="-119.089510">
        <ele>2118.3</ele>
        <time>2014-06-29T23:08:34Z</time>
        <sat>7</sat>
      </trkpt>
      <trkpt lat="37.881032" lon="-119.089532">
        <ele>2118.2</ele>
        <time>2014-06-29T23:08:36Z</time>
        <sat>7</sat>
      </trkpt>
      <trkpt lat="37.881182" lon="-119.089553">
        <ele>2118.0</ele>
        <time>2014-06-29T23:08:38Z</time>
        <sat>7</sat>
      </trkpt>
      <trkpt lat="37.881332" lon="-119.089578">
        <ele>2117.7</ele>
        <time>2014-06-29T23:08:40Z</time>
        <sat>7</sat>
      </trkpt>
      <trkpt lat="37.881477" lon="-119.089597">
        <ele>2117.3</ele>
        <time>2014-06-29T23:08:42Z</time>
        <sat>7</sat>
      </trkpt>
      <trkpt lat="37.881622" lon="-119.089618">
        <ele>2116.8</ele>
        <time>2014-06-29T23:08:44Z</time>
        <sat>7</sat>
      </trkpt>
      <trkpt lat="37.881765" lon="-119.089640">
        <ele>2116.4</ele>
        <time>2014-06-29T23:08:46Z</time>
        <sat>7</sat>
      </trkpt>
      <trkpt lat="37.881908" lon="-119.089663">
        <ele>2116.0</ele>
        <time>2014-06-29T23:08:48Z</time>
        <sat>7</sat>
      </trkpt>
      <trkpt lat="37.882052" lon="-119.089690">
        <ele>2115.6</ele>
        <time>2014-06-29T23:08:50Z</time>
        <sat>7</sat>
      </trkpt>
      <trkpt lat="37.882197" lon="-119.089715">
        <ele>2115.5</ele>
        <time>2014-06-29T23:08:52Z</time>
        <sat>7</sat>
      </trkpt>
      <trkpt lat="37.882342" lon="-119.089738">
        <ele>2115.3</ele>
        <time>2014-06-29T23:08:54Z</time>
        <sat>7</sat>
      </trkpt>
      <trkpt lat="37.882487" lon="-119.089762">
        <ele>2115.2</ele>
        <time>2014-06-29T23:08:56Z</time>
        <sat>7</sat>
      </trkpt>
      <trkpt lat="37.882635" lon="-119.089788">
        <ele>2114.8</ele>
        <time>2014-06-29T23:08:58Z</time>
        <sat>7</sat>
      </trkpt>
      <trkpt lat="37.882785" lon="-119.089815">
        <ele>2114.3</ele>
        <time>2014-06-29T23:09:00Z</time>
        <sat>7</sat>
      </trkpt>
      <trkpt lat="37.882927" lon="-119.089843">
        <ele>2114.1</ele>
        <time>2014-06-29T23:09:02Z</time>
        <sat>7</sat>
      </trkpt>
      <trkpt lat="37.883215" lon="-119.089888">
        <ele>2113.4</ele>
        <time>2014-06-29T23:09:06Z</time>
        <sat>7</sat>
      </trkpt>
      <trkpt lat="37.883358" lon="-119.089912">
        <ele>2113.3</ele>
        <time>2014-06-29T23:09:08Z</time>
        <sat>7</sat>
      </trkpt>
      <trkpt lat="37.883503" lon="-119.089935">
        <ele>2113.1</ele>
        <time>2014-06-29T23:09:10Z</time>
        <sat>7</sat>
      </trkpt>
      <trkpt lat="37.883647" lon="-119.089950">
        <ele>2113.2</ele>
        <time>2014-06-29T23:09:12Z</time>
        <sat>7</sat>
      </trkpt>
      <trkpt lat="37.883782" lon="-119.089978">
        <ele>2113.2</ele>
        <time>2014-06-29T23:09:14Z</time>
        <sat>7</sat>
      </trkpt>
      <trkpt lat="37.883917" lon="-119.090010">
        <ele>2113.2</ele>
        <time>2014-06-29T23:09:16Z</time>
        <sat>7</sat>
      </trkpt>
      <trkpt lat="37.884060" lon="-119.090042">
        <ele>2113.1</ele>
        <time>2014-06-29T23:09:18Z</time>
        <sat>7</sat>
      </trkpt>
      <trkpt lat="37.884202" lon="-119.090067">
        <ele>2112.9</ele>
        <time>2014-06-29T23:09:20Z</time>
        <sat>7</sat>
      </trkpt>
      <trkpt lat="37.884347" lon="-119.090092">
        <ele>2113.1</ele>
        <time>2014-06-29T23:09:22Z</time>
        <sat>7</sat>
      </trkpt>
      <trkpt lat="37.884490" lon="-119.090118">
        <ele>2112.7</ele>
        <time>2014-06-29T23:09:24Z</time>
        <sat>7</sat>
      </trkpt>
      <trkpt lat="37.884632" lon="-119.090152">
        <ele>2112.2</ele>
        <time>2014-06-29T23:09:26Z</time>
        <sat>7</sat>
      </trkpt>
      <trkpt lat="37.884772" lon="-119.090182">
        <ele>2112.0</ele>
        <time>2014-06-29T23:09:28Z</time>
        <sat>7</sat>
      </trkpt>
      <trkpt lat="37.884907" lon="-119.090210">
        <ele>2111.7</ele>
        <time>2014-06-29T23:09:30Z</time>
        <sat>7</sat>
      </trkpt>
      <trkpt lat="37.885048" lon="-119.090230">
        <ele>2111.4</ele>
        <time>2014-06-29T23:09:32Z</time>
        <sat>7</sat>
      </trkpt>
      <trkpt lat="37.885192" lon="-119.090250">
        <ele>2111.4</ele>
        <time>2014-06-29T23:09:34Z</time>
        <sat>7</sat>
      </trkpt>
      <trkpt lat="37.885330" lon="-119.090270">
        <ele>2111.2</ele>
        <time>2014-06-29T23:09:36Z</time>
        <sat>7</sat>
      </trkpt>
      <trkpt lat="37.885462" lon="-119.090292">
        <ele>2111.3</ele>
        <time>2014-06-29T23:09:38Z</time>
        <sat>7</sat>
      </trkpt>
      <trkpt lat="37.885590" lon="-119.090313">
        <ele>2111.2</ele>
        <time>2014-06-29T23:09:40Z</time>
        <sat>7</sat>
      </trkpt>
      <trkpt lat="37.885715" lon="-119.090340">
        <ele>2111.1</ele>
        <time>2014-06-29T23:09:42Z</time>
        <sat>7</sat>
      </trkpt>
      <trkpt lat="37.885842" lon="-119.090365">
        <ele>2110.9</ele>
        <time>2014-06-29T23:09:44Z</time>
        <sat>7</sat>
      </trkpt>
      <trkpt lat="37.885970" lon="-119.090388">
        <ele>2110.5</ele>
        <time>2014-06-29T23:09:46Z</time>
        <sat>7</sat>
      </trkpt>
      <trkpt lat="37.886098" lon="-119.090412">
        <ele>2110.4</ele>
        <time>2014-06-29T23:09:48Z</time>
        <sat>7</sat>
      </trkpt>
      <trkpt lat="37.886223" lon="-119.090435">
        <ele>2110.2</ele>
        <time>2014-06-29T23:09:50Z</time>
        <sat>7</sat>
      </trkpt>
      <trkpt lat="37.886342" lon="-119.090462">
        <ele>2109.8</ele>
        <time>2014-06-29T23:09:52Z</time>
        <sat>7</sat>
      </trkpt>
      <trkpt lat="37.886457" lon="-119.090485">
        <ele>2109.6</ele>
        <time>2014-06-29T23:09:54Z</time>
        <sat>6</sat>
      </trkpt>
      <trkpt lat="37.886568" lon="-119.090507">
        <ele>2109.7</ele>
        <time>2014-06-29T23:09:56Z</time>
        <sat>7</sat>
      </trkpt>
      <trkpt lat="37.886673" lon="-119.090525">
        <ele>2109.3</ele>
        <time>2014-06-29T23:09:58Z</time>
        <sat>7</sat>
      </trkpt>
      <trkpt lat="37.886773" lon="-119.090547">
        <ele>2109.1</ele>
        <time>2014-06-29T23:10:00Z</time>
        <sat>7</sat>
      </trkpt>
      <trkpt lat="37.886885" lon="-119.090572">
        <ele>2109.1</ele>
        <time>2014-06-29T23:10:02Z</time>
        <sat>7</sat>
      </trkpt>
      <trkpt lat="37.887000" lon="-119.090598">
        <ele>2108.9</ele>
        <time>2014-06-29T23:10:04Z</time>
        <sat>7</sat>
      </trkpt>
      <trkpt lat="37.887237" lon="-119.090657">
        <ele>2108.7</ele>
        <time>2014-06-29T23:10:08Z</time>
        <sat>7</sat>
      </trkpt>
      <trkpt lat="37.887355" lon="-119.090687">
        <ele>2108.6</ele>
        <time>2014-06-29T23:10:10Z</time>
        <sat>7</sat>
      </trkpt>
      <trkpt lat="37.887482" lon="-119.090712">
        <ele>2108.4</ele>
        <time>2014-06-29T23:10:12Z</time>
        <sat>7</sat>
      </trkpt>
      <trkpt lat="37.887613" lon="-119.090735">
        <ele>2108.3</ele>
        <time>2014-06-29T23:10:14Z</time>
        <sat>7</sat>
      </trkpt>
      <trkpt lat="37.887743" lon="-119.090762">
        <ele>2108.1</ele>
        <time>2014-06-29T23:10:16Z</time>
        <sat>7</sat>
      </trkpt>
      <trkpt lat="37.887878" lon="-119.090788">
        <ele>2107.9</ele>
        <time>2014-06-29T23:10:18Z</time>
        <sat>7</sat>
      </trkpt>
      <trkpt lat="37.888017" lon="-119.090817">
        <ele>2107.6</ele>
        <time>2014-06-29T23:10:20Z</time>
        <sat>7</sat>
      </trkpt>
      <trkpt lat="37.888152" lon="-119.090842">
        <ele>2107.5</ele>
        <time>2014-06-29T23:10:22Z</time>
        <sat>7</sat>
      </trkpt>
      <trkpt lat="37.888288" lon="-119.090867">
        <ele>2107.0</ele>
        <time>2014-06-29T23:10:24Z</time>
        <sat>7</sat>
      </trkpt>
      <trkpt lat="37.888422" lon="-119.090898">
        <ele>2106.7</ele>
        <time>2014-06-29T23:10:26Z</time>
        <sat>7</sat>
      </trkpt>
      <trkpt lat="37.888557" lon="-119.090923">
        <ele>2106.5</ele>
        <time>2014-06-29T23:10:28Z</time>
        <sat>7</sat>
      </trkpt>
      <trkpt lat="37.888688" lon="-119.090947">
        <ele>2105.8</ele>
        <time>2014-06-29T23:10:30Z</time>
        <sat>7</sat>
      </trkpt>
      <trkpt lat="37.888820" lon="-119.090967">
        <ele>2105.1</ele>
        <time>2014-06-29T23:10:32Z</time>
        <sat>7</sat>
      </trkpt>
      <trkpt lat="37.888952" lon="-119.090987">
        <ele>2104.4</ele>
        <time>2014-06-29T23:10:34Z</time>
        <sat>7</sat>
      </trkpt>
      <trkpt lat="37.889087" lon="-119.091013">
        <ele>2103.8</ele>
        <time>2014-06-29T23:10:36Z</time>
        <sat>7</sat>
      </trkpt>
      <trkpt lat="37.889223" lon="-119.091037">
        <ele>2103.2</ele>
        <time>2014-06-29T23:10:38Z</time>
        <sat>7</sat>
      </trkpt>
      <trkpt lat="37.889360" lon="-119.091063">
        <ele>2102.7</ele>
        <time>2014-06-29T23:10:40Z</time>
        <sat>7</sat>
      </trkpt>
      <trkpt lat="37.889500" lon="-119.091087">
        <ele>2102.3</ele>
        <time>2014-06-29T23:10:42Z</time>
        <sat>7</sat>
      </trkpt>
      <trkpt lat="37.889648" lon="-119.091113">
        <ele>2102.0</ele>
        <time>2014-06-29T23:10:44Z</time>
        <sat>7</sat>
      </trkpt>
      <trkpt lat="37.889800" lon="-119.091147">
        <ele>2101.7</ele>
        <time>2014-06-29T23:10:46Z</time>
        <sat>7</sat>
      </trkpt>
      <trkpt lat="37.889950" lon="-119.091178">
        <ele>2101.3</ele>
        <time>2014-06-29T23:10:48Z</time>
        <sat>7</sat>
      </trkpt>
      <trkpt lat="37.890103" lon="-119.091212">
        <ele>2100.8</ele>
        <time>2014-06-29T23:10:50Z</time>
        <sat>7</sat>
      </trkpt>
      <trkpt lat="37.890255" lon="-119.091248">
        <ele>2100.4</ele>
        <time>2014-06-29T23:10:52Z</time>
        <sat>7</sat>
      </trkpt>
      <trkpt lat="37.890412" lon="-119.091283">
        <ele>2100.5</ele>
        <time>2014-06-29T23:10:54Z</time>
        <sat>7</sat>
      </trkpt>
      <trkpt lat="37.890573" lon="-119.091318">
        <ele>2100.1</ele>
        <time>2014-06-29T23:10:56Z</time>
        <sat>7</sat>
      </trkpt>
      <trkpt lat="37.890742" lon="-119.091350">
        <ele>2099.9</ele>
        <time>2014-06-29T23:10:58Z</time>
        <sat>7</sat>
      </trkpt>
      <trkpt lat="37.890907" lon="-119.091383">
        <ele>2100.0</ele>
        <time>2014-06-29T23:11:00Z</time>
        <sat>7</sat>
      </trkpt>
      <trkpt lat="37.891068" lon="-119.091417">
        <ele>2099.6</ele>
        <time>2014-06-29T23:11:02Z</time>
        <sat>7</sat>
      </trkpt>
      <trkpt lat="37.891227" lon="-119.091448">
        <ele>2099.3</ele>
        <time>2014-06-29T23:11:04Z</time>
        <sat>7</sat>
      </trkpt>
      <trkpt lat="37.891380" lon="-119.091475">
        <ele>2099.0</ele>
        <time>2014-06-29T23:11:06Z</time>
        <sat>7</sat>
      </trkpt>
      <trkpt lat="37.891678" lon="-119.091535">
        <ele>2098.4</ele>
        <time>2014-06-29T23:11:10Z</time>
        <sat>7</sat>
      </trkpt>
      <trkpt lat="37.891825" lon="-119.091560">
        <ele>2098.5</ele>
        <time>2014-06-29T23:11:12Z</time>
        <sat>7</sat>
      </trkpt>
      <trkpt lat="37.891965" lon="-119.091588">
        <ele>2098.4</ele>
        <time>2014-06-29T23:11:14Z</time>
        <sat>7</sat>
      </trkpt>
      <trkpt lat="37.892102" lon="-119.091613">
        <ele>2098.0</ele>
        <time>2014-06-29T23:11:16Z</time>
        <sat>7</sat>
      </trkpt>
      <trkpt lat="37.892230" lon="-119.091642">
        <ele>2098.4</ele>
        <time>2014-06-29T23:11:18Z</time>
        <sat>7</sat>
      </trkpt>
      <trkpt lat="37.892350" lon="-119.091668">
        <ele>2098.7</ele>
        <time>2014-06-29T23:11:20Z</time>
        <sat>7</sat>
      </trkpt>
      <trkpt lat="37.892458" lon="-119.091688">
        <ele>2099.2</ele>
        <time>2014-06-29T23:11:22Z</time>
        <sat>7</sat>
      </trkpt>
      <trkpt lat="37.892550" lon="-119.091708">
        <ele>2099.7</ele>
        <time>2014-06-29T23:11:24Z</time>
        <sat>7</sat>
      </trkpt>
      <trkpt lat="37.892680" lon="-119.091732">
        <ele>2099.8</ele>
        <time>2014-06-29T23:11:27Z</time>
        <sat>7</sat>
      </trkpt>
      <trkpt lat="37.892742" lon="-119.091647">
        <ele>2099.0</ele>
        <time>2014-06-29T23:11:31Z</time>
        <sat>7</sat>
      </trkpt>
      <trkpt lat="37.892642" lon="-119.091545">
        <ele>2097.9</ele>
        <time>2014-06-29T23:11:35Z</time>
        <sat>7</sat>
      </trkpt>
      <trkpt lat="37.892550" lon="-119.091502">
        <ele>2096.8</ele>
        <time>2014-06-29T23:11:40Z</time>
        <sat>7</sat>
      </trkpt>
      <trkpt lat="37.892422" lon="-119.091453">
        <ele>2095.3</ele>
        <time>2014-06-29T23:11:43Z</time>
        <sat>7</sat>
      </trkpt>
      <trkpt lat="37.892312" lon="-119.091422">
        <ele>2094.3</ele>
        <time>2014-06-29T23:11:45Z</time>
        <sat>7</sat>
      </trkpt>
      <trkpt lat="37.892225" lon="-119.091355">
        <ele>2093.5</ele>
        <time>2014-06-29T23:11:47Z</time>
        <sat>7</sat>
      </trkpt>
      <trkpt lat="37.892150" lon="-119.091268">
        <ele>2092.2</ele>
        <time>2014-06-29T23:11:50Z</time>
        <sat>7</sat>
      </trkpt>
      <trkpt lat="37.892227" lon="-119.091332">
        <ele>2092.4</ele>
        <time>2014-06-29T23:37:46Z</time>
        <sat>7</sat>
      </trkpt>
      <trkpt lat="37.892403" lon="-119.091420">
        <ele>2094.3</ele>
        <time>2014-06-29T23:38:06Z</time>
        <sat>7</sat>
      </trkpt>
      <trkpt lat="37.892493" lon="-119.091448">
        <ele>2094.6</ele>
        <time>2014-06-29T23:38:16Z</time>
        <sat>8</sat>
      </trkpt>
      <trkpt lat="37.892582" lon="-119.091507">
        <ele>2096.6</ele>
        <time>2014-06-29T23:38:31Z</time>
        <sat>8</sat>
      </trkpt>
      <trkpt lat="37.892670" lon="-119.091547">
        <ele>2097.4</ele>
        <time>2014-06-29T23:38:43Z</time>
        <sat>8</sat>
      </trkpt>
      <trkpt lat="37.892723" lon="-119.091643">
        <ele>2098.8</ele>
        <time>2014-06-29T23:38:54Z</time>
        <sat>8</sat>
      </trkpt>
      <trkpt lat="37.892898" lon="-119.091740">
        <ele>2099.8</ele>
        <time>2014-06-29T23:39:15Z</time>
        <sat>8</sat>
      </trkpt>
      <trkpt lat="37.893012" lon="-119.091765">
        <ele>2099.6</ele>
        <time>2014-06-29T23:39:19Z</time>
        <sat>8</sat>
      </trkpt>
      <trkpt lat="37.893105" lon="-119.091777">
        <ele>2099.4</ele>
        <time>2014-06-29T23:39:22Z</time>
        <sat>8</sat>
      </trkpt>
      <trkpt lat="37.893213" lon="-119.091795">
        <ele>2099.3</ele>
        <time>2014-06-29T23:39:25Z</time>
        <sat>8</sat>
      </trkpt>
      <trkpt lat="37.893330" lon="-119.091812">
        <ele>2099.2</ele>
        <time>2014-06-29T23:39:28Z</time>
        <sat>8</sat>
      </trkpt>
      <trkpt lat="37.893455" lon="-119.091835">
        <ele>2098.9</ele>
        <time>2014-06-29T23:39:31Z</time>
        <sat>8</sat>
      </trkpt>
      <trkpt lat="37.893583" lon="-119.091858">
        <ele>2099.0</ele>
        <time>2014-06-29T23:39:34Z</time>
        <sat>8</sat>
      </trkpt>
      <trkpt lat="37.893705" lon="-119.091883">
        <ele>2099.1</ele>
        <time>2014-06-29T23:39:37Z</time>
        <sat>8</sat>
      </trkpt>
      <trkpt lat="37.893830" lon="-119.091910">
        <ele>2099.0</ele>
        <time>2014-06-29T23:39:40Z</time>
        <sat>8</sat>
      </trkpt>
      <trkpt lat="37.893958" lon="-119.091938">
        <ele>2099.0</ele>
        <time>2014-06-29T23:39:43Z</time>
        <sat>8</sat>
      </trkpt>
      <trkpt lat="37.894088" lon="-119.091958">
        <ele>2099.1</ele>
        <time>2014-06-29T23:39:46Z</time>
        <sat>8</sat>
      </trkpt>
      <trkpt lat="37.894213" lon="-119.091982">
        <ele>2099.0</ele>
        <time>2014-06-29T23:39:49Z</time>
        <sat>8</sat>
      </trkpt>
      <trkpt lat="37.894338" lon="-119.092008">
        <ele>2098.8</ele>
        <time>2014-06-29T23:39:52Z</time>
        <sat>8</sat>
      </trkpt>
      <trkpt lat="37.894468" lon="-119.092035">
        <ele>2098.7</ele>
        <time>2014-06-29T23:39:55Z</time>
        <sat>8</sat>
      </trkpt>
      <trkpt lat="37.894690" lon="-119.092075">
        <ele>2098.7</ele>
        <time>2014-06-29T23:40:00Z</time>
        <sat>8</sat>
      </trkpt>
      <trkpt lat="37.894780" lon="-119.092093">
        <ele>2098.7</ele>
        <time>2014-06-29T23:40:02Z</time>
        <sat>8</sat>
      </trkpt>
      <trkpt lat="37.894915" lon="-119.092120">
        <ele>2098.5</ele>
        <time>2014-06-29T23:40:05Z</time>
        <sat>8</sat>
      </trkpt>
      <trkpt lat="37.895010" lon="-119.092135">
        <ele>2098.5</ele>
        <time>2014-06-29T23:40:07Z</time>
        <sat>8</sat>
      </trkpt>
      <trkpt lat="37.895105" lon="-119.092152">
        <ele>2098.2</ele>
        <time>2014-06-29T23:40:09Z</time>
        <sat>8</sat>
      </trkpt>
      <trkpt lat="37.895202" lon="-119.092172">
        <ele>2098.2</ele>
        <time>2014-06-29T23:40:11Z</time>
        <sat>8</sat>
      </trkpt>
      <trkpt lat="37.895302" lon="-119.092190">
        <ele>2098.4</ele>
        <time>2014-06-29T23:40:13Z</time>
        <sat>8</sat>
      </trkpt>
      <trkpt lat="37.895405" lon="-119.092212">
        <ele>2098.5</ele>
        <time>2014-06-29T23:40:15Z</time>
        <sat>8</sat>
      </trkpt>
      <trkpt lat="37.895505" lon="-119.092230">
        <ele>2098.6</ele>
        <time>2014-06-29T23:40:17Z</time>
        <sat>8</sat>
      </trkpt>
      <trkpt lat="37.895612" lon="-119.092252">
        <ele>2098.4</ele>
        <time>2014-06-29T23:40:19Z</time>
        <sat>8</sat>
      </trkpt>
      <trkpt lat="37.895718" lon="-119.092275">
        <ele>2098.2</ele>
        <time>2014-06-29T23:40:21Z</time>
        <sat>8</sat>
      </trkpt>
      <trkpt lat="37.895822" lon="-119.092297">
        <ele>2098.1</ele>
        <time>2014-06-29T23:40:23Z</time>
        <sat>8</sat>
      </trkpt>
      <trkpt lat="37.895925" lon="-119.092320">
        <ele>2098.2</ele>
        <time>2014-06-29T23:40:25Z</time>
        <sat>8</sat>
      </trkpt>
      <trkpt lat="37.896030" lon="-119.092343">
        <ele>2098.0</ele>
        <time>2014-06-29T23:40:27Z</time>
        <sat>8</sat>
      </trkpt>
      <trkpt lat="37.896135" lon="-119.092362">
        <ele>2097.8</ele>
        <time>2014-06-29T23:40:29Z</time>
        <sat>8</sat>
      </trkpt>
      <trkpt lat="37.896237" lon="-119.092380">
        <ele>2097.7</ele>
        <time>2014-06-29T23:40:31Z</time>
        <sat>8</sat>
      </trkpt>
      <trkpt lat="37.896342" lon="-119.092400">
        <ele>2097.4</ele>
        <time>2014-06-29T23:40:33Z</time>
        <sat>8</sat>
      </trkpt>
      <trkpt lat="37.896443" lon="-119.092420">
        <ele>2097.3</ele>
        <time>2014-06-29T23:40:35Z</time>
        <sat>8</sat>
      </trkpt>
      <trkpt lat="37.896547" lon="-119.092442">
        <ele>2097.3</ele>
        <time>2014-06-29T23:40:37Z</time>
        <sat>8</sat>
      </trkpt>
      <trkpt lat="37.896647" lon="-119.092462">
        <ele>2097.2</ele>
        <time>2014-06-29T23:40:39Z</time>
        <sat>8</sat>
      </trkpt>
      <trkpt lat="37.896750" lon="-119.092483">
        <ele>2097.2</ele>
        <time>2014-06-29T23:40:41Z</time>
        <sat>8</sat>
      </trkpt>
      <trkpt lat="37.896852" lon="-119.092505">
        <ele>2097.2</ele>
        <time>2014-06-29T23:40:43Z</time>
        <sat>8</sat>
      </trkpt>
      <trkpt lat="37.896957" lon="-119.092525">
        <ele>2097.4</ele>
        <time>2014-06-29T23:40:45Z</time>
        <sat>8</sat>
      </trkpt>
      <trkpt lat="37.897062" lon="-119.092545">
        <ele>2097.4</ele>
        <time>2014-06-29T23:40:47Z</time>
        <sat>8</sat>
      </trkpt>
      <trkpt lat="37.897168" lon="-119.092563">
        <ele>2097.4</ele>
        <time>2014-06-29T23:40:49Z</time>
        <sat>8</sat>
      </trkpt>
      <trkpt lat="37.897273" lon="-119.092588">
        <ele>2097.2</ele>
        <time>2014-06-29T23:40:51Z</time>
        <sat>8</sat>
      </trkpt>
      <trkpt lat="37.897377" lon="-119.092610">
        <ele>2098.2</ele>
        <time>2014-06-29T23:40:53Z</time>
        <sat>8</sat>
      </trkpt>
      <trkpt lat="37.897482" lon="-119.092628">
        <ele>2097.5</ele>
        <time>2014-06-29T23:40:55Z</time>
        <sat>8</sat>
      </trkpt>
      <trkpt lat="37.897583" lon="-119.092647">
        <ele>2097.3</ele>
        <time>2014-06-29T23:40:57Z</time>
        <sat>8</sat>
      </trkpt>
      <trkpt lat="37.897790" lon="-119.092690">
        <ele>2098.2</ele>
        <time>2014-06-29T23:41:01Z</time>
        <sat>8</sat>
      </trkpt>
      <trkpt lat="37.897898" lon="-119.092712">
        <ele>2097.3</ele>
        <time>2014-06-29T23:41:03Z</time>
        <sat>8</sat>
      </trkpt>
      <trkpt lat="37.898007" lon="-119.092733">
        <ele>2097.0</ele>
        <time>2014-06-29T23:41:05Z</time>
        <sat>8</sat>
      </trkpt>
      <trkpt lat="37.898118" lon="-119.092753">
        <ele>2096.9</ele>
        <time>2014-06-29T23:41:07Z</time>
        <sat>8</sat>
      </trkpt>
      <trkpt lat="37.898232" lon="-119.092778">
        <ele>2096.8</ele>
        <time>2014-06-29T23:41:09Z</time>
        <sat>8</sat>
      </trkpt>
      <trkpt lat="37.898343" lon="-119.092793">
        <ele>2096.7</ele>
        <time>2014-06-29T23:41:11Z</time>
        <sat>8</sat>
      </trkpt>
      <trkpt lat="37.898458" lon="-119.092817">
        <ele>2096.7</ele>
        <time>2014-06-29T23:41:13Z</time>
        <sat>8</sat>
      </trkpt>
      <trkpt lat="37.898573" lon="-119.092845">
        <ele>2096.4</ele>
        <time>2014-06-29T23:41:15Z</time>
        <sat>8</sat>
      </trkpt>
      <trkpt lat="37.898683" lon="-119.092868">
        <ele>2096.3</ele>
        <time>2014-06-29T23:41:17Z</time>
        <sat>8</sat>
      </trkpt>
      <trkpt lat="37.898790" lon="-119.092893">
        <ele>2096.3</ele>
        <time>2014-06-29T23:41:19Z</time>
        <sat>8</sat>
      </trkpt>
      <trkpt lat="37.898900" lon="-119.092918">
        <ele>2096.5</ele>
        <time>2014-06-29T23:41:21Z</time>
        <sat>8</sat>
      </trkpt>
      <trkpt lat="37.899010" lon="-119.092947">
        <ele>2096.5</ele>
        <time>2014-06-29T23:41:23Z</time>
        <sat>8</sat>
      </trkpt>
      <trkpt lat="37.899120" lon="-119.092973">
        <ele>2096.5</ele>
        <time>2014-06-29T23:41:25Z</time>
        <sat>8</sat>
      </trkpt>
      <trkpt lat="37.899230" lon="-119.092993">
        <ele>2096.7</ele>
        <time>2014-06-29T23:41:27Z</time>
        <sat>8</sat>
      </trkpt>
      <trkpt lat="37.899342" lon="-119.093015">
        <ele>2096.7</ele>
        <time>2014-06-29T23:41:29Z</time>
        <sat>8</sat>
      </trkpt>
      <trkpt lat="37.899448" lon="-119.093037">
        <ele>2096.7</ele>
        <time>2014-06-29T23:41:31Z</time>
        <sat>8</sat>
      </trkpt>
      <trkpt lat="37.899555" lon="-119.093057">
        <ele>2096.5</ele>
        <time>2014-06-29T23:41:33Z</time>
        <sat>8</sat>
      </trkpt>
      <trkpt lat="37.899660" lon="-119.093080">
        <ele>2096.4</ele>
        <time>2014-06-29T23:41:35Z</time>
        <sat>8</sat>
      </trkpt>
      <trkpt lat="37.899765" lon="-119.093097">
        <ele>2096.3</ele>
        <time>2014-06-29T23:41:37Z</time>
        <sat>8</sat>
      </trkpt>
      <trkpt lat="37.899865" lon="-119.093117">
        <ele>2096.1</ele>
        <time>2014-06-29T23:41:39Z</time>
        <sat>8</sat>
      </trkpt>
      <trkpt lat="37.899965" lon="-119.093138">
        <ele>2096.1</ele>
        <time>2014-06-29T23:41:41Z</time>
        <sat>8</sat>
      </trkpt>
      <trkpt lat="37.900068" lon="-119.093158">
        <ele>2095.9</ele>
        <time>2014-06-29T23:41:43Z</time>
        <sat>8</sat>
      </trkpt>
      <trkpt lat="37.900172" lon="-119.093173">
        <ele>2095.9</ele>
        <time>2014-06-29T23:41:45Z</time>
        <sat>8</sat>
      </trkpt>
      <trkpt lat="37.900275" lon="-119.093192">
        <ele>2095.7</ele>
        <time>2014-06-29T23:41:47Z</time>
        <sat>8</sat>
      </trkpt>
      <trkpt lat="37.900380" lon="-119.093213">
        <ele>2095.6</ele>
        <time>2014-06-29T23:41:49Z</time>
        <sat>8</sat>
      </trkpt>
      <trkpt lat="37.900482" lon="-119.093238">
        <ele>2095.5</ele>
        <time>2014-06-29T23:41:51Z</time>
        <sat>8</sat>
      </trkpt>
      <trkpt lat="37.900583" lon="-119.093265">
        <ele>2095.4</ele>
        <time>2014-06-29T23:41:53Z</time>
        <sat>8</sat>
      </trkpt>
      <trkpt lat="37.900687" lon="-119.093282">
        <ele>2095.6</ele>
        <time>2014-06-29T23:41:55Z</time>
        <sat>8</sat>
      </trkpt>
      <trkpt lat="37.900787" lon="-119.093298">
        <ele>2095.5</ele>
        <time>2014-06-29T23:41:57Z</time>
        <sat>8</sat>
      </trkpt>
      <trkpt lat="37.900887" lon="-119.093317">
        <ele>2095.5</ele>
        <time>2014-06-29T23:41:59Z</time>
        <sat>8</sat>
      </trkpt>
      <trkpt lat="37.901095" lon="-119.093360">
        <ele>2095.1</ele>
        <time>2014-06-29T23:42:03Z</time>
        <sat>8</sat>
      </trkpt>
      <trkpt lat="37.901202" lon="-119.093383">
        <ele>2095.1</ele>
        <time>2014-06-29T23:42:05Z</time>
        <sat>8</sat>
      </trkpt>
      <trkpt lat="37.901307" lon="-119.093408">
        <ele>2095.1</ele>
        <time>2014-06-29T23:42:07Z</time>
        <sat>8</sat>
      </trkpt>
      <trkpt lat="37.901412" lon="-119.093427">
        <ele>2095.0</ele>
        <time>2014-06-29T23:42:09Z</time>
        <sat>8</sat>
      </trkpt>
      <trkpt lat="37.901518" lon="-119.093450">
        <ele>2095.1</ele>
        <time>2014-06-29T23:42:11Z</time>
        <sat>8</sat>
      </trkpt>
      <trkpt lat="37.901625" lon="-119.093472">
        <ele>2094.9</ele>
        <time>2014-06-29T23:42:13Z</time>
        <sat>8</sat>
      </trkpt>
      <trkpt lat="37.901732" lon="-119.093492">
        <ele>2095.1</ele>
        <time>2014-06-29T23:42:15Z</time>
        <sat>8</sat>
      </trkpt>
      <trkpt lat="37.901840" lon="-119.093513">
        <ele>2095.0</ele>
        <time>2014-06-29T23:42:17Z</time>
        <sat>8</sat>
      </trkpt>
      <trkpt lat="37.901948" lon="-119.093533">
        <ele>2095.1</ele>
        <time>2014-06-29T23:42:19Z</time>
        <sat>8</sat>
      </trkpt>
      <trkpt lat="37.902055" lon="-119.093550">
        <ele>2095.2</ele>
        <time>2014-06-29T23:42:21Z</time>
        <sat>8</sat>
      </trkpt>
      <trkpt lat="37.902165" lon="-119.093568">
        <ele>2095.3</ele>
        <time>2014-06-29T23:42:23Z</time>
        <sat>8</sat>
      </trkpt>
      <trkpt lat="37.902287" lon="-119.093592">
        <ele>2095.0</ele>
        <time>2014-06-29T23:42:25Z</time>
        <sat>8</sat>
      </trkpt>
      <trkpt lat="37.902403" lon="-119.093612">
        <ele>2094.7</ele>
        <time>2014-06-29T23:42:27Z</time>
        <sat>8</sat>
      </trkpt>
      <trkpt lat="37.902513" lon="-119.093632">
        <ele>2094.4</ele>
        <time>2014-06-29T23:42:29Z</time>
        <sat>8</sat>
      </trkpt>
      <trkpt lat="37.902628" lon="-119.093653">
        <ele>2094.3</ele>
        <time>2014-06-29T23:42:31Z</time>
        <sat>8</sat>
      </trkpt>
      <trkpt lat="37.902747" lon="-119.093680">
        <ele>2094.0</ele>
        <time>2014-06-29T23:42:33Z</time>
        <sat>8</sat>
      </trkpt>
      <trkpt lat="37.902872" lon="-119.093707">
        <ele>2094.1</ele>
        <time>2014-06-29T23:42:35Z</time>
        <sat>8</sat>
      </trkpt>
      <trkpt lat="37.903003" lon="-119.093735">
        <ele>2093.9</ele>
        <time>2014-06-29T23:42:37Z</time>
        <sat>8</sat>
      </trkpt>
      <trkpt lat="37.903138" lon="-119.093762">
        <ele>2093.5</ele>
        <time>2014-06-29T23:42:39Z</time>
        <sat>8</sat>
      </trkpt>
      <trkpt lat="37.903275" lon="-119.093792">
        <ele>2093.3</ele>
        <time>2014-06-29T23:42:41Z</time>
        <sat>8</sat>
      </trkpt>
      <trkpt lat="37.903413" lon="-119.093822">
        <ele>2092.9</ele>
        <time>2014-06-29T23:42:43Z</time>
        <sat>8</sat>
      </trkpt>
      <trkpt lat="37.903553" lon="-119.093847">
        <ele>2092.9</ele>
        <time>2014-06-29T23:42:45Z</time>
        <sat>8</sat>
      </trkpt>
      <trkpt lat="37.903692" lon="-119.093875">
        <ele>2092.6</ele>
        <time>2014-06-29T23:42:47Z</time>
        <sat>8</sat>
      </trkpt>
      <trkpt lat="37.903830" lon="-119.093900">
        <ele>2092.1</ele>
        <time>2014-06-29T23:42:49Z</time>
        <sat>8</sat>
      </trkpt>
      <trkpt lat="37.903967" lon="-119.093927">
        <ele>2091.9</ele>
        <time>2014-06-29T23:42:51Z</time>
        <sat>8</sat>
      </trkpt>
      <trkpt lat="37.904107" lon="-119.093958">
        <ele>2091.7</ele>
        <time>2014-06-29T23:42:53Z</time>
        <sat>8</sat>
      </trkpt>
      <trkpt lat="37.904243" lon="-119.093988">
        <ele>2091.1</ele>
        <time>2014-06-29T23:42:55Z</time>
        <sat>8</sat>
      </trkpt>
      <trkpt lat="37.904383" lon="-119.094015">
        <ele>2091.0</ele>
        <time>2014-06-29T23:42:57Z</time>
        <sat>8</sat>
      </trkpt>
      <trkpt lat="37.904523" lon="-119.094045">
        <ele>2090.8</ele>
        <time>2014-06-29T23:42:59Z</time>
        <sat>8</sat>
      </trkpt>
      <trkpt lat="37.904663" lon="-119.094073">
        <ele>2090.6</ele>
        <time>2014-06-29T23:43:01Z</time>
        <sat>8</sat>
      </trkpt>
      <trkpt lat="37.904935" lon="-119.094128">
        <ele>2090.3</ele>
        <time>2014-06-29T23:43:05Z</time>
        <sat>8</sat>
      </trkpt>
      <trkpt lat="37.905080" lon="-119.094157">
        <ele>2090.0</ele>
        <time>2014-06-29T23:43:07Z</time>
        <sat>8</sat>
      </trkpt>
      <trkpt lat="37.905228" lon="-119.094182">
        <ele>2089.7</ele>
        <time>2014-06-29T23:43:09Z</time>
        <sat>8</sat>
      </trkpt>
      <trkpt lat="37.905378" lon="-119.094212">
        <ele>2089.3</ele>
        <time>2014-06-29T23:43:11Z</time>
        <sat>8</sat>
      </trkpt>
      <trkpt lat="37.905530" lon="-119.094243">
        <ele>2089.1</ele>
        <time>2014-06-29T23:43:13Z</time>
        <sat>8</sat>
      </trkpt>
      <trkpt lat="37.905682" lon="-119.094275">
        <ele>2088.5</ele>
        <time>2014-06-29T23:43:15Z</time>
        <sat>8</sat>
      </trkpt>
      <trkpt lat="37.905833" lon="-119.094305">
        <ele>2088.0</ele>
        <time>2014-06-29T23:43:17Z</time>
        <sat>8</sat>
      </trkpt>
      <trkpt lat="37.905987" lon="-119.094335">
        <ele>2087.4</ele>
        <time>2014-06-29T23:43:19Z</time>
        <sat>8</sat>
      </trkpt>
      <trkpt lat="37.906138" lon="-119.094365">
        <ele>2086.9</ele>
        <time>2014-06-29T23:43:21Z</time>
        <sat>7</sat>
      </trkpt>
      <trkpt lat="37.906295" lon="-119.094397">
        <ele>2086.6</ele>
        <time>2014-06-29T23:43:23Z</time>
        <sat>7</sat>
      </trkpt>
      <trkpt lat="37.906453" lon="-119.094430">
        <ele>2086.3</ele>
        <time>2014-06-29T23:43:25Z</time>
        <sat>8</sat>
      </trkpt>
      <trkpt lat="37.906612" lon="-119.094463">
        <ele>2085.8</ele>
        <time>2014-06-29T23:43:27Z</time>
        <sat>7</sat>
      </trkpt>
      <trkpt lat="37.906770" lon="-119.094495">
        <ele>2085.3</ele>
        <time>2014-06-29T23:43:29Z</time>
        <sat>7</sat>
      </trkpt>
      <trkpt lat="37.906925" lon="-119.094523">
        <ele>2085.0</ele>
        <time>2014-06-29T23:43:31Z</time>
        <sat>8</sat>
      </trkpt>
      <trkpt lat="37.907080" lon="-119.094553">
        <ele>2084.5</ele>
        <time>2014-06-29T23:43:33Z</time>
        <sat>7</sat>
      </trkpt>
      <trkpt lat="37.907235" lon="-119.094582">
        <ele>2083.9</ele>
        <time>2014-06-29T23:43:35Z</time>
        <sat>8</sat>
      </trkpt>
      <trkpt lat="37.907388" lon="-119.094612">
        <ele>2083.6</ele>
        <time>2014-06-29T23:43:37Z</time>
        <sat>8</sat>
      </trkpt>
      <trkpt lat="37.907542" lon="-119.094645">
        <ele>2083.4</ele>
        <time>2014-06-29T23:43:39Z</time>
        <sat>8</sat>
      </trkpt>
      <trkpt lat="37.907693" lon="-119.094673">
        <ele>2083.1</ele>
        <time>2014-06-29T23:43:41Z</time>
        <sat>8</sat>
      </trkpt>
      <trkpt lat="37.907842" lon="-119.094700">
        <ele>2082.8</ele>
        <time>2014-06-29T23:43:43Z</time>
        <sat>8</sat>
      </trkpt>
      <trkpt lat="37.907988" lon="-119.094727">
        <ele>2082.9</ele>
        <time>2014-06-29T23:43:45Z</time>
        <sat>8</sat>
      </trkpt>
      <trkpt lat="37.908130" lon="-119.094753">
        <ele>2082.8</ele>
        <time>2014-06-29T23:43:47Z</time>
        <sat>8</sat>
      </trkpt>
      <trkpt lat="37.908270" lon="-119.094783">
        <ele>2083.0</ele>
        <time>2014-06-29T23:43:49Z</time>
        <sat>8</sat>
      </trkpt>
      <trkpt lat="37.908408" lon="-119.094817">
        <ele>2082.9</ele>
        <time>2014-06-29T23:43:51Z</time>
        <sat>8</sat>
      </trkpt>
      <trkpt lat="37.908543" lon="-119.094848">
        <ele>2082.9</ele>
        <time>2014-06-29T23:43:53Z</time>
        <sat>8</sat>
      </trkpt>
      <trkpt lat="37.908672" lon="-119.094868">
        <ele>2082.9</ele>
        <time>2014-06-29T23:43:55Z</time>
        <sat>8</sat>
      </trkpt>
      <trkpt lat="37.908798" lon="-119.094890">
        <ele>2083.1</ele>
        <time>2014-06-29T23:43:57Z</time>
        <sat>8</sat>
      </trkpt>
      <trkpt lat="37.908922" lon="-119.094913">
        <ele>2083.2</ele>
        <time>2014-06-29T23:43:59Z</time>
        <sat>8</sat>
      </trkpt>
      <trkpt lat="37.909047" lon="-119.094933">
        <ele>2083.1</ele>
        <time>2014-06-29T23:44:01Z</time>
        <sat>8</sat>
      </trkpt>
      <trkpt lat="37.909170" lon="-119.094955">
        <ele>2083.5</ele>
        <time>2014-06-29T23:44:03Z</time>
        <sat>8</sat>
      </trkpt>
      <trkpt lat="37.909400" lon="-119.095005">
        <ele>2083.6</ele>
        <time>2014-06-29T23:44:07Z</time>
        <sat>8</sat>
      </trkpt>
      <trkpt lat="37.909513" lon="-119.095027">
        <ele>2083.8</ele>
        <time>2014-06-29T23:44:09Z</time>
        <sat>8</sat>
      </trkpt>
      <trkpt lat="37.909622" lon="-119.095047">
        <ele>2083.9</ele>
        <time>2014-06-29T23:44:11Z</time>
        <sat>8</sat>
      </trkpt>
      <trkpt lat="37.909728" lon="-119.095055">
        <ele>2084.1</ele>
        <time>2014-06-29T23:44:13Z</time>
        <sat>8</sat>
      </trkpt>
      <trkpt lat="37.909837" lon="-119.095072">
        <ele>2084.0</ele>
        <time>2014-06-29T23:44:15Z</time>
        <sat>8</sat>
      </trkpt>
      <trkpt lat="37.909943" lon="-119.095092">
        <ele>2084.1</ele>
        <time>2014-06-29T23:44:17Z</time>
        <sat>8</sat>
      </trkpt>
      <trkpt lat="37.910050" lon="-119.095115">
        <ele>2084.4</ele>
        <time>2014-06-29T23:44:19Z</time>
        <sat>8</sat>
      </trkpt>
      <trkpt lat="37.910157" lon="-119.095137">
        <ele>2084.2</ele>
        <time>2014-06-29T23:44:21Z</time>
        <sat>8</sat>
      </trkpt>
      <trkpt lat="37.910260" lon="-119.095153">
        <ele>2084.4</ele>
        <time>2014-06-29T23:44:23Z</time>
        <sat>8</sat>
      </trkpt>
      <trkpt lat="37.910362" lon="-119.095172">
        <ele>2084.5</ele>
        <time>2014-06-29T23:44:25Z</time>
        <sat>8</sat>
      </trkpt>
      <trkpt lat="37.910462" lon="-119.095193">
        <ele>2084.8</ele>
        <time>2014-06-29T23:44:27Z</time>
        <sat>8</sat>
      </trkpt>
      <trkpt lat="37.910563" lon="-119.095215">
        <ele>2084.7</ele>
        <time>2014-06-29T23:44:29Z</time>
        <sat>8</sat>
      </trkpt>
      <trkpt lat="37.910665" lon="-119.095235">
        <ele>2084.6</ele>
        <time>2014-06-29T23:44:31Z</time>
        <sat>8</sat>
      </trkpt>
      <trkpt lat="37.910767" lon="-119.095255">
        <ele>2084.9</ele>
        <time>2014-06-29T23:44:33Z</time>
        <sat>8</sat>
      </trkpt>
      <trkpt lat="37.910870" lon="-119.095275">
        <ele>2085.1</ele>
        <time>2014-06-29T23:44:35Z</time>
        <sat>8</sat>
      </trkpt>
      <trkpt lat="37.910975" lon="-119.095295">
        <ele>2085.5</ele>
        <time>2014-06-29T23:44:37Z</time>
        <sat>8</sat>
      </trkpt>
      <trkpt lat="37.911080" lon="-119.095315">
        <ele>2085.5</ele>
        <time>2014-06-29T23:44:39Z</time>
        <sat>8</sat>
      </trkpt>
      <trkpt lat="37.911182" lon="-119.095337">
        <ele>2085.6</ele>
        <time>2014-06-29T23:44:41Z</time>
        <sat>8</sat>
      </trkpt>
      <trkpt lat="37.911280" lon="-119.095357">
        <ele>2085.6</ele>
        <time>2014-06-29T23:44:43Z</time>
        <sat>8</sat>
      </trkpt>
      <trkpt lat="37.911377" lon="-119.095380">
        <ele>2086.0</ele>
        <time>2014-06-29T23:44:45Z</time>
        <sat>8</sat>
      </trkpt>
      <trkpt lat="37.911473" lon="-119.095402">
        <ele>2086.3</ele>
        <time>2014-06-29T23:44:47Z</time>
        <sat>8</sat>
      </trkpt>
      <trkpt lat="37.911570" lon="-119.095418">
        <ele>2086.5</ele>
        <time>2014-06-29T23:44:49Z</time>
        <sat>8</sat>
      </trkpt>
      <trkpt lat="37.911665" lon="-119.095438">
        <ele>2086.7</ele>
        <time>2014-06-29T23:44:51Z</time>
        <sat>8</sat>
      </trkpt>
      <trkpt lat="37.911758" lon="-119.095460">
        <ele>2086.8</ele>
        <time>2014-06-29T23:44:53Z</time>
        <sat>8</sat>
      </trkpt>
      <trkpt lat="37.911852" lon="-119.095475">
        <ele>2087.1</ele>
        <time>2014-06-29T23:44:55Z</time>
        <sat>8</sat>
      </trkpt>
      <trkpt lat="37.911945" lon="-119.095490">
        <ele>2087.1</ele>
        <time>2014-06-29T23:44:57Z</time>
        <sat>8</sat>
      </trkpt>
      <trkpt lat="37.912040" lon="-119.095508">
        <ele>2087.2</ele>
        <time>2014-06-29T23:44:59Z</time>
        <sat>8</sat>
      </trkpt>
      <trkpt lat="37.912137" lon="-119.095527">
        <ele>2087.6</ele>
        <time>2014-06-29T23:45:01Z</time>
        <sat>8</sat>
      </trkpt>
      <trkpt lat="37.912232" lon="-119.095545">
        <ele>2087.6</ele>
        <time>2014-06-29T23:45:03Z</time>
        <sat>8</sat>
      </trkpt>
      <trkpt lat="37.912327" lon="-119.095565">
        <ele>2087.5</ele>
        <time>2014-06-29T23:45:05Z</time>
        <sat>8</sat>
      </trkpt>
      <trkpt lat="37.912517" lon="-119.095607">
        <ele>2088.1</ele>
        <time>2014-06-29T23:45:09Z</time>
        <sat>8</sat>
      </trkpt>
      <trkpt lat="37.912612" lon="-119.095627">
        <ele>2088.4</ele>
        <time>2014-06-29T23:45:11Z</time>
        <sat>8</sat>
      </trkpt>
      <trkpt lat="37.912708" lon="-119.095643">
        <ele>2088.4</ele>
        <time>2014-06-29T23:45:13Z</time>
        <sat>8</sat>
      </trkpt>
      <trkpt lat="37.912803" lon="-119.095660">
        <ele>2088.3</ele>
        <time>2014-06-29T23:45:15Z</time>
        <sat>8</sat>
      </trkpt>
      <trkpt lat="37.912898" lon="-119.095680">
        <ele>2088.5</ele>
        <time>2014-06-29T23:45:17Z</time>
        <sat>8</sat>
      </trkpt>
      <trkpt lat="37.912990" lon="-119.095703">
        <ele>2088.9</ele>
        <time>2014-06-29T23:45:19Z</time>
        <sat>8</sat>
      </trkpt>
      <trkpt lat="37.913082" lon="-119.095725">
        <ele>2089.2</ele>
        <time>2014-06-29T23:45:21Z</time>
        <sat>8</sat>
      </trkpt>
      <trkpt lat="37.913175" lon="-119.095742">
        <ele>2089.4</ele>
        <time>2014-06-29T23:45:23Z</time>
        <sat>8</sat>
      </trkpt>
      <trkpt lat="37.913267" lon="-119.095758">
        <ele>2089.5</ele>
        <time>2014-06-29T23:45:25Z</time>
        <sat>8</sat>
      </trkpt>
      <trkpt lat="37.913358" lon="-119.095772">
        <ele>2089.6</ele>
        <time>2014-06-29T23:45:27Z</time>
        <sat>8</sat>
      </trkpt>
      <trkpt lat="37.913450" lon="-119.095793">
        <ele>2089.8</ele>
        <time>2014-06-29T23:45:29Z</time>
        <sat>8</sat>
      </trkpt>
      <trkpt lat="37.913543" lon="-119.095812">
        <ele>2090.0</ele>
        <time>2014-06-29T23:45:31Z</time>
        <sat>8</sat>
      </trkpt>
      <trkpt lat="37.913637" lon="-119.095832">
        <ele>2090.0</ele>
        <time>2014-06-29T23:45:33Z</time>
        <sat>8</sat>
      </trkpt>
      <trkpt lat="37.913730" lon="-119.095852">
        <ele>2090.1</ele>
        <time>2014-06-29T23:45:35Z</time>
        <sat>8</sat>
      </trkpt>
      <trkpt lat="37.913822" lon="-119.095870">
        <ele>2090.6</ele>
        <time>2014-06-29T23:45:37Z</time>
        <sat>8</sat>
      </trkpt>
      <trkpt lat="37.913917" lon="-119.095888">
        <ele>2090.7</ele>
        <time>2014-06-29T23:45:39Z</time>
        <sat>8</sat>
      </trkpt>
      <trkpt lat="37.914013" lon="-119.095908">
        <ele>2090.8</ele>
        <time>2014-06-29T23:45:41Z</time>
        <sat>8</sat>
      </trkpt>
      <trkpt lat="37.914110" lon="-119.095928">
        <ele>2091.3</ele>
        <time>2014-06-29T23:45:43Z</time>
        <sat>8</sat>
      </trkpt>
      <trkpt lat="37.914205" lon="-119.095948">
        <ele>2091.6</ele>
        <time>2014-06-29T23:45:45Z</time>
        <sat>8</sat>
      </trkpt>
      <trkpt lat="37.914298" lon="-119.095967">
        <ele>2091.5</ele>
        <time>2014-06-29T23:45:47Z</time>
        <sat>8</sat>
      </trkpt>
      <trkpt lat="37.914390" lon="-119.095985">
        <ele>2091.6</ele>
        <time>2014-06-29T23:45:49Z</time>
        <sat>8</sat>
      </trkpt>
      <trkpt lat="37.914483" lon="-119.096003">
        <ele>2091.7</ele>
        <time>2014-06-29T23:45:51Z</time>
        <sat>8</sat>
      </trkpt>
      <trkpt lat="37.914573" lon="-119.096023">
        <ele>2091.8</ele>
        <time>2014-06-29T23:45:53Z</time>
        <sat>8</sat>
      </trkpt>
      <trkpt lat="37.914663" lon="-119.096042">
        <ele>2091.8</ele>
        <time>2014-06-29T23:45:55Z</time>
        <sat>8</sat>
      </trkpt>
      <trkpt lat="37.914753" lon="-119.096055">
        <ele>2092.0</ele>
        <time>2014-06-29T23:45:57Z</time>
        <sat>8</sat>
      </trkpt>
      <trkpt lat="37.914882" lon="-119.096078">
        <ele>2091.9</ele>
        <time>2014-06-29T23:46:00Z</time>
        <sat>8</sat>
      </trkpt>
      <trkpt lat="37.915002" lon="-119.096103">
        <ele>2092.0</ele>
        <time>2014-06-29T23:46:03Z</time>
        <sat>8</sat>
      </trkpt>
      <trkpt lat="37.915118" lon="-119.096127">
        <ele>2092.0</ele>
        <time>2014-06-29T23:46:06Z</time>
        <sat>8</sat>
      </trkpt>
      <trkpt lat="37.915353" lon="-119.096173">
        <ele>2091.5</ele>
        <time>2014-06-29T23:46:12Z</time>
        <sat>8</sat>
      </trkpt>
      <trkpt lat="37.915470" lon="-119.096187">
        <ele>2091.2</ele>
        <time>2014-06-29T23:46:15Z</time>
        <sat>8</sat>
      </trkpt>
      <trkpt lat="37.915595" lon="-119.096205">
        <ele>2090.9</ele>
        <time>2014-06-29T23:46:18Z</time>
        <sat>8</sat>
      </trkpt>
      <trkpt lat="37.915723" lon="-119.096228">
        <ele>2091.2</ele>
        <time>2014-06-29T23:46:21Z</time>
        <sat>8</sat>
      </trkpt>
      <trkpt lat="37.915853" lon="-119.096253">
        <ele>2091.5</ele>
        <time>2014-06-29T23:46:24Z</time>
        <sat>8</sat>
      </trkpt>
      <trkpt lat="37.915945" lon="-119.096273">
        <ele>2091.6</ele>
        <time>2014-06-29T23:46:26Z</time>
        <sat>8</sat>
      </trkpt>
      <trkpt lat="37.916038" lon="-119.096290">
        <ele>2091.5</ele>
        <time>2014-06-29T23:46:28Z</time>
        <sat>8</sat>
      </trkpt>
      <trkpt lat="37.916138" lon="-119.096312">
        <ele>2091.4</ele>
        <time>2014-06-29T23:46:30Z</time>
        <sat>8</sat>
      </trkpt>
      <trkpt lat="37.916240" lon="-119.096330">
        <ele>2091.3</ele>
        <time>2014-06-29T23:46:32Z</time>
        <sat>8</sat>
      </trkpt>
      <trkpt lat="37.916338" lon="-119.096348">
        <ele>2091.2</ele>
        <time>2014-06-29T23:46:34Z</time>
        <sat>8</sat>
      </trkpt>
      <trkpt lat="37.916435" lon="-119.096368">
        <ele>2091.4</ele>
        <time>2014-06-29T23:46:36Z</time>
        <sat>8</sat>
      </trkpt>
      <trkpt lat="37.916530" lon="-119.096388">
        <ele>2091.3</ele>
        <time>2014-06-29T23:46:38Z</time>
        <sat>8</sat>
      </trkpt>
      <trkpt lat="37.916627" lon="-119.096407">
        <ele>2091.5</ele>
        <time>2014-06-29T23:46:40Z</time>
        <sat>8</sat>
      </trkpt>
      <trkpt lat="37.916725" lon="-119.096428">
        <ele>2091.6</ele>
        <time>2014-06-29T23:46:42Z</time>
        <sat>8</sat>
      </trkpt>
      <trkpt lat="37.916825" lon="-119.096445">
        <ele>2091.5</ele>
        <time>2014-06-29T23:46:44Z</time>
        <sat>8</sat>
      </trkpt>
      <trkpt lat="37.916927" lon="-119.096468">
        <ele>2091.3</ele>
        <time>2014-06-29T23:46:46Z</time>
        <sat>7</sat>
      </trkpt>
      <trkpt lat="37.917033" lon="-119.096492">
        <ele>2090.9</ele>
        <time>2014-06-29T23:46:48Z</time>
        <sat>7</sat>
      </trkpt>
      <trkpt lat="37.917138" lon="-119.096508">
        <ele>2090.8</ele>
        <time>2014-06-29T23:46:50Z</time>
        <sat>8</sat>
      </trkpt>
      <trkpt lat="37.917245" lon="-119.096527">
        <ele>2090.6</ele>
        <time>2014-06-29T23:46:52Z</time>
        <sat>8</sat>
      </trkpt>
      <trkpt lat="37.917353" lon="-119.096548">
        <ele>2090.4</ele>
        <time>2014-06-29T23:46:54Z</time>
        <sat>8</sat>
      </trkpt>
      <trkpt lat="37.917462" lon="-119.096573">
        <ele>2090.7</ele>
        <time>2014-06-29T23:46:56Z</time>
        <sat>8</sat>
      </trkpt>
      <trkpt lat="37.917568" lon="-119.096597">
        <ele>2090.4</ele>
        <time>2014-06-29T23:46:58Z</time>
        <sat>8</sat>
      </trkpt>
      <trkpt lat="37.917677" lon="-119.096620">
        <ele>2090.4</ele>
        <time>2014-06-29T23:47:00Z</time>
        <sat>8</sat>
      </trkpt>
      <trkpt lat="37.917782" lon="-119.096645">
        <ele>2090.4</ele>
        <time>2014-06-29T23:47:02Z</time>
        <sat>8</sat>
      </trkpt>
      <trkpt lat="37.917875" lon="-119.096668">
        <ele>2090.2</ele>
        <time>2014-06-29T23:47:04Z</time>
        <sat>8</sat>
      </trkpt>
      <trkpt lat="37.917968" lon="-119.096688">
        <ele>2090.2</ele>
        <time>2014-06-29T23:47:06Z</time>
        <sat>8</sat>
      </trkpt>
      <trkpt lat="37.918102" lon="-119.096717">
        <ele>2089.8</ele>
        <time>2014-06-29T23:47:09Z</time>
        <sat>8</sat>
      </trkpt>
      <trkpt lat="37.918282" lon="-119.096757">
        <ele>2090.0</ele>
        <time>2014-06-29T23:47:13Z</time>
        <sat>8</sat>
      </trkpt>
      <trkpt lat="37.918372" lon="-119.096775">
        <ele>2089.6</ele>
        <time>2014-06-29T23:47:15Z</time>
        <sat>8</sat>
      </trkpt>
      <trkpt lat="37.918465" lon="-119.096792">
        <ele>2089.7</ele>
        <time>2014-06-29T23:47:17Z</time>
        <sat>8</sat>
      </trkpt>
      <trkpt lat="37.918562" lon="-119.096808">
        <ele>2089.5</ele>
        <time>2014-06-29T23:47:19Z</time>
        <sat>8</sat>
      </trkpt>
      <trkpt lat="37.918662" lon="-119.096830">
        <ele>2089.2</ele>
        <time>2014-06-29T23:47:21Z</time>
        <sat>8</sat>
      </trkpt>
      <trkpt lat="37.918763" lon="-119.096853">
        <ele>2089.2</ele>
        <time>2014-06-29T23:47:23Z</time>
        <sat>8</sat>
      </trkpt>
      <trkpt lat="37.918867" lon="-119.096875">
        <ele>2089.1</ele>
        <time>2014-06-29T23:47:25Z</time>
        <sat>8</sat>
      </trkpt>
      <trkpt lat="37.918973" lon="-119.096897">
        <ele>2089.0</ele>
        <time>2014-06-29T23:47:27Z</time>
        <sat>8</sat>
      </trkpt>
      <trkpt lat="37.919082" lon="-119.096917">
        <ele>2088.9</ele>
        <time>2014-06-29T23:47:29Z</time>
        <sat>8</sat>
      </trkpt>
      <trkpt lat="37.919192" lon="-119.096938">
        <ele>2088.7</ele>
        <time>2014-06-29T23:47:31Z</time>
        <sat>8</sat>
      </trkpt>
      <trkpt lat="37.919302" lon="-119.096960">
        <ele>2088.7</ele>
        <time>2014-06-29T23:47:33Z</time>
        <sat>8</sat>
      </trkpt>
      <trkpt lat="37.919418" lon="-119.096985">
        <ele>2088.4</ele>
        <time>2014-06-29T23:47:35Z</time>
        <sat>8</sat>
      </trkpt>
      <trkpt lat="37.919535" lon="-119.097008">
        <ele>2088.2</ele>
        <time>2014-06-29T23:47:37Z</time>
        <sat>8</sat>
      </trkpt>
      <trkpt lat="37.919653" lon="-119.097030">
        <ele>2088.0</ele>
        <time>2014-06-29T23:47:39Z</time>
        <sat>8</sat>
      </trkpt>
      <trkpt lat="37.919775" lon="-119.097055">
        <ele>2087.7</ele>
        <time>2014-06-29T23:47:41Z</time>
        <sat>8</sat>
      </trkpt>
      <trkpt lat="37.919897" lon="-119.097078">
        <ele>2087.4</ele>
        <time>2014-06-29T23:47:43Z</time>
        <sat>8</sat>
      </trkpt>
      <trkpt lat="37.920015" lon="-119.097103">
        <ele>2087.3</ele>
        <time>2014-06-29T23:47:45Z</time>
        <sat>8</sat>
      </trkpt>
      <trkpt lat="37.920133" lon="-119.097127">
        <ele>2087.0</ele>
        <time>2014-06-29T23:47:47Z</time>
        <sat>8</sat>
      </trkpt>
      <trkpt lat="37.920250" lon="-119.097152">
        <ele>2086.9</ele>
        <time>2014-06-29T23:47:49Z</time>
        <sat>8</sat>
      </trkpt>
      <trkpt lat="37.920368" lon="-119.097173">
        <ele>2086.6</ele>
        <time>2014-06-29T23:47:51Z</time>
        <sat>8</sat>
      </trkpt>
      <trkpt lat="37.920485" lon="-119.097198">
        <ele>2086.6</ele>
        <time>2014-06-29T23:47:53Z</time>
        <sat>8</sat>
      </trkpt>
      <trkpt lat="37.920607" lon="-119.097222">
        <ele>2086.4</ele>
        <time>2014-06-29T23:47:55Z</time>
        <sat>8</sat>
      </trkpt>
      <trkpt lat="37.920730" lon="-119.097245">
        <ele>2086.0</ele>
        <time>2014-06-29T23:47:57Z</time>
        <sat>8</sat>
      </trkpt>
      <trkpt lat="37.920855" lon="-119.097267">
        <ele>2085.4</ele>
        <time>2014-06-29T23:47:59Z</time>
        <sat>8</sat>
      </trkpt>
      <trkpt lat="37.920980" lon="-119.097292">
        <ele>2085.2</ele>
        <time>2014-06-29T23:48:01Z</time>
        <sat>8</sat>
      </trkpt>
      <trkpt lat="37.921110" lon="-119.097318">
        <ele>2085.0</ele>
        <time>2014-06-29T23:48:03Z</time>
        <sat>8</sat>
      </trkpt>
      <trkpt lat="37.921242" lon="-119.097345">
        <ele>2084.8</ele>
        <time>2014-06-29T23:48:05Z</time>
        <sat>8</sat>
      </trkpt>
      <trkpt lat="37.921375" lon="-119.097370">
        <ele>2084.5</ele>
        <time>2014-06-29T23:48:07Z</time>
        <sat>8</sat>
      </trkpt>
      <trkpt lat="37.921510" lon="-119.097397">
        <ele>2084.2</ele>
        <time>2014-06-29T23:48:09Z</time>
        <sat>8</sat>
      </trkpt>
      <trkpt lat="37.921652" lon="-119.097422">
        <ele>2084.0</ele>
        <time>2014-06-29T23:48:11Z</time>
        <sat>8</sat>
      </trkpt>
      <trkpt lat="37.921950" lon="-119.097478">
        <ele>2083.5</ele>
        <time>2014-06-29T23:48:15Z</time>
        <sat>8</sat>
      </trkpt>
      <trkpt lat="37.922098" lon="-119.097505">
        <ele>2083.0</ele>
        <time>2014-06-29T23:48:17Z</time>
        <sat>8</sat>
      </trkpt>
      <trkpt lat="37.922245" lon="-119.097533">
        <ele>2083.0</ele>
        <time>2014-06-29T23:48:19Z</time>
        <sat>8</sat>
      </trkpt>
      <trkpt lat="37.922390" lon="-119.097563">
        <ele>2082.5</ele>
        <time>2014-06-29T23:48:21Z</time>
        <sat>8</sat>
      </trkpt>
      <trkpt lat="37.922537" lon="-119.097592">
        <ele>2082.1</ele>
        <time>2014-06-29T23:48:23Z</time>
        <sat>8</sat>
      </trkpt>
      <trkpt lat="37.922683" lon="-119.097620">
        <ele>2081.9</ele>
        <time>2014-06-29T23:48:25Z</time>
        <sat>8</sat>
      </trkpt>
      <trkpt lat="37.922828" lon="-119.097648">
        <ele>2081.6</ele>
        <time>2014-06-29T23:48:27Z</time>
        <sat>8</sat>
      </trkpt>
      <trkpt lat="37.922973" lon="-119.097677">
        <ele>2081.2</ele>
        <time>2014-06-29T23:48:29Z</time>
        <sat>8</sat>
      </trkpt>
      <trkpt lat="37.923117" lon="-119.097708">
        <ele>2081.2</ele>
        <time>2014-06-29T23:48:31Z</time>
        <sat>8</sat>
      </trkpt>
      <trkpt lat="37.923262" lon="-119.097738">
        <ele>2080.7</ele>
        <time>2014-06-29T23:48:33Z</time>
        <sat>8</sat>
      </trkpt>
      <trkpt lat="37.923403" lon="-119.097767">
        <ele>2080.5</ele>
        <time>2014-06-29T23:48:35Z</time>
        <sat>8</sat>
      </trkpt>
      <trkpt lat="37.923542" lon="-119.097793">
        <ele>2080.3</ele>
        <time>2014-06-29T23:48:37Z</time>
        <sat>8</sat>
      </trkpt>
      <trkpt lat="37.923680" lon="-119.097825">
        <ele>2080.0</ele>
        <time>2014-06-29T23:48:39Z</time>
        <sat>8</sat>
      </trkpt>
      <trkpt lat="37.923817" lon="-119.097853">
        <ele>2080.1</ele>
        <time>2014-06-29T23:48:41Z</time>
        <sat>8</sat>
      </trkpt>
      <trkpt lat="37.923955" lon="-119.097883">
        <ele>2079.9</ele>
        <time>2014-06-29T23:48:43Z</time>
        <sat>8</sat>
      </trkpt>
      <trkpt lat="37.924095" lon="-119.097910">
        <ele>2079.6</ele>
        <time>2014-06-29T23:48:45Z</time>
        <sat>8</sat>
      </trkpt>
      <trkpt lat="37.924233" lon="-119.097938">
        <ele>2079.6</ele>
        <time>2014-06-29T23:48:47Z</time>
        <sat>8</sat>
      </trkpt>
      <trkpt lat="37.924373" lon="-119.097965">
        <ele>2079.5</ele>
        <time>2014-06-29T23:48:49Z</time>
        <sat>8</sat>
      </trkpt>
      <trkpt lat="37.924515" lon="-119.097997">
        <ele>2079.6</ele>
        <time>2014-06-29T23:48:51Z</time>
        <sat>8</sat>
      </trkpt>
      <trkpt lat="37.924652" lon="-119.098025">
        <ele>2079.3</ele>
        <time>2014-06-29T23:48:53Z</time>
        <sat>8</sat>
      </trkpt>
      <trkpt lat="37.924785" lon="-119.098048">
        <ele>2079.3</ele>
        <time>2014-06-29T23:48:55Z</time>
        <sat>8</sat>
      </trkpt>
      <trkpt lat="37.924917" lon="-119.098070">
        <ele>2079.3</ele>
        <time>2014-06-29T23:48:57Z</time>
        <sat>8</sat>
      </trkpt>
      <trkpt lat="37.925047" lon="-119.098100">
        <ele>2079.4</ele>
        <time>2014-06-29T23:48:59Z</time>
        <sat>8</sat>
      </trkpt>
      <trkpt lat="37.925178" lon="-119.098123">
        <ele>2079.4</ele>
        <time>2014-06-29T23:49:01Z</time>
        <sat>8</sat>
      </trkpt>
      <trkpt lat="37.925307" lon="-119.098147">
        <ele>2079.4</ele>
        <time>2014-06-29T23:49:03Z</time>
        <sat>8</sat>
      </trkpt>
      <trkpt lat="37.925433" lon="-119.098170">
        <ele>2079.3</ele>
        <time>2014-06-29T23:49:05Z</time>
        <sat>8</sat>
      </trkpt>
      <trkpt lat="37.925560" lon="-119.098197">
        <ele>2079.2</ele>
        <time>2014-06-29T23:49:07Z</time>
        <sat>8</sat>
      </trkpt>
      <trkpt lat="37.925690" lon="-119.098220">
        <ele>2079.1</ele>
        <time>2014-06-29T23:49:09Z</time>
        <sat>8</sat>
      </trkpt>
      <trkpt lat="37.925820" lon="-119.098245">
        <ele>2079.2</ele>
        <time>2014-06-29T23:49:11Z</time>
        <sat>8</sat>
      </trkpt>
      <trkpt lat="37.925948" lon="-119.098270">
        <ele>2078.8</ele>
        <time>2014-06-29T23:49:13Z</time>
        <sat>8</sat>
      </trkpt>
      <trkpt lat="37.926198" lon="-119.098317">
        <ele>2078.7</ele>
        <time>2014-06-29T23:49:17Z</time>
        <sat>8</sat>
      </trkpt>
      <trkpt lat="37.926315" lon="-119.098342">
        <ele>2078.6</ele>
        <time>2014-06-29T23:49:19Z</time>
        <sat>8</sat>
      </trkpt>
      <trkpt lat="37.926430" lon="-119.098365">
        <ele>2078.6</ele>
        <time>2014-06-29T23:49:21Z</time>
        <sat>8</sat>
      </trkpt>
      <trkpt lat="37.926545" lon="-119.098387">
        <ele>2078.6</ele>
        <time>2014-06-29T23:49:23Z</time>
        <sat>8</sat>
      </trkpt>
      <trkpt lat="37.926660" lon="-119.098410">
        <ele>2078.6</ele>
        <time>2014-06-29T23:49:25Z</time>
        <sat>8</sat>
      </trkpt>
      <trkpt lat="37.926775" lon="-119.098433">
        <ele>2078.6</ele>
        <time>2014-06-29T23:49:27Z</time>
        <sat>8</sat>
      </trkpt>
      <trkpt lat="37.926890" lon="-119.098457">
        <ele>2078.5</ele>
        <time>2014-06-29T23:49:29Z</time>
        <sat>8</sat>
      </trkpt>
      <trkpt lat="37.927007" lon="-119.098482">
        <ele>2078.4</ele>
        <time>2014-06-29T23:49:31Z</time>
        <sat>8</sat>
      </trkpt>
      <trkpt lat="37.927125" lon="-119.098503">
        <ele>2078.5</ele>
        <time>2014-06-29T23:49:33Z</time>
        <sat>8</sat>
      </trkpt>
      <trkpt lat="37.927245" lon="-119.098528">
        <ele>2078.6</ele>
        <time>2014-06-29T23:49:35Z</time>
        <sat>8</sat>
      </trkpt>
      <trkpt lat="37.927365" lon="-119.098550">
        <ele>2078.8</ele>
        <time>2014-06-29T23:49:37Z</time>
        <sat>8</sat>
      </trkpt>
      <trkpt lat="37.927487" lon="-119.098573">
        <ele>2078.4</ele>
        <time>2014-06-29T23:49:39Z</time>
        <sat>8</sat>
      </trkpt>
      <trkpt lat="37.927600" lon="-119.098597">
        <ele>2078.4</ele>
        <time>2014-06-29T23:49:41Z</time>
        <sat>8</sat>
      </trkpt>
      <trkpt lat="37.927715" lon="-119.098620">
        <ele>2078.3</ele>
        <time>2014-06-29T23:49:43Z</time>
        <sat>8</sat>
      </trkpt>
      <trkpt lat="37.927830" lon="-119.098645">
        <ele>2077.9</ele>
        <time>2014-06-29T23:49:45Z</time>
        <sat>8</sat>
      </trkpt>
      <trkpt lat="37.927945" lon="-119.098668">
        <ele>2077.8</ele>
        <time>2014-06-29T23:49:47Z</time>
        <sat>8</sat>
      </trkpt>
      <trkpt lat="37.928062" lon="-119.098690">
        <ele>2077.8</ele>
        <time>2014-06-29T23:49:49Z</time>
        <sat>8</sat>
      </trkpt>
      <trkpt lat="37.928178" lon="-119.098713">
        <ele>2077.9</ele>
        <time>2014-06-29T23:49:51Z</time>
        <sat>8</sat>
      </trkpt>
      <trkpt lat="37.928290" lon="-119.098737">
        <ele>2077.9</ele>
        <time>2014-06-29T23:49:53Z</time>
        <sat>8</sat>
      </trkpt>
      <trkpt lat="37.928400" lon="-119.098758">
        <ele>2077.7</ele>
        <time>2014-06-29T23:49:55Z</time>
        <sat>8</sat>
      </trkpt>
      <trkpt lat="37.928508" lon="-119.098778">
        <ele>2077.9</ele>
        <time>2014-06-29T23:49:57Z</time>
        <sat>8</sat>
      </trkpt>
      <trkpt lat="37.928618" lon="-119.098802">
        <ele>2078.0</ele>
        <time>2014-06-29T23:49:59Z</time>
        <sat>8</sat>
      </trkpt>
      <trkpt lat="37.928732" lon="-119.098825">
        <ele>2077.8</ele>
        <time>2014-06-29T23:50:01Z</time>
        <sat>8</sat>
      </trkpt>
      <trkpt lat="37.928847" lon="-119.098848">
        <ele>2077.6</ele>
        <time>2014-06-29T23:50:03Z</time>
        <sat>8</sat>
      </trkpt>
      <trkpt lat="37.928960" lon="-119.098870">
        <ele>2077.4</ele>
        <time>2014-06-29T23:50:05Z</time>
        <sat>8</sat>
      </trkpt>
      <trkpt lat="37.929072" lon="-119.098890">
        <ele>2077.2</ele>
        <time>2014-06-29T23:50:07Z</time>
        <sat>8</sat>
      </trkpt>
      <trkpt lat="37.929183" lon="-119.098910">
        <ele>2076.8</ele>
        <time>2014-06-29T23:50:09Z</time>
        <sat>8</sat>
      </trkpt>
      <trkpt lat="37.929293" lon="-119.098932">
        <ele>2076.8</ele>
        <time>2014-06-29T23:50:11Z</time>
        <sat>8</sat>
      </trkpt>
      <trkpt lat="37.929402" lon="-119.098953">
        <ele>2076.8</ele>
        <time>2014-06-29T23:50:13Z</time>
        <sat>8</sat>
      </trkpt>
      <trkpt lat="37.929507" lon="-119.098978">
        <ele>2076.8</ele>
        <time>2014-06-29T23:50:15Z</time>
        <sat>8</sat>
      </trkpt>
      <trkpt lat="37.929722" lon="-119.099018">
        <ele>2076.6</ele>
        <time>2014-06-29T23:50:19Z</time>
        <sat>8</sat>
      </trkpt>
      <trkpt lat="37.929830" lon="-119.099040">
        <ele>2076.3</ele>
        <time>2014-06-29T23:50:21Z</time>
        <sat>8</sat>
      </trkpt>
      <trkpt lat="37.929938" lon="-119.099060">
        <ele>2076.4</ele>
        <time>2014-06-29T23:50:23Z</time>
        <sat>8</sat>
      </trkpt>
      <trkpt lat="37.930050" lon="-119.099080">
        <ele>2076.5</ele>
        <time>2014-06-29T23:50:25Z</time>
        <sat>8</sat>
      </trkpt>
      <trkpt lat="37.930162" lon="-119.099103">
        <ele>2076.5</ele>
        <time>2014-06-29T23:50:27Z</time>
        <sat>8</sat>
      </trkpt>
      <trkpt lat="37.930272" lon="-119.099127">
        <ele>2076.4</ele>
        <time>2014-06-29T23:50:29Z</time>
        <sat>8</sat>
      </trkpt>
      <trkpt lat="37.930382" lon="-119.099148">
        <ele>2076.3</ele>
        <time>2014-06-29T23:50:31Z</time>
        <sat>8</sat>
      </trkpt>
      <trkpt lat="37.930490" lon="-119.099170">
        <ele>2076.0</ele>
        <time>2014-06-29T23:50:33Z</time>
        <sat>8</sat>
      </trkpt>
      <trkpt lat="37.930597" lon="-119.099190">
        <ele>2076.1</ele>
        <time>2014-06-29T23:50:35Z</time>
        <sat>8</sat>
      </trkpt>
      <trkpt lat="37.930703" lon="-119.099212">
        <ele>2075.8</ele>
        <time>2014-06-29T23:50:37Z</time>
        <sat>8</sat>
      </trkpt>
      <trkpt lat="37.930810" lon="-119.099233">
        <ele>2075.6</ele>
        <time>2014-06-29T23:50:39Z</time>
        <sat>8</sat>
      </trkpt>
      <trkpt lat="37.930912" lon="-119.099253">
        <ele>2075.8</ele>
        <time>2014-06-29T23:50:41Z</time>
        <sat>8</sat>
      </trkpt>
      <trkpt lat="37.931013" lon="-119.099275">
        <ele>2075.7</ele>
        <time>2014-06-29T23:50:43Z</time>
        <sat>8</sat>
      </trkpt>
      <trkpt lat="37.931117" lon="-119.099296">
        <ele>2075.5</ele>
        <time>2014-06-29T23:50:45Z</time>
        <sat>8</sat>
      </trkpt>
      <trkpt lat="37.931223" lon="-119.099315">
        <ele>2075.5</ele>
        <time>2014-06-29T23:50:47Z</time>
        <sat>8</sat>
      </trkpt>
      <trkpt lat="37.931332" lon="-119.099335">
        <ele>2075.6</ele>
        <time>2014-06-29T23:50:49Z</time>
        <sat>8</sat>
      </trkpt>
      <trkpt lat="37.931445" lon="-119.099358">
        <ele>2075.5</ele>
        <time>2014-06-29T23:50:51Z</time>
        <sat>8</sat>
      </trkpt>
      <trkpt lat="37.931562" lon="-119.099382">
        <ele>2075.6</ele>
        <time>2014-06-29T23:50:53Z</time>
        <sat>8</sat>
      </trkpt>
      <trkpt lat="37.931682" lon="-119.099407">
        <ele>2075.5</ele>
        <time>2014-06-29T23:50:55Z</time>
        <sat>8</sat>
      </trkpt>
      <trkpt lat="37.931800" lon="-119.099433">
        <ele>2075.5</ele>
        <time>2014-06-29T23:50:57Z</time>
        <sat>8</sat>
      </trkpt>
      <trkpt lat="37.931918" lon="-119.099460">
        <ele>2075.8</ele>
        <time>2014-06-29T23:50:59Z</time>
        <sat>8</sat>
      </trkpt>
      <trkpt lat="37.932037" lon="-119.099482">
        <ele>2075.7</ele>
        <time>2014-06-29T23:51:01Z</time>
        <sat>8</sat>
      </trkpt>
      <trkpt lat="37.932155" lon="-119.099505">
        <ele>2075.7</ele>
        <time>2014-06-29T23:51:03Z</time>
        <sat>8</sat>
      </trkpt>
      <trkpt lat="37.932273" lon="-119.099530">
        <ele>2075.7</ele>
        <time>2014-06-29T23:51:05Z</time>
        <sat>8</sat>
      </trkpt>
      <trkpt lat="37.932388" lon="-119.099553">
        <ele>2075.5</ele>
        <time>2014-06-29T23:51:07Z</time>
        <sat>8</sat>
      </trkpt>
      <trkpt lat="37.932505" lon="-119.099573">
        <ele>2075.3</ele>
        <time>2014-06-29T23:51:09Z</time>
        <sat>8</sat>
      </trkpt>
      <trkpt lat="37.932620" lon="-119.099595">
        <ele>2075.5</ele>
        <time>2014-06-29T23:51:11Z</time>
        <sat>8</sat>
      </trkpt>
      <trkpt lat="37.932735" lon="-119.099618">
        <ele>2075.4</ele>
        <time>2014-06-29T23:51:13Z</time>
        <sat>8</sat>
      </trkpt>
      <trkpt lat="37.932850" lon="-119.099640">
        <ele>2075.5</ele>
        <time>2014-06-29T23:51:15Z</time>
        <sat>8</sat>
      </trkpt>
      <trkpt lat="37.932962" lon="-119.099663">
        <ele>2075.5</ele>
        <time>2014-06-29T23:51:17Z</time>
        <sat>8</sat>
      </trkpt>
      <trkpt lat="37.933187" lon="-119.099710">
        <ele>2075.3</ele>
        <time>2014-06-29T23:51:21Z</time>
        <sat>8</sat>
      </trkpt>
      <trkpt lat="37.933302" lon="-119.099732">
        <ele>2075.3</ele>
        <time>2014-06-29T23:51:23Z</time>
        <sat>8</sat>
      </trkpt>
      <trkpt lat="37.933415" lon="-119.099752">
        <ele>2075.2</ele>
        <time>2014-06-29T23:51:25Z</time>
        <sat>8</sat>
      </trkpt>
      <trkpt lat="37.933527" lon="-119.099773">
        <ele>2075.1</ele>
        <time>2014-06-29T23:51:27Z</time>
        <sat>8</sat>
      </trkpt>
      <trkpt lat="37.933637" lon="-119.099800">
        <ele>2074.9</ele>
        <time>2014-06-29T23:51:29Z</time>
        <sat>8</sat>
      </trkpt>
      <trkpt lat="37.933747" lon="-119.099822">
        <ele>2074.6</ele>
        <time>2014-06-29T23:51:31Z</time>
        <sat>8</sat>
      </trkpt>
      <trkpt lat="37.933857" lon="-119.099842">
        <ele>2074.7</ele>
        <time>2014-06-29T23:51:33Z</time>
        <sat>8</sat>
      </trkpt>
      <trkpt lat="37.933965" lon="-119.099865">
        <ele>2074.8</ele>
        <time>2014-06-29T23:51:35Z</time>
        <sat>8</sat>
      </trkpt>
      <trkpt lat="37.934075" lon="-119.099883">
        <ele>2074.8</ele>
        <time>2014-06-29T23:51:37Z</time>
        <sat>8</sat>
      </trkpt>
      <trkpt lat="37.934187" lon="-119.099903">
        <ele>2075.0</ele>
        <time>2014-06-29T23:51:39Z</time>
        <sat>8</sat>
      </trkpt>
      <trkpt lat="37.934297" lon="-119.099930">
        <ele>2074.9</ele>
        <time>2014-06-29T23:51:41Z</time>
        <sat>8</sat>
      </trkpt>
      <trkpt lat="37.934402" lon="-119.099955">
        <ele>2075.0</ele>
        <time>2014-06-29T23:51:43Z</time>
        <sat>8</sat>
      </trkpt>
      <trkpt lat="37.934510" lon="-119.099978">
        <ele>2074.9</ele>
        <time>2014-06-29T23:51:45Z</time>
        <sat>8</sat>
      </trkpt>
      <trkpt lat="37.934622" lon="-119.099998">
        <ele>2074.9</ele>
        <time>2014-06-29T23:51:47Z</time>
        <sat>8</sat>
      </trkpt>
      <trkpt lat="37.934735" lon="-119.100020">
        <ele>2074.7</ele>
        <time>2014-06-29T23:51:49Z</time>
        <sat>8</sat>
      </trkpt>
      <trkpt lat="37.934850" lon="-119.100042">
        <ele>2074.5</ele>
        <time>2014-06-29T23:51:51Z</time>
        <sat>8</sat>
      </trkpt>
      <trkpt lat="37.934967" lon="-119.100062">
        <ele>2074.6</ele>
        <time>2014-06-29T23:51:53Z</time>
        <sat>8</sat>
      </trkpt>
      <trkpt lat="37.935083" lon="-119.100085">
        <ele>2074.8</ele>
        <time>2014-06-29T23:51:55Z</time>
        <sat>8</sat>
      </trkpt>
      <trkpt lat="37.935190" lon="-119.100107">
        <ele>2075.0</ele>
        <time>2014-06-29T23:51:57Z</time>
        <sat>8</sat>
      </trkpt>
      <trkpt lat="37.935298" lon="-119.100125">
        <ele>2075.0</ele>
        <time>2014-06-29T23:51:59Z</time>
        <sat>8</sat>
      </trkpt>
      <trkpt lat="37.935408" lon="-119.100147">
        <ele>2075.1</ele>
        <time>2014-06-29T23:52:01Z</time>
        <sat>8</sat>
      </trkpt>
      <trkpt lat="37.935520" lon="-119.100168">
        <ele>2075.2</ele>
        <time>2014-06-29T23:52:03Z</time>
        <sat>8</sat>
      </trkpt>
      <trkpt lat="37.935633" lon="-119.100190">
        <ele>2075.2</ele>
        <time>2014-06-29T23:52:05Z</time>
        <sat>8</sat>
      </trkpt>
      <trkpt lat="37.935748" lon="-119.100213">
        <ele>2075.1</ele>
        <time>2014-06-29T23:52:07Z</time>
        <sat>8</sat>
      </trkpt>
      <trkpt lat="37.935863" lon="-119.100235">
        <ele>2075.6</ele>
        <time>2014-06-29T23:52:09Z</time>
        <sat>8</sat>
      </trkpt>
      <trkpt lat="37.935982" lon="-119.100262">
        <ele>2075.4</ele>
        <time>2014-06-29T23:52:11Z</time>
        <sat>8</sat>
      </trkpt>
      <trkpt lat="37.936100" lon="-119.100288">
        <ele>2075.5</ele>
        <time>2014-06-29T23:52:13Z</time>
        <sat>8</sat>
      </trkpt>
      <trkpt lat="37.936218" lon="-119.100313">
        <ele>2075.7</ele>
        <time>2014-06-29T23:52:15Z</time>
        <sat>8</sat>
      </trkpt>
      <trkpt lat="37.936338" lon="-119.100340">
        <ele>2075.8</ele>
        <time>2014-06-29T23:52:17Z</time>
        <sat>8</sat>
      </trkpt>
      <trkpt lat="37.936457" lon="-119.100360">
        <ele>2076.0</ele>
        <time>2014-06-29T23:52:19Z</time>
        <sat>8</sat>
      </trkpt>
      <trkpt lat="37.936688" lon="-119.100405">
        <ele>2076.1</ele>
        <time>2014-06-29T23:52:23Z</time>
        <sat>8</sat>
      </trkpt>
      <trkpt lat="37.936805" lon="-119.100425">
        <ele>2076.1</ele>
        <time>2014-06-29T23:52:25Z</time>
        <sat>8</sat>
      </trkpt>
      <trkpt lat="37.936922" lon="-119.100447">
        <ele>2076.3</ele>
        <time>2014-06-29T23:52:27Z</time>
        <sat>8</sat>
      </trkpt>
      <trkpt lat="37.937038" lon="-119.100470">
        <ele>2076.1</ele>
        <time>2014-06-29T23:52:29Z</time>
        <sat>8</sat>
      </trkpt>
      <trkpt lat="37.937153" lon="-119.100493">
        <ele>2076.2</ele>
        <time>2014-06-29T23:52:31Z</time>
        <sat>8</sat>
      </trkpt>
      <trkpt lat="37.937267" lon="-119.100517">
        <ele>2076.6</ele>
        <time>2014-06-29T23:52:33Z</time>
        <sat>8</sat>
      </trkpt>
      <trkpt lat="37.937380" lon="-119.100540">
        <ele>2076.5</ele>
        <time>2014-06-29T23:52:35Z</time>
        <sat>8</sat>
      </trkpt>
      <trkpt lat="37.937493" lon="-119.100560">
        <ele>2076.2</ele>
        <time>2014-06-29T23:52:37Z</time>
        <sat>8</sat>
      </trkpt>
      <trkpt lat="37.937605" lon="-119.100583">
        <ele>2076.2</ele>
        <time>2014-06-29T23:52:39Z</time>
        <sat>8</sat>
      </trkpt>
      <trkpt lat="37.937715" lon="-119.100605">
        <ele>2076.4</ele>
        <time>2014-06-29T23:52:41Z</time>
        <sat>8</sat>
      </trkpt>
      <trkpt lat="37.937827" lon="-119.100627">
        <ele>2076.5</ele>
        <time>2014-06-29T23:52:43Z</time>
        <sat>8</sat>
      </trkpt>
      <trkpt lat="37.937935" lon="-119.100647">
        <ele>2076.5</ele>
        <time>2014-06-29T23:52:45Z</time>
        <sat>8</sat>
      </trkpt>
      <trkpt lat="37.938042" lon="-119.100667">
        <ele>2076.5</ele>
        <time>2014-06-29T23:52:47Z</time>
        <sat>8</sat>
      </trkpt>
      <trkpt lat="37.938150" lon="-119.100688">
        <ele>2076.8</ele>
        <time>2014-06-29T23:52:49Z</time>
        <sat>8</sat>
      </trkpt>
      <trkpt lat="37.938260" lon="-119.100710">
        <ele>2076.7</ele>
        <time>2014-06-29T23:52:51Z</time>
        <sat>8</sat>
      </trkpt>
      <trkpt lat="37.938368" lon="-119.100733">
        <ele>2076.5</ele>
        <time>2014-06-29T23:52:53Z</time>
        <sat>8</sat>
      </trkpt>
      <trkpt lat="37.938475" lon="-119.100755">
        <ele>2076.3</ele>
        <time>2014-06-29T23:52:55Z</time>
        <sat>8</sat>
      </trkpt>
      <trkpt lat="37.938585" lon="-119.100777">
        <ele>2076.3</ele>
        <time>2014-06-29T23:52:57Z</time>
        <sat>8</sat>
      </trkpt>
      <trkpt lat="37.938692" lon="-119.100797">
        <ele>2076.2</ele>
        <time>2014-06-29T23:52:59Z</time>
        <sat>8</sat>
      </trkpt>
      <trkpt lat="37.938798" lon="-119.100818">
        <ele>2076.5</ele>
        <time>2014-06-29T23:53:01Z</time>
        <sat>8</sat>
      </trkpt>
      <trkpt lat="37.938903" lon="-119.100842">
        <ele>2076.3</ele>
        <time>2014-06-29T23:53:03Z</time>
        <sat>8</sat>
      </trkpt>
      <trkpt lat="37.939008" lon="-119.100858">
        <ele>2076.4</ele>
        <time>2014-06-29T23:53:05Z</time>
        <sat>8</sat>
      </trkpt>
      <trkpt lat="37.939112" lon="-119.100878">
        <ele>2076.7</ele>
        <time>2014-06-29T23:53:07Z</time>
        <sat>8</sat>
      </trkpt>
      <trkpt lat="37.939210" lon="-119.100898">
        <ele>2077.0</ele>
        <time>2014-06-29T23:53:09Z</time>
        <sat>8</sat>
      </trkpt>
      <trkpt lat="37.939310" lon="-119.100920">
        <ele>2077.3</ele>
        <time>2014-06-29T23:53:11Z</time>
        <sat>8</sat>
      </trkpt>
      <trkpt lat="37.939407" lon="-119.100938">
        <ele>2077.3</ele>
        <time>2014-06-29T23:53:13Z</time>
        <sat>8</sat>
      </trkpt>
      <trkpt lat="37.939507" lon="-119.100958">
        <ele>2077.4</ele>
        <time>2014-06-29T23:53:15Z</time>
        <sat>8</sat>
      </trkpt>
      <trkpt lat="37.939605" lon="-119.100977">
        <ele>2077.5</ele>
        <time>2014-06-29T23:53:17Z</time>
        <sat>8</sat>
      </trkpt>
      <trkpt lat="37.939702" lon="-119.100997">
        <ele>2077.8</ele>
        <time>2014-06-29T23:53:19Z</time>
        <sat>8</sat>
      </trkpt>
      <trkpt lat="37.939798" lon="-119.101018">
        <ele>2078.1</ele>
        <time>2014-06-29T23:53:21Z</time>
        <sat>8</sat>
      </trkpt>
      <trkpt lat="37.939995" lon="-119.101068">
        <ele>2077.7</ele>
        <time>2014-06-29T23:53:25Z</time>
        <sat>8</sat>
      </trkpt>
      <trkpt lat="37.940098" lon="-119.101095">
        <ele>2077.5</ele>
        <time>2014-06-29T23:53:27Z</time>
        <sat>8</sat>
      </trkpt>
      <trkpt lat="37.940200" lon="-119.101122">
        <ele>2077.6</ele>
        <time>2014-06-29T23:53:29Z</time>
        <sat>8</sat>
      </trkpt>
      <trkpt lat="37.940300" lon="-119.101150">
        <ele>2077.4</ele>
        <time>2014-06-29T23:53:31Z</time>
        <sat>8</sat>
      </trkpt>
      <trkpt lat="37.940402" lon="-119.101180">
        <ele>2077.7</ele>
        <time>2014-06-29T23:53:33Z</time>
        <sat>8</sat>
      </trkpt>
      <trkpt lat="37.940503" lon="-119.101213">
        <ele>2077.7</ele>
        <time>2014-06-29T23:53:35Z</time>
        <sat>8</sat>
      </trkpt>
      <trkpt lat="37.940608" lon="-119.101245">
        <ele>2078.0</ele>
        <time>2014-06-29T23:53:37Z</time>
        <sat>8</sat>
      </trkpt>
      <trkpt lat="37.940713" lon="-119.101280">
        <ele>2077.9</ele>
        <time>2014-06-29T23:53:39Z</time>
        <sat>8</sat>
      </trkpt>
      <trkpt lat="37.940818" lon="-119.101317">
        <ele>2078.0</ele>
        <time>2014-06-29T23:53:41Z</time>
        <sat>8</sat>
      </trkpt>
      <trkpt lat="37.940927" lon="-119.101358">
        <ele>2078.1</ele>
        <time>2014-06-29T23:53:43Z</time>
        <sat>8</sat>
      </trkpt>
      <trkpt lat="37.941032" lon="-119.101397">
        <ele>2078.3</ele>
        <time>2014-06-29T23:53:45Z</time>
        <sat>8</sat>
      </trkpt>
      <trkpt lat="37.941132" lon="-119.101438">
        <ele>2078.5</ele>
        <time>2014-06-29T23:53:47Z</time>
        <sat>8</sat>
      </trkpt>
      <trkpt lat="37.941233" lon="-119.101478">
        <ele>2078.5</ele>
        <time>2014-06-29T23:53:49Z</time>
        <sat>8</sat>
      </trkpt>
      <trkpt lat="37.941338" lon="-119.101520">
        <ele>2078.3</ele>
        <time>2014-06-29T23:53:51Z</time>
        <sat>8</sat>
      </trkpt>
      <trkpt lat="37.941442" lon="-119.101562">
        <ele>2078.6</ele>
        <time>2014-06-29T23:53:53Z</time>
        <sat>8</sat>
      </trkpt>
      <trkpt lat="37.941542" lon="-119.101605">
        <ele>2078.6</ele>
        <time>2014-06-29T23:53:55Z</time>
        <sat>8</sat>
      </trkpt>
      <trkpt lat="37.941642" lon="-119.101648">
        <ele>2078.5</ele>
        <time>2014-06-29T23:53:57Z</time>
        <sat>8</sat>
      </trkpt>
      <trkpt lat="37.941742" lon="-119.101695">
        <ele>2078.6</ele>
        <time>2014-06-29T23:53:59Z</time>
        <sat>8</sat>
      </trkpt>
      <trkpt lat="37.941843" lon="-119.101740">
        <ele>2078.9</ele>
        <time>2014-06-29T23:54:01Z</time>
        <sat>8</sat>
      </trkpt>
      <trkpt lat="37.941945" lon="-119.101785">
        <ele>2079.1</ele>
        <time>2014-06-29T23:54:03Z</time>
        <sat>8</sat>
      </trkpt>
      <trkpt lat="37.942053" lon="-119.101835">
        <ele>2079.1</ele>
        <time>2014-06-29T23:54:05Z</time>
        <sat>8</sat>
      </trkpt>
      <trkpt lat="37.942160" lon="-119.101888">
        <ele>2078.8</ele>
        <time>2014-06-29T23:54:07Z</time>
        <sat>8</sat>
      </trkpt>
      <trkpt lat="37.942267" lon="-119.101940">
        <ele>2078.8</ele>
        <time>2014-06-29T23:54:09Z</time>
        <sat>8</sat>
      </trkpt>
      <trkpt lat="37.942375" lon="-119.101998">
        <ele>2079.0</ele>
        <time>2014-06-29T23:54:11Z</time>
        <sat>8</sat>
      </trkpt>
      <trkpt lat="37.942480" lon="-119.102055">
        <ele>2079.1</ele>
        <time>2014-06-29T23:54:13Z</time>
        <sat>8</sat>
      </trkpt>
      <trkpt lat="37.942587" lon="-119.102112">
        <ele>2079.2</ele>
        <time>2014-06-29T23:54:15Z</time>
        <sat>8</sat>
      </trkpt>
      <trkpt lat="37.942688" lon="-119.102170">
        <ele>2079.2</ele>
        <time>2014-06-29T23:54:17Z</time>
        <sat>8</sat>
      </trkpt>
      <trkpt lat="37.942788" lon="-119.102232">
        <ele>2079.2</ele>
        <time>2014-06-29T23:54:19Z</time>
        <sat>8</sat>
      </trkpt>
      <trkpt lat="37.942887" lon="-119.102292">
        <ele>2079.0</ele>
        <time>2014-06-29T23:54:21Z</time>
        <sat>8</sat>
      </trkpt>
      <trkpt lat="37.942985" lon="-119.102353">
        <ele>2078.9</ele>
        <time>2014-06-29T23:54:23Z</time>
        <sat>8</sat>
      </trkpt>
      <trkpt lat="37.943329" lon="-119.102605">
        <ele>2068.2</ele>
        <time>2014-06-30T01:56:44Z</time>
      </trkpt>
      <trkpt lat="37.945939" lon="-119.104778">
        <ele>2072.7</ele>
        <time>2014-06-30T01:56:44Z</time>
      </trkpt>
      <trkpt lat="37.948266" lon="-119.107074">
        <ele>2078.6</ele>
        <time>2014-06-30T01:56:44Z</time>
      </trkpt>
      <trkpt lat="37.949482" lon="-119.108943">
        <ele>2083.2</ele>
        <time>2014-06-30T01:56:44Z</time>
      </trkpt>
      <trkpt lat="37.949938" lon="-119.110661">
        <ele>2083.7</ele>
        <time>2014-06-30T01:56:44Z</time>
      </trkpt>
      <trkpt lat="37.950335" lon="-119.112981">
        <ele>2081.6</ele>
        <time>2014-06-30T01:56:44Z</time>
      </trkpt>
      <trkpt lat="37.950764" lon="-119.115300">
        <ele>2080.7</ele>
        <time>2014-06-30T01:56:44Z</time>
      </trkpt>
      <trkpt lat="37.950992" lon="-119.116219">
        <ele>2075.0</ele>
        <time>2014-06-30T01:56:44Z</time>
      </trkpt>
      <trkpt lat="37.951313" lon="-119.116816">
        <ele>2071.3</ele>
        <time>2014-06-30T01:56:44Z</time>
      </trkpt>
      <trkpt lat="37.951587" lon="-119.117206">
        <ele>2071.1</ele>
        <time>2014-06-30T01:56:44Z</time>
      </trkpt>
      <trkpt lat="37.951913" lon="-119.117481">
        <ele>2070.4</ele>
        <time>2014-06-30T01:56:44Z</time>
      </trkpt>
      <trkpt lat="37.952238" lon="-119.117722">
        <ele>2074.1</ele>
        <time>2014-06-30T01:56:44Z</time>
      </trkpt>
      <trkpt lat="37.952679" lon="-119.117914">
        <ele>2074.7</ele>
        <time>2014-06-30T01:56:44Z</time>
      </trkpt>
      <trkpt lat="37.953210" lon="-119.118104">
        <ele>2072.2</ele>
        <time>2014-06-30T01:56:44Z</time>
      </trkpt>
      <trkpt lat="37.954984" lon="-119.118410">
        <ele>2069.6</ele>
        <time>2014-06-30T01:56:44Z</time>
      </trkpt>
      <trkpt lat="37.955957" lon="-119.118841">
        <ele>2063.4</ele>
        <time>2014-06-30T01:56:44Z</time>
      </trkpt>
      <trkpt lat="37.956281" lon="-119.118952">
        <ele>2064.1</ele>
        <time>2014-06-30T01:56:44Z</time>
      </trkpt>
      <trkpt lat="37.956918" lon="-119.119436">
        <ele>2067.3</ele>
        <time>2014-06-30T01:56:44Z</time>
      </trkpt>
    </trkseg>
  </trk>
</gpx>
